<?xml version="1.0" encoding="UTF-8" standalone="no" ?>
<gpx xmlns="http://www.topografix.com/GPX/1/1" xmlns:xsi="http://www.w3.org/2001/XMLSchema-instance" xsi:schemaLocation="http://www.topografix.com/GPX/1/1 http://www.topografix.com/GPX/1/1/gpx.xsd" version="1.1" creator="VisuGPX - https://www.visugpx.com">
  <metadata>
    <name>Moucherotte-Bois de Poussebout</name>
    <desc><![CDATA[Descente _très_ caillouteuse.]]></desc>
  </metadata>
  <wpt lat="45.15052" lon="5.63376">
    <ele>1736</ele>
    <name><![CDATA[Source]]></name>
    <desc><![CDATA[]]></desc>
  </wpt>
  <trk>
    <name><![CDATA[Moucherotte-poussebout]]></name>
    <desc><![CDATA[]]></desc>
    <trkseg>
      <trkpt lat="45.1162" lon="5.60913">
        <ele>1443.3</ele>
        <time>2011-08-25T05:30:38Z</time>
      </trkpt>
      <trkpt lat="45.1162" lon="5.60913">
        <ele>1443.3</ele>
        <time>2011-08-25T05:30:38Z</time>
      </trkpt>
      <trkpt lat="45.1162" lon="5.60913">
        <ele>1443.3</ele>
        <time>2011-08-25T05:31:05Z</time>
      </trkpt>
      <trkpt lat="45.11615" lon="5.60914">
        <ele>1440.2</ele>
        <time>2011-08-25T05:31:06Z</time>
      </trkpt>
      <trkpt lat="45.11616" lon="5.60921">
        <ele>1442.6</ele>
        <time>2011-08-25T05:31:17Z</time>
      </trkpt>
      <trkpt lat="45.11619" lon="5.60926">
        <ele>1443.9</ele>
        <time>2011-08-25T05:31:25Z</time>
      </trkpt>
      <trkpt lat="45.1162" lon="5.60934">
        <ele>1444.8</ele>
        <time>2011-08-25T05:31:28Z</time>
      </trkpt>
      <trkpt lat="45.11622" lon="5.60942">
        <ele>1445.5</ele>
        <time>2011-08-25T05:31:30Z</time>
      </trkpt>
      <trkpt lat="45.11623" lon="5.60949">
        <ele>1445.8</ele>
        <time>2011-08-25T05:31:32Z</time>
      </trkpt>
      <trkpt lat="45.11626" lon="5.60958">
        <ele>1446.1</ele>
        <time>2011-08-25T05:31:34Z</time>
      </trkpt>
      <trkpt lat="45.11628" lon="5.60967">
        <ele>1446.4</ele>
        <time>2011-08-25T05:31:36Z</time>
      </trkpt>
      <trkpt lat="45.11631" lon="5.60976">
        <ele>1446.6</ele>
        <time>2011-08-25T05:31:38Z</time>
      </trkpt>
      <trkpt lat="45.11635" lon="5.60986">
        <ele>1446.7</ele>
        <time>2011-08-25T05:31:40Z</time>
      </trkpt>
      <trkpt lat="45.11639" lon="5.60995">
        <ele>1446.8</ele>
        <time>2011-08-25T05:31:42Z</time>
      </trkpt>
      <trkpt lat="45.11644" lon="5.61005">
        <ele>1447.3</ele>
        <time>2011-08-25T05:31:44Z</time>
      </trkpt>
      <trkpt lat="45.11648" lon="5.61016">
        <ele>1447.1</ele>
        <time>2011-08-25T05:31:46Z</time>
      </trkpt>
      <trkpt lat="45.11651" lon="5.61025">
        <ele>1447</ele>
        <time>2011-08-25T05:31:48Z</time>
      </trkpt>
      <trkpt lat="45.11653" lon="5.61032">
        <ele>1447.2</ele>
        <time>2011-08-25T05:31:50Z</time>
      </trkpt>
      <trkpt lat="45.11647" lon="5.61027">
        <ele>1447.5</ele>
        <time>2011-08-25T05:31:55Z</time>
      </trkpt>
      <trkpt lat="45.11643" lon="5.61021">
        <ele>1447.5</ele>
        <time>2011-08-25T05:31:57Z</time>
      </trkpt>
      <trkpt lat="45.11638" lon="5.61017">
        <ele>1447.6</ele>
        <time>2011-08-25T05:31:59Z</time>
      </trkpt>
      <trkpt lat="45.11633" lon="5.61012">
        <ele>1447.6</ele>
        <time>2011-08-25T05:32:01Z</time>
      </trkpt>
      <trkpt lat="45.11628" lon="5.61007">
        <ele>1447.7</ele>
        <time>2011-08-25T05:32:03Z</time>
      </trkpt>
      <trkpt lat="45.11623" lon="5.61001">
        <ele>1448</ele>
        <time>2011-08-25T05:32:05Z</time>
      </trkpt>
      <trkpt lat="45.11619" lon="5.60995">
        <ele>1448.4</ele>
        <time>2011-08-25T05:32:07Z</time>
      </trkpt>
      <trkpt lat="45.11615" lon="5.6099">
        <ele>1448.9</ele>
        <time>2011-08-25T05:32:09Z</time>
      </trkpt>
      <trkpt lat="45.11612" lon="5.60984">
        <ele>1449.2</ele>
        <time>2011-08-25T05:32:11Z</time>
      </trkpt>
      <trkpt lat="45.11609" lon="5.60979">
        <ele>1449.7</ele>
        <time>2011-08-25T05:32:13Z</time>
      </trkpt>
      <trkpt lat="45.11604" lon="5.60974">
        <ele>1450.3</ele>
        <time>2011-08-25T05:32:16Z</time>
      </trkpt>
      <trkpt lat="45.11599" lon="5.60975">
        <ele>1450.8</ele>
        <time>2011-08-25T05:32:19Z</time>
      </trkpt>
      <trkpt lat="45.11593" lon="5.60975">
        <ele>1450.9</ele>
        <time>2011-08-25T05:32:22Z</time>
      </trkpt>
      <trkpt lat="45.11589" lon="5.60976">
        <ele>1451.1</ele>
        <time>2011-08-25T05:32:24Z</time>
      </trkpt>
      <trkpt lat="45.11584" lon="5.60979">
        <ele>1451.4</ele>
        <time>2011-08-25T05:32:26Z</time>
      </trkpt>
      <trkpt lat="45.11579" lon="5.60985">
        <ele>1451.8</ele>
        <time>2011-08-25T05:32:29Z</time>
      </trkpt>
      <trkpt lat="45.11576" lon="5.6099">
        <ele>1452</ele>
        <time>2011-08-25T05:32:32Z</time>
      </trkpt>
      <trkpt lat="45.11572" lon="5.60996">
        <ele>1453.3</ele>
        <time>2011-08-25T05:32:36Z</time>
      </trkpt>
      <trkpt lat="45.11567" lon="5.61">
        <ele>1453.8</ele>
        <time>2011-08-25T05:32:39Z</time>
      </trkpt>
      <trkpt lat="45.11562" lon="5.61003">
        <ele>1454.3</ele>
        <time>2011-08-25T05:32:42Z</time>
      </trkpt>
      <trkpt lat="45.11559" lon="5.61007">
        <ele>1454.8</ele>
        <time>2011-08-25T05:32:45Z</time>
      </trkpt>
      <trkpt lat="45.11554" lon="5.61013">
        <ele>1455.6</ele>
        <time>2011-08-25T05:32:49Z</time>
      </trkpt>
      <trkpt lat="45.11551" lon="5.61017">
        <ele>1456.2</ele>
        <time>2011-08-25T05:32:52Z</time>
      </trkpt>
      <trkpt lat="45.11552" lon="5.61024">
        <ele>1457</ele>
        <time>2011-08-25T05:32:55Z</time>
      </trkpt>
      <trkpt lat="45.11553" lon="5.61032">
        <ele>1457.8</ele>
        <time>2011-08-25T05:32:58Z</time>
      </trkpt>
      <trkpt lat="45.11555" lon="5.61039">
        <ele>1458.6</ele>
        <time>2011-08-25T05:33:01Z</time>
      </trkpt>
      <trkpt lat="45.11557" lon="5.61046">
        <ele>1459.6</ele>
        <time>2011-08-25T05:33:04Z</time>
      </trkpt>
      <trkpt lat="45.1156" lon="5.61051">
        <ele>1460.2</ele>
        <time>2011-08-25T05:33:07Z</time>
      </trkpt>
      <trkpt lat="45.11563" lon="5.61059">
        <ele>1460.6</ele>
        <time>2011-08-25T05:33:10Z</time>
      </trkpt>
      <trkpt lat="45.11566" lon="5.61067">
        <ele>1460.9</ele>
        <time>2011-08-25T05:33:13Z</time>
      </trkpt>
      <trkpt lat="45.11568" lon="5.61074">
        <ele>1461.3</ele>
        <time>2011-08-25T05:33:16Z</time>
      </trkpt>
      <trkpt lat="45.11571" lon="5.61081">
        <ele>1461.7</ele>
        <time>2011-08-25T05:33:19Z</time>
      </trkpt>
      <trkpt lat="45.11573" lon="5.61087">
        <ele>1462.1</ele>
        <time>2011-08-25T05:33:22Z</time>
      </trkpt>
      <trkpt lat="45.11575" lon="5.61094">
        <ele>1462.3</ele>
        <time>2011-08-25T05:33:25Z</time>
      </trkpt>
      <trkpt lat="45.11577" lon="5.611">
        <ele>1462.9</ele>
        <time>2011-08-25T05:33:28Z</time>
      </trkpt>
      <trkpt lat="45.1158" lon="5.61106">
        <ele>1463.2</ele>
        <time>2011-08-25T05:33:31Z</time>
      </trkpt>
      <trkpt lat="45.11582" lon="5.61112">
        <ele>1463.7</ele>
        <time>2011-08-25T05:33:34Z</time>
      </trkpt>
      <trkpt lat="45.11585" lon="5.61117">
        <ele>1464.2</ele>
        <time>2011-08-25T05:33:37Z</time>
      </trkpt>
      <trkpt lat="45.11588" lon="5.61122">
        <ele>1464.8</ele>
        <time>2011-08-25T05:33:40Z</time>
      </trkpt>
      <trkpt lat="45.11592" lon="5.61127">
        <ele>1465.3</ele>
        <time>2011-08-25T05:33:43Z</time>
      </trkpt>
      <trkpt lat="45.11596" lon="5.61132">
        <ele>1465.8</ele>
        <time>2011-08-25T05:33:46Z</time>
      </trkpt>
      <trkpt lat="45.116" lon="5.61136">
        <ele>1466.2</ele>
        <time>2011-08-25T05:33:49Z</time>
      </trkpt>
      <trkpt lat="45.11604" lon="5.61141">
        <ele>1467.3</ele>
        <time>2011-08-25T05:33:53Z</time>
      </trkpt>
      <trkpt lat="45.11607" lon="5.61147">
        <ele>1467.7</ele>
        <time>2011-08-25T05:33:59Z</time>
      </trkpt>
      <trkpt lat="45.1161" lon="5.61151">
        <ele>1469.4</ele>
        <time>2011-08-25T05:34:04Z</time>
      </trkpt>
      <trkpt lat="45.11613" lon="5.61156">
        <ele>1470.8</ele>
        <time>2011-08-25T05:34:09Z</time>
      </trkpt>
      <trkpt lat="45.11618" lon="5.61158">
        <ele>1471.3</ele>
        <time>2011-08-25T05:34:15Z</time>
      </trkpt>
      <trkpt lat="45.11623" lon="5.6116">
        <ele>1471.6</ele>
        <time>2011-08-25T05:34:18Z</time>
      </trkpt>
      <trkpt lat="45.11627" lon="5.61164">
        <ele>1471.9</ele>
        <time>2011-08-25T05:34:22Z</time>
      </trkpt>
      <trkpt lat="45.11632" lon="5.61167">
        <ele>1472.6</ele>
        <time>2011-08-25T05:34:26Z</time>
      </trkpt>
      <trkpt lat="45.11636" lon="5.61172">
        <ele>1473.7</ele>
        <time>2011-08-25T05:34:33Z</time>
      </trkpt>
      <trkpt lat="45.1164" lon="5.61177">
        <ele>1475.2</ele>
        <time>2011-08-25T05:34:39Z</time>
      </trkpt>
      <trkpt lat="45.11643" lon="5.61182">
        <ele>1476.4</ele>
        <time>2011-08-25T05:34:44Z</time>
      </trkpt>
      <trkpt lat="45.11647" lon="5.61186">
        <ele>1477</ele>
        <time>2011-08-25T05:34:49Z</time>
      </trkpt>
      <trkpt lat="45.1165" lon="5.6119">
        <ele>1477.5</ele>
        <time>2011-08-25T05:34:54Z</time>
      </trkpt>
      <trkpt lat="45.11653" lon="5.61195">
        <ele>1477.7</ele>
        <time>2011-08-25T05:34:59Z</time>
      </trkpt>
      <trkpt lat="45.11656" lon="5.61201">
        <ele>1478.3</ele>
        <time>2011-08-25T05:35:05Z</time>
      </trkpt>
      <trkpt lat="45.11658" lon="5.61208">
        <ele>1478.8</ele>
        <time>2011-08-25T05:35:11Z</time>
      </trkpt>
      <trkpt lat="45.11661" lon="5.61213">
        <ele>1479.3</ele>
        <time>2011-08-25T05:35:17Z</time>
      </trkpt>
      <trkpt lat="45.11664" lon="5.61219">
        <ele>1480.2</ele>
        <time>2011-08-25T05:35:23Z</time>
      </trkpt>
      <trkpt lat="45.11666" lon="5.61225">
        <ele>1481.9</ele>
        <time>2011-08-25T05:35:29Z</time>
      </trkpt>
      <trkpt lat="45.11668" lon="5.61231">
        <ele>1484.1</ele>
        <time>2011-08-25T05:35:42Z</time>
      </trkpt>
      <trkpt lat="45.1167" lon="5.61238">
        <ele>1485.6</ele>
        <time>2011-08-25T05:35:49Z</time>
      </trkpt>
      <trkpt lat="45.11672" lon="5.61244">
        <ele>1487.1</ele>
        <time>2011-08-25T05:35:56Z</time>
      </trkpt>
      <trkpt lat="45.11672" lon="5.61251">
        <ele>1488.2</ele>
        <time>2011-08-25T05:36:03Z</time>
      </trkpt>
      <trkpt lat="45.11673" lon="5.61258">
        <ele>1489.4</ele>
        <time>2011-08-25T05:36:10Z</time>
      </trkpt>
      <trkpt lat="45.11672" lon="5.61265">
        <ele>1491.4</ele>
        <time>2011-08-25T05:36:17Z</time>
      </trkpt>
      <trkpt lat="45.11673" lon="5.61271">
        <ele>1492.9</ele>
        <time>2011-08-25T05:36:23Z</time>
      </trkpt>
      <trkpt lat="45.11673" lon="5.61278">
        <ele>1494.4</ele>
        <time>2011-08-25T05:36:30Z</time>
      </trkpt>
      <trkpt lat="45.11672" lon="5.61285">
        <ele>1496.4</ele>
        <time>2011-08-25T05:36:37Z</time>
      </trkpt>
      <trkpt lat="45.11673" lon="5.61292">
        <ele>1498.8</ele>
        <time>2011-08-25T05:36:48Z</time>
      </trkpt>
      <trkpt lat="45.11675" lon="5.61299">
        <ele>1499.7</ele>
        <time>2011-08-25T05:36:53Z</time>
      </trkpt>
      <trkpt lat="45.11676" lon="5.61306">
        <ele>1500.2</ele>
        <time>2011-08-25T05:36:57Z</time>
      </trkpt>
      <trkpt lat="45.11678" lon="5.61313">
        <ele>1501.2</ele>
        <time>2011-08-25T05:37:02Z</time>
      </trkpt>
      <trkpt lat="45.11681" lon="5.61318">
        <ele>1501.8</ele>
        <time>2011-08-25T05:37:06Z</time>
      </trkpt>
      <trkpt lat="45.11682" lon="5.61324">
        <ele>1502.6</ele>
        <time>2011-08-25T05:37:10Z</time>
      </trkpt>
      <trkpt lat="45.11683" lon="5.61332">
        <ele>1502.8</ele>
        <time>2011-08-25T05:37:14Z</time>
      </trkpt>
      <trkpt lat="45.11684" lon="5.61338">
        <ele>1503.3</ele>
        <time>2011-08-25T05:37:17Z</time>
      </trkpt>
      <trkpt lat="45.11687" lon="5.61345">
        <ele>1503.9</ele>
        <time>2011-08-25T05:37:20Z</time>
      </trkpt>
      <trkpt lat="45.1169" lon="5.61351">
        <ele>1504.2</ele>
        <time>2011-08-25T05:37:23Z</time>
      </trkpt>
      <trkpt lat="45.11694" lon="5.61356">
        <ele>1504.4</ele>
        <time>2011-08-25T05:37:26Z</time>
      </trkpt>
      <trkpt lat="45.11698" lon="5.61361">
        <ele>1505</ele>
        <time>2011-08-25T05:37:30Z</time>
      </trkpt>
      <trkpt lat="45.11723" lon="5.61386">
        <ele>1541.4</ele>
        <time>2011-08-25T05:37:49Z</time>
      </trkpt>
      <trkpt lat="45.11727" lon="5.6139">
        <ele>1545.1</ele>
        <time>2011-08-25T05:37:53Z</time>
      </trkpt>
      <trkpt lat="45.11731" lon="5.61393">
        <ele>1544.2</ele>
        <time>2011-08-25T05:37:57Z</time>
      </trkpt>
      <trkpt lat="45.11736" lon="5.61397">
        <ele>1542.7</ele>
        <time>2011-08-25T05:38:01Z</time>
      </trkpt>
      <trkpt lat="45.1174" lon="5.61401">
        <ele>1541.9</ele>
        <time>2011-08-25T05:38:05Z</time>
      </trkpt>
      <trkpt lat="45.11744" lon="5.61405">
        <ele>1541.5</ele>
        <time>2011-08-25T05:38:09Z</time>
      </trkpt>
      <trkpt lat="45.11749" lon="5.6141">
        <ele>1540.9</ele>
        <time>2011-08-25T05:38:13Z</time>
      </trkpt>
      <trkpt lat="45.11754" lon="5.61413">
        <ele>1541</ele>
        <time>2011-08-25T05:38:16Z</time>
      </trkpt>
      <trkpt lat="45.11759" lon="5.61418">
        <ele>1541.1</ele>
        <time>2011-08-25T05:38:19Z</time>
      </trkpt>
      <trkpt lat="45.11764" lon="5.6142">
        <ele>1540.6</ele>
        <time>2011-08-25T05:38:21Z</time>
      </trkpt>
      <trkpt lat="45.1177" lon="5.61423">
        <ele>1540.6</ele>
        <time>2011-08-25T05:38:24Z</time>
      </trkpt>
      <trkpt lat="45.11775" lon="5.61428">
        <ele>1540.4</ele>
        <time>2011-08-25T05:38:27Z</time>
      </trkpt>
      <trkpt lat="45.11781" lon="5.61432">
        <ele>1540.5</ele>
        <time>2011-08-25T05:38:30Z</time>
      </trkpt>
      <trkpt lat="45.11786" lon="5.61437">
        <ele>1540.3</ele>
        <time>2011-08-25T05:38:33Z</time>
      </trkpt>
      <trkpt lat="45.1179" lon="5.61442">
        <ele>1540.1</ele>
        <time>2011-08-25T05:38:36Z</time>
      </trkpt>
      <trkpt lat="45.11795" lon="5.61447">
        <ele>1539.9</ele>
        <time>2011-08-25T05:38:39Z</time>
      </trkpt>
      <trkpt lat="45.11799" lon="5.61452">
        <ele>1539.8</ele>
        <time>2011-08-25T05:38:42Z</time>
      </trkpt>
      <trkpt lat="45.11804" lon="5.61457">
        <ele>1539.8</ele>
        <time>2011-08-25T05:38:45Z</time>
      </trkpt>
      <trkpt lat="45.11809" lon="5.61462">
        <ele>1539.8</ele>
        <time>2011-08-25T05:38:48Z</time>
      </trkpt>
      <trkpt lat="45.11813" lon="5.61468">
        <ele>1539.4</ele>
        <time>2011-08-25T05:38:51Z</time>
      </trkpt>
      <trkpt lat="45.11817" lon="5.61474">
        <ele>1539.4</ele>
        <time>2011-08-25T05:38:54Z</time>
      </trkpt>
      <trkpt lat="45.11822" lon="5.61481">
        <ele>1539.1</ele>
        <time>2011-08-25T05:38:57Z</time>
      </trkpt>
      <trkpt lat="45.11825" lon="5.61485">
        <ele>1538.9</ele>
        <time>2011-08-25T05:38:59Z</time>
      </trkpt>
      <trkpt lat="45.11828" lon="5.61491">
        <ele>1538.4</ele>
        <time>2011-08-25T05:39:01Z</time>
      </trkpt>
      <trkpt lat="45.11831" lon="5.61497">
        <ele>1538.3</ele>
        <time>2011-08-25T05:39:03Z</time>
      </trkpt>
      <trkpt lat="45.11834" lon="5.61502">
        <ele>1538.4</ele>
        <time>2011-08-25T05:39:05Z</time>
      </trkpt>
      <trkpt lat="45.11837" lon="5.61509">
        <ele>1538.4</ele>
        <time>2011-08-25T05:39:07Z</time>
      </trkpt>
      <trkpt lat="45.1184" lon="5.61515">
        <ele>1538.3</ele>
        <time>2011-08-25T05:39:09Z</time>
      </trkpt>
      <trkpt lat="45.11842" lon="5.61524">
        <ele>1538.3</ele>
        <time>2011-08-25T05:39:11Z</time>
      </trkpt>
      <trkpt lat="45.11843" lon="5.6153">
        <ele>1538</ele>
        <time>2011-08-25T05:39:13Z</time>
      </trkpt>
      <trkpt lat="45.11844" lon="5.61538">
        <ele>1538.3</ele>
        <time>2011-08-25T05:39:16Z</time>
      </trkpt>
      <trkpt lat="45.11844" lon="5.61544">
        <ele>1538.1</ele>
        <time>2011-08-25T05:39:19Z</time>
      </trkpt>
      <trkpt lat="45.11843" lon="5.61552">
        <ele>1537.8</ele>
        <time>2011-08-25T05:39:23Z</time>
      </trkpt>
      <trkpt lat="45.11843" lon="5.61558">
        <ele>1537.6</ele>
        <time>2011-08-25T05:39:30Z</time>
      </trkpt>
      <trkpt lat="45.11839" lon="5.61564">
        <ele>1537</ele>
        <time>2011-08-25T05:39:36Z</time>
      </trkpt>
      <trkpt lat="45.11838" lon="5.61572">
        <ele>1536.9</ele>
        <time>2011-08-25T05:39:40Z</time>
      </trkpt>
      <trkpt lat="45.11838" lon="5.61579">
        <ele>1536.4</ele>
        <time>2011-08-25T05:39:45Z</time>
      </trkpt>
      <trkpt lat="45.1184" lon="5.61585">
        <ele>1537.1</ele>
        <time>2011-08-25T05:39:52Z</time>
      </trkpt>
      <trkpt lat="45.11842" lon="5.61592">
        <ele>1537.9</ele>
        <time>2011-08-25T05:39:57Z</time>
      </trkpt>
      <trkpt lat="45.11842" lon="5.61599">
        <ele>1537.9</ele>
        <time>2011-08-25T05:40:00Z</time>
      </trkpt>
      <trkpt lat="45.11843" lon="5.61606">
        <ele>1538.5</ele>
        <time>2011-08-25T05:40:04Z</time>
      </trkpt>
      <trkpt lat="45.11844" lon="5.61613">
        <ele>1538.9</ele>
        <time>2011-08-25T05:40:09Z</time>
      </trkpt>
      <trkpt lat="45.11844" lon="5.6162">
        <ele>1538.9</ele>
        <time>2011-08-25T05:40:13Z</time>
      </trkpt>
      <trkpt lat="45.11847" lon="5.61628">
        <ele>1539.1</ele>
        <time>2011-08-25T05:40:17Z</time>
      </trkpt>
      <trkpt lat="45.1185" lon="5.61635">
        <ele>1538.5</ele>
        <time>2011-08-25T05:40:20Z</time>
      </trkpt>
      <trkpt lat="45.11853" lon="5.61642">
        <ele>1538.1</ele>
        <time>2011-08-25T05:40:23Z</time>
      </trkpt>
      <trkpt lat="45.11857" lon="5.61649">
        <ele>1538.2</ele>
        <time>2011-08-25T05:40:26Z</time>
      </trkpt>
      <trkpt lat="45.11861" lon="5.61657">
        <ele>1538.3</ele>
        <time>2011-08-25T05:40:29Z</time>
      </trkpt>
      <trkpt lat="45.11879" lon="5.61708">
        <ele>1552.1</ele>
        <time>2011-08-25T05:40:50Z</time>
      </trkpt>
      <trkpt lat="45.1188" lon="5.61716">
        <ele>1554.9</ele>
        <time>2011-08-25T05:40:53Z</time>
      </trkpt>
      <trkpt lat="45.11884" lon="5.61721">
        <ele>1557.8</ele>
        <time>2011-08-25T05:40:56Z</time>
      </trkpt>
      <trkpt lat="45.11887" lon="5.61726">
        <ele>1558.2</ele>
        <time>2011-08-25T05:40:59Z</time>
      </trkpt>
      <trkpt lat="45.11894" lon="5.61733">
        <ele>1562.1</ele>
        <time>2011-08-25T05:41:07Z</time>
      </trkpt>
      <trkpt lat="45.11899" lon="5.61735">
        <ele>1562.6</ele>
        <time>2011-08-25T05:41:11Z</time>
      </trkpt>
      <trkpt lat="45.11904" lon="5.61738">
        <ele>1562.8</ele>
        <time>2011-08-25T05:41:15Z</time>
      </trkpt>
      <trkpt lat="45.1191" lon="5.61741">
        <ele>1563</ele>
        <time>2011-08-25T05:41:19Z</time>
      </trkpt>
      <trkpt lat="45.11914" lon="5.61742">
        <ele>1562.9</ele>
        <time>2011-08-25T05:41:22Z</time>
      </trkpt>
      <trkpt lat="45.11919" lon="5.61743">
        <ele>1563.1</ele>
        <time>2011-08-25T05:41:25Z</time>
      </trkpt>
      <trkpt lat="45.11924" lon="5.61745">
        <ele>1564.2</ele>
        <time>2011-08-25T05:41:29Z</time>
      </trkpt>
      <trkpt lat="45.11929" lon="5.61746">
        <ele>1564.8</ele>
        <time>2011-08-25T05:41:33Z</time>
      </trkpt>
      <trkpt lat="45.11934" lon="5.61746">
        <ele>1565.1</ele>
        <time>2011-08-25T05:41:37Z</time>
      </trkpt>
      <trkpt lat="45.1194" lon="5.61746">
        <ele>1564.5</ele>
        <time>2011-08-25T05:41:40Z</time>
      </trkpt>
      <trkpt lat="45.11944" lon="5.61747">
        <ele>1564</ele>
        <time>2011-08-25T05:41:43Z</time>
      </trkpt>
      <trkpt lat="45.11949" lon="5.61748">
        <ele>1563.4</ele>
        <time>2011-08-25T05:41:47Z</time>
      </trkpt>
      <trkpt lat="45.11954" lon="5.6175">
        <ele>1562.5</ele>
        <time>2011-08-25T05:41:51Z</time>
      </trkpt>
      <trkpt lat="45.11958" lon="5.61754">
        <ele>1562.7</ele>
        <time>2011-08-25T05:41:55Z</time>
      </trkpt>
      <trkpt lat="45.11961" lon="5.6176">
        <ele>1562.9</ele>
        <time>2011-08-25T05:41:59Z</time>
      </trkpt>
      <trkpt lat="45.11963" lon="5.61767">
        <ele>1562.8</ele>
        <time>2011-08-25T05:42:04Z</time>
      </trkpt>
      <trkpt lat="45.11964" lon="5.61773">
        <ele>1563</ele>
        <time>2011-08-25T05:42:08Z</time>
      </trkpt>
      <trkpt lat="45.11965" lon="5.6178">
        <ele>1563.4</ele>
        <time>2011-08-25T05:42:11Z</time>
      </trkpt>
      <trkpt lat="45.11966" lon="5.61786">
        <ele>1563.9</ele>
        <time>2011-08-25T05:42:14Z</time>
      </trkpt>
      <trkpt lat="45.11968" lon="5.61792">
        <ele>1564.2</ele>
        <time>2011-08-25T05:42:17Z</time>
      </trkpt>
      <trkpt lat="45.11972" lon="5.61798">
        <ele>1564.7</ele>
        <time>2011-08-25T05:42:21Z</time>
      </trkpt>
      <trkpt lat="45.11974" lon="5.61803">
        <ele>1564.1</ele>
        <time>2011-08-25T05:42:24Z</time>
      </trkpt>
      <trkpt lat="45.11978" lon="5.61809">
        <ele>1563.9</ele>
        <time>2011-08-25T05:42:27Z</time>
      </trkpt>
      <trkpt lat="45.1198" lon="5.61815">
        <ele>1564</ele>
        <time>2011-08-25T05:42:30Z</time>
      </trkpt>
      <trkpt lat="45.11983" lon="5.6182">
        <ele>1564.6</ele>
        <time>2011-08-25T05:42:33Z</time>
      </trkpt>
      <trkpt lat="45.11986" lon="5.61826">
        <ele>1565.3</ele>
        <time>2011-08-25T05:42:36Z</time>
      </trkpt>
      <trkpt lat="45.1199" lon="5.61832">
        <ele>1565.9</ele>
        <time>2011-08-25T05:42:40Z</time>
      </trkpt>
      <trkpt lat="45.11994" lon="5.61837">
        <ele>1566.3</ele>
        <time>2011-08-25T05:42:43Z</time>
      </trkpt>
      <trkpt lat="45.11998" lon="5.61843">
        <ele>1566.5</ele>
        <time>2011-08-25T05:42:46Z</time>
      </trkpt>
      <trkpt lat="45.12" lon="5.6185">
        <ele>1566.6</ele>
        <time>2011-08-25T05:42:49Z</time>
      </trkpt>
      <trkpt lat="45.12004" lon="5.61856">
        <ele>1567</ele>
        <time>2011-08-25T05:42:52Z</time>
      </trkpt>
      <trkpt lat="45.12006" lon="5.61862">
        <ele>1567.7</ele>
        <time>2011-08-25T05:42:56Z</time>
      </trkpt>
      <trkpt lat="45.12009" lon="5.61867">
        <ele>1568.3</ele>
        <time>2011-08-25T05:42:59Z</time>
      </trkpt>
      <trkpt lat="45.12012" lon="5.61873">
        <ele>1568.8</ele>
        <time>2011-08-25T05:43:02Z</time>
      </trkpt>
      <trkpt lat="45.12016" lon="5.61879">
        <ele>1568.8</ele>
        <time>2011-08-25T05:43:05Z</time>
      </trkpt>
      <trkpt lat="45.12019" lon="5.61886">
        <ele>1568.6</ele>
        <time>2011-08-25T05:43:09Z</time>
      </trkpt>
      <trkpt lat="45.12022" lon="5.61892">
        <ele>1568.8</ele>
        <time>2011-08-25T05:43:12Z</time>
      </trkpt>
      <trkpt lat="45.12026" lon="5.61896">
        <ele>1568.8</ele>
        <time>2011-08-25T05:43:14Z</time>
      </trkpt>
      <trkpt lat="45.1203" lon="5.619">
        <ele>1568.8</ele>
        <time>2011-08-25T05:43:16Z</time>
      </trkpt>
      <trkpt lat="45.12034" lon="5.61905">
        <ele>1569</ele>
        <time>2011-08-25T05:43:19Z</time>
      </trkpt>
      <trkpt lat="45.12038" lon="5.61911">
        <ele>1569</ele>
        <time>2011-08-25T05:43:22Z</time>
      </trkpt>
      <trkpt lat="45.1204" lon="5.61916">
        <ele>1569</ele>
        <time>2011-08-25T05:43:25Z</time>
      </trkpt>
      <trkpt lat="45.12042" lon="5.61924">
        <ele>1569.8</ele>
        <time>2011-08-25T05:43:28Z</time>
      </trkpt>
      <trkpt lat="45.12061" lon="5.6197">
        <ele>1597.1</ele>
        <time>2011-08-25T05:43:49Z</time>
      </trkpt>
      <trkpt lat="45.1207" lon="5.61971">
        <ele>1591.1</ele>
        <time>2011-08-25T05:43:56Z</time>
      </trkpt>
      <trkpt lat="45.12075" lon="5.61976">
        <ele>1590.1</ele>
        <time>2011-08-25T05:43:59Z</time>
      </trkpt>
      <trkpt lat="45.12081" lon="5.6198">
        <ele>1592</ele>
        <time>2011-08-25T05:44:03Z</time>
      </trkpt>
      <trkpt lat="45.12085" lon="5.61986">
        <ele>1591</ele>
        <time>2011-08-25T05:44:06Z</time>
      </trkpt>
      <trkpt lat="45.12088" lon="5.61992">
        <ele>1590.5</ele>
        <time>2011-08-25T05:44:11Z</time>
      </trkpt>
      <trkpt lat="45.12092" lon="5.61995">
        <ele>1591.7</ele>
        <time>2011-08-25T05:44:16Z</time>
      </trkpt>
      <trkpt lat="45.12095" lon="5.62">
        <ele>1591.7</ele>
        <time>2011-08-25T05:44:22Z</time>
      </trkpt>
      <trkpt lat="45.12099" lon="5.62005">
        <ele>1591.2</ele>
        <time>2011-08-25T05:44:29Z</time>
      </trkpt>
      <trkpt lat="45.12102" lon="5.62011">
        <ele>1591.3</ele>
        <time>2011-08-25T05:44:36Z</time>
      </trkpt>
      <trkpt lat="45.12106" lon="5.62017">
        <ele>1590.9</ele>
        <time>2011-08-25T05:44:42Z</time>
      </trkpt>
      <trkpt lat="45.12109" lon="5.62022">
        <ele>1590.7</ele>
        <time>2011-08-25T05:44:48Z</time>
      </trkpt>
      <trkpt lat="45.12112" lon="5.62027">
        <ele>1591.6</ele>
        <time>2011-08-25T05:44:53Z</time>
      </trkpt>
      <trkpt lat="45.12115" lon="5.62031">
        <ele>1592.2</ele>
        <time>2011-08-25T05:44:58Z</time>
      </trkpt>
      <trkpt lat="45.12119" lon="5.62036">
        <ele>1592.2</ele>
        <time>2011-08-25T05:45:04Z</time>
      </trkpt>
      <trkpt lat="45.12123" lon="5.62039">
        <ele>1592.3</ele>
        <time>2011-08-25T05:45:09Z</time>
      </trkpt>
      <trkpt lat="45.12127" lon="5.62043">
        <ele>1593</ele>
        <time>2011-08-25T05:45:15Z</time>
      </trkpt>
      <trkpt lat="45.12132" lon="5.62046">
        <ele>1593.4</ele>
        <time>2011-08-25T05:45:20Z</time>
      </trkpt>
      <trkpt lat="45.12136" lon="5.62049">
        <ele>1593.3</ele>
        <time>2011-08-25T05:45:26Z</time>
      </trkpt>
      <trkpt lat="45.12141" lon="5.62053">
        <ele>1593.6</ele>
        <time>2011-08-25T05:45:32Z</time>
      </trkpt>
      <trkpt lat="45.12145" lon="5.62056">
        <ele>1593.9</ele>
        <time>2011-08-25T05:45:37Z</time>
      </trkpt>
      <trkpt lat="45.12148" lon="5.62061">
        <ele>1594.7</ele>
        <time>2011-08-25T05:45:42Z</time>
      </trkpt>
      <trkpt lat="45.12153" lon="5.62065">
        <ele>1595.2</ele>
        <time>2011-08-25T05:45:48Z</time>
      </trkpt>
      <trkpt lat="45.12157" lon="5.6207">
        <ele>1595.8</ele>
        <time>2011-08-25T05:45:53Z</time>
      </trkpt>
      <trkpt lat="45.1216" lon="5.62076">
        <ele>1596.2</ele>
        <time>2011-08-25T05:45:58Z</time>
      </trkpt>
      <trkpt lat="45.12164" lon="5.62079">
        <ele>1597.1</ele>
        <time>2011-08-25T05:46:03Z</time>
      </trkpt>
      <trkpt lat="45.1217" lon="5.62081">
        <ele>1597.4</ele>
        <time>2011-08-25T05:46:08Z</time>
      </trkpt>
      <trkpt lat="45.12174" lon="5.62086">
        <ele>1598.6</ele>
        <time>2011-08-25T05:46:14Z</time>
      </trkpt>
      <trkpt lat="45.12177" lon="5.6209">
        <ele>1599.5</ele>
        <time>2011-08-25T05:46:20Z</time>
      </trkpt>
      <trkpt lat="45.12182" lon="5.62094">
        <ele>1600.8</ele>
        <time>2011-08-25T05:46:26Z</time>
      </trkpt>
      <trkpt lat="45.12186" lon="5.62097">
        <ele>1602.3</ele>
        <time>2011-08-25T05:46:31Z</time>
      </trkpt>
      <trkpt lat="45.1219" lon="5.62101">
        <ele>1602.9</ele>
        <time>2011-08-25T05:46:36Z</time>
      </trkpt>
      <trkpt lat="45.12194" lon="5.62104">
        <ele>1603.4</ele>
        <time>2011-08-25T05:46:40Z</time>
      </trkpt>
      <trkpt lat="45.12198" lon="5.62106">
        <ele>1603.7</ele>
        <time>2011-08-25T05:46:45Z</time>
      </trkpt>
      <trkpt lat="45.12203" lon="5.62108">
        <ele>1604.4</ele>
        <time>2011-08-25T05:46:51Z</time>
      </trkpt>
      <trkpt lat="45.12207" lon="5.62112">
        <ele>1604.6</ele>
        <time>2011-08-25T05:46:56Z</time>
      </trkpt>
      <trkpt lat="45.12212" lon="5.62114">
        <ele>1605.4</ele>
        <time>2011-08-25T05:47:02Z</time>
      </trkpt>
      <trkpt lat="45.12216" lon="5.62119">
        <ele>1606.5</ele>
        <time>2011-08-25T05:47:08Z</time>
      </trkpt>
      <trkpt lat="45.1222" lon="5.62124">
        <ele>1607.7</ele>
        <time>2011-08-25T05:47:14Z</time>
      </trkpt>
      <trkpt lat="45.12223" lon="5.62127">
        <ele>1608.9</ele>
        <time>2011-08-25T05:47:20Z</time>
      </trkpt>
      <trkpt lat="45.12227" lon="5.62132">
        <ele>1610.5</ele>
        <time>2011-08-25T05:47:27Z</time>
      </trkpt>
      <trkpt lat="45.12231" lon="5.62136">
        <ele>1611.1</ele>
        <time>2011-08-25T05:47:33Z</time>
      </trkpt>
      <trkpt lat="45.12234" lon="5.62141">
        <ele>1612</ele>
        <time>2011-08-25T05:47:39Z</time>
      </trkpt>
      <trkpt lat="45.12238" lon="5.62146">
        <ele>1613.7</ele>
        <time>2011-08-25T05:47:45Z</time>
      </trkpt>
      <trkpt lat="45.12242" lon="5.6215">
        <ele>1614.5</ele>
        <time>2011-08-25T05:47:50Z</time>
      </trkpt>
      <trkpt lat="45.12245" lon="5.62154">
        <ele>1615.8</ele>
        <time>2011-08-25T05:47:55Z</time>
      </trkpt>
      <trkpt lat="45.12248" lon="5.62159">
        <ele>1616.6</ele>
        <time>2011-08-25T05:48:00Z</time>
      </trkpt>
      <trkpt lat="45.12251" lon="5.62165">
        <ele>1617.5</ele>
        <time>2011-08-25T05:48:06Z</time>
      </trkpt>
      <trkpt lat="45.12254" lon="5.6217">
        <ele>1618.3</ele>
        <time>2011-08-25T05:48:13Z</time>
      </trkpt>
      <trkpt lat="45.12258" lon="5.62174">
        <ele>1619.3</ele>
        <time>2011-08-25T05:48:19Z</time>
      </trkpt>
      <trkpt lat="45.12259" lon="5.62181">
        <ele>1620.6</ele>
        <time>2011-08-25T05:48:26Z</time>
      </trkpt>
      <trkpt lat="45.12269" lon="5.62186">
        <ele>1620.7</ele>
        <time>2011-08-25T05:48:45Z</time>
      </trkpt>
      <trkpt lat="45.12269" lon="5.62186">
        <ele>1620.7</ele>
        <time>2011-08-25T05:48:45Z</time>
      </trkpt>
      <trkpt lat="45.12269" lon="5.62186">
        <ele>1620.7</ele>
        <time>2011-08-25T05:49:02Z</time>
      </trkpt>
      <trkpt lat="45.12271" lon="5.62212">
        <ele>1631</ele>
        <time>2011-08-25T05:49:03Z</time>
      </trkpt>
      <trkpt lat="45.12273" lon="5.62218">
        <ele>1632</ele>
        <time>2011-08-25T05:49:11Z</time>
      </trkpt>
      <trkpt lat="45.12275" lon="5.62224">
        <ele>1633</ele>
        <time>2011-08-25T05:49:18Z</time>
      </trkpt>
      <trkpt lat="45.12277" lon="5.62229">
        <ele>1633.4</ele>
        <time>2011-08-25T05:49:24Z</time>
      </trkpt>
      <trkpt lat="45.12279" lon="5.62235">
        <ele>1633.5</ele>
        <time>2011-08-25T05:49:30Z</time>
      </trkpt>
      <trkpt lat="45.12282" lon="5.6224">
        <ele>1638.4</ele>
        <time>2011-08-25T05:49:42Z</time>
      </trkpt>
      <trkpt lat="45.12282" lon="5.6224">
        <ele>1638.4</ele>
        <time>2011-08-25T05:49:42Z</time>
      </trkpt>
      <trkpt lat="45.12282" lon="5.6224">
        <ele>1638.4</ele>
        <time>2011-08-25T05:50:01Z</time>
      </trkpt>
      <trkpt lat="45.12293" lon="5.62271">
        <ele>1638.2</ele>
        <time>2011-08-25T05:50:02Z</time>
      </trkpt>
      <trkpt lat="45.12295" lon="5.62277">
        <ele>1638.6</ele>
        <time>2011-08-25T05:50:06Z</time>
      </trkpt>
      <trkpt lat="45.12296" lon="5.62284">
        <ele>1639</ele>
        <time>2011-08-25T05:50:11Z</time>
      </trkpt>
      <trkpt lat="45.123" lon="5.6229">
        <ele>1640.1</ele>
        <time>2011-08-25T05:50:16Z</time>
      </trkpt>
      <trkpt lat="45.12304" lon="5.62294">
        <ele>1640.6</ele>
        <time>2011-08-25T05:50:21Z</time>
      </trkpt>
      <trkpt lat="45.12309" lon="5.62297">
        <ele>1641</ele>
        <time>2011-08-25T05:50:26Z</time>
      </trkpt>
      <trkpt lat="45.12314" lon="5.62297">
        <ele>1641.2</ele>
        <time>2011-08-25T05:50:30Z</time>
      </trkpt>
      <trkpt lat="45.12319" lon="5.62298">
        <ele>1641.5</ele>
        <time>2011-08-25T05:50:36Z</time>
      </trkpt>
      <trkpt lat="45.12324" lon="5.623">
        <ele>1642.1</ele>
        <time>2011-08-25T05:50:40Z</time>
      </trkpt>
      <trkpt lat="45.12329" lon="5.62301">
        <ele>1642.6</ele>
        <time>2011-08-25T05:50:45Z</time>
      </trkpt>
      <trkpt lat="45.12334" lon="5.62301">
        <ele>1643.3</ele>
        <time>2011-08-25T05:50:50Z</time>
      </trkpt>
      <trkpt lat="45.12339" lon="5.62299">
        <ele>1644.7</ele>
        <time>2011-08-25T05:50:56Z</time>
      </trkpt>
      <trkpt lat="45.12344" lon="5.62297">
        <ele>1646</ele>
        <time>2011-08-25T05:51:01Z</time>
      </trkpt>
      <trkpt lat="45.12348" lon="5.62296">
        <ele>1645.8</ele>
        <time>2011-08-25T05:51:08Z</time>
      </trkpt>
      <trkpt lat="45.12354" lon="5.62296">
        <ele>1647</ele>
        <time>2011-08-25T05:51:13Z</time>
      </trkpt>
      <trkpt lat="45.12359" lon="5.62295">
        <ele>1647.6</ele>
        <time>2011-08-25T05:51:16Z</time>
      </trkpt>
      <trkpt lat="45.12364" lon="5.62293">
        <ele>1648</ele>
        <time>2011-08-25T05:51:18Z</time>
      </trkpt>
      <trkpt lat="45.1237" lon="5.6229">
        <ele>1647.6</ele>
        <time>2011-08-25T05:51:20Z</time>
      </trkpt>
      <trkpt lat="45.12376" lon="5.62287">
        <ele>1647.8</ele>
        <time>2011-08-25T05:51:22Z</time>
      </trkpt>
      <trkpt lat="45.12383" lon="5.62283">
        <ele>1648.1</ele>
        <time>2011-08-25T05:51:24Z</time>
      </trkpt>
      <trkpt lat="45.12388" lon="5.62281">
        <ele>1648.3</ele>
        <time>2011-08-25T05:51:25Z</time>
      </trkpt>
      <trkpt lat="45.12392" lon="5.6228">
        <ele>1648.3</ele>
        <time>2011-08-25T05:51:26Z</time>
      </trkpt>
      <trkpt lat="45.12397" lon="5.62279">
        <ele>1648.3</ele>
        <time>2011-08-25T05:51:27Z</time>
      </trkpt>
      <trkpt lat="45.12401" lon="5.62279">
        <ele>1648.4</ele>
        <time>2011-08-25T05:51:28Z</time>
      </trkpt>
      <trkpt lat="45.1241" lon="5.6228">
        <ele>1648.7</ele>
        <time>2011-08-25T05:51:30Z</time>
      </trkpt>
      <trkpt lat="45.12416" lon="5.62283">
        <ele>1649</ele>
        <time>2011-08-25T05:51:32Z</time>
      </trkpt>
      <trkpt lat="45.12421" lon="5.62289">
        <ele>1649.4</ele>
        <time>2011-08-25T05:51:35Z</time>
      </trkpt>
      <trkpt lat="45.12425" lon="5.62293">
        <ele>1650</ele>
        <time>2011-08-25T05:51:38Z</time>
      </trkpt>
      <trkpt lat="45.12431" lon="5.62297">
        <ele>1650.5</ele>
        <time>2011-08-25T05:51:41Z</time>
      </trkpt>
      <trkpt lat="45.12437" lon="5.62302">
        <ele>1650.8</ele>
        <time>2011-08-25T05:51:44Z</time>
      </trkpt>
      <trkpt lat="45.12442" lon="5.62305">
        <ele>1651.4</ele>
        <time>2011-08-25T05:51:47Z</time>
      </trkpt>
      <trkpt lat="45.12446" lon="5.62309">
        <ele>1651.9</ele>
        <time>2011-08-25T05:51:50Z</time>
      </trkpt>
      <trkpt lat="45.12452" lon="5.62312">
        <ele>1652.3</ele>
        <time>2011-08-25T05:51:53Z</time>
      </trkpt>
      <trkpt lat="45.12457" lon="5.62317">
        <ele>1653.2</ele>
        <time>2011-08-25T05:51:56Z</time>
      </trkpt>
      <trkpt lat="45.12463" lon="5.6232">
        <ele>1653.9</ele>
        <time>2011-08-25T05:51:59Z</time>
      </trkpt>
      <trkpt lat="45.12469" lon="5.62323">
        <ele>1654.2</ele>
        <time>2011-08-25T05:52:02Z</time>
      </trkpt>
      <trkpt lat="45.12473" lon="5.62325">
        <ele>1654.7</ele>
        <time>2011-08-25T05:52:04Z</time>
      </trkpt>
      <trkpt lat="45.12478" lon="5.62326">
        <ele>1654.8</ele>
        <time>2011-08-25T05:52:06Z</time>
      </trkpt>
      <trkpt lat="45.12484" lon="5.62328">
        <ele>1655.3</ele>
        <time>2011-08-25T05:52:09Z</time>
      </trkpt>
      <trkpt lat="45.12488" lon="5.62324">
        <ele>1656.7</ele>
        <time>2011-08-25T05:52:23Z</time>
      </trkpt>
      <trkpt lat="45.12491" lon="5.6233">
        <ele>1662</ele>
        <time>2011-08-25T05:53:13Z</time>
      </trkpt>
      <trkpt lat="45.12496" lon="5.62334">
        <ele>1662.6</ele>
        <time>2011-08-25T05:53:17Z</time>
      </trkpt>
      <trkpt lat="45.12501" lon="5.62336">
        <ele>1663.3</ele>
        <time>2011-08-25T05:53:21Z</time>
      </trkpt>
      <trkpt lat="45.12506" lon="5.6234">
        <ele>1664</ele>
        <time>2011-08-25T05:53:25Z</time>
      </trkpt>
      <trkpt lat="45.12512" lon="5.6234">
        <ele>1663.3</ele>
        <time>2011-08-25T05:53:28Z</time>
      </trkpt>
      <trkpt lat="45.12545" lon="5.62355">
        <ele>1681.4</ele>
        <time>2011-08-25T05:53:47Z</time>
      </trkpt>
      <trkpt lat="45.12551" lon="5.62354">
        <ele>1678</ele>
        <time>2011-08-25T05:53:50Z</time>
      </trkpt>
      <trkpt lat="45.12555" lon="5.6235">
        <ele>1674.9</ele>
        <time>2011-08-25T05:53:52Z</time>
      </trkpt>
      <trkpt lat="45.1256" lon="5.62345">
        <ele>1674</ele>
        <time>2011-08-25T05:53:55Z</time>
      </trkpt>
      <trkpt lat="45.12565" lon="5.62342">
        <ele>1675.7</ele>
        <time>2011-08-25T05:53:58Z</time>
      </trkpt>
      <trkpt lat="45.12573" lon="5.6234">
        <ele>1678</ele>
        <time>2011-08-25T05:54:03Z</time>
      </trkpt>
      <trkpt lat="45.12578" lon="5.62339">
        <ele>1678.4</ele>
        <time>2011-08-25T05:54:07Z</time>
      </trkpt>
      <trkpt lat="45.12584" lon="5.62338">
        <ele>1679</ele>
        <time>2011-08-25T05:54:11Z</time>
      </trkpt>
      <trkpt lat="45.12589" lon="5.62338">
        <ele>1679.7</ele>
        <time>2011-08-25T05:54:15Z</time>
      </trkpt>
      <trkpt lat="45.12593" lon="5.6234">
        <ele>1680</ele>
        <time>2011-08-25T05:54:19Z</time>
      </trkpt>
      <trkpt lat="45.12599" lon="5.6234">
        <ele>1679.8</ele>
        <time>2011-08-25T05:54:23Z</time>
      </trkpt>
      <trkpt lat="45.12604" lon="5.62339">
        <ele>1679.6</ele>
        <time>2011-08-25T05:54:26Z</time>
      </trkpt>
      <trkpt lat="45.12609" lon="5.62339">
        <ele>1678.8</ele>
        <time>2011-08-25T05:54:29Z</time>
      </trkpt>
      <trkpt lat="45.12642" lon="5.62326">
        <ele>1683</ele>
        <time>2011-08-25T05:54:43Z</time>
      </trkpt>
      <trkpt lat="45.12646" lon="5.6232">
        <ele>1684</ele>
        <time>2011-08-25T05:54:46Z</time>
      </trkpt>
      <trkpt lat="45.12651" lon="5.62318">
        <ele>1684.8</ele>
        <time>2011-08-25T05:54:49Z</time>
      </trkpt>
      <trkpt lat="45.12655" lon="5.62313">
        <ele>1683.4</ele>
        <time>2011-08-25T05:54:51Z</time>
      </trkpt>
      <trkpt lat="45.1266" lon="5.62314">
        <ele>1681.4</ele>
        <time>2011-08-25T05:54:54Z</time>
      </trkpt>
      <trkpt lat="45.12664" lon="5.62318">
        <ele>1680.9</ele>
        <time>2011-08-25T05:54:57Z</time>
      </trkpt>
      <trkpt lat="45.12669" lon="5.62322">
        <ele>1680.6</ele>
        <time>2011-08-25T05:55:00Z</time>
      </trkpt>
      <trkpt lat="45.12673" lon="5.62328">
        <ele>1680.8</ele>
        <time>2011-08-25T05:55:03Z</time>
      </trkpt>
      <trkpt lat="45.12678" lon="5.62335">
        <ele>1680.6</ele>
        <time>2011-08-25T05:55:06Z</time>
      </trkpt>
      <trkpt lat="45.12681" lon="5.62338">
        <ele>1680.1</ele>
        <time>2011-08-25T05:55:08Z</time>
      </trkpt>
      <trkpt lat="45.12686" lon="5.62345">
        <ele>1680.2</ele>
        <time>2011-08-25T05:55:11Z</time>
      </trkpt>
      <trkpt lat="45.1269" lon="5.62353">
        <ele>1680.4</ele>
        <time>2011-08-25T05:55:14Z</time>
      </trkpt>
      <trkpt lat="45.12693" lon="5.62358">
        <ele>1680.6</ele>
        <time>2011-08-25T05:55:16Z</time>
      </trkpt>
      <trkpt lat="45.12698" lon="5.62364">
        <ele>1681</ele>
        <time>2011-08-25T05:55:19Z</time>
      </trkpt>
      <trkpt lat="45.12702" lon="5.62368">
        <ele>1681.1</ele>
        <time>2011-08-25T05:55:22Z</time>
      </trkpt>
      <trkpt lat="45.12707" lon="5.6237">
        <ele>1681.1</ele>
        <time>2011-08-25T05:55:25Z</time>
      </trkpt>
      <trkpt lat="45.12713" lon="5.62371">
        <ele>1681.5</ele>
        <time>2011-08-25T05:55:28Z</time>
      </trkpt>
      <trkpt lat="45.12735" lon="5.62368">
        <ele>1685.2</ele>
        <time>2011-08-25T05:55:41Z</time>
      </trkpt>
      <trkpt lat="45.1274" lon="5.62366">
        <ele>1685.8</ele>
        <time>2011-08-25T05:55:43Z</time>
      </trkpt>
      <trkpt lat="45.12745" lon="5.62363">
        <ele>1685.3</ele>
        <time>2011-08-25T05:55:46Z</time>
      </trkpt>
      <trkpt lat="45.1275" lon="5.62362">
        <ele>1686</ele>
        <time>2011-08-25T05:55:49Z</time>
      </trkpt>
      <trkpt lat="45.12755" lon="5.6236">
        <ele>1685.7</ele>
        <time>2011-08-25T05:55:52Z</time>
      </trkpt>
      <trkpt lat="45.1276" lon="5.62358">
        <ele>1687.9</ele>
        <time>2011-08-25T05:55:56Z</time>
      </trkpt>
      <trkpt lat="45.12765" lon="5.62356">
        <ele>1690.2</ele>
        <time>2011-08-25T05:56:00Z</time>
      </trkpt>
      <trkpt lat="45.12765" lon="5.62356">
        <ele>1690.2</ele>
        <time>2011-08-25T05:56:00Z</time>
      </trkpt>
      <trkpt lat="45.12765" lon="5.62356">
        <ele>1690.2</ele>
        <time>2011-08-25T05:56:06Z</time>
      </trkpt>
      <trkpt lat="45.12775" lon="5.62353">
        <ele>1691.8</ele>
        <time>2011-08-25T05:56:07Z</time>
      </trkpt>
      <trkpt lat="45.1278" lon="5.62353">
        <ele>1692.1</ele>
        <time>2011-08-25T05:56:11Z</time>
      </trkpt>
      <trkpt lat="45.12784" lon="5.62354">
        <ele>1692.7</ele>
        <time>2011-08-25T05:56:15Z</time>
      </trkpt>
      <trkpt lat="45.12789" lon="5.62357">
        <ele>1693.5</ele>
        <time>2011-08-25T05:56:19Z</time>
      </trkpt>
      <trkpt lat="45.12794" lon="5.62361">
        <ele>1694.2</ele>
        <time>2011-08-25T05:56:23Z</time>
      </trkpt>
      <trkpt lat="45.12798" lon="5.62365">
        <ele>1694.2</ele>
        <time>2011-08-25T05:56:27Z</time>
      </trkpt>
      <trkpt lat="45.12819" lon="5.62382">
        <ele>1694.9</ele>
        <time>2011-08-25T05:57:02Z</time>
      </trkpt>
      <trkpt lat="45.12822" lon="5.62386">
        <ele>1692.2</ele>
        <time>2011-08-25T05:57:35Z</time>
      </trkpt>
      <trkpt lat="45.12826" lon="5.6239">
        <ele>1693.1</ele>
        <time>2011-08-25T05:57:40Z</time>
      </trkpt>
      <trkpt lat="45.1283" lon="5.62394">
        <ele>1694.3</ele>
        <time>2011-08-25T05:57:45Z</time>
      </trkpt>
      <trkpt lat="45.12834" lon="5.62398">
        <ele>1695.5</ele>
        <time>2011-08-25T05:57:50Z</time>
      </trkpt>
      <trkpt lat="45.12839" lon="5.62401">
        <ele>1696</ele>
        <time>2011-08-25T05:57:55Z</time>
      </trkpt>
      <trkpt lat="45.12843" lon="5.62405">
        <ele>1697.1</ele>
        <time>2011-08-25T05:58:00Z</time>
      </trkpt>
      <trkpt lat="45.12847" lon="5.62409">
        <ele>1697.9</ele>
        <time>2011-08-25T05:58:05Z</time>
      </trkpt>
      <trkpt lat="45.12852" lon="5.62413">
        <ele>1698.6</ele>
        <time>2011-08-25T05:58:10Z</time>
      </trkpt>
      <trkpt lat="45.12856" lon="5.62418">
        <ele>1699.3</ele>
        <time>2011-08-25T05:58:15Z</time>
      </trkpt>
      <trkpt lat="45.12859" lon="5.62423">
        <ele>1699.9</ele>
        <time>2011-08-25T05:58:19Z</time>
      </trkpt>
      <trkpt lat="45.12862" lon="5.62427">
        <ele>1700.4</ele>
        <time>2011-08-25T05:58:23Z</time>
      </trkpt>
      <trkpt lat="45.12866" lon="5.62432">
        <ele>1701.5</ele>
        <time>2011-08-25T05:58:28Z</time>
      </trkpt>
      <trkpt lat="45.1287" lon="5.62436">
        <ele>1702</ele>
        <time>2011-08-25T05:58:32Z</time>
      </trkpt>
      <trkpt lat="45.12874" lon="5.6244">
        <ele>1703.2</ele>
        <time>2011-08-25T05:58:36Z</time>
      </trkpt>
      <trkpt lat="45.12878" lon="5.62444">
        <ele>1704.3</ele>
        <time>2011-08-25T05:58:40Z</time>
      </trkpt>
      <trkpt lat="45.12881" lon="5.62448">
        <ele>1705.3</ele>
        <time>2011-08-25T05:58:44Z</time>
      </trkpt>
      <trkpt lat="45.12885" lon="5.62453">
        <ele>1706.3</ele>
        <time>2011-08-25T05:58:49Z</time>
      </trkpt>
      <trkpt lat="45.12888" lon="5.62457">
        <ele>1707.4</ele>
        <time>2011-08-25T05:58:54Z</time>
      </trkpt>
      <trkpt lat="45.12892" lon="5.62462">
        <ele>1708.4</ele>
        <time>2011-08-25T05:59:05Z</time>
      </trkpt>
      <trkpt lat="45.12896" lon="5.62466">
        <ele>1709</ele>
        <time>2011-08-25T05:59:09Z</time>
      </trkpt>
      <trkpt lat="45.129" lon="5.62471">
        <ele>1709.4</ele>
        <time>2011-08-25T05:59:13Z</time>
      </trkpt>
      <trkpt lat="45.12904" lon="5.62477">
        <ele>1709.5</ele>
        <time>2011-08-25T05:59:17Z</time>
      </trkpt>
      <trkpt lat="45.12907" lon="5.62482">
        <ele>1709.7</ele>
        <time>2011-08-25T05:59:20Z</time>
      </trkpt>
      <trkpt lat="45.1291" lon="5.62488">
        <ele>1710.3</ele>
        <time>2011-08-25T05:59:24Z</time>
      </trkpt>
      <trkpt lat="45.12914" lon="5.62494">
        <ele>1711.1</ele>
        <time>2011-08-25T05:59:28Z</time>
      </trkpt>
      <trkpt lat="45.12918" lon="5.625">
        <ele>1711.7</ele>
        <time>2011-08-25T05:59:32Z</time>
      </trkpt>
      <trkpt lat="45.12922" lon="5.62506">
        <ele>1712.4</ele>
        <time>2011-08-25T05:59:36Z</time>
      </trkpt>
      <trkpt lat="45.12926" lon="5.62512">
        <ele>1713.5</ele>
        <time>2011-08-25T05:59:40Z</time>
      </trkpt>
      <trkpt lat="45.12929" lon="5.62517">
        <ele>1714.2</ele>
        <time>2011-08-25T05:59:44Z</time>
      </trkpt>
      <trkpt lat="45.12933" lon="5.62522">
        <ele>1714.7</ele>
        <time>2011-08-25T05:59:48Z</time>
      </trkpt>
      <trkpt lat="45.12937" lon="5.62527">
        <ele>1715</ele>
        <time>2011-08-25T05:59:51Z</time>
      </trkpt>
      <trkpt lat="45.1294" lon="5.62531">
        <ele>1715.5</ele>
        <time>2011-08-25T05:59:54Z</time>
      </trkpt>
      <trkpt lat="45.12943" lon="5.62536">
        <ele>1715.9</ele>
        <time>2011-08-25T05:59:57Z</time>
      </trkpt>
      <trkpt lat="45.12947" lon="5.6254">
        <ele>1716.5</ele>
        <time>2011-08-25T06:00:00Z</time>
      </trkpt>
      <trkpt lat="45.1295" lon="5.62544">
        <ele>1717.2</ele>
        <time>2011-08-25T06:00:03Z</time>
      </trkpt>
      <trkpt lat="45.12954" lon="5.62548">
        <ele>1717.6</ele>
        <time>2011-08-25T06:00:06Z</time>
      </trkpt>
      <trkpt lat="45.12958" lon="5.62553">
        <ele>1717.9</ele>
        <time>2011-08-25T06:00:09Z</time>
      </trkpt>
      <trkpt lat="45.12962" lon="5.62557">
        <ele>1718.1</ele>
        <time>2011-08-25T06:00:12Z</time>
      </trkpt>
      <trkpt lat="45.12966" lon="5.62561">
        <ele>1718.8</ele>
        <time>2011-08-25T06:00:15Z</time>
      </trkpt>
      <trkpt lat="45.1297" lon="5.62564">
        <ele>1719.5</ele>
        <time>2011-08-25T06:00:18Z</time>
      </trkpt>
      <trkpt lat="45.12974" lon="5.62569">
        <ele>1719.9</ele>
        <time>2011-08-25T06:00:21Z</time>
      </trkpt>
      <trkpt lat="45.12978" lon="5.62572">
        <ele>1720.3</ele>
        <time>2011-08-25T06:00:24Z</time>
      </trkpt>
      <trkpt lat="45.12983" lon="5.62576">
        <ele>1720.8</ele>
        <time>2011-08-25T06:00:27Z</time>
      </trkpt>
      <trkpt lat="45.12987" lon="5.6258">
        <ele>1721.8</ele>
        <time>2011-08-25T06:00:30Z</time>
      </trkpt>
      <trkpt lat="45.13002" lon="5.62588">
        <ele>1724.8</ele>
        <time>2011-08-25T06:00:40Z</time>
      </trkpt>
      <trkpt lat="45.13006" lon="5.62592">
        <ele>1727.6</ele>
        <time>2011-08-25T06:00:43Z</time>
      </trkpt>
      <trkpt lat="45.13009" lon="5.62597">
        <ele>1729.1</ele>
        <time>2011-08-25T06:00:46Z</time>
      </trkpt>
      <trkpt lat="45.13012" lon="5.62603">
        <ele>1729.7</ele>
        <time>2011-08-25T06:00:49Z</time>
      </trkpt>
      <trkpt lat="45.13017" lon="5.62607">
        <ele>1730.1</ele>
        <time>2011-08-25T06:00:52Z</time>
      </trkpt>
      <trkpt lat="45.13021" lon="5.62611">
        <ele>1730.4</ele>
        <time>2011-08-25T06:00:55Z</time>
      </trkpt>
      <trkpt lat="45.13024" lon="5.62616">
        <ele>1731</ele>
        <time>2011-08-25T06:00:58Z</time>
      </trkpt>
      <trkpt lat="45.13028" lon="5.6262">
        <ele>1731.8</ele>
        <time>2011-08-25T06:01:01Z</time>
      </trkpt>
      <trkpt lat="45.13033" lon="5.62624">
        <ele>1732.2</ele>
        <time>2011-08-25T06:01:04Z</time>
      </trkpt>
      <trkpt lat="45.13037" lon="5.62628">
        <ele>1732.5</ele>
        <time>2011-08-25T06:01:07Z</time>
      </trkpt>
      <trkpt lat="45.1304" lon="5.62633">
        <ele>1732.7</ele>
        <time>2011-08-25T06:01:10Z</time>
      </trkpt>
      <trkpt lat="45.13044" lon="5.62637">
        <ele>1733.2</ele>
        <time>2011-08-25T06:01:13Z</time>
      </trkpt>
      <trkpt lat="45.13048" lon="5.62641">
        <ele>1733.7</ele>
        <time>2011-08-25T06:01:16Z</time>
      </trkpt>
      <trkpt lat="45.13052" lon="5.62645">
        <ele>1734.1</ele>
        <time>2011-08-25T06:01:19Z</time>
      </trkpt>
      <trkpt lat="45.13056" lon="5.62649">
        <ele>1734.5</ele>
        <time>2011-08-25T06:01:22Z</time>
      </trkpt>
      <trkpt lat="45.1306" lon="5.62652">
        <ele>1734.9</ele>
        <time>2011-08-25T06:01:25Z</time>
      </trkpt>
      <trkpt lat="45.13064" lon="5.62657">
        <ele>1735.4</ele>
        <time>2011-08-25T06:01:28Z</time>
      </trkpt>
      <trkpt lat="45.13068" lon="5.62661">
        <ele>1736.1</ele>
        <time>2011-08-25T06:01:31Z</time>
      </trkpt>
      <trkpt lat="45.13072" lon="5.62666">
        <ele>1736.6</ele>
        <time>2011-08-25T06:01:34Z</time>
      </trkpt>
      <trkpt lat="45.13076" lon="5.6267">
        <ele>1737.2</ele>
        <time>2011-08-25T06:01:37Z</time>
      </trkpt>
      <trkpt lat="45.1308" lon="5.62673">
        <ele>1737.7</ele>
        <time>2011-08-25T06:01:40Z</time>
      </trkpt>
      <trkpt lat="45.13084" lon="5.62677">
        <ele>1738</ele>
        <time>2011-08-25T06:01:43Z</time>
      </trkpt>
      <trkpt lat="45.13088" lon="5.62681">
        <ele>1738.3</ele>
        <time>2011-08-25T06:01:46Z</time>
      </trkpt>
      <trkpt lat="45.13092" lon="5.62684">
        <ele>1738.6</ele>
        <time>2011-08-25T06:01:49Z</time>
      </trkpt>
      <trkpt lat="45.13096" lon="5.62686">
        <ele>1739</ele>
        <time>2011-08-25T06:01:52Z</time>
      </trkpt>
      <trkpt lat="45.13101" lon="5.62689">
        <ele>1739.6</ele>
        <time>2011-08-25T06:01:56Z</time>
      </trkpt>
      <trkpt lat="45.13106" lon="5.62692">
        <ele>1740.3</ele>
        <time>2011-08-25T06:02:00Z</time>
      </trkpt>
      <trkpt lat="45.13111" lon="5.62695">
        <ele>1741.1</ele>
        <time>2011-08-25T06:02:04Z</time>
      </trkpt>
      <trkpt lat="45.13116" lon="5.62698">
        <ele>1741.8</ele>
        <time>2011-08-25T06:02:08Z</time>
      </trkpt>
      <trkpt lat="45.1312" lon="5.62701">
        <ele>1742.5</ele>
        <time>2011-08-25T06:02:12Z</time>
      </trkpt>
      <trkpt lat="45.13125" lon="5.62704">
        <ele>1743.1</ele>
        <time>2011-08-25T06:02:16Z</time>
      </trkpt>
      <trkpt lat="45.1313" lon="5.62707">
        <ele>1743.5</ele>
        <time>2011-08-25T06:02:20Z</time>
      </trkpt>
      <trkpt lat="45.13135" lon="5.62711">
        <ele>1744</ele>
        <time>2011-08-25T06:02:24Z</time>
      </trkpt>
      <trkpt lat="45.1314" lon="5.62714">
        <ele>1744.6</ele>
        <time>2011-08-25T06:02:28Z</time>
      </trkpt>
      <trkpt lat="45.13146" lon="5.62717">
        <ele>1745.2</ele>
        <time>2011-08-25T06:02:32Z</time>
      </trkpt>
      <trkpt lat="45.13151" lon="5.6272">
        <ele>1745.8</ele>
        <time>2011-08-25T06:02:36Z</time>
      </trkpt>
      <trkpt lat="45.13157" lon="5.62722">
        <ele>1746.7</ele>
        <time>2011-08-25T06:02:40Z</time>
      </trkpt>
      <trkpt lat="45.13162" lon="5.62722">
        <ele>1747.3</ele>
        <time>2011-08-25T06:02:44Z</time>
      </trkpt>
      <trkpt lat="45.13168" lon="5.62721">
        <ele>1747.7</ele>
        <time>2011-08-25T06:02:48Z</time>
      </trkpt>
      <trkpt lat="45.13174" lon="5.6272">
        <ele>1748.2</ele>
        <time>2011-08-25T06:02:52Z</time>
      </trkpt>
      <trkpt lat="45.13178" lon="5.62719">
        <ele>1748.5</ele>
        <time>2011-08-25T06:02:55Z</time>
      </trkpt>
      <trkpt lat="45.13183" lon="5.62718">
        <ele>1749.2</ele>
        <time>2011-08-25T06:02:58Z</time>
      </trkpt>
      <trkpt lat="45.13188" lon="5.62716">
        <ele>1749.8</ele>
        <time>2011-08-25T06:03:01Z</time>
      </trkpt>
      <trkpt lat="45.13192" lon="5.62715">
        <ele>1750</ele>
        <time>2011-08-25T06:03:04Z</time>
      </trkpt>
      <trkpt lat="45.13197" lon="5.62712">
        <ele>1750.1</ele>
        <time>2011-08-25T06:03:07Z</time>
      </trkpt>
      <trkpt lat="45.13201" lon="5.6271">
        <ele>1750.7</ele>
        <time>2011-08-25T06:03:10Z</time>
      </trkpt>
      <trkpt lat="45.13205" lon="5.62706">
        <ele>1751.3</ele>
        <time>2011-08-25T06:03:13Z</time>
      </trkpt>
      <trkpt lat="45.1321" lon="5.62702">
        <ele>1751.7</ele>
        <time>2011-08-25T06:03:16Z</time>
      </trkpt>
      <trkpt lat="45.13214" lon="5.62697">
        <ele>1752</ele>
        <time>2011-08-25T06:03:19Z</time>
      </trkpt>
      <trkpt lat="45.13219" lon="5.62694">
        <ele>1752.2</ele>
        <time>2011-08-25T06:03:22Z</time>
      </trkpt>
      <trkpt lat="45.13223" lon="5.62689">
        <ele>1752.4</ele>
        <time>2011-08-25T06:03:25Z</time>
      </trkpt>
      <trkpt lat="45.13228" lon="5.62686">
        <ele>1752.7</ele>
        <time>2011-08-25T06:03:28Z</time>
      </trkpt>
      <trkpt lat="45.13233" lon="5.62683">
        <ele>1753</ele>
        <time>2011-08-25T06:03:31Z</time>
      </trkpt>
      <trkpt lat="45.13238" lon="5.6268">
        <ele>1753.3</ele>
        <time>2011-08-25T06:03:34Z</time>
      </trkpt>
      <trkpt lat="45.13243" lon="5.62679">
        <ele>1753.7</ele>
        <time>2011-08-25T06:03:37Z</time>
      </trkpt>
      <trkpt lat="45.13248" lon="5.62677">
        <ele>1754.4</ele>
        <time>2011-08-25T06:03:40Z</time>
      </trkpt>
      <trkpt lat="45.13253" lon="5.62676">
        <ele>1754.9</ele>
        <time>2011-08-25T06:03:43Z</time>
      </trkpt>
      <trkpt lat="45.13258" lon="5.62675">
        <ele>1755.4</ele>
        <time>2011-08-25T06:03:46Z</time>
      </trkpt>
      <trkpt lat="45.13262" lon="5.62674">
        <ele>1755.9</ele>
        <time>2011-08-25T06:03:49Z</time>
      </trkpt>
      <trkpt lat="45.13267" lon="5.62673">
        <ele>1756.3</ele>
        <time>2011-08-25T06:03:52Z</time>
      </trkpt>
      <trkpt lat="45.13272" lon="5.62672">
        <ele>1756.5</ele>
        <time>2011-08-25T06:03:55Z</time>
      </trkpt>
      <trkpt lat="45.13277" lon="5.6267">
        <ele>1756.7</ele>
        <time>2011-08-25T06:03:58Z</time>
      </trkpt>
      <trkpt lat="45.13282" lon="5.62668">
        <ele>1756.9</ele>
        <time>2011-08-25T06:04:01Z</time>
      </trkpt>
      <trkpt lat="45.13288" lon="5.62666">
        <ele>1757.1</ele>
        <time>2011-08-25T06:04:04Z</time>
      </trkpt>
      <trkpt lat="45.13294" lon="5.62664">
        <ele>1757.3</ele>
        <time>2011-08-25T06:04:07Z</time>
      </trkpt>
      <trkpt lat="45.133" lon="5.62662">
        <ele>1757.5</ele>
        <time>2011-08-25T06:04:10Z</time>
      </trkpt>
      <trkpt lat="45.13305" lon="5.62661">
        <ele>1757.6</ele>
        <time>2011-08-25T06:04:12Z</time>
      </trkpt>
      <trkpt lat="45.13309" lon="5.62659">
        <ele>1757.7</ele>
        <time>2011-08-25T06:04:14Z</time>
      </trkpt>
      <trkpt lat="45.13314" lon="5.62658">
        <ele>1757.8</ele>
        <time>2011-08-25T06:04:16Z</time>
      </trkpt>
      <trkpt lat="45.13319" lon="5.62657">
        <ele>1757.9</ele>
        <time>2011-08-25T06:04:18Z</time>
      </trkpt>
      <trkpt lat="45.13324" lon="5.62656">
        <ele>1757.9</ele>
        <time>2011-08-25T06:04:20Z</time>
      </trkpt>
      <trkpt lat="45.13329" lon="5.62655">
        <ele>1758</ele>
        <time>2011-08-25T06:04:22Z</time>
      </trkpt>
      <trkpt lat="45.13335" lon="5.62655">
        <ele>1758</ele>
        <time>2011-08-25T06:04:24Z</time>
      </trkpt>
      <trkpt lat="45.13341" lon="5.62655">
        <ele>1758.2</ele>
        <time>2011-08-25T06:04:26Z</time>
      </trkpt>
      <trkpt lat="45.13346" lon="5.62655">
        <ele>1758.3</ele>
        <time>2011-08-25T06:04:28Z</time>
      </trkpt>
      <trkpt lat="45.13351" lon="5.62654">
        <ele>1758.5</ele>
        <time>2011-08-25T06:04:30Z</time>
      </trkpt>
      <trkpt lat="45.13356" lon="5.62655">
        <ele>1758.8</ele>
        <time>2011-08-25T06:04:32Z</time>
      </trkpt>
      <trkpt lat="45.13361" lon="5.62655">
        <ele>1759</ele>
        <time>2011-08-25T06:04:34Z</time>
      </trkpt>
      <trkpt lat="45.13366" lon="5.62655">
        <ele>1759.1</ele>
        <time>2011-08-25T06:04:36Z</time>
      </trkpt>
      <trkpt lat="45.13371" lon="5.62655">
        <ele>1759.2</ele>
        <time>2011-08-25T06:04:38Z</time>
      </trkpt>
      <trkpt lat="45.13376" lon="5.62656">
        <ele>1759.3</ele>
        <time>2011-08-25T06:04:40Z</time>
      </trkpt>
      <trkpt lat="45.13381" lon="5.62657">
        <ele>1759.5</ele>
        <time>2011-08-25T06:04:42Z</time>
      </trkpt>
      <trkpt lat="45.13386" lon="5.62659">
        <ele>1759.8</ele>
        <time>2011-08-25T06:04:44Z</time>
      </trkpt>
      <trkpt lat="45.13391" lon="5.6266">
        <ele>1760</ele>
        <time>2011-08-25T06:04:46Z</time>
      </trkpt>
      <trkpt lat="45.13396" lon="5.62662">
        <ele>1760.2</ele>
        <time>2011-08-25T06:04:48Z</time>
      </trkpt>
      <trkpt lat="45.13401" lon="5.62664">
        <ele>1760.4</ele>
        <time>2011-08-25T06:04:50Z</time>
      </trkpt>
      <trkpt lat="45.13406" lon="5.62666">
        <ele>1760.5</ele>
        <time>2011-08-25T06:04:52Z</time>
      </trkpt>
      <trkpt lat="45.13411" lon="5.62668">
        <ele>1760.6</ele>
        <time>2011-08-25T06:04:54Z</time>
      </trkpt>
      <trkpt lat="45.13416" lon="5.6267">
        <ele>1760.8</ele>
        <time>2011-08-25T06:04:56Z</time>
      </trkpt>
      <trkpt lat="45.13421" lon="5.62673">
        <ele>1761</ele>
        <time>2011-08-25T06:04:58Z</time>
      </trkpt>
      <trkpt lat="45.13426" lon="5.62676">
        <ele>1761.1</ele>
        <time>2011-08-25T06:05:00Z</time>
      </trkpt>
      <trkpt lat="45.1343" lon="5.62679">
        <ele>1761.1</ele>
        <time>2011-08-25T06:05:02Z</time>
      </trkpt>
      <trkpt lat="45.13435" lon="5.62681">
        <ele>1761.3</ele>
        <time>2011-08-25T06:05:04Z</time>
      </trkpt>
      <trkpt lat="45.1344" lon="5.62684">
        <ele>1761.5</ele>
        <time>2011-08-25T06:05:06Z</time>
      </trkpt>
      <trkpt lat="45.13444" lon="5.62687">
        <ele>1761.7</ele>
        <time>2011-08-25T06:05:08Z</time>
      </trkpt>
      <trkpt lat="45.13448" lon="5.62691">
        <ele>1762.1</ele>
        <time>2011-08-25T06:05:10Z</time>
      </trkpt>
      <trkpt lat="45.13452" lon="5.62694">
        <ele>1762.3</ele>
        <time>2011-08-25T06:05:12Z</time>
      </trkpt>
      <trkpt lat="45.13456" lon="5.62698">
        <ele>1762.5</ele>
        <time>2011-08-25T06:05:14Z</time>
      </trkpt>
      <trkpt lat="45.1346" lon="5.62702">
        <ele>1762.7</ele>
        <time>2011-08-25T06:05:16Z</time>
      </trkpt>
      <trkpt lat="45.13463" lon="5.62707">
        <ele>1762.7</ele>
        <time>2011-08-25T06:05:18Z</time>
      </trkpt>
      <trkpt lat="45.13466" lon="5.62713">
        <ele>1763</ele>
        <time>2011-08-25T06:05:20Z</time>
      </trkpt>
      <trkpt lat="45.13468" lon="5.62719">
        <ele>1763.3</ele>
        <time>2011-08-25T06:05:22Z</time>
      </trkpt>
      <trkpt lat="45.13471" lon="5.62725">
        <ele>1763.4</ele>
        <time>2011-08-25T06:05:24Z</time>
      </trkpt>
      <trkpt lat="45.13474" lon="5.62734">
        <ele>1763.9</ele>
        <time>2011-08-25T06:05:27Z</time>
      </trkpt>
      <trkpt lat="45.13476" lon="5.6274">
        <ele>1764</ele>
        <time>2011-08-25T06:05:29Z</time>
      </trkpt>
      <trkpt lat="45.13478" lon="5.62745">
        <ele>1764.1</ele>
        <time>2011-08-25T06:05:31Z</time>
      </trkpt>
      <trkpt lat="45.1348" lon="5.62751">
        <ele>1764.1</ele>
        <time>2011-08-25T06:05:33Z</time>
      </trkpt>
      <trkpt lat="45.13481" lon="5.62758">
        <ele>1764.4</ele>
        <time>2011-08-25T06:05:35Z</time>
      </trkpt>
      <trkpt lat="45.13483" lon="5.62765">
        <ele>1764.5</ele>
        <time>2011-08-25T06:05:37Z</time>
      </trkpt>
      <trkpt lat="45.13484" lon="5.62772">
        <ele>1764.9</ele>
        <time>2011-08-25T06:05:39Z</time>
      </trkpt>
      <trkpt lat="45.13484" lon="5.62778">
        <ele>1765.3</ele>
        <time>2011-08-25T06:05:41Z</time>
      </trkpt>
      <trkpt lat="45.13485" lon="5.62786">
        <ele>1765.5</ele>
        <time>2011-08-25T06:05:43Z</time>
      </trkpt>
      <trkpt lat="45.13485" lon="5.62792">
        <ele>1765.8</ele>
        <time>2011-08-25T06:05:45Z</time>
      </trkpt>
      <trkpt lat="45.13485" lon="5.62799">
        <ele>1765.9</ele>
        <time>2011-08-25T06:05:47Z</time>
      </trkpt>
      <trkpt lat="45.13485" lon="5.62806">
        <ele>1766.1</ele>
        <time>2011-08-25T06:05:49Z</time>
      </trkpt>
      <trkpt lat="45.13484" lon="5.62812">
        <ele>1766.3</ele>
        <time>2011-08-25T06:05:51Z</time>
      </trkpt>
      <trkpt lat="45.13484" lon="5.6282">
        <ele>1766.6</ele>
        <time>2011-08-25T06:05:53Z</time>
      </trkpt>
      <trkpt lat="45.13484" lon="5.62826">
        <ele>1766.6</ele>
        <time>2011-08-25T06:05:55Z</time>
      </trkpt>
      <trkpt lat="45.13484" lon="5.62833">
        <ele>1766.8</ele>
        <time>2011-08-25T06:05:57Z</time>
      </trkpt>
      <trkpt lat="45.13484" lon="5.6284">
        <ele>1767.3</ele>
        <time>2011-08-25T06:05:59Z</time>
      </trkpt>
      <trkpt lat="45.13485" lon="5.62848">
        <ele>1767.2</ele>
        <time>2011-08-25T06:06:01Z</time>
      </trkpt>
      <trkpt lat="45.13487" lon="5.62858">
        <ele>1767.5</ele>
        <time>2011-08-25T06:06:03Z</time>
      </trkpt>
      <trkpt lat="45.13488" lon="5.62869">
        <ele>1767.7</ele>
        <time>2011-08-25T06:06:05Z</time>
      </trkpt>
      <trkpt lat="45.1349" lon="5.62875">
        <ele>1767.6</ele>
        <time>2011-08-25T06:06:06Z</time>
      </trkpt>
      <trkpt lat="45.13492" lon="5.62887">
        <ele>1767.6</ele>
        <time>2011-08-25T06:06:08Z</time>
      </trkpt>
      <trkpt lat="45.13493" lon="5.62894">
        <ele>1767.4</ele>
        <time>2011-08-25T06:06:09Z</time>
      </trkpt>
      <trkpt lat="45.13494" lon="5.62901">
        <ele>1767.3</ele>
        <time>2011-08-25T06:06:10Z</time>
      </trkpt>
      <trkpt lat="45.13495" lon="5.62909">
        <ele>1767</ele>
        <time>2011-08-25T06:06:11Z</time>
      </trkpt>
      <trkpt lat="45.13497" lon="5.62918">
        <ele>1766.4</ele>
        <time>2011-08-25T06:06:12Z</time>
      </trkpt>
      <trkpt lat="45.13498" lon="5.62927">
        <ele>1765.9</ele>
        <time>2011-08-25T06:06:13Z</time>
      </trkpt>
      <trkpt lat="45.135" lon="5.62936">
        <ele>1765.7</ele>
        <time>2011-08-25T06:06:14Z</time>
      </trkpt>
      <trkpt lat="45.13501" lon="5.62945">
        <ele>1765.5</ele>
        <time>2011-08-25T06:06:15Z</time>
      </trkpt>
      <trkpt lat="45.13502" lon="5.62952">
        <ele>1765.5</ele>
        <time>2011-08-25T06:06:16Z</time>
      </trkpt>
      <trkpt lat="45.13503" lon="5.62963">
        <ele>1765.4</ele>
        <time>2011-08-25T06:06:18Z</time>
      </trkpt>
      <trkpt lat="45.13504" lon="5.6297">
        <ele>1765.1</ele>
        <time>2011-08-25T06:06:20Z</time>
      </trkpt>
      <trkpt lat="45.13505" lon="5.62978">
        <ele>1764.7</ele>
        <time>2011-08-25T06:06:23Z</time>
      </trkpt>
      <trkpt lat="45.13506" lon="5.62985">
        <ele>1765.2</ele>
        <time>2011-08-25T06:06:26Z</time>
      </trkpt>
      <trkpt lat="45.13507" lon="5.62992">
        <ele>1765.8</ele>
        <time>2011-08-25T06:06:29Z</time>
      </trkpt>
      <trkpt lat="45.13508" lon="5.63">
        <ele>1766.2</ele>
        <time>2011-08-25T06:06:32Z</time>
      </trkpt>
      <trkpt lat="45.13508" lon="5.63007">
        <ele>1766.6</ele>
        <time>2011-08-25T06:06:35Z</time>
      </trkpt>
      <trkpt lat="45.13509" lon="5.63014">
        <ele>1766.9</ele>
        <time>2011-08-25T06:06:38Z</time>
      </trkpt>
      <trkpt lat="45.13511" lon="5.63021">
        <ele>1767.1</ele>
        <time>2011-08-25T06:06:41Z</time>
      </trkpt>
      <trkpt lat="45.13514" lon="5.63028">
        <ele>1767.6</ele>
        <time>2011-08-25T06:06:44Z</time>
      </trkpt>
      <trkpt lat="45.13517" lon="5.63035">
        <ele>1767.7</ele>
        <time>2011-08-25T06:06:47Z</time>
      </trkpt>
      <trkpt lat="45.13521" lon="5.63041">
        <ele>1768</ele>
        <time>2011-08-25T06:06:50Z</time>
      </trkpt>
      <trkpt lat="45.13525" lon="5.63046">
        <ele>1768.2</ele>
        <time>2011-08-25T06:06:53Z</time>
      </trkpt>
      <trkpt lat="45.1353" lon="5.6305">
        <ele>1768.4</ele>
        <time>2011-08-25T06:06:56Z</time>
      </trkpt>
      <trkpt lat="45.13534" lon="5.63055">
        <ele>1768.9</ele>
        <time>2011-08-25T06:06:59Z</time>
      </trkpt>
      <trkpt lat="45.13538" lon="5.6306">
        <ele>1769.3</ele>
        <time>2011-08-25T06:07:02Z</time>
      </trkpt>
      <trkpt lat="45.13543" lon="5.63064">
        <ele>1769.9</ele>
        <time>2011-08-25T06:07:05Z</time>
      </trkpt>
      <trkpt lat="45.13548" lon="5.63068">
        <ele>1770.6</ele>
        <time>2011-08-25T06:07:08Z</time>
      </trkpt>
      <trkpt lat="45.13553" lon="5.63072">
        <ele>1771.1</ele>
        <time>2011-08-25T06:07:11Z</time>
      </trkpt>
      <trkpt lat="45.13557" lon="5.63077">
        <ele>1771.5</ele>
        <time>2011-08-25T06:07:14Z</time>
      </trkpt>
      <trkpt lat="45.13562" lon="5.63081">
        <ele>1772.3</ele>
        <time>2011-08-25T06:07:17Z</time>
      </trkpt>
      <trkpt lat="45.13566" lon="5.63084">
        <ele>1772.9</ele>
        <time>2011-08-25T06:07:20Z</time>
      </trkpt>
      <trkpt lat="45.13571" lon="5.63088">
        <ele>1773.7</ele>
        <time>2011-08-25T06:07:23Z</time>
      </trkpt>
      <trkpt lat="45.13575" lon="5.63092">
        <ele>1774.6</ele>
        <time>2011-08-25T06:07:26Z</time>
      </trkpt>
      <trkpt lat="45.1358" lon="5.63095">
        <ele>1775.1</ele>
        <time>2011-08-25T06:07:29Z</time>
      </trkpt>
      <trkpt lat="45.13584" lon="5.63098">
        <ele>1775.6</ele>
        <time>2011-08-25T06:07:32Z</time>
      </trkpt>
      <trkpt lat="45.13589" lon="5.63102">
        <ele>1776.2</ele>
        <time>2011-08-25T06:07:35Z</time>
      </trkpt>
      <trkpt lat="45.13593" lon="5.63106">
        <ele>1777</ele>
        <time>2011-08-25T06:07:38Z</time>
      </trkpt>
      <trkpt lat="45.13598" lon="5.6311">
        <ele>1777.9</ele>
        <time>2011-08-25T06:07:41Z</time>
      </trkpt>
      <trkpt lat="45.13602" lon="5.63113">
        <ele>1778.7</ele>
        <time>2011-08-25T06:07:44Z</time>
      </trkpt>
      <trkpt lat="45.13606" lon="5.63117">
        <ele>1779.4</ele>
        <time>2011-08-25T06:07:48Z</time>
      </trkpt>
      <trkpt lat="45.13609" lon="5.63122">
        <ele>1779.8</ele>
        <time>2011-08-25T06:07:55Z</time>
      </trkpt>
      <trkpt lat="45.13614" lon="5.63125">
        <ele>1780.7</ele>
        <time>2011-08-25T06:08:00Z</time>
      </trkpt>
      <trkpt lat="45.13618" lon="5.63127">
        <ele>1781.5</ele>
        <time>2011-08-25T06:08:05Z</time>
      </trkpt>
      <trkpt lat="45.13622" lon="5.63131">
        <ele>1782.4</ele>
        <time>2011-08-25T06:08:10Z</time>
      </trkpt>
      <trkpt lat="45.13627" lon="5.63134">
        <ele>1783.2</ele>
        <time>2011-08-25T06:08:15Z</time>
      </trkpt>
      <trkpt lat="45.13631" lon="5.63138">
        <ele>1784</ele>
        <time>2011-08-25T06:08:20Z</time>
      </trkpt>
      <trkpt lat="45.13635" lon="5.63142">
        <ele>1784.5</ele>
        <time>2011-08-25T06:08:25Z</time>
      </trkpt>
      <trkpt lat="45.13639" lon="5.63146">
        <ele>1784.6</ele>
        <time>2011-08-25T06:08:30Z</time>
      </trkpt>
      <trkpt lat="45.13644" lon="5.6315">
        <ele>1784.7</ele>
        <time>2011-08-25T06:08:35Z</time>
      </trkpt>
      <trkpt lat="45.13648" lon="5.63154">
        <ele>1785.2</ele>
        <time>2011-08-25T06:08:40Z</time>
      </trkpt>
      <trkpt lat="45.13653" lon="5.63155">
        <ele>1786.1</ele>
        <time>2011-08-25T06:08:45Z</time>
      </trkpt>
      <trkpt lat="45.13657" lon="5.63158">
        <ele>1786.7</ele>
        <time>2011-08-25T06:08:49Z</time>
      </trkpt>
      <trkpt lat="45.13661" lon="5.63162">
        <ele>1787</ele>
        <time>2011-08-25T06:08:53Z</time>
      </trkpt>
      <trkpt lat="45.13664" lon="5.63166">
        <ele>1787.3</ele>
        <time>2011-08-25T06:08:57Z</time>
      </trkpt>
      <trkpt lat="45.13667" lon="5.63171">
        <ele>1787.8</ele>
        <time>2011-08-25T06:09:01Z</time>
      </trkpt>
      <trkpt lat="45.13671" lon="5.63177">
        <ele>1788.5</ele>
        <time>2011-08-25T06:09:06Z</time>
      </trkpt>
      <trkpt lat="45.13674" lon="5.63181">
        <ele>1789.1</ele>
        <time>2011-08-25T06:09:10Z</time>
      </trkpt>
      <trkpt lat="45.13677" lon="5.63186">
        <ele>1789.6</ele>
        <time>2011-08-25T06:09:14Z</time>
      </trkpt>
      <trkpt lat="45.1368" lon="5.63191">
        <ele>1789.7</ele>
        <time>2011-08-25T06:09:18Z</time>
      </trkpt>
      <trkpt lat="45.13682" lon="5.63196">
        <ele>1790.1</ele>
        <time>2011-08-25T06:09:22Z</time>
      </trkpt>
      <trkpt lat="45.13686" lon="5.63202">
        <ele>1790.3</ele>
        <time>2011-08-25T06:09:30Z</time>
      </trkpt>
      <trkpt lat="45.13695" lon="5.63219">
        <ele>1795.5</ele>
        <time>2011-08-25T06:09:39Z</time>
      </trkpt>
      <trkpt lat="45.13698" lon="5.63226">
        <ele>1797.4</ele>
        <time>2011-08-25T06:09:42Z</time>
      </trkpt>
      <trkpt lat="45.13702" lon="5.63232">
        <ele>1797.6</ele>
        <time>2011-08-25T06:09:45Z</time>
      </trkpt>
      <trkpt lat="45.13705" lon="5.63237">
        <ele>1798.5</ele>
        <time>2011-08-25T06:09:48Z</time>
      </trkpt>
      <trkpt lat="45.13709" lon="5.63242">
        <ele>1797.8</ele>
        <time>2011-08-25T06:09:51Z</time>
      </trkpt>
      <trkpt lat="45.13713" lon="5.63248">
        <ele>1799</ele>
        <time>2011-08-25T06:09:54Z</time>
      </trkpt>
      <trkpt lat="45.13715" lon="5.63253">
        <ele>1799.6</ele>
        <time>2011-08-25T06:09:57Z</time>
      </trkpt>
      <trkpt lat="45.13718" lon="5.63258">
        <ele>1800.8</ele>
        <time>2011-08-25T06:10:00Z</time>
      </trkpt>
      <trkpt lat="45.13722" lon="5.63262">
        <ele>1801.5</ele>
        <time>2011-08-25T06:10:03Z</time>
      </trkpt>
      <trkpt lat="45.13726" lon="5.63268">
        <ele>1802.3</ele>
        <time>2011-08-25T06:10:07Z</time>
      </trkpt>
      <trkpt lat="45.13729" lon="5.63273">
        <ele>1802.6</ele>
        <time>2011-08-25T06:10:10Z</time>
      </trkpt>
      <trkpt lat="45.13732" lon="5.63278">
        <ele>1802.8</ele>
        <time>2011-08-25T06:10:13Z</time>
      </trkpt>
      <trkpt lat="45.13736" lon="5.63284">
        <ele>1803.3</ele>
        <time>2011-08-25T06:10:16Z</time>
      </trkpt>
      <trkpt lat="45.1374" lon="5.63288">
        <ele>1803.8</ele>
        <time>2011-08-25T06:10:19Z</time>
      </trkpt>
      <trkpt lat="45.13744" lon="5.63292">
        <ele>1804.4</ele>
        <time>2011-08-25T06:10:22Z</time>
      </trkpt>
      <trkpt lat="45.13748" lon="5.63296">
        <ele>1805.1</ele>
        <time>2011-08-25T06:10:25Z</time>
      </trkpt>
      <trkpt lat="45.13752" lon="5.63301">
        <ele>1805.9</ele>
        <time>2011-08-25T06:10:28Z</time>
      </trkpt>
      <trkpt lat="45.13756" lon="5.63305">
        <ele>1806.5</ele>
        <time>2011-08-25T06:10:31Z</time>
      </trkpt>
      <trkpt lat="45.1376" lon="5.6331">
        <ele>1807</ele>
        <time>2011-08-25T06:10:34Z</time>
      </trkpt>
      <trkpt lat="45.13764" lon="5.63314">
        <ele>1807.3</ele>
        <time>2011-08-25T06:10:37Z</time>
      </trkpt>
      <trkpt lat="45.13767" lon="5.63318">
        <ele>1807.6</ele>
        <time>2011-08-25T06:10:40Z</time>
      </trkpt>
      <trkpt lat="45.13771" lon="5.63323">
        <ele>1807.9</ele>
        <time>2011-08-25T06:10:44Z</time>
      </trkpt>
      <trkpt lat="45.13776" lon="5.63325">
        <ele>1808.3</ele>
        <time>2011-08-25T06:10:52Z</time>
      </trkpt>
      <trkpt lat="45.1378" lon="5.63329">
        <ele>1809</ele>
        <time>2011-08-25T06:10:57Z</time>
      </trkpt>
      <trkpt lat="45.13783" lon="5.63333">
        <ele>1809.3</ele>
        <time>2011-08-25T06:11:02Z</time>
      </trkpt>
      <trkpt lat="45.13787" lon="5.63338">
        <ele>1809.5</ele>
        <time>2011-08-25T06:11:07Z</time>
      </trkpt>
      <trkpt lat="45.13792" lon="5.63342">
        <ele>1809.5</ele>
        <time>2011-08-25T06:11:12Z</time>
      </trkpt>
      <trkpt lat="45.13796" lon="5.63346">
        <ele>1809.6</ele>
        <time>2011-08-25T06:11:17Z</time>
      </trkpt>
      <trkpt lat="45.138" lon="5.63351">
        <ele>1810.2</ele>
        <time>2011-08-25T06:11:22Z</time>
      </trkpt>
      <trkpt lat="45.13803" lon="5.63355">
        <ele>1810.7</ele>
        <time>2011-08-25T06:11:26Z</time>
      </trkpt>
      <trkpt lat="45.13807" lon="5.63358">
        <ele>1811</ele>
        <time>2011-08-25T06:11:30Z</time>
      </trkpt>
      <trkpt lat="45.13812" lon="5.63365">
        <ele>1805.9</ele>
        <time>2011-08-25T06:11:38Z</time>
      </trkpt>
      <trkpt lat="45.13812" lon="5.63365">
        <ele>1805.9</ele>
        <time>2011-08-25T06:11:38Z</time>
      </trkpt>
      <trkpt lat="45.13812" lon="5.63365">
        <ele>1805.9</ele>
        <time>2011-08-25T06:11:50Z</time>
      </trkpt>
      <trkpt lat="45.1383" lon="5.63374">
        <ele>1813.6</ele>
        <time>2011-08-25T06:11:51Z</time>
      </trkpt>
      <trkpt lat="45.13842" lon="5.63384">
        <ele>1814.5</ele>
        <time>2011-08-25T06:12:03Z</time>
      </trkpt>
      <trkpt lat="45.13846" lon="5.63387">
        <ele>1814.7</ele>
        <time>2011-08-25T06:12:07Z</time>
      </trkpt>
      <trkpt lat="45.13851" lon="5.63391">
        <ele>1815.3</ele>
        <time>2011-08-25T06:12:12Z</time>
      </trkpt>
      <trkpt lat="45.13856" lon="5.63395">
        <ele>1815.3</ele>
        <time>2011-08-25T06:12:17Z</time>
      </trkpt>
      <trkpt lat="45.13861" lon="5.63398">
        <ele>1815.6</ele>
        <time>2011-08-25T06:12:22Z</time>
      </trkpt>
      <trkpt lat="45.13864" lon="5.63402">
        <ele>1815.9</ele>
        <time>2011-08-25T06:12:26Z</time>
      </trkpt>
      <trkpt lat="45.13869" lon="5.63407">
        <ele>1816.2</ele>
        <time>2011-08-25T06:12:31Z</time>
      </trkpt>
      <trkpt lat="45.13873" lon="5.63411">
        <ele>1816.8</ele>
        <time>2011-08-25T06:12:35Z</time>
      </trkpt>
      <trkpt lat="45.13877" lon="5.63416">
        <ele>1817.8</ele>
        <time>2011-08-25T06:12:39Z</time>
      </trkpt>
      <trkpt lat="45.13881" lon="5.63421">
        <ele>1818.5</ele>
        <time>2011-08-25T06:12:43Z</time>
      </trkpt>
      <trkpt lat="45.13885" lon="5.63426">
        <ele>1819.1</ele>
        <time>2011-08-25T06:12:47Z</time>
      </trkpt>
      <trkpt lat="45.13888" lon="5.6343">
        <ele>1819.4</ele>
        <time>2011-08-25T06:12:51Z</time>
      </trkpt>
      <trkpt lat="45.13893" lon="5.63434">
        <ele>1819.8</ele>
        <time>2011-08-25T06:12:55Z</time>
      </trkpt>
      <trkpt lat="45.13897" lon="5.63438">
        <ele>1820</ele>
        <time>2011-08-25T06:12:59Z</time>
      </trkpt>
      <trkpt lat="45.139" lon="5.63442">
        <ele>1820.3</ele>
        <time>2011-08-25T06:13:03Z</time>
      </trkpt>
      <trkpt lat="45.13904" lon="5.63446">
        <ele>1820.6</ele>
        <time>2011-08-25T06:13:07Z</time>
      </trkpt>
      <trkpt lat="45.13908" lon="5.63451">
        <ele>1821.1</ele>
        <time>2011-08-25T06:13:11Z</time>
      </trkpt>
      <trkpt lat="45.13912" lon="5.63455">
        <ele>1821.7</ele>
        <time>2011-08-25T06:13:16Z</time>
      </trkpt>
      <trkpt lat="45.13917" lon="5.63457">
        <ele>1822.4</ele>
        <time>2011-08-25T06:13:20Z</time>
      </trkpt>
      <trkpt lat="45.13921" lon="5.63459">
        <ele>1823</ele>
        <time>2011-08-25T06:13:24Z</time>
      </trkpt>
      <trkpt lat="45.13926" lon="5.63462">
        <ele>1823.7</ele>
        <time>2011-08-25T06:13:28Z</time>
      </trkpt>
      <trkpt lat="45.1393" lon="5.63464">
        <ele>1824.6</ele>
        <time>2011-08-25T06:13:32Z</time>
      </trkpt>
      <trkpt lat="45.13934" lon="5.63466">
        <ele>1825.7</ele>
        <time>2011-08-25T06:13:36Z</time>
      </trkpt>
      <trkpt lat="45.13939" lon="5.63469">
        <ele>1826.1</ele>
        <time>2011-08-25T06:13:40Z</time>
      </trkpt>
      <trkpt lat="45.13943" lon="5.63472">
        <ele>1826.4</ele>
        <time>2011-08-25T06:13:44Z</time>
      </trkpt>
      <trkpt lat="45.13947" lon="5.63474">
        <ele>1826.3</ele>
        <time>2011-08-25T06:13:48Z</time>
      </trkpt>
      <trkpt lat="45.13951" lon="5.63477">
        <ele>1826.5</ele>
        <time>2011-08-25T06:13:52Z</time>
      </trkpt>
      <trkpt lat="45.13956" lon="5.6348">
        <ele>1826.9</ele>
        <time>2011-08-25T06:13:56Z</time>
      </trkpt>
      <trkpt lat="45.13961" lon="5.63483">
        <ele>1827.9</ele>
        <time>2011-08-25T06:14:01Z</time>
      </trkpt>
      <trkpt lat="45.13966" lon="5.63485">
        <ele>1828.7</ele>
        <time>2011-08-25T06:14:05Z</time>
      </trkpt>
      <trkpt lat="45.1397" lon="5.63488">
        <ele>1829.2</ele>
        <time>2011-08-25T06:14:09Z</time>
      </trkpt>
      <trkpt lat="45.13974" lon="5.63492">
        <ele>1829.6</ele>
        <time>2011-08-25T06:14:13Z</time>
      </trkpt>
      <trkpt lat="45.13978" lon="5.63496">
        <ele>1829.8</ele>
        <time>2011-08-25T06:14:17Z</time>
      </trkpt>
      <trkpt lat="45.13982" lon="5.635">
        <ele>1830.2</ele>
        <time>2011-08-25T06:14:21Z</time>
      </trkpt>
      <trkpt lat="45.13985" lon="5.63505">
        <ele>1830.9</ele>
        <time>2011-08-25T06:14:26Z</time>
      </trkpt>
      <trkpt lat="45.13987" lon="5.63512">
        <ele>1831.2</ele>
        <time>2011-08-25T06:14:31Z</time>
      </trkpt>
      <trkpt lat="45.1399" lon="5.63517">
        <ele>1831.4</ele>
        <time>2011-08-25T06:14:35Z</time>
      </trkpt>
      <trkpt lat="45.13992" lon="5.63524">
        <ele>1832</ele>
        <time>2011-08-25T06:14:39Z</time>
      </trkpt>
      <trkpt lat="45.13995" lon="5.63529">
        <ele>1832.5</ele>
        <time>2011-08-25T06:14:43Z</time>
      </trkpt>
      <trkpt lat="45.13999" lon="5.63533">
        <ele>1833.6</ele>
        <time>2011-08-25T06:14:49Z</time>
      </trkpt>
      <trkpt lat="45.14003" lon="5.63536">
        <ele>1834.4</ele>
        <time>2011-08-25T06:14:52Z</time>
      </trkpt>
      <trkpt lat="45.14007" lon="5.63539">
        <ele>1835</ele>
        <time>2011-08-25T06:14:55Z</time>
      </trkpt>
      <trkpt lat="45.14012" lon="5.6354">
        <ele>1835.7</ele>
        <time>2011-08-25T06:14:58Z</time>
      </trkpt>
      <trkpt lat="45.14017" lon="5.63541">
        <ele>1836.8</ele>
        <time>2011-08-25T06:15:01Z</time>
      </trkpt>
      <trkpt lat="45.14022" lon="5.63542">
        <ele>1837.6</ele>
        <time>2011-08-25T06:15:04Z</time>
      </trkpt>
      <trkpt lat="45.14027" lon="5.63545">
        <ele>1838.6</ele>
        <time>2011-08-25T06:15:08Z</time>
      </trkpt>
      <trkpt lat="45.14031" lon="5.63549">
        <ele>1839.1</ele>
        <time>2011-08-25T06:15:11Z</time>
      </trkpt>
      <trkpt lat="45.14036" lon="5.63554">
        <ele>1839.9</ele>
        <time>2011-08-25T06:15:14Z</time>
      </trkpt>
      <trkpt lat="45.1404" lon="5.63558">
        <ele>1840.5</ele>
        <time>2011-08-25T06:15:17Z</time>
      </trkpt>
      <trkpt lat="45.14043" lon="5.63563">
        <ele>1841.2</ele>
        <time>2011-08-25T06:15:20Z</time>
      </trkpt>
      <trkpt lat="45.14047" lon="5.63567">
        <ele>1841.9</ele>
        <time>2011-08-25T06:15:23Z</time>
      </trkpt>
      <trkpt lat="45.14052" lon="5.63572">
        <ele>1842.4</ele>
        <time>2011-08-25T06:15:26Z</time>
      </trkpt>
      <trkpt lat="45.14055" lon="5.63576">
        <ele>1843.1</ele>
        <time>2011-08-25T06:15:29Z</time>
      </trkpt>
      <trkpt lat="45.1406" lon="5.6358">
        <ele>1843.8</ele>
        <time>2011-08-25T06:15:32Z</time>
      </trkpt>
      <trkpt lat="45.14063" lon="5.63585">
        <ele>1844.2</ele>
        <time>2011-08-25T06:15:35Z</time>
      </trkpt>
      <trkpt lat="45.14067" lon="5.63588">
        <ele>1844.9</ele>
        <time>2011-08-25T06:15:38Z</time>
      </trkpt>
      <trkpt lat="45.14071" lon="5.63592">
        <ele>1845.5</ele>
        <time>2011-08-25T06:15:41Z</time>
      </trkpt>
      <trkpt lat="45.14075" lon="5.63596">
        <ele>1846</ele>
        <time>2011-08-25T06:15:44Z</time>
      </trkpt>
      <trkpt lat="45.14079" lon="5.636">
        <ele>1846.3</ele>
        <time>2011-08-25T06:15:47Z</time>
      </trkpt>
      <trkpt lat="45.14083" lon="5.63605">
        <ele>1846.9</ele>
        <time>2011-08-25T06:15:50Z</time>
      </trkpt>
      <trkpt lat="45.14088" lon="5.63609">
        <ele>1847.1</ele>
        <time>2011-08-25T06:15:53Z</time>
      </trkpt>
      <trkpt lat="45.14092" lon="5.63613">
        <ele>1847.8</ele>
        <time>2011-08-25T06:15:56Z</time>
      </trkpt>
      <trkpt lat="45.14097" lon="5.63615">
        <ele>1848.3</ele>
        <time>2011-08-25T06:15:59Z</time>
      </trkpt>
      <trkpt lat="45.14102" lon="5.63616">
        <ele>1848.6</ele>
        <time>2011-08-25T06:16:02Z</time>
      </trkpt>
      <trkpt lat="45.14106" lon="5.63617">
        <ele>1849.2</ele>
        <time>2011-08-25T06:16:05Z</time>
      </trkpt>
      <trkpt lat="45.14111" lon="5.63618">
        <ele>1849.8</ele>
        <time>2011-08-25T06:16:08Z</time>
      </trkpt>
      <trkpt lat="45.14117" lon="5.63619">
        <ele>1850.6</ele>
        <time>2011-08-25T06:16:12Z</time>
      </trkpt>
      <trkpt lat="45.14121" lon="5.63621">
        <ele>1851.1</ele>
        <time>2011-08-25T06:16:15Z</time>
      </trkpt>
      <trkpt lat="45.14126" lon="5.63624">
        <ele>1851.9</ele>
        <time>2011-08-25T06:16:18Z</time>
      </trkpt>
      <trkpt lat="45.1413" lon="5.63626">
        <ele>1852.5</ele>
        <time>2011-08-25T06:16:21Z</time>
      </trkpt>
      <trkpt lat="45.14135" lon="5.63629">
        <ele>1852.7</ele>
        <time>2011-08-25T06:16:24Z</time>
      </trkpt>
      <trkpt lat="45.1414" lon="5.6363">
        <ele>1852.8</ele>
        <time>2011-08-25T06:16:27Z</time>
      </trkpt>
      <trkpt lat="45.14145" lon="5.63633">
        <ele>1853.2</ele>
        <time>2011-08-25T06:16:30Z</time>
      </trkpt>
      <trkpt lat="45.1415" lon="5.63634">
        <ele>1854.1</ele>
        <time>2011-08-25T06:16:33Z</time>
      </trkpt>
      <trkpt lat="45.14154" lon="5.63635">
        <ele>1854.7</ele>
        <time>2011-08-25T06:16:36Z</time>
      </trkpt>
      <trkpt lat="45.1416" lon="5.63638">
        <ele>1855.3</ele>
        <time>2011-08-25T06:16:39Z</time>
      </trkpt>
      <trkpt lat="45.14164" lon="5.63641">
        <ele>1855.7</ele>
        <time>2011-08-25T06:16:42Z</time>
      </trkpt>
      <trkpt lat="45.14168" lon="5.63644">
        <ele>1856.2</ele>
        <time>2011-08-25T06:16:45Z</time>
      </trkpt>
      <trkpt lat="45.14173" lon="5.63645">
        <ele>1856.6</ele>
        <time>2011-08-25T06:16:48Z</time>
      </trkpt>
      <trkpt lat="45.14178" lon="5.63647">
        <ele>1856.6</ele>
        <time>2011-08-25T06:16:51Z</time>
      </trkpt>
      <trkpt lat="45.14183" lon="5.63649">
        <ele>1857.4</ele>
        <time>2011-08-25T06:16:54Z</time>
      </trkpt>
      <trkpt lat="45.14188" lon="5.6365">
        <ele>1858.2</ele>
        <time>2011-08-25T06:16:57Z</time>
      </trkpt>
      <trkpt lat="45.14193" lon="5.63652">
        <ele>1858.8</ele>
        <time>2011-08-25T06:17:00Z</time>
      </trkpt>
      <trkpt lat="45.14198" lon="5.63654">
        <ele>1859.4</ele>
        <time>2011-08-25T06:17:03Z</time>
      </trkpt>
      <trkpt lat="45.14203" lon="5.63655">
        <ele>1859.8</ele>
        <time>2011-08-25T06:17:06Z</time>
      </trkpt>
      <trkpt lat="45.14208" lon="5.63657">
        <ele>1860.2</ele>
        <time>2011-08-25T06:17:09Z</time>
      </trkpt>
      <trkpt lat="45.14214" lon="5.63659">
        <ele>1860.7</ele>
        <time>2011-08-25T06:17:12Z</time>
      </trkpt>
      <trkpt lat="45.14218" lon="5.63661">
        <ele>1861.4</ele>
        <time>2011-08-25T06:17:15Z</time>
      </trkpt>
      <trkpt lat="45.14223" lon="5.63664">
        <ele>1862</ele>
        <time>2011-08-25T06:17:18Z</time>
      </trkpt>
      <trkpt lat="45.14228" lon="5.63666">
        <ele>1862.1</ele>
        <time>2011-08-25T06:17:21Z</time>
      </trkpt>
      <trkpt lat="45.14233" lon="5.63668">
        <ele>1862.5</ele>
        <time>2011-08-25T06:17:24Z</time>
      </trkpt>
      <trkpt lat="45.14238" lon="5.63671">
        <ele>1863</ele>
        <time>2011-08-25T06:17:27Z</time>
      </trkpt>
      <trkpt lat="45.14243" lon="5.63675">
        <ele>1863.4</ele>
        <time>2011-08-25T06:17:30Z</time>
      </trkpt>
      <trkpt lat="45.14257" lon="5.6368">
        <ele>1873</ele>
        <time>2011-08-25T06:17:40Z</time>
      </trkpt>
      <trkpt lat="45.14262" lon="5.63683">
        <ele>1874.2</ele>
        <time>2011-08-25T06:17:43Z</time>
      </trkpt>
      <trkpt lat="45.14266" lon="5.63686">
        <ele>1875.5</ele>
        <time>2011-08-25T06:17:46Z</time>
      </trkpt>
      <trkpt lat="45.14272" lon="5.63689">
        <ele>1875.5</ele>
        <time>2011-08-25T06:17:49Z</time>
      </trkpt>
      <trkpt lat="45.14276" lon="5.63693">
        <ele>1876.1</ele>
        <time>2011-08-25T06:17:52Z</time>
      </trkpt>
      <trkpt lat="45.14281" lon="5.63696">
        <ele>1875.4</ele>
        <time>2011-08-25T06:17:55Z</time>
      </trkpt>
      <trkpt lat="45.14286" lon="5.637">
        <ele>1875.6</ele>
        <time>2011-08-25T06:17:58Z</time>
      </trkpt>
      <trkpt lat="45.1429" lon="5.63704">
        <ele>1875.1</ele>
        <time>2011-08-25T06:18:01Z</time>
      </trkpt>
      <trkpt lat="45.14294" lon="5.63708">
        <ele>1875.4</ele>
        <time>2011-08-25T06:18:04Z</time>
      </trkpt>
      <trkpt lat="45.14299" lon="5.63711">
        <ele>1875.6</ele>
        <time>2011-08-25T06:18:07Z</time>
      </trkpt>
      <trkpt lat="45.14303" lon="5.63714">
        <ele>1875.9</ele>
        <time>2011-08-25T06:18:10Z</time>
      </trkpt>
      <trkpt lat="45.14307" lon="5.63717">
        <ele>1876.1</ele>
        <time>2011-08-25T06:18:13Z</time>
      </trkpt>
      <trkpt lat="45.14312" lon="5.63721">
        <ele>1876.4</ele>
        <time>2011-08-25T06:18:16Z</time>
      </trkpt>
      <trkpt lat="45.14316" lon="5.63724">
        <ele>1876.5</ele>
        <time>2011-08-25T06:18:19Z</time>
      </trkpt>
      <trkpt lat="45.14322" lon="5.63726">
        <ele>1876.7</ele>
        <time>2011-08-25T06:18:22Z</time>
      </trkpt>
      <trkpt lat="45.14326" lon="5.63729">
        <ele>1877.3</ele>
        <time>2011-08-25T06:18:25Z</time>
      </trkpt>
      <trkpt lat="45.14331" lon="5.63732">
        <ele>1877.7</ele>
        <time>2011-08-25T06:18:28Z</time>
      </trkpt>
      <trkpt lat="45.14336" lon="5.63734">
        <ele>1878.4</ele>
        <time>2011-08-25T06:18:31Z</time>
      </trkpt>
      <trkpt lat="45.14341" lon="5.63736">
        <ele>1878.9</ele>
        <time>2011-08-25T06:18:34Z</time>
      </trkpt>
      <trkpt lat="45.14346" lon="5.63739">
        <ele>1879.3</ele>
        <time>2011-08-25T06:18:37Z</time>
      </trkpt>
      <trkpt lat="45.1435" lon="5.63742">
        <ele>1879.5</ele>
        <time>2011-08-25T06:18:40Z</time>
      </trkpt>
      <trkpt lat="45.14355" lon="5.63745">
        <ele>1879.7</ele>
        <time>2011-08-25T06:18:43Z</time>
      </trkpt>
      <trkpt lat="45.14359" lon="5.63748">
        <ele>1879.9</ele>
        <time>2011-08-25T06:18:46Z</time>
      </trkpt>
      <trkpt lat="45.14363" lon="5.63751">
        <ele>1879.9</ele>
        <time>2011-08-25T06:18:49Z</time>
      </trkpt>
      <trkpt lat="45.14368" lon="5.63754">
        <ele>1880.1</ele>
        <time>2011-08-25T06:18:52Z</time>
      </trkpt>
      <trkpt lat="45.14373" lon="5.63757">
        <ele>1880.1</ele>
        <time>2011-08-25T06:18:55Z</time>
      </trkpt>
      <trkpt lat="45.14377" lon="5.63759">
        <ele>1880.4</ele>
        <time>2011-08-25T06:18:58Z</time>
      </trkpt>
      <trkpt lat="45.14382" lon="5.63762">
        <ele>1880.5</ele>
        <time>2011-08-25T06:19:01Z</time>
      </trkpt>
      <trkpt lat="45.14387" lon="5.63765">
        <ele>1881.3</ele>
        <time>2011-08-25T06:19:04Z</time>
      </trkpt>
      <trkpt lat="45.14392" lon="5.63768">
        <ele>1881.9</ele>
        <time>2011-08-25T06:19:07Z</time>
      </trkpt>
      <trkpt lat="45.14396" lon="5.63772">
        <ele>1882.3</ele>
        <time>2011-08-25T06:19:10Z</time>
      </trkpt>
      <trkpt lat="45.14401" lon="5.63775">
        <ele>1882.8</ele>
        <time>2011-08-25T06:19:13Z</time>
      </trkpt>
      <trkpt lat="45.14406" lon="5.63778">
        <ele>1883.2</ele>
        <time>2011-08-25T06:19:16Z</time>
      </trkpt>
      <trkpt lat="45.1441" lon="5.63782">
        <ele>1883.3</ele>
        <time>2011-08-25T06:19:19Z</time>
      </trkpt>
      <trkpt lat="45.14414" lon="5.63785">
        <ele>1883.8</ele>
        <time>2011-08-25T06:19:22Z</time>
      </trkpt>
      <trkpt lat="45.14419" lon="5.63788">
        <ele>1884.3</ele>
        <time>2011-08-25T06:19:25Z</time>
      </trkpt>
      <trkpt lat="45.14424" lon="5.63791">
        <ele>1885</ele>
        <time>2011-08-25T06:19:28Z</time>
      </trkpt>
      <trkpt lat="45.14428" lon="5.63794">
        <ele>1885.2</ele>
        <time>2011-08-25T06:19:31Z</time>
      </trkpt>
      <trkpt lat="45.14433" lon="5.63797">
        <ele>1885.6</ele>
        <time>2011-08-25T06:19:34Z</time>
      </trkpt>
      <trkpt lat="45.14437" lon="5.63802">
        <ele>1886</ele>
        <time>2011-08-25T06:19:37Z</time>
      </trkpt>
      <trkpt lat="45.14441" lon="5.63806">
        <ele>1886.6</ele>
        <time>2011-08-25T06:19:40Z</time>
      </trkpt>
      <trkpt lat="45.14447" lon="5.63807">
        <ele>1886.5</ele>
        <time>2011-08-25T06:19:43Z</time>
      </trkpt>
      <trkpt lat="45.14452" lon="5.63809">
        <ele>1887</ele>
        <time>2011-08-25T06:19:46Z</time>
      </trkpt>
      <trkpt lat="45.14457" lon="5.63811">
        <ele>1887.4</ele>
        <time>2011-08-25T06:19:49Z</time>
      </trkpt>
      <trkpt lat="45.14461" lon="5.63813">
        <ele>1888</ele>
        <time>2011-08-25T06:19:52Z</time>
      </trkpt>
      <trkpt lat="45.14466" lon="5.63814">
        <ele>1888.5</ele>
        <time>2011-08-25T06:19:55Z</time>
      </trkpt>
      <trkpt lat="45.14471" lon="5.63815">
        <ele>1889</ele>
        <time>2011-08-25T06:19:58Z</time>
      </trkpt>
      <trkpt lat="45.14476" lon="5.63815">
        <ele>1889.6</ele>
        <time>2011-08-25T06:20:01Z</time>
      </trkpt>
      <trkpt lat="45.14482" lon="5.63815">
        <ele>1890</ele>
        <time>2011-08-25T06:20:04Z</time>
      </trkpt>
      <trkpt lat="45.14487" lon="5.63816">
        <ele>1890.3</ele>
        <time>2011-08-25T06:20:07Z</time>
      </trkpt>
      <trkpt lat="45.14492" lon="5.63815">
        <ele>1890.4</ele>
        <time>2011-08-25T06:20:10Z</time>
      </trkpt>
      <trkpt lat="45.14497" lon="5.63816">
        <ele>1890.9</ele>
        <time>2011-08-25T06:20:13Z</time>
      </trkpt>
      <trkpt lat="45.14503" lon="5.63815">
        <ele>1891.4</ele>
        <time>2011-08-25T06:20:16Z</time>
      </trkpt>
      <trkpt lat="45.14508" lon="5.63815">
        <ele>1891.6</ele>
        <time>2011-08-25T06:20:19Z</time>
      </trkpt>
      <trkpt lat="45.14513" lon="5.63814">
        <ele>1892.1</ele>
        <time>2011-08-25T06:20:22Z</time>
      </trkpt>
      <trkpt lat="45.14518" lon="5.63814">
        <ele>1892.5</ele>
        <time>2011-08-25T06:20:25Z</time>
      </trkpt>
      <trkpt lat="45.14523" lon="5.63813">
        <ele>1893</ele>
        <time>2011-08-25T06:20:28Z</time>
      </trkpt>
      <trkpt lat="45.14528" lon="5.63812">
        <ele>1893.3</ele>
        <time>2011-08-25T06:20:31Z</time>
      </trkpt>
      <trkpt lat="45.14533" lon="5.6381">
        <ele>1893.7</ele>
        <time>2011-08-25T06:20:34Z</time>
      </trkpt>
      <trkpt lat="45.14538" lon="5.63808">
        <ele>1894.1</ele>
        <time>2011-08-25T06:20:37Z</time>
      </trkpt>
      <trkpt lat="45.14544" lon="5.63806">
        <ele>1894.6</ele>
        <time>2011-08-25T06:20:40Z</time>
      </trkpt>
      <trkpt lat="45.14548" lon="5.63803">
        <ele>1895</ele>
        <time>2011-08-25T06:20:43Z</time>
      </trkpt>
      <trkpt lat="45.14553" lon="5.63801">
        <ele>1895.4</ele>
        <time>2011-08-25T06:20:46Z</time>
      </trkpt>
      <trkpt lat="45.14558" lon="5.638">
        <ele>1896.5</ele>
        <time>2011-08-25T06:20:49Z</time>
      </trkpt>
      <trkpt lat="45.14563" lon="5.63798">
        <ele>1897</ele>
        <time>2011-08-25T06:20:52Z</time>
      </trkpt>
      <trkpt lat="45.14567" lon="5.63795">
        <ele>1897.5</ele>
        <time>2011-08-25T06:20:55Z</time>
      </trkpt>
      <trkpt lat="45.14572" lon="5.63794">
        <ele>1897.8</ele>
        <time>2011-08-25T06:20:58Z</time>
      </trkpt>
      <trkpt lat="45.14577" lon="5.63792">
        <ele>1898.2</ele>
        <time>2011-08-25T06:21:01Z</time>
      </trkpt>
      <trkpt lat="45.14582" lon="5.63792">
        <ele>1898.5</ele>
        <time>2011-08-25T06:21:04Z</time>
      </trkpt>
      <trkpt lat="45.14587" lon="5.63793">
        <ele>1899.4</ele>
        <time>2011-08-25T06:21:07Z</time>
      </trkpt>
      <trkpt lat="45.14594" lon="5.63794">
        <ele>1899.8</ele>
        <time>2011-08-25T06:21:10Z</time>
      </trkpt>
      <trkpt lat="45.14599" lon="5.63794">
        <ele>1900.2</ele>
        <time>2011-08-25T06:21:13Z</time>
      </trkpt>
      <trkpt lat="45.14604" lon="5.63795">
        <ele>1900.6</ele>
        <time>2011-08-25T06:21:16Z</time>
      </trkpt>
      <trkpt lat="45.14609" lon="5.63796">
        <ele>1901.2</ele>
        <time>2011-08-25T06:21:19Z</time>
      </trkpt>
      <trkpt lat="45.14614" lon="5.63797">
        <ele>1901.8</ele>
        <time>2011-08-25T06:21:22Z</time>
      </trkpt>
      <trkpt lat="45.1462" lon="5.63798">
        <ele>1902.3</ele>
        <time>2011-08-25T06:21:25Z</time>
      </trkpt>
      <trkpt lat="45.14625" lon="5.63799">
        <ele>1902.9</ele>
        <time>2011-08-25T06:21:28Z</time>
      </trkpt>
      <trkpt lat="45.14629" lon="5.63799">
        <ele>1903.5</ele>
        <time>2011-08-25T06:21:31Z</time>
      </trkpt>
      <trkpt lat="45.14635" lon="5.63801">
        <ele>1904.1</ele>
        <time>2011-08-25T06:21:34Z</time>
      </trkpt>
      <trkpt lat="45.1464" lon="5.63803">
        <ele>1904.6</ele>
        <time>2011-08-25T06:21:37Z</time>
      </trkpt>
      <trkpt lat="45.14645" lon="5.63804">
        <ele>1905.2</ele>
        <time>2011-08-25T06:21:40Z</time>
      </trkpt>
      <trkpt lat="45.14651" lon="5.63806">
        <ele>1905.6</ele>
        <time>2011-08-25T06:21:43Z</time>
      </trkpt>
      <trkpt lat="45.14656" lon="5.63807">
        <ele>1906</ele>
        <time>2011-08-25T06:21:46Z</time>
      </trkpt>
      <trkpt lat="45.1466" lon="5.63808">
        <ele>1906.5</ele>
        <time>2011-08-25T06:21:49Z</time>
      </trkpt>
      <trkpt lat="45.14665" lon="5.6381">
        <ele>1907.2</ele>
        <time>2011-08-25T06:21:52Z</time>
      </trkpt>
      <trkpt lat="45.14671" lon="5.63812">
        <ele>1908</ele>
        <time>2011-08-25T06:21:55Z</time>
      </trkpt>
      <trkpt lat="45.14676" lon="5.63814">
        <ele>1908.8</ele>
        <time>2011-08-25T06:21:58Z</time>
      </trkpt>
      <trkpt lat="45.14681" lon="5.63817">
        <ele>1909.6</ele>
        <time>2011-08-25T06:22:01Z</time>
      </trkpt>
      <trkpt lat="45.14686" lon="5.63819">
        <ele>1910.2</ele>
        <time>2011-08-25T06:22:04Z</time>
      </trkpt>
      <trkpt lat="45.14692" lon="5.63821">
        <ele>1911.2</ele>
        <time>2011-08-25T06:22:07Z</time>
      </trkpt>
      <trkpt lat="45.14697" lon="5.63823">
        <ele>1911.9</ele>
        <time>2011-08-25T06:22:10Z</time>
      </trkpt>
      <trkpt lat="45.14702" lon="5.63826">
        <ele>1912.5</ele>
        <time>2011-08-25T06:22:13Z</time>
      </trkpt>
      <trkpt lat="45.14707" lon="5.63829">
        <ele>1913</ele>
        <time>2011-08-25T06:22:16Z</time>
      </trkpt>
      <trkpt lat="45.14713" lon="5.63832">
        <ele>1913.7</ele>
        <time>2011-08-25T06:22:19Z</time>
      </trkpt>
      <trkpt lat="45.14718" lon="5.63834">
        <ele>1914.3</ele>
        <time>2011-08-25T06:22:22Z</time>
      </trkpt>
      <trkpt lat="45.14722" lon="5.63838">
        <ele>1915.5</ele>
        <time>2011-08-25T06:22:25Z</time>
      </trkpt>
      <trkpt lat="45.14727" lon="5.63841">
        <ele>1916.6</ele>
        <time>2011-08-25T06:22:28Z</time>
      </trkpt>
      <trkpt lat="45.14731" lon="5.63844">
        <ele>1917.5</ele>
        <time>2011-08-25T06:22:31Z</time>
      </trkpt>
      <trkpt lat="45.14736" lon="5.63847">
        <ele>1918.5</ele>
        <time>2011-08-25T06:22:34Z</time>
      </trkpt>
      <trkpt lat="45.1474" lon="5.63851">
        <ele>1919.4</ele>
        <time>2011-08-25T06:22:37Z</time>
      </trkpt>
      <trkpt lat="45.14744" lon="5.63856">
        <ele>1920.2</ele>
        <time>2011-08-25T06:22:40Z</time>
      </trkpt>
      <trkpt lat="45.14748" lon="5.6386">
        <ele>1920.9</ele>
        <time>2011-08-25T06:22:43Z</time>
      </trkpt>
      <trkpt lat="45.14753" lon="5.63864">
        <ele>1921.2</ele>
        <time>2011-08-25T06:22:46Z</time>
      </trkpt>
      <trkpt lat="45.14758" lon="5.63869">
        <ele>1921.6</ele>
        <time>2011-08-25T06:22:49Z</time>
      </trkpt>
      <trkpt lat="45.14763" lon="5.63873">
        <ele>1921.8</ele>
        <time>2011-08-25T06:22:52Z</time>
      </trkpt>
      <trkpt lat="45.14768" lon="5.63876">
        <ele>1922.1</ele>
        <time>2011-08-25T06:22:55Z</time>
      </trkpt>
      <trkpt lat="45.14773" lon="5.6388">
        <ele>1922.6</ele>
        <time>2011-08-25T06:22:58Z</time>
      </trkpt>
      <trkpt lat="45.14778" lon="5.63884">
        <ele>1922.7</ele>
        <time>2011-08-25T06:23:01Z</time>
      </trkpt>
      <trkpt lat="45.14783" lon="5.63888">
        <ele>1922.9</ele>
        <time>2011-08-25T06:23:04Z</time>
      </trkpt>
      <trkpt lat="45.14788" lon="5.63892">
        <ele>1922.8</ele>
        <time>2011-08-25T06:23:07Z</time>
      </trkpt>
      <trkpt lat="45.14792" lon="5.63895">
        <ele>1923</ele>
        <time>2011-08-25T06:23:09Z</time>
      </trkpt>
      <trkpt lat="45.14797" lon="5.63899">
        <ele>1923.2</ele>
        <time>2011-08-25T06:23:11Z</time>
      </trkpt>
      <trkpt lat="45.14802" lon="5.63903">
        <ele>1923.2</ele>
        <time>2011-08-25T06:23:13Z</time>
      </trkpt>
      <trkpt lat="45.14807" lon="5.63908">
        <ele>1922.9</ele>
        <time>2011-08-25T06:23:15Z</time>
      </trkpt>
      <trkpt lat="45.14812" lon="5.63913">
        <ele>1922.7</ele>
        <time>2011-08-25T06:23:17Z</time>
      </trkpt>
      <trkpt lat="45.14815" lon="5.63918">
        <ele>1922.6</ele>
        <time>2011-08-25T06:23:21Z</time>
      </trkpt>
      <trkpt lat="45.14818" lon="5.63923">
        <ele>1923.5</ele>
        <time>2011-08-25T06:23:28Z</time>
      </trkpt>
      <trkpt lat="45.14829" lon="5.63938">
        <ele>1924.4</ele>
        <time>2011-08-25T06:23:40Z</time>
      </trkpt>
      <trkpt lat="45.14835" lon="5.63944">
        <ele>1925.5</ele>
        <time>2011-08-25T06:23:43Z</time>
      </trkpt>
      <trkpt lat="45.14841" lon="5.63948">
        <ele>1924.9</ele>
        <time>2011-08-25T06:23:45Z</time>
      </trkpt>
      <trkpt lat="45.14849" lon="5.63951">
        <ele>1923.2</ele>
        <time>2011-08-25T06:23:47Z</time>
      </trkpt>
      <trkpt lat="45.14856" lon="5.63956">
        <ele>1922.4</ele>
        <time>2011-08-25T06:23:49Z</time>
      </trkpt>
      <trkpt lat="45.14863" lon="5.63962">
        <ele>1921.9</ele>
        <time>2011-08-25T06:23:51Z</time>
      </trkpt>
      <trkpt lat="45.14869" lon="5.63967">
        <ele>1921.7</ele>
        <time>2011-08-25T06:23:53Z</time>
      </trkpt>
      <trkpt lat="45.14873" lon="5.63969">
        <ele>1921.7</ele>
        <time>2011-08-25T06:23:55Z</time>
      </trkpt>
      <trkpt lat="45.14878" lon="5.63975">
        <ele>1921</ele>
        <time>2011-08-25T06:23:58Z</time>
      </trkpt>
      <trkpt lat="45.14884" lon="5.63978">
        <ele>1920.7</ele>
        <time>2011-08-25T06:24:00Z</time>
      </trkpt>
      <trkpt lat="45.14891" lon="5.63979">
        <ele>1920.3</ele>
        <time>2011-08-25T06:24:02Z</time>
      </trkpt>
      <trkpt lat="45.14896" lon="5.63981">
        <ele>1920.5</ele>
        <time>2011-08-25T06:24:04Z</time>
      </trkpt>
      <trkpt lat="45.149" lon="5.63983">
        <ele>1920.6</ele>
        <time>2011-08-25T06:24:06Z</time>
      </trkpt>
      <trkpt lat="45.14905" lon="5.63987">
        <ele>1920.5</ele>
        <time>2011-08-25T06:24:09Z</time>
      </trkpt>
      <trkpt lat="45.14908" lon="5.63993">
        <ele>1919.5</ele>
        <time>2011-08-25T06:24:18Z</time>
      </trkpt>
      <trkpt lat="45.14904" lon="5.63986">
        <ele>1919.4</ele>
        <time>2011-08-25T06:29:06Z</time>
      </trkpt>
      <trkpt lat="45.149" lon="5.6398">
        <ele>1919.5</ele>
        <time>2011-08-25T06:29:12Z</time>
      </trkpt>
      <trkpt lat="45.14899" lon="5.63971">
        <ele>1919.9</ele>
        <time>2011-08-25T06:29:15Z</time>
      </trkpt>
      <trkpt lat="45.14899" lon="5.63962">
        <ele>1920.5</ele>
        <time>2011-08-25T06:29:18Z</time>
      </trkpt>
      <trkpt lat="45.14899" lon="5.63955">
        <ele>1921.1</ele>
        <time>2011-08-25T06:29:21Z</time>
      </trkpt>
      <trkpt lat="45.14896" lon="5.63949">
        <ele>1921</ele>
        <time>2011-08-25T06:29:24Z</time>
      </trkpt>
      <trkpt lat="45.14892" lon="5.63945">
        <ele>1921</ele>
        <time>2011-08-25T06:29:26Z</time>
      </trkpt>
      <trkpt lat="45.14888" lon="5.63941">
        <ele>1921.2</ele>
        <time>2011-08-25T06:29:39Z</time>
      </trkpt>
      <trkpt lat="45.14888" lon="5.63934">
        <ele>1921</ele>
        <time>2011-08-25T06:29:42Z</time>
      </trkpt>
      <trkpt lat="45.14888" lon="5.63927">
        <ele>1920.8</ele>
        <time>2011-08-25T06:29:44Z</time>
      </trkpt>
      <trkpt lat="45.14888" lon="5.63919">
        <ele>1920.5</ele>
        <time>2011-08-25T06:29:46Z</time>
      </trkpt>
      <trkpt lat="45.14886" lon="5.63911">
        <ele>1919.7</ele>
        <time>2011-08-25T06:29:48Z</time>
      </trkpt>
      <trkpt lat="45.14885" lon="5.63903">
        <ele>1919.1</ele>
        <time>2011-08-25T06:29:50Z</time>
      </trkpt>
      <trkpt lat="45.14881" lon="5.63895">
        <ele>1918.3</ele>
        <time>2011-08-25T06:29:52Z</time>
      </trkpt>
      <trkpt lat="45.14876" lon="5.63885">
        <ele>1916.6</ele>
        <time>2011-08-25T06:29:54Z</time>
      </trkpt>
      <trkpt lat="45.14874" lon="5.63879">
        <ele>1915.6</ele>
        <time>2011-08-25T06:29:55Z</time>
      </trkpt>
      <trkpt lat="45.1487" lon="5.63868">
        <ele>1914.2</ele>
        <time>2011-08-25T06:29:57Z</time>
      </trkpt>
      <trkpt lat="45.14869" lon="5.6386">
        <ele>1912.8</ele>
        <time>2011-08-25T06:29:59Z</time>
      </trkpt>
      <trkpt lat="45.14871" lon="5.63851">
        <ele>1912.2</ele>
        <time>2011-08-25T06:30:02Z</time>
      </trkpt>
      <trkpt lat="45.14872" lon="5.63844">
        <ele>1911.6</ele>
        <time>2011-08-25T06:30:04Z</time>
      </trkpt>
      <trkpt lat="45.14876" lon="5.63835">
        <ele>1910.4</ele>
        <time>2011-08-25T06:30:07Z</time>
      </trkpt>
      <trkpt lat="45.1488" lon="5.6383">
        <ele>1909.7</ele>
        <time>2011-08-25T06:30:09Z</time>
      </trkpt>
      <trkpt lat="45.14886" lon="5.63825">
        <ele>1908.7</ele>
        <time>2011-08-25T06:30:11Z</time>
      </trkpt>
      <trkpt lat="45.14892" lon="5.6382">
        <ele>1908</ele>
        <time>2011-08-25T06:30:13Z</time>
      </trkpt>
      <trkpt lat="45.14898" lon="5.63815">
        <ele>1907.6</ele>
        <time>2011-08-25T06:30:15Z</time>
      </trkpt>
      <trkpt lat="45.14904" lon="5.6381">
        <ele>1907.3</ele>
        <time>2011-08-25T06:30:17Z</time>
      </trkpt>
      <trkpt lat="45.14912" lon="5.63802">
        <ele>1906.8</ele>
        <time>2011-08-25T06:30:19Z</time>
      </trkpt>
      <trkpt lat="45.14917" lon="5.63798">
        <ele>1906.4</ele>
        <time>2011-08-25T06:30:20Z</time>
      </trkpt>
      <trkpt lat="45.14921" lon="5.63794">
        <ele>1906.3</ele>
        <time>2011-08-25T06:30:21Z</time>
      </trkpt>
      <trkpt lat="45.14924" lon="5.6379">
        <ele>1906.2</ele>
        <time>2011-08-25T06:30:22Z</time>
      </trkpt>
      <trkpt lat="45.14928" lon="5.63786">
        <ele>1906.2</ele>
        <time>2011-08-25T06:30:23Z</time>
      </trkpt>
      <trkpt lat="45.14928" lon="5.63778">
        <ele>1905.1</ele>
        <time>2011-08-25T06:30:25Z</time>
      </trkpt>
      <trkpt lat="45.14923" lon="5.63774">
        <ele>1903.3</ele>
        <time>2011-08-25T06:30:27Z</time>
      </trkpt>
      <trkpt lat="45.14915" lon="5.63772">
        <ele>1901.2</ele>
        <time>2011-08-25T06:30:29Z</time>
      </trkpt>
      <trkpt lat="45.14907" lon="5.6377">
        <ele>1899.4</ele>
        <time>2011-08-25T06:30:31Z</time>
      </trkpt>
      <trkpt lat="45.14899" lon="5.63769">
        <ele>1898.5</ele>
        <time>2011-08-25T06:30:33Z</time>
      </trkpt>
      <trkpt lat="45.14891" lon="5.63768">
        <ele>1898.1</ele>
        <time>2011-08-25T06:30:35Z</time>
      </trkpt>
      <trkpt lat="45.14882" lon="5.63768">
        <ele>1898</ele>
        <time>2011-08-25T06:30:37Z</time>
      </trkpt>
      <trkpt lat="45.14877" lon="5.63768">
        <ele>1897.8</ele>
        <time>2011-08-25T06:30:38Z</time>
      </trkpt>
      <trkpt lat="45.14872" lon="5.63767">
        <ele>1897.8</ele>
        <time>2011-08-25T06:30:39Z</time>
      </trkpt>
      <trkpt lat="45.14868" lon="5.63766">
        <ele>1897.7</ele>
        <time>2011-08-25T06:30:40Z</time>
      </trkpt>
      <trkpt lat="45.1486" lon="5.63761">
        <ele>1897.4</ele>
        <time>2011-08-25T06:30:42Z</time>
      </trkpt>
      <trkpt lat="45.14852" lon="5.63754">
        <ele>1897</ele>
        <time>2011-08-25T06:30:44Z</time>
      </trkpt>
      <trkpt lat="45.14849" lon="5.63749">
        <ele>1896.7</ele>
        <time>2011-08-25T06:30:45Z</time>
      </trkpt>
      <trkpt lat="45.14844" lon="5.63743">
        <ele>1893.1</ele>
        <time>2011-08-25T06:30:47Z</time>
      </trkpt>
      <trkpt lat="45.14839" lon="5.63736">
        <ele>1891.1</ele>
        <time>2011-08-25T06:30:49Z</time>
      </trkpt>
      <trkpt lat="45.14834" lon="5.6373">
        <ele>1888.1</ele>
        <time>2011-08-25T06:30:52Z</time>
      </trkpt>
      <trkpt lat="45.14829" lon="5.63728">
        <ele>1883.1</ele>
        <time>2011-08-25T06:30:55Z</time>
      </trkpt>
      <trkpt lat="45.14824" lon="5.63725">
        <ele>1879.8</ele>
        <time>2011-08-25T06:30:58Z</time>
      </trkpt>
      <trkpt lat="45.14819" lon="5.63725">
        <ele>1878.2</ele>
        <time>2011-08-25T06:31:00Z</time>
      </trkpt>
      <trkpt lat="45.14813" lon="5.63725">
        <ele>1877.2</ele>
        <time>2011-08-25T06:31:02Z</time>
      </trkpt>
      <trkpt lat="45.14806" lon="5.63725">
        <ele>1876.4</ele>
        <time>2011-08-25T06:31:04Z</time>
      </trkpt>
      <trkpt lat="45.14799" lon="5.63724">
        <ele>1875.5</ele>
        <time>2011-08-25T06:31:06Z</time>
      </trkpt>
      <trkpt lat="45.14794" lon="5.63723">
        <ele>1874.3</ele>
        <time>2011-08-25T06:31:09Z</time>
      </trkpt>
      <trkpt lat="45.14789" lon="5.6372">
        <ele>1872.9</ele>
        <time>2011-08-25T06:31:12Z</time>
      </trkpt>
      <trkpt lat="45.14784" lon="5.63715">
        <ele>1871.8</ele>
        <time>2011-08-25T06:31:15Z</time>
      </trkpt>
      <trkpt lat="45.14778" lon="5.63714">
        <ele>1871</ele>
        <time>2011-08-25T06:31:17Z</time>
      </trkpt>
      <trkpt lat="45.14772" lon="5.63711">
        <ele>1870.1</ele>
        <time>2011-08-25T06:31:19Z</time>
      </trkpt>
      <trkpt lat="45.14765" lon="5.63707">
        <ele>1869.2</ele>
        <time>2011-08-25T06:31:21Z</time>
      </trkpt>
      <trkpt lat="45.14756" lon="5.63703">
        <ele>1868.2</ele>
        <time>2011-08-25T06:31:23Z</time>
      </trkpt>
      <trkpt lat="45.14748" lon="5.63698">
        <ele>1867.3</ele>
        <time>2011-08-25T06:31:25Z</time>
      </trkpt>
      <trkpt lat="45.14744" lon="5.63696">
        <ele>1866.8</ele>
        <time>2011-08-25T06:31:26Z</time>
      </trkpt>
      <trkpt lat="45.14739" lon="5.63694">
        <ele>1866.4</ele>
        <time>2011-08-25T06:31:27Z</time>
      </trkpt>
      <trkpt lat="45.14731" lon="5.63693">
        <ele>1865.6</ele>
        <time>2011-08-25T06:31:29Z</time>
      </trkpt>
      <trkpt lat="45.14725" lon="5.63691">
        <ele>1864.8</ele>
        <time>2011-08-25T06:31:31Z</time>
      </trkpt>
      <trkpt lat="45.14719" lon="5.63688">
        <ele>1863.7</ele>
        <time>2011-08-25T06:31:34Z</time>
      </trkpt>
      <trkpt lat="45.14714" lon="5.63683">
        <ele>1863.2</ele>
        <time>2011-08-25T06:31:36Z</time>
      </trkpt>
      <trkpt lat="45.14707" lon="5.63678">
        <ele>1862.7</ele>
        <time>2011-08-25T06:31:38Z</time>
      </trkpt>
      <trkpt lat="45.14702" lon="5.63675">
        <ele>1862.4</ele>
        <time>2011-08-25T06:31:40Z</time>
      </trkpt>
      <trkpt lat="45.14696" lon="5.63672">
        <ele>1861.9</ele>
        <time>2011-08-25T06:31:43Z</time>
      </trkpt>
      <trkpt lat="45.1469" lon="5.6367">
        <ele>1861.4</ele>
        <time>2011-08-25T06:31:45Z</time>
      </trkpt>
      <trkpt lat="45.14684" lon="5.63669">
        <ele>1861.2</ele>
        <time>2011-08-25T06:31:47Z</time>
      </trkpt>
      <trkpt lat="45.1468" lon="5.63667">
        <ele>1861</ele>
        <time>2011-08-25T06:31:49Z</time>
      </trkpt>
      <trkpt lat="45.14674" lon="5.63665">
        <ele>1860.3</ele>
        <time>2011-08-25T06:31:53Z</time>
      </trkpt>
      <trkpt lat="45.1467" lon="5.63662">
        <ele>1859.6</ele>
        <time>2011-08-25T06:31:56Z</time>
      </trkpt>
      <trkpt lat="45.14666" lon="5.63658">
        <ele>1856.8</ele>
        <time>2011-08-25T06:32:05Z</time>
      </trkpt>
      <trkpt lat="45.14664" lon="5.63652">
        <ele>1854.7</ele>
        <time>2011-08-25T06:32:14Z</time>
      </trkpt>
      <trkpt lat="45.14662" lon="5.63637">
        <ele>1856.8</ele>
        <time>2011-08-25T06:32:48Z</time>
      </trkpt>
      <trkpt lat="45.14662" lon="5.63637">
        <ele>1856.8</ele>
        <time>2011-08-25T06:32:48Z</time>
      </trkpt>
      <trkpt lat="45.14662" lon="5.63637">
        <ele>1856.8</ele>
        <time>2011-08-25T06:32:55Z</time>
      </trkpt>
      <trkpt lat="45.14659" lon="5.63644">
        <ele>1846.5</ele>
        <time>2011-08-25T06:32:56Z</time>
      </trkpt>
      <trkpt lat="45.14654" lon="5.63638">
        <ele>1845.6</ele>
        <time>2011-08-25T06:32:59Z</time>
      </trkpt>
      <trkpt lat="45.14649" lon="5.63638">
        <ele>1844.5</ele>
        <time>2011-08-25T06:33:00Z</time>
      </trkpt>
      <trkpt lat="45.14645" lon="5.63636">
        <ele>1843.9</ele>
        <time>2011-08-25T06:33:01Z</time>
      </trkpt>
      <trkpt lat="45.1464" lon="5.63635">
        <ele>1844.1</ele>
        <time>2011-08-25T06:33:02Z</time>
      </trkpt>
      <trkpt lat="45.14634" lon="5.63634">
        <ele>1844.4</ele>
        <time>2011-08-25T06:33:04Z</time>
      </trkpt>
      <trkpt lat="45.14628" lon="5.63631">
        <ele>1844.4</ele>
        <time>2011-08-25T06:33:07Z</time>
      </trkpt>
      <trkpt lat="45.14623" lon="5.63629">
        <ele>1844.1</ele>
        <time>2011-08-25T06:33:12Z</time>
      </trkpt>
      <trkpt lat="45.14628" lon="5.63627">
        <ele>1841.2</ele>
        <time>2011-08-25T06:33:28Z</time>
      </trkpt>
      <trkpt lat="45.14633" lon="5.63625">
        <ele>1840.6</ele>
        <time>2011-08-25T06:33:35Z</time>
      </trkpt>
      <trkpt lat="45.14638" lon="5.63624">
        <ele>1840.3</ele>
        <time>2011-08-25T06:33:39Z</time>
      </trkpt>
      <trkpt lat="45.14642" lon="5.63619">
        <ele>1840</ele>
        <time>2011-08-25T06:33:42Z</time>
      </trkpt>
      <trkpt lat="45.14647" lon="5.63615">
        <ele>1839.4</ele>
        <time>2011-08-25T06:33:45Z</time>
      </trkpt>
      <trkpt lat="45.14653" lon="5.63614">
        <ele>1838.5</ele>
        <time>2011-08-25T06:33:48Z</time>
      </trkpt>
      <trkpt lat="45.14658" lon="5.63612">
        <ele>1836.5</ele>
        <time>2011-08-25T06:33:54Z</time>
      </trkpt>
      <trkpt lat="45.14663" lon="5.6361">
        <ele>1834.7</ele>
        <time>2011-08-25T06:33:59Z</time>
      </trkpt>
      <trkpt lat="45.14667" lon="5.63607">
        <ele>1833.5</ele>
        <time>2011-08-25T06:34:05Z</time>
      </trkpt>
      <trkpt lat="45.14672" lon="5.63604">
        <ele>1832</ele>
        <time>2011-08-25T06:34:10Z</time>
      </trkpt>
      <trkpt lat="45.14668" lon="5.63598">
        <ele>1828.3</ele>
        <time>2011-08-25T06:34:18Z</time>
      </trkpt>
      <trkpt lat="45.14666" lon="5.63591">
        <ele>1826.6</ele>
        <time>2011-08-25T06:34:26Z</time>
      </trkpt>
      <trkpt lat="45.14671" lon="5.6359">
        <ele>1824</ele>
        <time>2011-08-25T06:34:43Z</time>
      </trkpt>
      <trkpt lat="45.14673" lon="5.63584">
        <ele>1823.3</ele>
        <time>2011-08-25T06:34:47Z</time>
      </trkpt>
      <trkpt lat="45.1467" lon="5.63578">
        <ele>1822.4</ele>
        <time>2011-08-25T06:34:51Z</time>
      </trkpt>
      <trkpt lat="45.14668" lon="5.63572">
        <ele>1821.7</ele>
        <time>2011-08-25T06:34:55Z</time>
      </trkpt>
      <trkpt lat="45.14664" lon="5.63566">
        <ele>1820.5</ele>
        <time>2011-08-25T06:34:59Z</time>
      </trkpt>
      <trkpt lat="45.1466" lon="5.63563">
        <ele>1819.4</ele>
        <time>2011-08-25T06:35:02Z</time>
      </trkpt>
      <trkpt lat="45.14658" lon="5.63557">
        <ele>1817.7</ele>
        <time>2011-08-25T06:35:07Z</time>
      </trkpt>
      <trkpt lat="45.14662" lon="5.63558">
        <ele>1815.8</ele>
        <time>2011-08-25T06:35:13Z</time>
      </trkpt>
      <trkpt lat="45.14667" lon="5.63559">
        <ele>1814.7</ele>
        <time>2011-08-25T06:35:16Z</time>
      </trkpt>
      <trkpt lat="45.14673" lon="5.63559">
        <ele>1814</ele>
        <time>2011-08-25T06:35:19Z</time>
      </trkpt>
      <trkpt lat="45.1468" lon="5.63561">
        <ele>1813.1</ele>
        <time>2011-08-25T06:35:22Z</time>
      </trkpt>
      <trkpt lat="45.14685" lon="5.63563">
        <ele>1812.5</ele>
        <time>2011-08-25T06:35:24Z</time>
      </trkpt>
      <trkpt lat="45.1469" lon="5.63565">
        <ele>1811.7</ele>
        <time>2011-08-25T06:35:27Z</time>
      </trkpt>
      <trkpt lat="45.14696" lon="5.63565">
        <ele>1810.9</ele>
        <time>2011-08-25T06:35:31Z</time>
      </trkpt>
      <trkpt lat="45.14701" lon="5.63564">
        <ele>1810.6</ele>
        <time>2011-08-25T06:35:34Z</time>
      </trkpt>
      <trkpt lat="45.14705" lon="5.6356">
        <ele>1810.3</ele>
        <time>2011-08-25T06:35:37Z</time>
      </trkpt>
      <trkpt lat="45.14709" lon="5.63556">
        <ele>1810</ele>
        <time>2011-08-25T06:35:39Z</time>
      </trkpt>
      <trkpt lat="45.14713" lon="5.6355">
        <ele>1809.4</ele>
        <time>2011-08-25T06:35:42Z</time>
      </trkpt>
      <trkpt lat="45.14718" lon="5.63545">
        <ele>1808.6</ele>
        <time>2011-08-25T06:35:45Z</time>
      </trkpt>
      <trkpt lat="45.14723" lon="5.63542">
        <ele>1807.7</ele>
        <time>2011-08-25T06:35:48Z</time>
      </trkpt>
      <trkpt lat="45.14728" lon="5.63537">
        <ele>1807.1</ele>
        <time>2011-08-25T06:35:50Z</time>
      </trkpt>
      <trkpt lat="45.14734" lon="5.63531">
        <ele>1805.6</ele>
        <time>2011-08-25T06:35:52Z</time>
      </trkpt>
      <trkpt lat="45.14738" lon="5.63527">
        <ele>1805.1</ele>
        <time>2011-08-25T06:35:54Z</time>
      </trkpt>
      <trkpt lat="45.14743" lon="5.63523">
        <ele>1804.2</ele>
        <time>2011-08-25T06:35:56Z</time>
      </trkpt>
      <trkpt lat="45.14749" lon="5.6352">
        <ele>1802.9</ele>
        <time>2011-08-25T06:35:58Z</time>
      </trkpt>
      <trkpt lat="45.14754" lon="5.63516">
        <ele>1801.2</ele>
        <time>2011-08-25T06:36:00Z</time>
      </trkpt>
      <trkpt lat="45.14758" lon="5.63515">
        <ele>1800.5</ele>
        <time>2011-08-25T06:36:02Z</time>
      </trkpt>
      <trkpt lat="45.14764" lon="5.63511">
        <ele>1799.3</ele>
        <time>2011-08-25T06:36:05Z</time>
      </trkpt>
      <trkpt lat="45.14767" lon="5.63506">
        <ele>1798.3</ele>
        <time>2011-08-25T06:36:08Z</time>
      </trkpt>
      <trkpt lat="45.14771" lon="5.635">
        <ele>1796.9</ele>
        <time>2011-08-25T06:36:12Z</time>
      </trkpt>
      <trkpt lat="45.14776" lon="5.63496">
        <ele>1795.6</ele>
        <time>2011-08-25T06:36:15Z</time>
      </trkpt>
      <trkpt lat="45.1478" lon="5.6349">
        <ele>1794.9</ele>
        <time>2011-08-25T06:36:18Z</time>
      </trkpt>
      <trkpt lat="45.14784" lon="5.63486">
        <ele>1794.6</ele>
        <time>2011-08-25T06:36:20Z</time>
      </trkpt>
      <trkpt lat="45.14788" lon="5.6348">
        <ele>1793.9</ele>
        <time>2011-08-25T06:36:23Z</time>
      </trkpt>
      <trkpt lat="45.14792" lon="5.63475">
        <ele>1793.2</ele>
        <time>2011-08-25T06:36:25Z</time>
      </trkpt>
      <trkpt lat="45.14795" lon="5.6347">
        <ele>1792.2</ele>
        <time>2011-08-25T06:36:27Z</time>
      </trkpt>
      <trkpt lat="45.148" lon="5.63467">
        <ele>1791.4</ele>
        <time>2011-08-25T06:36:29Z</time>
      </trkpt>
      <trkpt lat="45.14805" lon="5.63464">
        <ele>1790.5</ele>
        <time>2011-08-25T06:36:31Z</time>
      </trkpt>
      <trkpt lat="45.14811" lon="5.6346">
        <ele>1789.5</ele>
        <time>2011-08-25T06:36:33Z</time>
      </trkpt>
      <trkpt lat="45.14818" lon="5.63458">
        <ele>1788.8</ele>
        <time>2011-08-25T06:36:35Z</time>
      </trkpt>
      <trkpt lat="45.14825" lon="5.63456">
        <ele>1788.2</ele>
        <time>2011-08-25T06:36:37Z</time>
      </trkpt>
      <trkpt lat="45.14832" lon="5.63455">
        <ele>1787.6</ele>
        <time>2011-08-25T06:36:39Z</time>
      </trkpt>
      <trkpt lat="45.14837" lon="5.63451">
        <ele>1786.7</ele>
        <time>2011-08-25T06:36:41Z</time>
      </trkpt>
      <trkpt lat="45.14841" lon="5.63447">
        <ele>1786.1</ele>
        <time>2011-08-25T06:36:43Z</time>
      </trkpt>
      <trkpt lat="45.14846" lon="5.63441">
        <ele>1785.2</ele>
        <time>2011-08-25T06:36:46Z</time>
      </trkpt>
      <trkpt lat="45.1485" lon="5.63436">
        <ele>1784.3</ele>
        <time>2011-08-25T06:36:48Z</time>
      </trkpt>
      <trkpt lat="45.14854" lon="5.6343">
        <ele>1783.4</ele>
        <time>2011-08-25T06:36:50Z</time>
      </trkpt>
      <trkpt lat="45.14859" lon="5.63425">
        <ele>1782.8</ele>
        <time>2011-08-25T06:36:52Z</time>
      </trkpt>
      <trkpt lat="45.14865" lon="5.6342">
        <ele>1782.3</ele>
        <time>2011-08-25T06:36:54Z</time>
      </trkpt>
      <trkpt lat="45.14871" lon="5.63416">
        <ele>1781.5</ele>
        <time>2011-08-25T06:36:56Z</time>
      </trkpt>
      <trkpt lat="45.14876" lon="5.63415">
        <ele>1781.3</ele>
        <time>2011-08-25T06:36:59Z</time>
      </trkpt>
      <trkpt lat="45.1488" lon="5.63415">
        <ele>1779.4</ele>
        <time>2011-08-25T06:37:08Z</time>
      </trkpt>
      <trkpt lat="45.14887" lon="5.63413">
        <ele>1778</ele>
        <time>2011-08-25T06:37:12Z</time>
      </trkpt>
      <trkpt lat="45.14892" lon="5.63411">
        <ele>1775.7</ele>
        <time>2011-08-25T06:37:17Z</time>
      </trkpt>
      <trkpt lat="45.14896" lon="5.6341">
        <ele>1772.7</ele>
        <time>2011-08-25T06:37:28Z</time>
      </trkpt>
      <trkpt lat="45.149" lon="5.63405">
        <ele>1770.3</ele>
        <time>2011-08-25T06:37:35Z</time>
      </trkpt>
      <trkpt lat="45.14904" lon="5.63404">
        <ele>1768.7</ele>
        <time>2011-08-25T06:37:41Z</time>
      </trkpt>
      <trkpt lat="45.14909" lon="5.63403">
        <ele>1766.8</ele>
        <time>2011-08-25T06:37:47Z</time>
      </trkpt>
      <trkpt lat="45.14914" lon="5.634">
        <ele>1765.8</ele>
        <time>2011-08-25T06:37:59Z</time>
      </trkpt>
      <trkpt lat="45.14918" lon="5.63397">
        <ele>1764</ele>
        <time>2011-08-25T06:38:05Z</time>
      </trkpt>
      <trkpt lat="45.14923" lon="5.63391">
        <ele>1763.5</ele>
        <time>2011-08-25T06:38:09Z</time>
      </trkpt>
      <trkpt lat="45.14928" lon="5.63388">
        <ele>1762.6</ele>
        <time>2011-08-25T06:38:12Z</time>
      </trkpt>
      <trkpt lat="45.14932" lon="5.63386">
        <ele>1761.9</ele>
        <time>2011-08-25T06:38:14Z</time>
      </trkpt>
      <trkpt lat="45.14937" lon="5.63383">
        <ele>1761.6</ele>
        <time>2011-08-25T06:38:16Z</time>
      </trkpt>
      <trkpt lat="45.14942" lon="5.63381">
        <ele>1761.1</ele>
        <time>2011-08-25T06:38:19Z</time>
      </trkpt>
      <trkpt lat="45.14947" lon="5.6338">
        <ele>1759.8</ele>
        <time>2011-08-25T06:38:22Z</time>
      </trkpt>
      <trkpt lat="45.14952" lon="5.63379">
        <ele>1759.3</ele>
        <time>2011-08-25T06:38:25Z</time>
      </trkpt>
      <trkpt lat="45.14957" lon="5.63378">
        <ele>1759.1</ele>
        <time>2011-08-25T06:38:28Z</time>
      </trkpt>
      <trkpt lat="45.14962" lon="5.63377">
        <ele>1758.8</ele>
        <time>2011-08-25T06:38:31Z</time>
      </trkpt>
      <trkpt lat="45.14966" lon="5.63378">
        <ele>1757.9</ele>
        <time>2011-08-25T06:38:33Z</time>
      </trkpt>
      <trkpt lat="45.14972" lon="5.6338">
        <ele>1756.4</ele>
        <time>2011-08-25T06:38:36Z</time>
      </trkpt>
      <trkpt lat="45.14977" lon="5.6338">
        <ele>1755.1</ele>
        <time>2011-08-25T06:38:39Z</time>
      </trkpt>
      <trkpt lat="45.14983" lon="5.6338">
        <ele>1754.3</ele>
        <time>2011-08-25T06:38:41Z</time>
      </trkpt>
      <trkpt lat="45.14988" lon="5.63381">
        <ele>1753.4</ele>
        <time>2011-08-25T06:38:43Z</time>
      </trkpt>
      <trkpt lat="45.14992" lon="5.63382">
        <ele>1752.4</ele>
        <time>2011-08-25T06:38:45Z</time>
      </trkpt>
      <trkpt lat="45.14997" lon="5.6338">
        <ele>1750.6</ele>
        <time>2011-08-25T06:38:48Z</time>
      </trkpt>
      <trkpt lat="45.15002" lon="5.63375">
        <ele>1747</ele>
        <time>2011-08-25T06:38:53Z</time>
      </trkpt>
      <trkpt lat="45.15005" lon="5.6337">
        <ele>1745.1</ele>
        <time>2011-08-25T06:38:59Z</time>
      </trkpt>
      <trkpt lat="45.15011" lon="5.6337">
        <ele>1744.3</ele>
        <time>2011-08-25T06:39:04Z</time>
      </trkpt>
      <trkpt lat="45.15015" lon="5.63368">
        <ele>1743.6</ele>
        <time>2011-08-25T06:39:08Z</time>
      </trkpt>
      <trkpt lat="45.15021" lon="5.63371">
        <ele>1742.5</ele>
        <time>2011-08-25T06:39:10Z</time>
      </trkpt>
      <trkpt lat="45.15027" lon="5.63373">
        <ele>1741.7</ele>
        <time>2011-08-25T06:39:13Z</time>
      </trkpt>
      <trkpt lat="45.15033" lon="5.63375">
        <ele>1741.3</ele>
        <time>2011-08-25T06:39:15Z</time>
      </trkpt>
      <trkpt lat="45.15038" lon="5.63377">
        <ele>1740.9</ele>
        <time>2011-08-25T06:39:17Z</time>
      </trkpt>
      <trkpt lat="45.15043" lon="5.63373">
        <ele>1739</ele>
        <time>2011-08-25T06:39:24Z</time>
      </trkpt>
      <trkpt lat="45.15048" lon="5.63374">
        <ele>1737.6</ele>
        <time>2011-08-25T06:39:26Z</time>
      </trkpt>
      <trkpt lat="45.15052" lon="5.63376">
        <ele>1736</ele>
        <time>2011-08-25T06:39:31Z</time>
      </trkpt>
      <trkpt lat="45.15054" lon="5.63369">
        <ele>1731.3</ele>
        <time>2011-08-25T06:40:21Z</time>
      </trkpt>
      <trkpt lat="45.15051" lon="5.63364">
        <ele>1731.4</ele>
        <time>2011-08-25T06:40:34Z</time>
      </trkpt>
      <trkpt lat="45.15055" lon="5.63369">
        <ele>1729.1</ele>
        <time>2011-08-25T06:41:05Z</time>
      </trkpt>
      <trkpt lat="45.1506" lon="5.63372">
        <ele>1729.3</ele>
        <time>2011-08-25T06:41:10Z</time>
      </trkpt>
      <trkpt lat="45.15066" lon="5.63373">
        <ele>1728.8</ele>
        <time>2011-08-25T06:41:13Z</time>
      </trkpt>
      <trkpt lat="45.1507" lon="5.63375">
        <ele>1728.4</ele>
        <time>2011-08-25T06:41:16Z</time>
      </trkpt>
      <trkpt lat="45.15076" lon="5.63378">
        <ele>1727.3</ele>
        <time>2011-08-25T06:41:19Z</time>
      </trkpt>
      <trkpt lat="45.15081" lon="5.63378">
        <ele>1726.8</ele>
        <time>2011-08-25T06:41:21Z</time>
      </trkpt>
      <trkpt lat="45.15087" lon="5.63377">
        <ele>1726.8</ele>
        <time>2011-08-25T06:41:23Z</time>
      </trkpt>
      <trkpt lat="45.15092" lon="5.63377">
        <ele>1726.8</ele>
        <time>2011-08-25T06:41:25Z</time>
      </trkpt>
      <trkpt lat="45.15097" lon="5.63375">
        <ele>1727</ele>
        <time>2011-08-25T06:41:27Z</time>
      </trkpt>
      <trkpt lat="45.15103" lon="5.63374">
        <ele>1727.1</ele>
        <time>2011-08-25T06:41:29Z</time>
      </trkpt>
      <trkpt lat="45.15123" lon="5.63368">
        <ele>1719.9</ele>
        <time>2011-08-25T06:41:48Z</time>
      </trkpt>
      <trkpt lat="45.15127" lon="5.63364">
        <ele>1721.3</ele>
        <time>2011-08-25T06:41:50Z</time>
      </trkpt>
      <trkpt lat="45.15134" lon="5.63361">
        <ele>1720.6</ele>
        <time>2011-08-25T06:41:52Z</time>
      </trkpt>
      <trkpt lat="45.15139" lon="5.63359">
        <ele>1720.2</ele>
        <time>2011-08-25T06:41:53Z</time>
      </trkpt>
      <trkpt lat="45.15146" lon="5.63358">
        <ele>1718.5</ele>
        <time>2011-08-25T06:41:55Z</time>
      </trkpt>
      <trkpt lat="45.15152" lon="5.63356">
        <ele>1717.2</ele>
        <time>2011-08-25T06:41:57Z</time>
      </trkpt>
      <trkpt lat="45.15157" lon="5.63355">
        <ele>1716.9</ele>
        <time>2011-08-25T06:41:59Z</time>
      </trkpt>
      <trkpt lat="45.15163" lon="5.63355">
        <ele>1715.5</ele>
        <time>2011-08-25T06:42:02Z</time>
      </trkpt>
      <trkpt lat="45.15169" lon="5.63355">
        <ele>1716.5</ele>
        <time>2011-08-25T06:42:04Z</time>
      </trkpt>
      <trkpt lat="45.15175" lon="5.63356">
        <ele>1716.2</ele>
        <time>2011-08-25T06:42:06Z</time>
      </trkpt>
      <trkpt lat="45.1518" lon="5.63354">
        <ele>1715.9</ele>
        <time>2011-08-25T06:42:08Z</time>
      </trkpt>
      <trkpt lat="45.15185" lon="5.63353">
        <ele>1715.6</ele>
        <time>2011-08-25T06:42:10Z</time>
      </trkpt>
      <trkpt lat="45.15191" lon="5.6335">
        <ele>1715.5</ele>
        <time>2011-08-25T06:42:12Z</time>
      </trkpt>
      <trkpt lat="45.15198" lon="5.63348">
        <ele>1715.3</ele>
        <time>2011-08-25T06:42:14Z</time>
      </trkpt>
      <trkpt lat="45.15204" lon="5.63346">
        <ele>1715.3</ele>
        <time>2011-08-25T06:42:16Z</time>
      </trkpt>
      <trkpt lat="45.15212" lon="5.63345">
        <ele>1715.2</ele>
        <time>2011-08-25T06:42:18Z</time>
      </trkpt>
      <trkpt lat="45.1522" lon="5.63346">
        <ele>1715.3</ele>
        <time>2011-08-25T06:42:20Z</time>
      </trkpt>
      <trkpt lat="45.15228" lon="5.63347">
        <ele>1714.4</ele>
        <time>2011-08-25T06:42:22Z</time>
      </trkpt>
      <trkpt lat="45.15236" lon="5.63349">
        <ele>1713.8</ele>
        <time>2011-08-25T06:42:24Z</time>
      </trkpt>
      <trkpt lat="45.15245" lon="5.63347">
        <ele>1712.6</ele>
        <time>2011-08-25T06:42:26Z</time>
      </trkpt>
      <trkpt lat="45.1525" lon="5.63346">
        <ele>1712.1</ele>
        <time>2011-08-25T06:42:27Z</time>
      </trkpt>
      <trkpt lat="45.15255" lon="5.63345">
        <ele>1711.5</ele>
        <time>2011-08-25T06:42:28Z</time>
      </trkpt>
      <trkpt lat="45.15259" lon="5.63346">
        <ele>1711.2</ele>
        <time>2011-08-25T06:42:29Z</time>
      </trkpt>
      <trkpt lat="45.15264" lon="5.63347">
        <ele>1711.2</ele>
        <time>2011-08-25T06:42:30Z</time>
      </trkpt>
      <trkpt lat="45.15327" lon="5.63381">
        <ele>1704.1</ele>
        <time>2011-08-25T06:42:49Z</time>
      </trkpt>
      <trkpt lat="45.15335" lon="5.63381">
        <ele>1702.3</ele>
        <time>2011-08-25T06:42:51Z</time>
      </trkpt>
      <trkpt lat="45.15343" lon="5.63381">
        <ele>1701.3</ele>
        <time>2011-08-25T06:42:53Z</time>
      </trkpt>
      <trkpt lat="45.15352" lon="5.63383">
        <ele>1701.7</ele>
        <time>2011-08-25T06:42:55Z</time>
      </trkpt>
      <trkpt lat="45.15356" lon="5.63385">
        <ele>1701.1</ele>
        <time>2011-08-25T06:42:56Z</time>
      </trkpt>
      <trkpt lat="45.15365" lon="5.6339">
        <ele>1701.9</ele>
        <time>2011-08-25T06:42:58Z</time>
      </trkpt>
      <trkpt lat="45.15372" lon="5.63394">
        <ele>1702</ele>
        <time>2011-08-25T06:43:00Z</time>
      </trkpt>
      <trkpt lat="45.15379" lon="5.63395">
        <ele>1701.6</ele>
        <time>2011-08-25T06:43:02Z</time>
      </trkpt>
      <trkpt lat="45.15386" lon="5.63397">
        <ele>1701.6</ele>
        <time>2011-08-25T06:43:04Z</time>
      </trkpt>
      <trkpt lat="45.15394" lon="5.63394">
        <ele>1700.3</ele>
        <time>2011-08-25T06:43:06Z</time>
      </trkpt>
      <trkpt lat="45.15398" lon="5.63392">
        <ele>1699.9</ele>
        <time>2011-08-25T06:43:07Z</time>
      </trkpt>
      <trkpt lat="45.15406" lon="5.6339">
        <ele>1699.2</ele>
        <time>2011-08-25T06:43:09Z</time>
      </trkpt>
      <trkpt lat="45.15411" lon="5.63389">
        <ele>1699</ele>
        <time>2011-08-25T06:43:10Z</time>
      </trkpt>
      <trkpt lat="45.15419" lon="5.63387">
        <ele>1698.3</ele>
        <time>2011-08-25T06:43:12Z</time>
      </trkpt>
      <trkpt lat="45.15424" lon="5.63387">
        <ele>1698</ele>
        <time>2011-08-25T06:43:13Z</time>
      </trkpt>
      <trkpt lat="45.1543" lon="5.63388">
        <ele>1697.9</ele>
        <time>2011-08-25T06:43:14Z</time>
      </trkpt>
      <trkpt lat="45.15434" lon="5.63389">
        <ele>1697.8</ele>
        <time>2011-08-25T06:43:15Z</time>
      </trkpt>
      <trkpt lat="45.15439" lon="5.6339">
        <ele>1697.6</ele>
        <time>2011-08-25T06:43:16Z</time>
      </trkpt>
      <trkpt lat="45.15444" lon="5.63391">
        <ele>1697.3</ele>
        <time>2011-08-25T06:43:17Z</time>
      </trkpt>
      <trkpt lat="45.15452" lon="5.63392">
        <ele>1696.9</ele>
        <time>2011-08-25T06:43:19Z</time>
      </trkpt>
      <trkpt lat="45.15459" lon="5.63391">
        <ele>1696.5</ele>
        <time>2011-08-25T06:43:21Z</time>
      </trkpt>
      <trkpt lat="45.15466" lon="5.63391">
        <ele>1695.9</ele>
        <time>2011-08-25T06:43:23Z</time>
      </trkpt>
      <trkpt lat="45.15471" lon="5.6339">
        <ele>1695.6</ele>
        <time>2011-08-25T06:43:24Z</time>
      </trkpt>
      <trkpt lat="45.15476" lon="5.6339">
        <ele>1695.2</ele>
        <time>2011-08-25T06:43:25Z</time>
      </trkpt>
      <trkpt lat="45.15481" lon="5.63389">
        <ele>1694.9</ele>
        <time>2011-08-25T06:43:26Z</time>
      </trkpt>
      <trkpt lat="45.15487" lon="5.63389">
        <ele>1694.6</ele>
        <time>2011-08-25T06:43:27Z</time>
      </trkpt>
      <trkpt lat="45.15492" lon="5.6339">
        <ele>1694.3</ele>
        <time>2011-08-25T06:43:28Z</time>
      </trkpt>
      <trkpt lat="45.15497" lon="5.63391">
        <ele>1693.9</ele>
        <time>2011-08-25T06:43:29Z</time>
      </trkpt>
      <trkpt lat="45.15502" lon="5.63393">
        <ele>1693.7</ele>
        <time>2011-08-25T06:43:30Z</time>
      </trkpt>
      <trkpt lat="45.15507" lon="5.63394">
        <ele>1693.4</ele>
        <time>2011-08-25T06:43:31Z</time>
      </trkpt>
      <trkpt lat="45.15515" lon="5.63396">
        <ele>1692.6</ele>
        <time>2011-08-25T06:43:33Z</time>
      </trkpt>
      <trkpt lat="45.15524" lon="5.63398">
        <ele>1692</ele>
        <time>2011-08-25T06:43:35Z</time>
      </trkpt>
      <trkpt lat="45.15532" lon="5.63401">
        <ele>1691.4</ele>
        <time>2011-08-25T06:43:37Z</time>
      </trkpt>
      <trkpt lat="45.1554" lon="5.63402">
        <ele>1690.5</ele>
        <time>2011-08-25T06:43:39Z</time>
      </trkpt>
      <trkpt lat="45.15549" lon="5.63405">
        <ele>1689.5</ele>
        <time>2011-08-25T06:43:41Z</time>
      </trkpt>
      <trkpt lat="45.15556" lon="5.63408">
        <ele>1688.7</ele>
        <time>2011-08-25T06:43:43Z</time>
      </trkpt>
      <trkpt lat="45.15562" lon="5.6341">
        <ele>1688.2</ele>
        <time>2011-08-25T06:43:45Z</time>
      </trkpt>
      <trkpt lat="45.15568" lon="5.63413">
        <ele>1687.3</ele>
        <time>2011-08-25T06:43:48Z</time>
      </trkpt>
      <trkpt lat="45.15573" lon="5.63416">
        <ele>1686.8</ele>
        <time>2011-08-25T06:43:50Z</time>
      </trkpt>
      <trkpt lat="45.15579" lon="5.63419">
        <ele>1685.7</ele>
        <time>2011-08-25T06:43:53Z</time>
      </trkpt>
      <trkpt lat="45.15584" lon="5.63421">
        <ele>1685</ele>
        <time>2011-08-25T06:43:55Z</time>
      </trkpt>
      <trkpt lat="45.1559" lon="5.63423">
        <ele>1684.3</ele>
        <time>2011-08-25T06:43:57Z</time>
      </trkpt>
      <trkpt lat="45.15596" lon="5.63424">
        <ele>1683.8</ele>
        <time>2011-08-25T06:43:59Z</time>
      </trkpt>
      <trkpt lat="45.15602" lon="5.63425">
        <ele>1682.8</ele>
        <time>2011-08-25T06:44:02Z</time>
      </trkpt>
      <trkpt lat="45.15608" lon="5.63425">
        <ele>1681.3</ele>
        <time>2011-08-25T06:44:05Z</time>
      </trkpt>
      <trkpt lat="45.15614" lon="5.63425">
        <ele>1680.5</ele>
        <time>2011-08-25T06:44:08Z</time>
      </trkpt>
      <trkpt lat="45.15619" lon="5.63425">
        <ele>1679.5</ele>
        <time>2011-08-25T06:44:12Z</time>
      </trkpt>
      <trkpt lat="45.15624" lon="5.63425">
        <ele>1677.3</ele>
        <time>2011-08-25T06:44:20Z</time>
      </trkpt>
      <trkpt lat="45.15628" lon="5.63425">
        <ele>1676.4</ele>
        <time>2011-08-25T06:44:23Z</time>
      </trkpt>
      <trkpt lat="45.15634" lon="5.63426">
        <ele>1675.2</ele>
        <time>2011-08-25T06:44:27Z</time>
      </trkpt>
      <trkpt lat="45.15639" lon="5.63427">
        <ele>1674</ele>
        <time>2011-08-25T06:44:31Z</time>
      </trkpt>
      <trkpt lat="45.15644" lon="5.63425">
        <ele>1673.1</ele>
        <time>2011-08-25T06:44:34Z</time>
      </trkpt>
      <trkpt lat="45.15648" lon="5.63425">
        <ele>1672.2</ele>
        <time>2011-08-25T06:44:37Z</time>
      </trkpt>
      <trkpt lat="45.15654" lon="5.63428">
        <ele>1670.2</ele>
        <time>2011-08-25T06:44:41Z</time>
      </trkpt>
      <trkpt lat="45.15659" lon="5.63431">
        <ele>1668.8</ele>
        <time>2011-08-25T06:44:44Z</time>
      </trkpt>
      <trkpt lat="45.15665" lon="5.63434">
        <ele>1667.4</ele>
        <time>2011-08-25T06:44:47Z</time>
      </trkpt>
      <trkpt lat="45.1567" lon="5.63436">
        <ele>1666.3</ele>
        <time>2011-08-25T06:44:51Z</time>
      </trkpt>
      <trkpt lat="45.15675" lon="5.6344">
        <ele>1664.9</ele>
        <time>2011-08-25T06:44:54Z</time>
      </trkpt>
      <trkpt lat="45.15681" lon="5.63441">
        <ele>1663.6</ele>
        <time>2011-08-25T06:44:57Z</time>
      </trkpt>
      <trkpt lat="45.15686" lon="5.63444">
        <ele>1663</ele>
        <time>2011-08-25T06:45:00Z</time>
      </trkpt>
      <trkpt lat="45.15691" lon="5.63448">
        <ele>1661.2</ele>
        <time>2011-08-25T06:45:04Z</time>
      </trkpt>
      <trkpt lat="45.15696" lon="5.63451">
        <ele>1660.5</ele>
        <time>2011-08-25T06:45:07Z</time>
      </trkpt>
      <trkpt lat="45.157" lon="5.63454">
        <ele>1660.3</ele>
        <time>2011-08-25T06:45:10Z</time>
      </trkpt>
      <trkpt lat="45.15705" lon="5.63458">
        <ele>1659.9</ele>
        <time>2011-08-25T06:45:14Z</time>
      </trkpt>
      <trkpt lat="45.15709" lon="5.63461">
        <ele>1659.2</ele>
        <time>2011-08-25T06:45:16Z</time>
      </trkpt>
      <trkpt lat="45.15713" lon="5.63462">
        <ele>1658.6</ele>
        <time>2011-08-25T06:45:18Z</time>
      </trkpt>
      <trkpt lat="45.15718" lon="5.63465">
        <ele>1657.9</ele>
        <time>2011-08-25T06:45:21Z</time>
      </trkpt>
      <trkpt lat="45.15724" lon="5.63469">
        <ele>1657.2</ele>
        <time>2011-08-25T06:45:24Z</time>
      </trkpt>
      <trkpt lat="45.15727" lon="5.63473">
        <ele>1656.2</ele>
        <time>2011-08-25T06:45:31Z</time>
      </trkpt>
      <trkpt lat="45.15728" lon="5.6348">
        <ele>1654.3</ele>
        <time>2011-08-25T06:45:39Z</time>
      </trkpt>
      <trkpt lat="45.15732" lon="5.63485">
        <ele>1653.3</ele>
        <time>2011-08-25T06:45:42Z</time>
      </trkpt>
      <trkpt lat="45.15735" lon="5.6349">
        <ele>1652.1</ele>
        <time>2011-08-25T06:45:45Z</time>
      </trkpt>
      <trkpt lat="45.15738" lon="5.63495">
        <ele>1651.1</ele>
        <time>2011-08-25T06:45:48Z</time>
      </trkpt>
      <trkpt lat="45.15742" lon="5.635">
        <ele>1649.5</ele>
        <time>2011-08-25T06:45:51Z</time>
      </trkpt>
      <trkpt lat="45.15746" lon="5.63505">
        <ele>1648</ele>
        <time>2011-08-25T06:45:55Z</time>
      </trkpt>
      <trkpt lat="45.15746" lon="5.63511">
        <ele>1646.2</ele>
        <time>2011-08-25T06:46:02Z</time>
      </trkpt>
      <trkpt lat="45.15748" lon="5.63517">
        <ele>1644.1</ele>
        <time>2011-08-25T06:46:21Z</time>
      </trkpt>
      <trkpt lat="45.15751" lon="5.63523">
        <ele>1643.9</ele>
        <time>2011-08-25T06:46:33Z</time>
      </trkpt>
      <trkpt lat="45.15755" lon="5.63526">
        <ele>1643.4</ele>
        <time>2011-08-25T06:46:43Z</time>
      </trkpt>
      <trkpt lat="45.1576" lon="5.6353">
        <ele>1644.1</ele>
        <time>2011-08-25T06:46:56Z</time>
      </trkpt>
      <trkpt lat="45.15765" lon="5.63532">
        <ele>1643.8</ele>
        <time>2011-08-25T06:47:05Z</time>
      </trkpt>
      <trkpt lat="45.15769" lon="5.63534">
        <ele>1643.3</ele>
        <time>2011-08-25T06:47:10Z</time>
      </trkpt>
      <trkpt lat="45.15773" lon="5.63536">
        <ele>1642.6</ele>
        <time>2011-08-25T06:47:15Z</time>
      </trkpt>
      <trkpt lat="45.15778" lon="5.63536">
        <ele>1642.9</ele>
        <time>2011-08-25T06:47:20Z</time>
      </trkpt>
      <trkpt lat="45.15782" lon="5.63536">
        <ele>1643.1</ele>
        <time>2011-08-25T06:47:25Z</time>
      </trkpt>
      <trkpt lat="45.15788" lon="5.63538">
        <ele>1643.4</ele>
        <time>2011-08-25T06:47:31Z</time>
      </trkpt>
      <trkpt lat="45.15793" lon="5.63541">
        <ele>1643.7</ele>
        <time>2011-08-25T06:47:36Z</time>
      </trkpt>
      <trkpt lat="45.15796" lon="5.63545">
        <ele>1644.1</ele>
        <time>2011-08-25T06:47:43Z</time>
      </trkpt>
      <trkpt lat="45.158" lon="5.6355">
        <ele>1643.9</ele>
        <time>2011-08-25T06:47:48Z</time>
      </trkpt>
      <trkpt lat="45.15804" lon="5.63553">
        <ele>1642.7</ele>
        <time>2011-08-25T06:47:51Z</time>
      </trkpt>
      <trkpt lat="45.15808" lon="5.63556">
        <ele>1641.6</ele>
        <time>2011-08-25T06:47:54Z</time>
      </trkpt>
      <trkpt lat="45.15813" lon="5.63559">
        <ele>1641.4</ele>
        <time>2011-08-25T06:47:58Z</time>
      </trkpt>
      <trkpt lat="45.15817" lon="5.63564">
        <ele>1639.9</ele>
        <time>2011-08-25T06:48:04Z</time>
      </trkpt>
      <trkpt lat="45.15819" lon="5.6357">
        <ele>1638.5</ele>
        <time>2011-08-25T06:48:10Z</time>
      </trkpt>
      <trkpt lat="45.15822" lon="5.63574">
        <ele>1637.5</ele>
        <time>2011-08-25T06:48:13Z</time>
      </trkpt>
      <trkpt lat="45.15826" lon="5.63578">
        <ele>1636.5</ele>
        <time>2011-08-25T06:48:17Z</time>
      </trkpt>
      <trkpt lat="45.15831" lon="5.63582">
        <ele>1634.1</ele>
        <time>2011-08-25T06:48:33Z</time>
      </trkpt>
      <trkpt lat="45.15836" lon="5.63586">
        <ele>1632.3</ele>
        <time>2011-08-25T06:48:39Z</time>
      </trkpt>
      <trkpt lat="45.1584" lon="5.63589">
        <ele>1630.6</ele>
        <time>2011-08-25T06:48:44Z</time>
      </trkpt>
      <trkpt lat="45.1584" lon="5.63596">
        <ele>1628.2</ele>
        <time>2011-08-25T06:48:52Z</time>
      </trkpt>
      <trkpt lat="45.15842" lon="5.63603">
        <ele>1626.6</ele>
        <time>2011-08-25T06:49:02Z</time>
      </trkpt>
      <trkpt lat="45.15838" lon="5.63609">
        <ele>1624.1</ele>
        <time>2011-08-25T06:49:27Z</time>
      </trkpt>
      <trkpt lat="45.15834" lon="5.63613">
        <ele>1623.5</ele>
        <time>2011-08-25T06:49:31Z</time>
      </trkpt>
      <trkpt lat="45.15828" lon="5.63614">
        <ele>1623</ele>
        <time>2011-08-25T06:49:36Z</time>
      </trkpt>
      <trkpt lat="45.15824" lon="5.63613">
        <ele>1622.5</ele>
        <time>2011-08-25T06:49:42Z</time>
      </trkpt>
      <trkpt lat="45.15819" lon="5.63609">
        <ele>1622.7</ele>
        <time>2011-08-25T06:50:06Z</time>
      </trkpt>
      <trkpt lat="45.15815" lon="5.63606">
        <ele>1623.1</ele>
        <time>2011-08-25T06:50:14Z</time>
      </trkpt>
      <trkpt lat="45.1581" lon="5.63606">
        <ele>1622.4</ele>
        <time>2011-08-25T06:50:20Z</time>
      </trkpt>
      <trkpt lat="45.15804" lon="5.63605">
        <ele>1621.3</ele>
        <time>2011-08-25T06:50:25Z</time>
      </trkpt>
      <trkpt lat="45.15799" lon="5.63602">
        <ele>1621</ele>
        <time>2011-08-25T06:50:28Z</time>
      </trkpt>
      <trkpt lat="45.15793" lon="5.636">
        <ele>1619.7</ele>
        <time>2011-08-25T06:50:31Z</time>
      </trkpt>
      <trkpt lat="45.15788" lon="5.636">
        <ele>1619.5</ele>
        <time>2011-08-25T06:50:34Z</time>
      </trkpt>
      <trkpt lat="45.15783" lon="5.63599">
        <ele>1619.4</ele>
        <time>2011-08-25T06:50:38Z</time>
      </trkpt>
      <trkpt lat="45.15776" lon="5.63597">
        <ele>1619</ele>
        <time>2011-08-25T06:50:41Z</time>
      </trkpt>
      <trkpt lat="45.15771" lon="5.63594">
        <ele>1618</ele>
        <time>2011-08-25T06:50:43Z</time>
      </trkpt>
      <trkpt lat="45.15766" lon="5.63591">
        <ele>1616.9</ele>
        <time>2011-08-25T06:50:46Z</time>
      </trkpt>
      <trkpt lat="45.15761" lon="5.63588">
        <ele>1616.1</ele>
        <time>2011-08-25T06:50:51Z</time>
      </trkpt>
      <trkpt lat="45.15757" lon="5.63584">
        <ele>1616.5</ele>
        <time>2011-08-25T06:50:57Z</time>
      </trkpt>
      <trkpt lat="45.15753" lon="5.63578">
        <ele>1616.5</ele>
        <time>2011-08-25T06:51:01Z</time>
      </trkpt>
      <trkpt lat="45.15749" lon="5.63576">
        <ele>1616</ele>
        <time>2011-08-25T06:51:07Z</time>
      </trkpt>
      <trkpt lat="45.15743" lon="5.63577">
        <ele>1615.9</ele>
        <time>2011-08-25T06:51:14Z</time>
      </trkpt>
      <trkpt lat="45.15738" lon="5.63578">
        <ele>1615.7</ele>
        <time>2011-08-25T06:51:18Z</time>
      </trkpt>
      <trkpt lat="45.15735" lon="5.63573">
        <ele>1615.2</ele>
        <time>2011-08-25T06:51:29Z</time>
      </trkpt>
      <trkpt lat="45.1573" lon="5.63572">
        <ele>1617.1</ele>
        <time>2011-08-25T06:51:38Z</time>
      </trkpt>
      <trkpt lat="45.15725" lon="5.63572">
        <ele>1616.6</ele>
        <time>2011-08-25T06:51:44Z</time>
      </trkpt>
      <trkpt lat="45.15717" lon="5.6357">
        <ele>1617.5</ele>
        <time>2011-08-25T06:52:06Z</time>
      </trkpt>
      <trkpt lat="45.15712" lon="5.6357">
        <ele>1618</ele>
        <time>2011-08-25T06:52:12Z</time>
      </trkpt>
      <trkpt lat="45.15704" lon="5.6357">
        <ele>1618.9</ele>
        <time>2011-08-25T06:52:31Z</time>
      </trkpt>
      <trkpt lat="45.15698" lon="5.6357">
        <ele>1619.9</ele>
        <time>2011-08-25T06:52:43Z</time>
      </trkpt>
      <trkpt lat="45.15693" lon="5.63568">
        <ele>1620.2</ele>
        <time>2011-08-25T06:52:59Z</time>
      </trkpt>
      <trkpt lat="45.15688" lon="5.6357">
        <ele>1624.4</ele>
        <time>2011-08-25T06:53:20Z</time>
      </trkpt>
      <trkpt lat="45.1568" lon="5.63575">
        <ele>1664.5</ele>
        <time>2011-08-25T06:54:08Z</time>
      </trkpt>
      <trkpt lat="45.15675" lon="5.63572">
        <ele>1666.1</ele>
        <time>2011-08-25T06:54:35Z</time>
      </trkpt>
      <trkpt lat="45.15671" lon="5.63569">
        <ele>1664.5</ele>
        <time>2011-08-25T06:54:42Z</time>
      </trkpt>
      <trkpt lat="45.15665" lon="5.63563">
        <ele>1662.4</ele>
        <time>2011-08-25T06:54:59Z</time>
      </trkpt>
      <trkpt lat="45.1566" lon="5.63559">
        <ele>1660.5</ele>
        <time>2011-08-25T06:55:06Z</time>
      </trkpt>
      <trkpt lat="45.15655" lon="5.63552">
        <ele>1659.5</ele>
        <time>2011-08-25T06:55:19Z</time>
      </trkpt>
      <trkpt lat="45.1565" lon="5.6355">
        <ele>1658.9</ele>
        <time>2011-08-25T06:55:25Z</time>
      </trkpt>
      <trkpt lat="45.15632" lon="5.63559">
        <ele>1669.6</ele>
        <time>2011-08-25T06:56:04Z</time>
      </trkpt>
      <trkpt lat="45.15628" lon="5.63554">
        <ele>1666.5</ele>
        <time>2011-08-25T06:56:13Z</time>
      </trkpt>
      <trkpt lat="45.15626" lon="5.63548">
        <ele>1665.7</ele>
        <time>2011-08-25T06:56:16Z</time>
      </trkpt>
      <trkpt lat="45.15623" lon="5.6354">
        <ele>1665.4</ele>
        <time>2011-08-25T06:56:23Z</time>
      </trkpt>
      <trkpt lat="45.1562" lon="5.63536">
        <ele>1664.5</ele>
        <time>2011-08-25T06:56:30Z</time>
      </trkpt>
      <trkpt lat="45.15604" lon="5.63522">
        <ele>1663.9</ele>
        <time>2011-08-25T06:57:26Z</time>
      </trkpt>
      <trkpt lat="45.15599" lon="5.63521">
        <ele>1663.9</ele>
        <time>2011-08-25T06:57:31Z</time>
      </trkpt>
      <trkpt lat="45.15596" lon="5.63515">
        <ele>1664.2</ele>
        <time>2011-08-25T06:57:52Z</time>
      </trkpt>
      <trkpt lat="45.15592" lon="5.63513">
        <ele>1665</ele>
        <time>2011-08-25T06:58:03Z</time>
      </trkpt>
      <trkpt lat="45.15587" lon="5.63511">
        <ele>1666.3</ele>
        <time>2011-08-25T06:58:11Z</time>
      </trkpt>
      <trkpt lat="45.15582" lon="5.63509">
        <ele>1667.7</ele>
        <time>2011-08-25T06:58:18Z</time>
      </trkpt>
      <trkpt lat="45.15582" lon="5.63509">
        <ele>1667.7</ele>
        <time>2011-08-25T06:58:18Z</time>
      </trkpt>
      <trkpt lat="45.15582" lon="5.63509">
        <ele>1667.7</ele>
        <time>2011-08-25T06:58:27Z</time>
      </trkpt>
      <trkpt lat="45.15562" lon="5.63514">
        <ele>1674.2</ele>
        <time>2011-08-25T06:58:55Z</time>
      </trkpt>
      <trkpt lat="45.15562" lon="5.63514">
        <ele>1674.2</ele>
        <time>2011-08-25T06:58:55Z</time>
      </trkpt>
      <trkpt lat="45.15562" lon="5.63514">
        <ele>1674.2</ele>
        <time>2011-08-25T06:58:59Z</time>
      </trkpt>
      <trkpt lat="45.15563" lon="5.63538">
        <ele>1686.3</ele>
        <time>2011-08-25T06:59:00Z</time>
      </trkpt>
      <trkpt lat="45.15562" lon="5.63546">
        <ele>1690.5</ele>
        <time>2011-08-25T06:59:02Z</time>
      </trkpt>
      <trkpt lat="45.15559" lon="5.63553">
        <ele>1702.2</ele>
        <time>2011-08-25T06:59:08Z</time>
      </trkpt>
      <trkpt lat="45.15554" lon="5.63546">
        <ele>1697.2</ele>
        <time>2011-08-25T06:59:38Z</time>
      </trkpt>
      <trkpt lat="45.1555" lon="5.63548">
        <ele>1697.3</ele>
        <time>2011-08-25T06:59:58Z</time>
      </trkpt>
      <trkpt lat="45.15545" lon="5.63549">
        <ele>1697.1</ele>
        <time>2011-08-25T07:00:01Z</time>
      </trkpt>
      <trkpt lat="45.15541" lon="5.63552">
        <ele>1697.3</ele>
        <time>2011-08-25T07:00:03Z</time>
      </trkpt>
      <trkpt lat="45.15537" lon="5.63553">
        <ele>1697.7</ele>
        <time>2011-08-25T07:00:11Z</time>
      </trkpt>
      <trkpt lat="45.15537" lon="5.63545">
        <ele>1697.6</ele>
        <time>2011-08-25T07:00:22Z</time>
      </trkpt>
      <trkpt lat="45.15539" lon="5.63538">
        <ele>1697.7</ele>
        <time>2011-08-25T07:00:29Z</time>
      </trkpt>
      <trkpt lat="45.15542" lon="5.63543">
        <ele>1700.9</ele>
        <time>2011-08-25T07:00:40Z</time>
      </trkpt>
      <trkpt lat="45.15539" lon="5.63552">
        <ele>1704.6</ele>
        <time>2011-08-25T07:00:51Z</time>
      </trkpt>
      <trkpt lat="45.15535" lon="5.63558">
        <ele>1710.8</ele>
        <time>2011-08-25T07:00:55Z</time>
      </trkpt>
      <trkpt lat="45.15532" lon="5.63562">
        <ele>1714.8</ele>
        <time>2011-08-25T07:01:03Z</time>
      </trkpt>
      <trkpt lat="45.15527" lon="5.63567">
        <ele>1720.8</ele>
        <time>2011-08-25T07:01:11Z</time>
      </trkpt>
      <trkpt lat="45.15525" lon="5.63561">
        <ele>1723.8</ele>
        <time>2011-08-25T07:01:27Z</time>
      </trkpt>
      <trkpt lat="45.15537" lon="5.63547">
        <ele>1741.6</ele>
        <time>2011-08-25T07:01:52Z</time>
      </trkpt>
      <trkpt lat="45.15537" lon="5.63547">
        <ele>1741.6</ele>
        <time>2011-08-25T07:01:52Z</time>
      </trkpt>
      <trkpt lat="45.15537" lon="5.63547">
        <ele>1741.6</ele>
        <time>2011-08-25T07:02:04Z</time>
      </trkpt>
      <trkpt lat="45.15518" lon="5.63542">
        <ele>1724.6</ele>
        <time>2011-08-25T07:02:05Z</time>
      </trkpt>
      <trkpt lat="45.15513" lon="5.63541">
        <ele>1723.9</ele>
        <time>2011-08-25T07:02:11Z</time>
      </trkpt>
      <trkpt lat="45.15508" lon="5.6354">
        <ele>1719.6</ele>
        <time>2011-08-25T07:02:18Z</time>
      </trkpt>
      <trkpt lat="45.15501" lon="5.63541">
        <ele>1719.3</ele>
        <time>2011-08-25T07:02:31Z</time>
      </trkpt>
      <trkpt lat="45.15496" lon="5.63539">
        <ele>1717.5</ele>
        <time>2011-08-25T07:02:34Z</time>
      </trkpt>
      <trkpt lat="45.15488" lon="5.63535">
        <ele>1712.4</ele>
        <time>2011-08-25T07:02:51Z</time>
      </trkpt>
      <trkpt lat="45.15483" lon="5.63537">
        <ele>1709.8</ele>
        <time>2011-08-25T07:02:54Z</time>
      </trkpt>
      <trkpt lat="45.15478" lon="5.63538">
        <ele>1707.4</ele>
        <time>2011-08-25T07:03:00Z</time>
      </trkpt>
      <trkpt lat="45.15474" lon="5.63541">
        <ele>1707</ele>
        <time>2011-08-25T07:03:07Z</time>
      </trkpt>
      <trkpt lat="45.1547" lon="5.63537">
        <ele>1705.8</ele>
        <time>2011-08-25T07:03:13Z</time>
      </trkpt>
      <trkpt lat="45.15466" lon="5.6354">
        <ele>1703.8</ele>
        <time>2011-08-25T07:03:19Z</time>
      </trkpt>
      <trkpt lat="45.1546" lon="5.6354">
        <ele>1703.3</ele>
        <time>2011-08-25T07:03:24Z</time>
      </trkpt>
      <trkpt lat="45.15456" lon="5.63541">
        <ele>1701.6</ele>
        <time>2011-08-25T07:03:31Z</time>
      </trkpt>
      <trkpt lat="45.15452" lon="5.63544">
        <ele>1700.2</ele>
        <time>2011-08-25T07:03:38Z</time>
      </trkpt>
      <trkpt lat="45.15444" lon="5.63546">
        <ele>1700.3</ele>
        <time>2011-08-25T07:03:58Z</time>
      </trkpt>
      <trkpt lat="45.1544" lon="5.63547">
        <ele>1700.1</ele>
        <time>2011-08-25T07:04:05Z</time>
      </trkpt>
      <trkpt lat="45.15435" lon="5.63549">
        <ele>1699.3</ele>
        <time>2011-08-25T07:04:11Z</time>
      </trkpt>
      <trkpt lat="45.15435" lon="5.63549">
        <ele>1699.3</ele>
        <time>2011-08-25T07:04:11Z</time>
      </trkpt>
      <trkpt lat="45.15435" lon="5.63549">
        <ele>1699.3</ele>
        <time>2011-08-25T07:04:15Z</time>
      </trkpt>
      <trkpt lat="45.15431" lon="5.63553">
        <ele>1702.9</ele>
        <time>2011-08-25T07:04:27Z</time>
      </trkpt>
      <trkpt lat="45.15426" lon="5.63554">
        <ele>1700.6</ele>
        <time>2011-08-25T07:04:35Z</time>
      </trkpt>
      <trkpt lat="45.15421" lon="5.63556">
        <ele>1699.3</ele>
        <time>2011-08-25T07:04:40Z</time>
      </trkpt>
      <trkpt lat="45.15416" lon="5.63555">
        <ele>1699.7</ele>
        <time>2011-08-25T07:04:46Z</time>
      </trkpt>
      <trkpt lat="45.15411" lon="5.63558">
        <ele>1700</ele>
        <time>2011-08-25T07:04:51Z</time>
      </trkpt>
      <trkpt lat="45.15406" lon="5.6356">
        <ele>1699.5</ele>
        <time>2011-08-25T07:04:55Z</time>
      </trkpt>
      <trkpt lat="45.15403" lon="5.63565">
        <ele>1699.3</ele>
        <time>2011-08-25T07:05:03Z</time>
      </trkpt>
      <trkpt lat="45.15399" lon="5.63568">
        <ele>1699.8</ele>
        <time>2011-08-25T07:05:09Z</time>
      </trkpt>
      <trkpt lat="45.15395" lon="5.63574">
        <ele>1698.5</ele>
        <time>2011-08-25T07:05:18Z</time>
      </trkpt>
      <trkpt lat="45.15391" lon="5.63577">
        <ele>1698.1</ele>
        <time>2011-08-25T07:05:20Z</time>
      </trkpt>
      <trkpt lat="45.15385" lon="5.63581">
        <ele>1697.1</ele>
        <time>2011-08-25T07:05:23Z</time>
      </trkpt>
      <trkpt lat="45.15382" lon="5.63585">
        <ele>1695.5</ele>
        <time>2011-08-25T07:05:33Z</time>
      </trkpt>
      <trkpt lat="45.15382" lon="5.63585">
        <ele>1695.5</ele>
        <time>2011-08-25T07:05:33Z</time>
      </trkpt>
      <trkpt lat="45.15382" lon="5.63585">
        <ele>1695.5</ele>
        <time>2011-08-25T07:05:34Z</time>
      </trkpt>
      <trkpt lat="45.15378" lon="5.63589">
        <ele>1693.9</ele>
        <time>2011-08-25T07:05:41Z</time>
      </trkpt>
      <trkpt lat="45.15375" lon="5.63594">
        <ele>1692.3</ele>
        <time>2011-08-25T07:05:52Z</time>
      </trkpt>
      <trkpt lat="45.1537" lon="5.63596">
        <ele>1688.9</ele>
        <time>2011-08-25T07:06:03Z</time>
      </trkpt>
      <trkpt lat="45.15367" lon="5.63601">
        <ele>1688.3</ele>
        <time>2011-08-25T07:06:07Z</time>
      </trkpt>
      <trkpt lat="45.15364" lon="5.63607">
        <ele>1687.3</ele>
        <time>2011-08-25T07:06:11Z</time>
      </trkpt>
      <trkpt lat="45.15361" lon="5.63613">
        <ele>1686.7</ele>
        <time>2011-08-25T07:06:15Z</time>
      </trkpt>
      <trkpt lat="45.15357" lon="5.63619">
        <ele>1686</ele>
        <time>2011-08-25T07:06:19Z</time>
      </trkpt>
      <trkpt lat="45.15354" lon="5.63624">
        <ele>1685.8</ele>
        <time>2011-08-25T07:06:22Z</time>
      </trkpt>
      <trkpt lat="45.1535" lon="5.63631">
        <ele>1685.2</ele>
        <time>2011-08-25T07:06:25Z</time>
      </trkpt>
      <trkpt lat="45.15347" lon="5.63638">
        <ele>1684</ele>
        <time>2011-08-25T07:06:28Z</time>
      </trkpt>
      <trkpt lat="45.15344" lon="5.63645">
        <ele>1683.6</ele>
        <time>2011-08-25T07:06:31Z</time>
      </trkpt>
      <trkpt lat="45.15343" lon="5.63652">
        <ele>1683</ele>
        <time>2011-08-25T07:06:35Z</time>
      </trkpt>
      <trkpt lat="45.15342" lon="5.63659">
        <ele>1681.4</ele>
        <time>2011-08-25T07:06:40Z</time>
      </trkpt>
      <trkpt lat="45.1534" lon="5.63666">
        <ele>1680</ele>
        <time>2011-08-25T07:06:45Z</time>
      </trkpt>
      <trkpt lat="45.15338" lon="5.63673">
        <ele>1679.4</ele>
        <time>2011-08-25T07:06:49Z</time>
      </trkpt>
      <trkpt lat="45.15334" lon="5.63678">
        <ele>1678.3</ele>
        <time>2011-08-25T07:06:53Z</time>
      </trkpt>
      <trkpt lat="45.1533" lon="5.6368">
        <ele>1676.9</ele>
        <time>2011-08-25T07:06:59Z</time>
      </trkpt>
      <trkpt lat="45.1533" lon="5.6368">
        <ele>1676.9</ele>
        <time>2011-08-25T07:06:59Z</time>
      </trkpt>
      <trkpt lat="45.1533" lon="5.6368">
        <ele>1676.9</ele>
        <time>2011-08-25T07:07:05Z</time>
      </trkpt>
      <trkpt lat="45.15325" lon="5.63683">
        <ele>1672.5</ele>
        <time>2011-08-25T07:07:08Z</time>
      </trkpt>
      <trkpt lat="45.15321" lon="5.63685">
        <ele>1669.8</ele>
        <time>2011-08-25T07:07:21Z</time>
      </trkpt>
      <trkpt lat="45.15319" lon="5.63692">
        <ele>1667.5</ele>
        <time>2011-08-25T07:07:27Z</time>
      </trkpt>
      <trkpt lat="45.15316" lon="5.63698">
        <ele>1665.6</ele>
        <time>2011-08-25T07:07:33Z</time>
      </trkpt>
      <trkpt lat="45.15267" lon="5.63717">
        <ele>1655.1</ele>
        <time>2011-08-25T07:09:02Z</time>
      </trkpt>
      <trkpt lat="45.15267" lon="5.63717">
        <ele>1655.1</ele>
        <time>2011-08-25T07:09:02Z</time>
      </trkpt>
      <trkpt lat="45.15267" lon="5.63717">
        <ele>1655.1</ele>
        <time>2011-08-25T07:09:28Z</time>
      </trkpt>
      <trkpt lat="45.15257" lon="5.63728">
        <ele>1649.5</ele>
        <time>2011-08-25T07:09:29Z</time>
      </trkpt>
      <trkpt lat="45.15252" lon="5.63733">
        <ele>1649.2</ele>
        <time>2011-08-25T07:09:33Z</time>
      </trkpt>
      <trkpt lat="45.1525" lon="5.63739">
        <ele>1649.4</ele>
        <time>2011-08-25T07:09:37Z</time>
      </trkpt>
      <trkpt lat="45.15246" lon="5.63744">
        <ele>1650</ele>
        <time>2011-08-25T07:09:42Z</time>
      </trkpt>
      <trkpt lat="45.15244" lon="5.6375">
        <ele>1649.3</ele>
        <time>2011-08-25T07:09:45Z</time>
      </trkpt>
      <trkpt lat="45.1524" lon="5.63754">
        <ele>1648.2</ele>
        <time>2011-08-25T07:09:48Z</time>
      </trkpt>
      <trkpt lat="45.15237" lon="5.63758">
        <ele>1648.1</ele>
        <time>2011-08-25T07:09:51Z</time>
      </trkpt>
      <trkpt lat="45.15232" lon="5.63759">
        <ele>1648.4</ele>
        <time>2011-08-25T07:09:55Z</time>
      </trkpt>
      <trkpt lat="45.15228" lon="5.63762">
        <ele>1648.4</ele>
        <time>2011-08-25T07:09:59Z</time>
      </trkpt>
      <trkpt lat="45.15224" lon="5.63766">
        <ele>1647.9</ele>
        <time>2011-08-25T07:10:03Z</time>
      </trkpt>
      <trkpt lat="45.1522" lon="5.63769">
        <ele>1647.4</ele>
        <time>2011-08-25T07:10:08Z</time>
      </trkpt>
      <trkpt lat="45.15216" lon="5.63772">
        <ele>1646.4</ele>
        <time>2011-08-25T07:10:13Z</time>
      </trkpt>
      <trkpt lat="45.15211" lon="5.63773">
        <ele>1644.3</ele>
        <time>2011-08-25T07:10:17Z</time>
      </trkpt>
      <trkpt lat="45.15206" lon="5.63777">
        <ele>1644.5</ele>
        <time>2011-08-25T07:10:20Z</time>
      </trkpt>
      <trkpt lat="45.15203" lon="5.63782">
        <ele>1644.8</ele>
        <time>2011-08-25T07:10:23Z</time>
      </trkpt>
      <trkpt lat="45.15198" lon="5.63785">
        <ele>1645.2</ele>
        <time>2011-08-25T07:10:26Z</time>
      </trkpt>
      <trkpt lat="45.15193" lon="5.63788">
        <ele>1645.4</ele>
        <time>2011-08-25T07:10:29Z</time>
      </trkpt>
      <trkpt lat="45.15188" lon="5.63791">
        <ele>1646.4</ele>
        <time>2011-08-25T07:10:37Z</time>
      </trkpt>
      <trkpt lat="45.15183" lon="5.63794">
        <ele>1646.3</ele>
        <time>2011-08-25T07:10:42Z</time>
      </trkpt>
      <trkpt lat="45.15178" lon="5.63798">
        <ele>1645.3</ele>
        <time>2011-08-25T07:10:48Z</time>
      </trkpt>
      <trkpt lat="45.15174" lon="5.63802">
        <ele>1645</ele>
        <time>2011-08-25T07:10:52Z</time>
      </trkpt>
      <trkpt lat="45.1517" lon="5.63809">
        <ele>1644.2</ele>
        <time>2011-08-25T07:10:56Z</time>
      </trkpt>
      <trkpt lat="45.15166" lon="5.63812">
        <ele>1643.9</ele>
        <time>2011-08-25T07:11:02Z</time>
      </trkpt>
      <trkpt lat="45.15162" lon="5.63819">
        <ele>1643.4</ele>
        <time>2011-08-25T07:11:06Z</time>
      </trkpt>
      <trkpt lat="45.1516" lon="5.63825">
        <ele>1643.5</ele>
        <time>2011-08-25T07:11:11Z</time>
      </trkpt>
      <trkpt lat="45.15156" lon="5.63829">
        <ele>1642.7</ele>
        <time>2011-08-25T07:11:16Z</time>
      </trkpt>
      <trkpt lat="45.15154" lon="5.63835">
        <ele>1640.9</ele>
        <time>2011-08-25T07:11:26Z</time>
      </trkpt>
      <trkpt lat="45.15154" lon="5.63842">
        <ele>1641</ele>
        <time>2011-08-25T07:11:35Z</time>
      </trkpt>
      <trkpt lat="45.15152" lon="5.63847">
        <ele>1640.7</ele>
        <time>2011-08-25T07:11:42Z</time>
      </trkpt>
      <trkpt lat="45.15152" lon="5.63847">
        <ele>1640.7</ele>
        <time>2011-08-25T07:11:42Z</time>
      </trkpt>
      <trkpt lat="45.15152" lon="5.63847">
        <ele>1640.7</ele>
        <time>2011-08-25T07:11:45Z</time>
      </trkpt>
      <trkpt lat="45.15151" lon="5.63854">
        <ele>1638.5</ele>
        <time>2011-08-25T07:11:50Z</time>
      </trkpt>
      <trkpt lat="45.15147" lon="5.63858">
        <ele>1637.6</ele>
        <time>2011-08-25T07:11:57Z</time>
      </trkpt>
      <trkpt lat="45.15144" lon="5.63864">
        <ele>1638.2</ele>
        <time>2011-08-25T07:12:03Z</time>
      </trkpt>
      <trkpt lat="45.15142" lon="5.63871">
        <ele>1638.1</ele>
        <time>2011-08-25T07:12:11Z</time>
      </trkpt>
      <trkpt lat="45.15143" lon="5.63878">
        <ele>1637.1</ele>
        <time>2011-08-25T07:12:23Z</time>
      </trkpt>
      <trkpt lat="45.15139" lon="5.63883">
        <ele>1637.5</ele>
        <time>2011-08-25T07:12:30Z</time>
      </trkpt>
      <trkpt lat="45.15134" lon="5.63886">
        <ele>1638.6</ele>
        <time>2011-08-25T07:12:36Z</time>
      </trkpt>
      <trkpt lat="45.15132" lon="5.63892">
        <ele>1640.1</ele>
        <time>2011-08-25T07:12:42Z</time>
      </trkpt>
      <trkpt lat="45.15132" lon="5.63902">
        <ele>1641.4</ele>
        <time>2011-08-25T07:12:57Z</time>
      </trkpt>
      <trkpt lat="45.1513" lon="5.63908">
        <ele>1638.9</ele>
        <time>2011-08-25T07:13:04Z</time>
      </trkpt>
      <trkpt lat="45.15128" lon="5.63914">
        <ele>1639.4</ele>
        <time>2011-08-25T07:13:14Z</time>
      </trkpt>
      <trkpt lat="45.15122" lon="5.63916">
        <ele>1638</ele>
        <time>2011-08-25T07:13:22Z</time>
      </trkpt>
      <trkpt lat="45.15116" lon="5.63915">
        <ele>1636.5</ele>
        <time>2011-08-25T07:13:25Z</time>
      </trkpt>
      <trkpt lat="45.15116" lon="5.63922">
        <ele>1633.7</ele>
        <time>2011-08-25T07:13:33Z</time>
      </trkpt>
      <trkpt lat="45.15116" lon="5.63929">
        <ele>1633</ele>
        <time>2011-08-25T07:13:38Z</time>
      </trkpt>
      <trkpt lat="45.15111" lon="5.6393">
        <ele>1630.3</ele>
        <time>2011-08-25T07:13:44Z</time>
      </trkpt>
      <trkpt lat="45.15105" lon="5.63932">
        <ele>1627.7</ele>
        <time>2011-08-25T07:13:49Z</time>
      </trkpt>
      <trkpt lat="45.15101" lon="5.63934">
        <ele>1625.2</ele>
        <time>2011-08-25T07:13:53Z</time>
      </trkpt>
      <trkpt lat="45.15102" lon="5.6394">
        <ele>1624.7</ele>
        <time>2011-08-25T07:13:59Z</time>
      </trkpt>
      <trkpt lat="45.15098" lon="5.63942">
        <ele>1622.6</ele>
        <time>2011-08-25T07:14:04Z</time>
      </trkpt>
      <trkpt lat="45.15092" lon="5.63942">
        <ele>1621.9</ele>
        <time>2011-08-25T07:14:07Z</time>
      </trkpt>
      <trkpt lat="45.15088" lon="5.63941">
        <ele>1621.2</ele>
        <time>2011-08-25T07:14:10Z</time>
      </trkpt>
      <trkpt lat="45.1509" lon="5.63947">
        <ele>1622.5</ele>
        <time>2011-08-25T07:14:15Z</time>
      </trkpt>
      <trkpt lat="45.15098" lon="5.63954">
        <ele>1623.4</ele>
        <time>2011-08-25T07:14:19Z</time>
      </trkpt>
      <trkpt lat="45.15102" lon="5.63959">
        <ele>1623.8</ele>
        <time>2011-08-25T07:14:21Z</time>
      </trkpt>
      <trkpt lat="45.15104" lon="5.63964">
        <ele>1624.5</ele>
        <time>2011-08-25T07:14:24Z</time>
      </trkpt>
      <trkpt lat="45.15097" lon="5.63982">
        <ele>1631.3</ele>
        <time>2011-08-25T07:15:23Z</time>
      </trkpt>
      <trkpt lat="45.15097" lon="5.63982">
        <ele>1631.3</ele>
        <time>2011-08-25T07:15:23Z</time>
      </trkpt>
      <trkpt lat="45.15097" lon="5.63982">
        <ele>1631.3</ele>
        <time>2011-08-25T07:15:47Z</time>
      </trkpt>
      <trkpt lat="45.15093" lon="5.63988">
        <ele>1622.1</ele>
        <time>2011-08-25T07:15:48Z</time>
      </trkpt>
      <trkpt lat="45.15091" lon="5.63994">
        <ele>1618.7</ele>
        <time>2011-08-25T07:15:54Z</time>
      </trkpt>
      <trkpt lat="45.15086" lon="5.63998">
        <ele>1615.2</ele>
        <time>2011-08-25T07:16:00Z</time>
      </trkpt>
      <trkpt lat="45.15082" lon="5.64002">
        <ele>1613.4</ele>
        <time>2011-08-25T07:16:05Z</time>
      </trkpt>
      <trkpt lat="45.15077" lon="5.64004">
        <ele>1615.5</ele>
        <time>2011-08-25T07:16:18Z</time>
      </trkpt>
      <trkpt lat="45.15071" lon="5.64001">
        <ele>1613.8</ele>
        <time>2011-08-25T07:16:23Z</time>
      </trkpt>
      <trkpt lat="45.15064" lon="5.63999">
        <ele>1611.6</ele>
        <time>2011-08-25T07:16:25Z</time>
      </trkpt>
      <trkpt lat="45.15065" lon="5.64006">
        <ele>1608.9</ele>
        <time>2011-08-25T07:16:34Z</time>
      </trkpt>
      <trkpt lat="45.1507" lon="5.64012">
        <ele>1608.8</ele>
        <time>2011-08-25T07:16:37Z</time>
      </trkpt>
      <trkpt lat="45.15074" lon="5.64017">
        <ele>1608.8</ele>
        <time>2011-08-25T07:16:40Z</time>
      </trkpt>
      <trkpt lat="45.15078" lon="5.64021">
        <ele>1608.8</ele>
        <time>2011-08-25T07:16:43Z</time>
      </trkpt>
      <trkpt lat="45.15082" lon="5.64024">
        <ele>1609</ele>
        <time>2011-08-25T07:16:46Z</time>
      </trkpt>
      <trkpt lat="45.15086" lon="5.64029">
        <ele>1610.1</ele>
        <time>2011-08-25T07:16:50Z</time>
      </trkpt>
      <trkpt lat="45.15087" lon="5.64038">
        <ele>1610.5</ele>
        <time>2011-08-25T07:17:06Z</time>
      </trkpt>
      <trkpt lat="45.15082" lon="5.6404">
        <ele>1610.2</ele>
        <time>2011-08-25T07:17:19Z</time>
      </trkpt>
      <trkpt lat="45.15078" lon="5.64038">
        <ele>1609.6</ele>
        <time>2011-08-25T07:17:24Z</time>
      </trkpt>
      <trkpt lat="45.15074" lon="5.64039">
        <ele>1606.4</ele>
        <time>2011-08-25T07:17:34Z</time>
      </trkpt>
      <trkpt lat="45.15074" lon="5.64046">
        <ele>1603.2</ele>
        <time>2011-08-25T07:17:42Z</time>
      </trkpt>
      <trkpt lat="45.15077" lon="5.64051">
        <ele>1601.1</ele>
        <time>2011-08-25T07:17:47Z</time>
      </trkpt>
      <trkpt lat="45.15079" lon="5.64057">
        <ele>1601.5</ele>
        <time>2011-08-25T07:17:52Z</time>
      </trkpt>
      <trkpt lat="45.15083" lon="5.64061">
        <ele>1601.3</ele>
        <time>2011-08-25T07:18:01Z</time>
      </trkpt>
      <trkpt lat="45.15084" lon="5.64068">
        <ele>1601.2</ele>
        <time>2011-08-25T07:18:18Z</time>
      </trkpt>
      <trkpt lat="45.15082" lon="5.64074">
        <ele>1601.4</ele>
        <time>2011-08-25T07:18:23Z</time>
      </trkpt>
      <trkpt lat="45.15079" lon="5.64079">
        <ele>1599.8</ele>
        <time>2011-08-25T07:18:38Z</time>
      </trkpt>
      <trkpt lat="45.15074" lon="5.64082">
        <ele>1598.3</ele>
        <time>2011-08-25T07:18:42Z</time>
      </trkpt>
      <trkpt lat="45.15069" lon="5.64082">
        <ele>1595.7</ele>
        <time>2011-08-25T07:18:48Z</time>
      </trkpt>
      <trkpt lat="45.15065" lon="5.64084">
        <ele>1592.6</ele>
        <time>2011-08-25T07:18:53Z</time>
      </trkpt>
      <trkpt lat="45.15066" lon="5.64091">
        <ele>1593.1</ele>
        <time>2011-08-25T07:19:01Z</time>
      </trkpt>
      <trkpt lat="45.1507" lon="5.64094">
        <ele>1588.8</ele>
        <time>2011-08-25T07:19:07Z</time>
      </trkpt>
      <trkpt lat="45.1506" lon="5.64104">
        <ele>1572.7</ele>
        <time>2011-08-25T07:19:48Z</time>
      </trkpt>
      <trkpt lat="45.15061" lon="5.6411">
        <ele>1573.8</ele>
        <time>2011-08-25T07:19:54Z</time>
      </trkpt>
      <trkpt lat="45.15061" lon="5.64117">
        <ele>1578.1</ele>
        <time>2011-08-25T07:19:59Z</time>
      </trkpt>
      <trkpt lat="45.15057" lon="5.64121">
        <ele>1579</ele>
        <time>2011-08-25T07:20:25Z</time>
      </trkpt>
      <trkpt lat="45.15052" lon="5.64124">
        <ele>1578.4</ele>
        <time>2011-08-25T07:20:31Z</time>
      </trkpt>
      <trkpt lat="45.15048" lon="5.64128">
        <ele>1577</ele>
        <time>2011-08-25T07:20:35Z</time>
      </trkpt>
      <trkpt lat="45.15043" lon="5.64127">
        <ele>1575</ele>
        <time>2011-08-25T07:20:40Z</time>
      </trkpt>
      <trkpt lat="45.15041" lon="5.64133">
        <ele>1577</ele>
        <time>2011-08-25T07:20:53Z</time>
      </trkpt>
      <trkpt lat="45.15038" lon="5.64138">
        <ele>1578.2</ele>
        <time>2011-08-25T07:21:02Z</time>
      </trkpt>
      <trkpt lat="45.15036" lon="5.64145">
        <ele>1577.1</ele>
        <time>2011-08-25T07:21:08Z</time>
      </trkpt>
      <trkpt lat="45.15032" lon="5.6415">
        <ele>1575.5</ele>
        <time>2011-08-25T07:21:14Z</time>
      </trkpt>
      <trkpt lat="45.15032" lon="5.6415">
        <ele>1575.5</ele>
        <time>2011-08-25T07:21:14Z</time>
      </trkpt>
      <trkpt lat="45.15032" lon="5.6415">
        <ele>1575.5</ele>
        <time>2011-08-25T07:21:15Z</time>
      </trkpt>
      <trkpt lat="45.15028" lon="5.64155">
        <ele>1573.1</ele>
        <time>2011-08-25T07:21:20Z</time>
      </trkpt>
      <trkpt lat="45.15023" lon="5.64155">
        <ele>1570.2</ele>
        <time>2011-08-25T07:21:24Z</time>
      </trkpt>
      <trkpt lat="45.15026" lon="5.64161">
        <ele>1567.7</ele>
        <time>2011-08-25T07:21:29Z</time>
      </trkpt>
      <trkpt lat="45.1503" lon="5.64166">
        <ele>1566.6</ele>
        <time>2011-08-25T07:21:33Z</time>
      </trkpt>
      <trkpt lat="45.15034" lon="5.64169">
        <ele>1566</ele>
        <time>2011-08-25T07:21:37Z</time>
      </trkpt>
      <trkpt lat="45.15039" lon="5.64172">
        <ele>1563.3</ele>
        <time>2011-08-25T07:21:41Z</time>
      </trkpt>
      <trkpt lat="45.15034" lon="5.64172">
        <ele>1560.3</ele>
        <time>2011-08-25T07:22:03Z</time>
      </trkpt>
      <trkpt lat="45.1503" lon="5.64178">
        <ele>1559.8</ele>
        <time>2011-08-25T07:22:10Z</time>
      </trkpt>
      <trkpt lat="45.15028" lon="5.64183">
        <ele>1559.2</ele>
        <time>2011-08-25T07:22:15Z</time>
      </trkpt>
      <trkpt lat="45.15024" lon="5.64189">
        <ele>1558.6</ele>
        <time>2011-08-25T07:22:19Z</time>
      </trkpt>
      <trkpt lat="45.1502" lon="5.64196">
        <ele>1558.5</ele>
        <time>2011-08-25T07:22:22Z</time>
      </trkpt>
      <trkpt lat="45.15017" lon="5.64203">
        <ele>1558.2</ele>
        <time>2011-08-25T07:22:25Z</time>
      </trkpt>
      <trkpt lat="45.15014" lon="5.64208">
        <ele>1557.2</ele>
        <time>2011-08-25T07:22:29Z</time>
      </trkpt>
      <trkpt lat="45.1501" lon="5.64212">
        <ele>1556.3</ele>
        <time>2011-08-25T07:22:32Z</time>
      </trkpt>
      <trkpt lat="45.15007" lon="5.64218">
        <ele>1555.6</ele>
        <time>2011-08-25T07:22:36Z</time>
      </trkpt>
      <trkpt lat="45.15004" lon="5.64223">
        <ele>1555.6</ele>
        <time>2011-08-25T07:22:39Z</time>
      </trkpt>
      <trkpt lat="45.15001" lon="5.64228">
        <ele>1554.8</ele>
        <time>2011-08-25T07:22:42Z</time>
      </trkpt>
      <trkpt lat="45.14999" lon="5.64235">
        <ele>1554.3</ele>
        <time>2011-08-25T07:22:44Z</time>
      </trkpt>
      <trkpt lat="45.14999" lon="5.64242">
        <ele>1553.9</ele>
        <time>2011-08-25T07:22:47Z</time>
      </trkpt>
      <trkpt lat="45.14993" lon="5.64242">
        <ele>1553.6</ele>
        <time>2011-08-25T07:22:52Z</time>
      </trkpt>
      <trkpt lat="45.14989" lon="5.64246">
        <ele>1553.1</ele>
        <time>2011-08-25T07:22:54Z</time>
      </trkpt>
      <trkpt lat="45.14985" lon="5.6425">
        <ele>1550.8</ele>
        <time>2011-08-25T07:23:04Z</time>
      </trkpt>
      <trkpt lat="45.14982" lon="5.64259">
        <ele>1550.8</ele>
        <time>2011-08-25T07:23:07Z</time>
      </trkpt>
      <trkpt lat="45.14978" lon="5.64266">
        <ele>1550.6</ele>
        <time>2011-08-25T07:23:09Z</time>
      </trkpt>
      <trkpt lat="45.14976" lon="5.64274">
        <ele>1550.6</ele>
        <time>2011-08-25T07:23:11Z</time>
      </trkpt>
      <trkpt lat="45.14974" lon="5.64281">
        <ele>1550.1</ele>
        <time>2011-08-25T07:23:13Z</time>
      </trkpt>
      <trkpt lat="45.14971" lon="5.64286">
        <ele>1549.9</ele>
        <time>2011-08-25T07:23:15Z</time>
      </trkpt>
      <trkpt lat="45.14969" lon="5.64292">
        <ele>1549.1</ele>
        <time>2011-08-25T07:23:18Z</time>
      </trkpt>
      <trkpt lat="45.14967" lon="5.643">
        <ele>1548.2</ele>
        <time>2011-08-25T07:23:21Z</time>
      </trkpt>
      <trkpt lat="45.14967" lon="5.64306">
        <ele>1547.5</ele>
        <time>2011-08-25T07:23:24Z</time>
      </trkpt>
      <trkpt lat="45.14964" lon="5.64313">
        <ele>1546.1</ele>
        <time>2011-08-25T07:23:27Z</time>
      </trkpt>
      <trkpt lat="45.14962" lon="5.64319">
        <ele>1545.4</ele>
        <time>2011-08-25T07:23:30Z</time>
      </trkpt>
      <trkpt lat="45.1496" lon="5.64326">
        <ele>1544.3</ele>
        <time>2011-08-25T07:23:35Z</time>
      </trkpt>
      <trkpt lat="45.14957" lon="5.64332">
        <ele>1540.2</ele>
        <time>2011-08-25T07:23:42Z</time>
      </trkpt>
      <trkpt lat="45.14963" lon="5.64334">
        <ele>1536.1</ele>
        <time>2011-08-25T07:23:53Z</time>
      </trkpt>
      <trkpt lat="45.14968" lon="5.64332">
        <ele>1530.5</ele>
        <time>2011-08-25T07:23:58Z</time>
      </trkpt>
      <trkpt lat="45.14968" lon="5.64339">
        <ele>1524</ele>
        <time>2011-08-25T07:24:12Z</time>
      </trkpt>
      <trkpt lat="45.14965" lon="5.64346">
        <ele>1522.3</ele>
        <time>2011-08-25T07:24:16Z</time>
      </trkpt>
      <trkpt lat="45.14965" lon="5.64352">
        <ele>1517.1</ele>
        <time>2011-08-25T07:24:25Z</time>
      </trkpt>
      <trkpt lat="45.1497" lon="5.64352">
        <ele>1513.2</ele>
        <time>2011-08-25T07:24:31Z</time>
      </trkpt>
      <trkpt lat="45.14974" lon="5.64353">
        <ele>1512.1</ele>
        <time>2011-08-25T07:24:34Z</time>
      </trkpt>
      <trkpt lat="45.14974" lon="5.6436">
        <ele>1510.4</ele>
        <time>2011-08-25T07:24:53Z</time>
      </trkpt>
      <trkpt lat="45.1497" lon="5.64366">
        <ele>1510.1</ele>
        <time>2011-08-25T07:24:56Z</time>
      </trkpt>
      <trkpt lat="45.14969" lon="5.64373">
        <ele>1508.8</ele>
        <time>2011-08-25T07:24:59Z</time>
      </trkpt>
      <trkpt lat="45.14972" lon="5.64378">
        <ele>1507.4</ele>
        <time>2011-08-25T07:25:09Z</time>
      </trkpt>
      <trkpt lat="45.14973" lon="5.64384">
        <ele>1502.2</ele>
        <time>2011-08-25T07:25:42Z</time>
      </trkpt>
      <trkpt lat="45.14976" lon="5.6439">
        <ele>1500</ele>
        <time>2011-08-25T07:25:53Z</time>
      </trkpt>
      <trkpt lat="45.14973" lon="5.64396">
        <ele>1499.2</ele>
        <time>2011-08-25T07:26:00Z</time>
      </trkpt>
      <trkpt lat="45.14976" lon="5.64403">
        <ele>1497.7</ele>
        <time>2011-08-25T07:26:07Z</time>
      </trkpt>
      <trkpt lat="45.14978" lon="5.6441">
        <ele>1496.3</ele>
        <time>2011-08-25T07:26:13Z</time>
      </trkpt>
      <trkpt lat="45.14986" lon="5.64425">
        <ele>1494.8</ele>
        <time>2011-08-25T07:26:46Z</time>
      </trkpt>
      <trkpt lat="45.1499" lon="5.64421">
        <ele>1495</ele>
        <time>2011-08-25T07:26:49Z</time>
      </trkpt>
      <trkpt lat="45.14987" lon="5.64427">
        <ele>1493.3</ele>
        <time>2011-08-25T07:27:10Z</time>
      </trkpt>
      <trkpt lat="45.14986" lon="5.64434">
        <ele>1491.9</ele>
        <time>2011-08-25T07:27:13Z</time>
      </trkpt>
      <trkpt lat="45.14982" lon="5.6444">
        <ele>1491.6</ele>
        <time>2011-08-25T07:27:20Z</time>
      </trkpt>
      <trkpt lat="45.1498" lon="5.64446">
        <ele>1491.6</ele>
        <time>2011-08-25T07:27:24Z</time>
      </trkpt>
      <trkpt lat="45.14976" lon="5.64451">
        <ele>1491.5</ele>
        <time>2011-08-25T07:27:29Z</time>
      </trkpt>
      <trkpt lat="45.14978" lon="5.64458">
        <ele>1490.9</ele>
        <time>2011-08-25T07:27:36Z</time>
      </trkpt>
      <trkpt lat="45.14982" lon="5.64462">
        <ele>1487.3</ele>
        <time>2011-08-25T07:27:44Z</time>
      </trkpt>
      <trkpt lat="45.14987" lon="5.64463">
        <ele>1485.1</ele>
        <time>2011-08-25T07:28:10Z</time>
      </trkpt>
      <trkpt lat="45.14991" lon="5.64465">
        <ele>1484.6</ele>
        <time>2011-08-25T07:28:18Z</time>
      </trkpt>
      <trkpt lat="45.14994" lon="5.6447">
        <ele>1484.1</ele>
        <time>2011-08-25T07:28:26Z</time>
      </trkpt>
      <trkpt lat="45.14944" lon="5.64452">
        <ele>1446.8</ele>
        <time>2011-08-25T07:28:51Z</time>
      </trkpt>
      <trkpt lat="45.14948" lon="5.64458">
        <ele>1440</ele>
        <time>2011-08-25T07:28:57Z</time>
      </trkpt>
      <trkpt lat="45.14956" lon="5.64463">
        <ele>1440.2</ele>
        <time>2011-08-25T07:28:59Z</time>
      </trkpt>
      <trkpt lat="45.1496" lon="5.64468">
        <ele>1426.6</ele>
        <time>2011-08-25T07:29:07Z</time>
      </trkpt>
      <trkpt lat="45.14964" lon="5.64472">
        <ele>1429.5</ele>
        <time>2011-08-25T07:29:10Z</time>
      </trkpt>
      <trkpt lat="45.14973" lon="5.64477">
        <ele>1429</ele>
        <time>2011-08-25T07:29:13Z</time>
      </trkpt>
      <trkpt lat="45.14977" lon="5.64479">
        <ele>1429.6</ele>
        <time>2011-08-25T07:29:16Z</time>
      </trkpt>
      <trkpt lat="45.14979" lon="5.64485">
        <ele>1428.8</ele>
        <time>2011-08-25T07:29:22Z</time>
      </trkpt>
      <trkpt lat="45.14972" lon="5.64484">
        <ele>1427.6</ele>
        <time>2011-08-25T07:29:25Z</time>
      </trkpt>
      <trkpt lat="45.14977" lon="5.64489">
        <ele>1428.1</ele>
        <time>2011-08-25T07:29:36Z</time>
      </trkpt>
      <trkpt lat="45.14982" lon="5.64496">
        <ele>1430.6</ele>
        <time>2011-08-25T07:29:43Z</time>
      </trkpt>
      <trkpt lat="45.14986" lon="5.64502">
        <ele>1429.7</ele>
        <time>2011-08-25T07:29:46Z</time>
      </trkpt>
      <trkpt lat="45.14991" lon="5.64504">
        <ele>1428.3</ele>
        <time>2011-08-25T07:29:49Z</time>
      </trkpt>
      <trkpt lat="45.14991" lon="5.64498">
        <ele>1426.5</ele>
        <time>2011-08-25T07:30:02Z</time>
      </trkpt>
      <trkpt lat="45.14986" lon="5.64494">
        <ele>1422.7</ele>
        <time>2011-08-25T07:30:04Z</time>
      </trkpt>
      <trkpt lat="45.1498" lon="5.64492">
        <ele>1421.5</ele>
        <time>2011-08-25T07:30:08Z</time>
      </trkpt>
      <trkpt lat="45.14975" lon="5.6449">
        <ele>1421.2</ele>
        <time>2011-08-25T07:30:10Z</time>
      </trkpt>
      <trkpt lat="45.14969" lon="5.64491">
        <ele>1420.8</ele>
        <time>2011-08-25T07:30:13Z</time>
      </trkpt>
      <trkpt lat="45.14963" lon="5.6449">
        <ele>1420.1</ele>
        <time>2011-08-25T07:30:15Z</time>
      </trkpt>
      <trkpt lat="45.14958" lon="5.6449">
        <ele>1419.6</ele>
        <time>2011-08-25T07:30:19Z</time>
      </trkpt>
      <trkpt lat="45.14961" lon="5.64498">
        <ele>1419</ele>
        <time>2011-08-25T07:30:25Z</time>
      </trkpt>
      <trkpt lat="45.14968" lon="5.64506">
        <ele>1417.3</ele>
        <time>2011-08-25T07:30:32Z</time>
      </trkpt>
      <trkpt lat="45.14963" lon="5.64509">
        <ele>1416</ele>
        <time>2011-08-25T07:30:39Z</time>
      </trkpt>
      <trkpt lat="45.1496" lon="5.64514">
        <ele>1415</ele>
        <time>2011-08-25T07:30:48Z</time>
      </trkpt>
      <trkpt lat="45.14978" lon="5.64539">
        <ele>1399.8</ele>
        <time>2011-08-25T07:31:15Z</time>
      </trkpt>
      <trkpt lat="45.14978" lon="5.64539">
        <ele>1399.8</ele>
        <time>2011-08-25T07:31:15Z</time>
      </trkpt>
      <trkpt lat="45.14978" lon="5.64539">
        <ele>1399.8</ele>
        <time>2011-08-25T07:31:24Z</time>
      </trkpt>
      <trkpt lat="45.14992" lon="5.64534">
        <ele>1388.1</ele>
        <time>2011-08-25T07:31:25Z</time>
      </trkpt>
      <trkpt lat="45.15004" lon="5.64536">
        <ele>1389.8</ele>
        <time>2011-08-25T07:31:26Z</time>
      </trkpt>
      <trkpt lat="45.15014" lon="5.64531">
        <ele>1391.8</ele>
        <time>2011-08-25T07:31:27Z</time>
      </trkpt>
      <trkpt lat="45.15021" lon="5.64527">
        <ele>1392.2</ele>
        <time>2011-08-25T07:31:28Z</time>
      </trkpt>
      <trkpt lat="45.15029" lon="5.64528">
        <ele>1392.3</ele>
        <time>2011-08-25T07:31:29Z</time>
      </trkpt>
      <trkpt lat="45.15037" lon="5.64531">
        <ele>1392.1</ele>
        <time>2011-08-25T07:31:30Z</time>
      </trkpt>
      <trkpt lat="45.15045" lon="5.64531">
        <ele>1393.2</ele>
        <time>2011-08-25T07:31:32Z</time>
      </trkpt>
      <trkpt lat="45.15051" lon="5.64532">
        <ele>1392.4</ele>
        <time>2011-08-25T07:31:36Z</time>
      </trkpt>
      <trkpt lat="45.15045" lon="5.6453">
        <ele>1391.3</ele>
        <time>2011-08-25T07:31:38Z</time>
      </trkpt>
      <trkpt lat="45.1504" lon="5.64529">
        <ele>1391</ele>
        <time>2011-08-25T07:31:41Z</time>
      </trkpt>
      <trkpt lat="45.15036" lon="5.64526">
        <ele>1390.9</ele>
        <time>2011-08-25T07:31:44Z</time>
      </trkpt>
      <trkpt lat="45.15031" lon="5.64522">
        <ele>1391.6</ele>
        <time>2011-08-25T07:31:47Z</time>
      </trkpt>
      <trkpt lat="45.15036" lon="5.64522">
        <ele>1391.7</ele>
        <time>2011-08-25T07:31:53Z</time>
      </trkpt>
      <trkpt lat="45.1504" lon="5.64524">
        <ele>1393.2</ele>
        <time>2011-08-25T07:31:55Z</time>
      </trkpt>
      <trkpt lat="45.15076" lon="5.64519">
        <ele>1391</ele>
        <time>2011-08-25T07:32:47Z</time>
      </trkpt>
      <trkpt lat="45.15076" lon="5.64519">
        <ele>1391</ele>
        <time>2011-08-25T07:32:47Z</time>
      </trkpt>
      <trkpt lat="45.15076" lon="5.64519">
        <ele>1391</ele>
        <time>2011-08-25T07:33:08Z</time>
      </trkpt>
      <trkpt lat="45.15081" lon="5.64517">
        <ele>1393.1</ele>
        <time>2011-08-25T07:33:12Z</time>
      </trkpt>
      <trkpt lat="45.15086" lon="5.64515">
        <ele>1392.3</ele>
        <time>2011-08-25T07:33:15Z</time>
      </trkpt>
      <trkpt lat="45.15091" lon="5.64514">
        <ele>1392.9</ele>
        <time>2011-08-25T07:33:17Z</time>
      </trkpt>
      <trkpt lat="45.15095" lon="5.64512">
        <ele>1392.5</ele>
        <time>2011-08-25T07:33:22Z</time>
      </trkpt>
      <trkpt lat="45.151" lon="5.64512">
        <ele>1391.3</ele>
        <time>2011-08-25T07:33:33Z</time>
      </trkpt>
      <trkpt lat="45.151" lon="5.64512">
        <ele>1391.3</ele>
        <time>2011-08-25T07:33:33Z</time>
      </trkpt>
      <trkpt lat="45.151" lon="5.64512">
        <ele>1391.3</ele>
        <time>2011-08-25T07:33:34Z</time>
      </trkpt>
      <trkpt lat="45.15104" lon="5.64511">
        <ele>1391.5</ele>
        <time>2011-08-25T07:33:37Z</time>
      </trkpt>
      <trkpt lat="45.15111" lon="5.6451">
        <ele>1391.3</ele>
        <time>2011-08-25T07:33:41Z</time>
      </trkpt>
      <trkpt lat="45.15115" lon="5.64511">
        <ele>1391</ele>
        <time>2011-08-25T07:33:43Z</time>
      </trkpt>
      <trkpt lat="45.15121" lon="5.64511">
        <ele>1390.4</ele>
        <time>2011-08-25T07:33:46Z</time>
      </trkpt>
      <trkpt lat="45.15126" lon="5.64511">
        <ele>1388.2</ele>
        <time>2011-08-25T07:33:58Z</time>
      </trkpt>
      <trkpt lat="45.15132" lon="5.64512">
        <ele>1387.8</ele>
        <time>2011-08-25T07:34:02Z</time>
      </trkpt>
      <trkpt lat="45.15137" lon="5.64513">
        <ele>1385.6</ele>
        <time>2011-08-25T07:34:10Z</time>
      </trkpt>
      <trkpt lat="45.15143" lon="5.64516">
        <ele>1384.5</ele>
        <time>2011-08-25T07:34:13Z</time>
      </trkpt>
      <trkpt lat="45.1515" lon="5.64518">
        <ele>1385.1</ele>
        <time>2011-08-25T07:34:16Z</time>
      </trkpt>
      <trkpt lat="45.15155" lon="5.6452">
        <ele>1385.9</ele>
        <time>2011-08-25T07:34:18Z</time>
      </trkpt>
      <trkpt lat="45.1516" lon="5.6452">
        <ele>1384.9</ele>
        <time>2011-08-25T07:34:20Z</time>
      </trkpt>
      <trkpt lat="45.15165" lon="5.64521">
        <ele>1383.7</ele>
        <time>2011-08-25T07:34:22Z</time>
      </trkpt>
      <trkpt lat="45.1517" lon="5.6452">
        <ele>1383.4</ele>
        <time>2011-08-25T07:34:24Z</time>
      </trkpt>
      <trkpt lat="45.15176" lon="5.64516">
        <ele>1381.6</ele>
        <time>2011-08-25T07:34:27Z</time>
      </trkpt>
      <trkpt lat="45.15182" lon="5.64513">
        <ele>1379.3</ele>
        <time>2011-08-25T07:34:29Z</time>
      </trkpt>
      <trkpt lat="45.15188" lon="5.64512">
        <ele>1378.5</ele>
        <time>2011-08-25T07:34:31Z</time>
      </trkpt>
      <trkpt lat="45.15192" lon="5.64512">
        <ele>1378</ele>
        <time>2011-08-25T07:34:33Z</time>
      </trkpt>
      <trkpt lat="45.15197" lon="5.64508">
        <ele>1375.5</ele>
        <time>2011-08-25T07:34:41Z</time>
      </trkpt>
      <trkpt lat="45.15201" lon="5.64504">
        <ele>1373.1</ele>
        <time>2011-08-25T07:34:45Z</time>
      </trkpt>
      <trkpt lat="45.15206" lon="5.64504">
        <ele>1372.7</ele>
        <time>2011-08-25T07:34:51Z</time>
      </trkpt>
      <trkpt lat="45.15212" lon="5.64506">
        <ele>1372.1</ele>
        <time>2011-08-25T07:34:57Z</time>
      </trkpt>
      <trkpt lat="45.15216" lon="5.64508">
        <ele>1371.3</ele>
        <time>2011-08-25T07:34:59Z</time>
      </trkpt>
      <trkpt lat="45.15221" lon="5.6451">
        <ele>1370.6</ele>
        <time>2011-08-25T07:35:01Z</time>
      </trkpt>
      <trkpt lat="45.15229" lon="5.64512">
        <ele>1370.3</ele>
        <time>2011-08-25T07:35:03Z</time>
      </trkpt>
      <trkpt lat="45.15233" lon="5.64516">
        <ele>1369.6</ele>
        <time>2011-08-25T07:35:05Z</time>
      </trkpt>
      <trkpt lat="45.15237" lon="5.64519">
        <ele>1369.4</ele>
        <time>2011-08-25T07:35:07Z</time>
      </trkpt>
      <trkpt lat="45.15241" lon="5.64521">
        <ele>1369.2</ele>
        <time>2011-08-25T07:35:09Z</time>
      </trkpt>
      <trkpt lat="45.15245" lon="5.64525">
        <ele>1368.9</ele>
        <time>2011-08-25T07:35:11Z</time>
      </trkpt>
      <trkpt lat="45.1525" lon="5.64527">
        <ele>1368.6</ele>
        <time>2011-08-25T07:35:13Z</time>
      </trkpt>
      <trkpt lat="45.15253" lon="5.64531">
        <ele>1367</ele>
        <time>2011-08-25T07:35:16Z</time>
      </trkpt>
      <trkpt lat="45.1526" lon="5.64535">
        <ele>1365.7</ele>
        <time>2011-08-25T07:35:19Z</time>
      </trkpt>
      <trkpt lat="45.15266" lon="5.64539">
        <ele>1364.9</ele>
        <time>2011-08-25T07:35:21Z</time>
      </trkpt>
      <trkpt lat="45.15274" lon="5.64541">
        <ele>1364</ele>
        <time>2011-08-25T07:35:23Z</time>
      </trkpt>
      <trkpt lat="45.15278" lon="5.64542">
        <ele>1362.9</ele>
        <time>2011-08-25T07:35:25Z</time>
      </trkpt>
      <trkpt lat="45.15284" lon="5.64542">
        <ele>1361.5</ele>
        <time>2011-08-25T07:35:27Z</time>
      </trkpt>
      <trkpt lat="45.1529" lon="5.64541">
        <ele>1361</ele>
        <time>2011-08-25T07:35:29Z</time>
      </trkpt>
      <trkpt lat="45.15294" lon="5.64538">
        <ele>1360.1</ele>
        <time>2011-08-25T07:35:35Z</time>
      </trkpt>
      <trkpt lat="45.15298" lon="5.64536">
        <ele>1358.7</ele>
        <time>2011-08-25T07:35:40Z</time>
      </trkpt>
      <trkpt lat="45.15304" lon="5.64534">
        <ele>1357.7</ele>
        <time>2011-08-25T07:35:43Z</time>
      </trkpt>
      <trkpt lat="45.15309" lon="5.64532">
        <ele>1356.9</ele>
        <time>2011-08-25T07:35:46Z</time>
      </trkpt>
      <trkpt lat="45.15314" lon="5.64532">
        <ele>1356.4</ele>
        <time>2011-08-25T07:35:48Z</time>
      </trkpt>
      <trkpt lat="45.15319" lon="5.64531">
        <ele>1355.9</ele>
        <time>2011-08-25T07:35:50Z</time>
      </trkpt>
      <trkpt lat="45.15325" lon="5.64527">
        <ele>1354.9</ele>
        <time>2011-08-25T07:35:53Z</time>
      </trkpt>
      <trkpt lat="45.1533" lon="5.64525">
        <ele>1353.9</ele>
        <time>2011-08-25T07:35:55Z</time>
      </trkpt>
      <trkpt lat="45.15334" lon="5.64524">
        <ele>1353.2</ele>
        <time>2011-08-25T07:35:58Z</time>
      </trkpt>
      <trkpt lat="45.15339" lon="5.64525">
        <ele>1352.3</ele>
        <time>2011-08-25T07:36:00Z</time>
      </trkpt>
      <trkpt lat="45.15344" lon="5.64523">
        <ele>1351.5</ele>
        <time>2011-08-25T07:36:02Z</time>
      </trkpt>
      <trkpt lat="45.15349" lon="5.6452">
        <ele>1351.2</ele>
        <time>2011-08-25T07:36:04Z</time>
      </trkpt>
      <trkpt lat="45.15353" lon="5.64518">
        <ele>1350.4</ele>
        <time>2011-08-25T07:36:06Z</time>
      </trkpt>
      <trkpt lat="45.15358" lon="5.64516">
        <ele>1350</ele>
        <time>2011-08-25T07:36:09Z</time>
      </trkpt>
      <trkpt lat="45.15365" lon="5.64514">
        <ele>1349</ele>
        <time>2011-08-25T07:36:12Z</time>
      </trkpt>
      <trkpt lat="45.1537" lon="5.64514">
        <ele>1348.6</ele>
        <time>2011-08-25T07:36:16Z</time>
      </trkpt>
      <trkpt lat="45.1537" lon="5.64514">
        <ele>1348.6</ele>
        <time>2011-08-25T07:36:16Z</time>
      </trkpt>
      <trkpt lat="45.1537" lon="5.64514">
        <ele>1348.6</ele>
        <time>2011-08-25T07:36:21Z</time>
      </trkpt>
      <trkpt lat="45.15378" lon="5.64507">
        <ele>1345.9</ele>
        <time>2011-08-25T07:36:39Z</time>
      </trkpt>
      <trkpt lat="45.15382" lon="5.64503">
        <ele>1345.7</ele>
        <time>2011-08-25T07:36:41Z</time>
      </trkpt>
      <trkpt lat="45.15394" lon="5.64496">
        <ele>1345.6</ele>
        <time>2011-08-25T07:38:37Z</time>
      </trkpt>
      <trkpt lat="45.15387" lon="5.64501">
        <ele>1342.7</ele>
        <time>2011-08-25T07:39:08Z</time>
      </trkpt>
      <trkpt lat="45.15376" lon="5.64503">
        <ele>1341.3</ele>
        <time>2011-08-25T07:39:42Z</time>
      </trkpt>
      <trkpt lat="45.15369" lon="5.64504">
        <ele>1336.6</ele>
        <time>2011-08-25T07:39:46Z</time>
      </trkpt>
      <trkpt lat="45.1536" lon="5.64503">
        <ele>1332.2</ele>
        <time>2011-08-25T07:39:48Z</time>
      </trkpt>
      <trkpt lat="45.15353" lon="5.64504">
        <ele>1332.1</ele>
        <time>2011-08-25T07:39:50Z</time>
      </trkpt>
      <trkpt lat="45.15343" lon="5.64506">
        <ele>1330.8</ele>
        <time>2011-08-25T07:39:52Z</time>
      </trkpt>
      <trkpt lat="45.15337" lon="5.64508">
        <ele>1329.7</ele>
        <time>2011-08-25T07:39:53Z</time>
      </trkpt>
      <trkpt lat="45.1533" lon="5.6451">
        <ele>1327.6</ele>
        <time>2011-08-25T07:39:55Z</time>
      </trkpt>
      <trkpt lat="45.15324" lon="5.64511">
        <ele>1326.8</ele>
        <time>2011-08-25T07:39:56Z</time>
      </trkpt>
      <trkpt lat="45.15316" lon="5.64514">
        <ele>1329.3</ele>
        <time>2011-08-25T07:39:58Z</time>
      </trkpt>
      <trkpt lat="45.15311" lon="5.64515">
        <ele>1329.4</ele>
        <time>2011-08-25T07:39:59Z</time>
      </trkpt>
      <trkpt lat="45.15306" lon="5.64516">
        <ele>1329.3</ele>
        <time>2011-08-25T07:40:00Z</time>
      </trkpt>
      <trkpt lat="45.15298" lon="5.64518">
        <ele>1329.7</ele>
        <time>2011-08-25T07:40:02Z</time>
      </trkpt>
      <trkpt lat="45.15291" lon="5.6452">
        <ele>1329.6</ele>
        <time>2011-08-25T07:40:04Z</time>
      </trkpt>
      <trkpt lat="45.15284" lon="5.64521">
        <ele>1329</ele>
        <time>2011-08-25T07:40:06Z</time>
      </trkpt>
      <trkpt lat="45.15278" lon="5.64521">
        <ele>1329.1</ele>
        <time>2011-08-25T07:40:08Z</time>
      </trkpt>
      <trkpt lat="45.15272" lon="5.6452">
        <ele>1329.1</ele>
        <time>2011-08-25T07:40:10Z</time>
      </trkpt>
      <trkpt lat="45.15267" lon="5.64519">
        <ele>1329</ele>
        <time>2011-08-25T07:40:13Z</time>
      </trkpt>
      <trkpt lat="45.15262" lon="5.64522">
        <ele>1328.9</ele>
        <time>2011-08-25T07:40:18Z</time>
      </trkpt>
      <trkpt lat="45.15256" lon="5.64524">
        <ele>1328.3</ele>
        <time>2011-08-25T07:40:22Z</time>
      </trkpt>
      <trkpt lat="45.15252" lon="5.6453">
        <ele>1327.8</ele>
        <time>2011-08-25T07:40:25Z</time>
      </trkpt>
      <trkpt lat="45.15248" lon="5.64533">
        <ele>1327.6</ele>
        <time>2011-08-25T07:40:27Z</time>
      </trkpt>
      <trkpt lat="45.15243" lon="5.64536">
        <ele>1327.6</ele>
        <time>2011-08-25T07:40:29Z</time>
      </trkpt>
      <trkpt lat="45.15236" lon="5.64539">
        <ele>1327.3</ele>
        <time>2011-08-25T07:40:31Z</time>
      </trkpt>
      <trkpt lat="45.1523" lon="5.64541">
        <ele>1327.4</ele>
        <time>2011-08-25T07:40:33Z</time>
      </trkpt>
      <trkpt lat="45.15226" lon="5.64543">
        <ele>1327.2</ele>
        <time>2011-08-25T07:40:34Z</time>
      </trkpt>
      <trkpt lat="45.15221" lon="5.64545">
        <ele>1326.8</ele>
        <time>2011-08-25T07:40:35Z</time>
      </trkpt>
      <trkpt lat="45.15214" lon="5.6455">
        <ele>1326.1</ele>
        <time>2011-08-25T07:40:37Z</time>
      </trkpt>
      <trkpt lat="45.15209" lon="5.64553">
        <ele>1326.2</ele>
        <time>2011-08-25T07:40:38Z</time>
      </trkpt>
      <trkpt lat="45.15204" lon="5.64559">
        <ele>1325.4</ele>
        <time>2011-08-25T07:40:40Z</time>
      </trkpt>
      <trkpt lat="45.15198" lon="5.64567">
        <ele>1324.1</ele>
        <time>2011-08-25T07:40:42Z</time>
      </trkpt>
      <trkpt lat="45.15197" lon="5.64577">
        <ele>1323.1</ele>
        <time>2011-08-25T07:40:44Z</time>
      </trkpt>
      <trkpt lat="45.15193" lon="5.64585">
        <ele>1322.3</ele>
        <time>2011-08-25T07:40:46Z</time>
      </trkpt>
      <trkpt lat="45.15188" lon="5.64593">
        <ele>1321.8</ele>
        <time>2011-08-25T07:40:48Z</time>
      </trkpt>
      <trkpt lat="45.15183" lon="5.64602">
        <ele>1320.5</ele>
        <time>2011-08-25T07:40:50Z</time>
      </trkpt>
      <trkpt lat="45.15178" lon="5.64611">
        <ele>1319.9</ele>
        <time>2011-08-25T07:40:52Z</time>
      </trkpt>
      <trkpt lat="45.15173" lon="5.64616">
        <ele>1318.8</ele>
        <time>2011-08-25T07:40:54Z</time>
      </trkpt>
      <trkpt lat="45.15169" lon="5.64624">
        <ele>1317.8</ele>
        <time>2011-08-25T07:40:56Z</time>
      </trkpt>
      <trkpt lat="45.15164" lon="5.64628">
        <ele>1317.4</ele>
        <time>2011-08-25T07:40:58Z</time>
      </trkpt>
      <trkpt lat="45.15159" lon="5.64631">
        <ele>1317.1</ele>
        <time>2011-08-25T07:41:00Z</time>
      </trkpt>
      <trkpt lat="45.15152" lon="5.64634">
        <ele>1315.8</ele>
        <time>2011-08-25T07:41:03Z</time>
      </trkpt>
      <trkpt lat="45.15146" lon="5.64635">
        <ele>1314.7</ele>
        <time>2011-08-25T07:41:05Z</time>
      </trkpt>
      <trkpt lat="45.15138" lon="5.64635">
        <ele>1313.4</ele>
        <time>2011-08-25T07:41:07Z</time>
      </trkpt>
      <trkpt lat="45.15132" lon="5.64636">
        <ele>1312.3</ele>
        <time>2011-08-25T07:41:09Z</time>
      </trkpt>
      <trkpt lat="45.15126" lon="5.64638">
        <ele>1311.8</ele>
        <time>2011-08-25T07:41:10Z</time>
      </trkpt>
      <trkpt lat="45.15122" lon="5.64638">
        <ele>1311.2</ele>
        <time>2011-08-25T07:41:12Z</time>
      </trkpt>
      <trkpt lat="45.15117" lon="5.64637">
        <ele>1310</ele>
        <time>2011-08-25T07:41:16Z</time>
      </trkpt>
      <trkpt lat="45.15112" lon="5.64638">
        <ele>1309.1</ele>
        <time>2011-08-25T07:41:21Z</time>
      </trkpt>
      <trkpt lat="45.15107" lon="5.64639">
        <ele>1307.9</ele>
        <time>2011-08-25T07:41:30Z</time>
      </trkpt>
      <trkpt lat="45.15102" lon="5.64641">
        <ele>1307.2</ele>
        <time>2011-08-25T07:41:37Z</time>
      </trkpt>
      <trkpt lat="45.15098" lon="5.64643">
        <ele>1306.3</ele>
        <time>2011-08-25T07:41:47Z</time>
      </trkpt>
      <trkpt lat="45.15093" lon="5.64645">
        <ele>1305.5</ele>
        <time>2011-08-25T07:41:52Z</time>
      </trkpt>
      <trkpt lat="45.15088" lon="5.64645">
        <ele>1305.2</ele>
        <time>2011-08-25T07:41:56Z</time>
      </trkpt>
      <trkpt lat="45.15083" lon="5.64646">
        <ele>1305.2</ele>
        <time>2011-08-25T07:42:00Z</time>
      </trkpt>
      <trkpt lat="45.15078" lon="5.6465">
        <ele>1304.5</ele>
        <time>2011-08-25T07:42:07Z</time>
      </trkpt>
      <trkpt lat="45.15074" lon="5.64656">
        <ele>1304.5</ele>
        <time>2011-08-25T07:42:11Z</time>
      </trkpt>
      <trkpt lat="45.15069" lon="5.64657">
        <ele>1304.6</ele>
        <time>2011-08-25T07:42:14Z</time>
      </trkpt>
      <trkpt lat="45.15062" lon="5.64657">
        <ele>1304.7</ele>
        <time>2011-08-25T07:42:16Z</time>
      </trkpt>
      <trkpt lat="45.15056" lon="5.64658">
        <ele>1304.4</ele>
        <time>2011-08-25T07:42:18Z</time>
      </trkpt>
      <trkpt lat="45.1505" lon="5.64658">
        <ele>1304.5</ele>
        <time>2011-08-25T07:42:20Z</time>
      </trkpt>
      <trkpt lat="45.15045" lon="5.64662">
        <ele>1304.4</ele>
        <time>2011-08-25T07:42:22Z</time>
      </trkpt>
      <trkpt lat="45.1504" lon="5.64665">
        <ele>1304.2</ele>
        <time>2011-08-25T07:42:26Z</time>
      </trkpt>
      <trkpt lat="45.15035" lon="5.64665">
        <ele>1304.9</ele>
        <time>2011-08-25T07:42:30Z</time>
      </trkpt>
      <trkpt lat="45.15031" lon="5.64668">
        <ele>1305.9</ele>
        <time>2011-08-25T07:42:38Z</time>
      </trkpt>
      <trkpt lat="45.15028" lon="5.64674">
        <ele>1305.1</ele>
        <time>2011-08-25T07:43:19Z</time>
      </trkpt>
      <trkpt lat="45.15023" lon="5.64673">
        <ele>1304.9</ele>
        <time>2011-08-25T07:43:29Z</time>
      </trkpt>
      <trkpt lat="45.15019" lon="5.64674">
        <ele>1305.2</ele>
        <time>2011-08-25T07:43:37Z</time>
      </trkpt>
      <trkpt lat="45.15015" lon="5.64676">
        <ele>1306.7</ele>
        <time>2011-08-25T07:43:43Z</time>
      </trkpt>
      <trkpt lat="45.15007" lon="5.64682">
        <ele>1310</ele>
        <time>2011-08-25T07:44:11Z</time>
      </trkpt>
      <trkpt lat="45.15005" lon="5.64688">
        <ele>1311.8</ele>
        <time>2011-08-25T07:44:18Z</time>
      </trkpt>
      <trkpt lat="45.15005" lon="5.64695">
        <ele>1312.7</ele>
        <time>2011-08-25T07:44:22Z</time>
      </trkpt>
      <trkpt lat="45.15002" lon="5.64702">
        <ele>1313.9</ele>
        <time>2011-08-25T07:44:27Z</time>
      </trkpt>
      <trkpt lat="45.15" lon="5.64709">
        <ele>1314.8</ele>
        <time>2011-08-25T07:44:31Z</time>
      </trkpt>
      <trkpt lat="45.14998" lon="5.64715">
        <ele>1315</ele>
        <time>2011-08-25T07:44:33Z</time>
      </trkpt>
      <trkpt lat="45.14993" lon="5.6472">
        <ele>1315.1</ele>
        <time>2011-08-25T07:44:35Z</time>
      </trkpt>
      <trkpt lat="45.1499" lon="5.64728">
        <ele>1315.6</ele>
        <time>2011-08-25T07:44:38Z</time>
      </trkpt>
      <trkpt lat="45.14988" lon="5.64735">
        <ele>1316</ele>
        <time>2011-08-25T07:44:41Z</time>
      </trkpt>
      <trkpt lat="45.14986" lon="5.64742">
        <ele>1316.1</ele>
        <time>2011-08-25T07:44:43Z</time>
      </trkpt>
      <trkpt lat="45.14985" lon="5.6475">
        <ele>1316.3</ele>
        <time>2011-08-25T07:44:46Z</time>
      </trkpt>
      <trkpt lat="45.1498" lon="5.64755">
        <ele>1315.4</ele>
        <time>2011-08-25T07:44:49Z</time>
      </trkpt>
      <trkpt lat="45.14976" lon="5.6476">
        <ele>1315.4</ele>
        <time>2011-08-25T07:44:51Z</time>
      </trkpt>
      <trkpt lat="45.14971" lon="5.64764">
        <ele>1315</ele>
        <time>2011-08-25T07:44:53Z</time>
      </trkpt>
      <trkpt lat="45.14965" lon="5.64768">
        <ele>1314.5</ele>
        <time>2011-08-25T07:44:55Z</time>
      </trkpt>
      <trkpt lat="45.1496" lon="5.64773">
        <ele>1313.8</ele>
        <time>2011-08-25T07:44:57Z</time>
      </trkpt>
      <trkpt lat="45.14956" lon="5.64777">
        <ele>1314.7</ele>
        <time>2011-08-25T07:45:00Z</time>
      </trkpt>
      <trkpt lat="45.14953" lon="5.64782">
        <ele>1314.9</ele>
        <time>2011-08-25T07:45:03Z</time>
      </trkpt>
      <trkpt lat="45.14953" lon="5.64792">
        <ele>1314.7</ele>
        <time>2011-08-25T07:45:06Z</time>
      </trkpt>
      <trkpt lat="45.14952" lon="5.64799">
        <ele>1314.5</ele>
        <time>2011-08-25T07:45:08Z</time>
      </trkpt>
      <trkpt lat="45.14949" lon="5.64806">
        <ele>1314.3</ele>
        <time>2011-08-25T07:45:10Z</time>
      </trkpt>
      <trkpt lat="45.14946" lon="5.64815">
        <ele>1314.2</ele>
        <time>2011-08-25T07:45:12Z</time>
      </trkpt>
      <trkpt lat="45.14946" lon="5.64822">
        <ele>1314.4</ele>
        <time>2011-08-25T07:45:14Z</time>
      </trkpt>
      <trkpt lat="45.14945" lon="5.6483">
        <ele>1314.7</ele>
        <time>2011-08-25T07:45:16Z</time>
      </trkpt>
      <trkpt lat="45.14941" lon="5.64842">
        <ele>1314.5</ele>
        <time>2011-08-25T07:45:18Z</time>
      </trkpt>
      <trkpt lat="45.14938" lon="5.64849">
        <ele>1314.4</ele>
        <time>2011-08-25T07:45:19Z</time>
      </trkpt>
      <trkpt lat="45.14935" lon="5.64855">
        <ele>1314.1</ele>
        <time>2011-08-25T07:45:20Z</time>
      </trkpt>
      <trkpt lat="45.14929" lon="5.64863">
        <ele>1314.2</ele>
        <time>2011-08-25T07:45:22Z</time>
      </trkpt>
      <trkpt lat="45.14924" lon="5.64868">
        <ele>1314.2</ele>
        <time>2011-08-25T07:45:24Z</time>
      </trkpt>
      <trkpt lat="45.14918" lon="5.64871">
        <ele>1314.1</ele>
        <time>2011-08-25T07:45:26Z</time>
      </trkpt>
      <trkpt lat="45.14914" lon="5.64874">
        <ele>1313.9</ele>
        <time>2011-08-25T07:45:37Z</time>
      </trkpt>
      <trkpt lat="45.14909" lon="5.64876">
        <ele>1314.7</ele>
        <time>2011-08-25T07:45:43Z</time>
      </trkpt>
      <trkpt lat="45.14905" lon="5.64879">
        <ele>1313.9</ele>
        <time>2011-08-25T07:45:48Z</time>
      </trkpt>
      <trkpt lat="45.149" lon="5.64883">
        <ele>1313.8</ele>
        <time>2011-08-25T07:45:50Z</time>
      </trkpt>
      <trkpt lat="45.14896" lon="5.64886">
        <ele>1313.7</ele>
        <time>2011-08-25T07:45:52Z</time>
      </trkpt>
      <trkpt lat="45.1489" lon="5.6489">
        <ele>1313.8</ele>
        <time>2011-08-25T07:45:55Z</time>
      </trkpt>
      <trkpt lat="45.14885" lon="5.64896">
        <ele>1313.5</ele>
        <time>2011-08-25T07:45:58Z</time>
      </trkpt>
      <trkpt lat="45.14881" lon="5.649">
        <ele>1313.1</ele>
        <time>2011-08-25T07:46:00Z</time>
      </trkpt>
      <trkpt lat="45.14878" lon="5.64907">
        <ele>1312.7</ele>
        <time>2011-08-25T07:46:02Z</time>
      </trkpt>
      <trkpt lat="45.14874" lon="5.64912">
        <ele>1312.7</ele>
        <time>2011-08-25T07:46:04Z</time>
      </trkpt>
      <trkpt lat="45.14869" lon="5.64917">
        <ele>1312.3</ele>
        <time>2011-08-25T07:46:06Z</time>
      </trkpt>
      <trkpt lat="45.14862" lon="5.64922">
        <ele>1311.8</ele>
        <time>2011-08-25T07:46:08Z</time>
      </trkpt>
      <trkpt lat="45.14857" lon="5.64928">
        <ele>1312.2</ele>
        <time>2011-08-25T07:46:10Z</time>
      </trkpt>
      <trkpt lat="45.14852" lon="5.64933">
        <ele>1312.3</ele>
        <time>2011-08-25T07:46:12Z</time>
      </trkpt>
      <trkpt lat="45.14848" lon="5.64938">
        <ele>1312.6</ele>
        <time>2011-08-25T07:46:14Z</time>
      </trkpt>
      <trkpt lat="45.14844" lon="5.64943">
        <ele>1313</ele>
        <time>2011-08-25T07:46:16Z</time>
      </trkpt>
      <trkpt lat="45.14841" lon="5.64948">
        <ele>1313.2</ele>
        <time>2011-08-25T07:46:18Z</time>
      </trkpt>
      <trkpt lat="45.1484" lon="5.64956">
        <ele>1313.1</ele>
        <time>2011-08-25T07:46:20Z</time>
      </trkpt>
      <trkpt lat="45.14836" lon="5.64963">
        <ele>1313.2</ele>
        <time>2011-08-25T07:46:23Z</time>
      </trkpt>
      <trkpt lat="45.14832" lon="5.64968">
        <ele>1313.2</ele>
        <time>2011-08-25T07:46:25Z</time>
      </trkpt>
      <trkpt lat="45.14828" lon="5.64974">
        <ele>1313.1</ele>
        <time>2011-08-25T07:46:27Z</time>
      </trkpt>
      <trkpt lat="45.14823" lon="5.64979">
        <ele>1313</ele>
        <time>2011-08-25T07:46:29Z</time>
      </trkpt>
      <trkpt lat="45.14818" lon="5.64985">
        <ele>1312.7</ele>
        <time>2011-08-25T07:46:31Z</time>
      </trkpt>
      <trkpt lat="45.14813" lon="5.64992">
        <ele>1312.5</ele>
        <time>2011-08-25T07:46:33Z</time>
      </trkpt>
      <trkpt lat="45.14807" lon="5.64998">
        <ele>1312.4</ele>
        <time>2011-08-25T07:46:35Z</time>
      </trkpt>
      <trkpt lat="45.14801" lon="5.65003">
        <ele>1312.3</ele>
        <time>2011-08-25T07:46:37Z</time>
      </trkpt>
      <trkpt lat="45.14796" lon="5.65005">
        <ele>1312.1</ele>
        <time>2011-08-25T07:46:38Z</time>
      </trkpt>
      <trkpt lat="45.14791" lon="5.65007">
        <ele>1312</ele>
        <time>2011-08-25T07:46:39Z</time>
      </trkpt>
      <trkpt lat="45.14787" lon="5.6501">
        <ele>1311.7</ele>
        <time>2011-08-25T07:46:40Z</time>
      </trkpt>
      <trkpt lat="45.14781" lon="5.65013">
        <ele>1311.5</ele>
        <time>2011-08-25T07:46:41Z</time>
      </trkpt>
      <trkpt lat="45.14776" lon="5.65015">
        <ele>1311.5</ele>
        <time>2011-08-25T07:46:42Z</time>
      </trkpt>
      <trkpt lat="45.14772" lon="5.65018">
        <ele>1311.5</ele>
        <time>2011-08-25T07:46:43Z</time>
      </trkpt>
      <trkpt lat="45.14766" lon="5.65026">
        <ele>1311.9</ele>
        <time>2011-08-25T07:46:45Z</time>
      </trkpt>
      <trkpt lat="45.14761" lon="5.65028">
        <ele>1311.8</ele>
        <time>2011-08-25T07:46:46Z</time>
      </trkpt>
      <trkpt lat="45.14757" lon="5.65031">
        <ele>1311.8</ele>
        <time>2011-08-25T07:46:47Z</time>
      </trkpt>
      <trkpt lat="45.14752" lon="5.65033">
        <ele>1311.8</ele>
        <time>2011-08-25T07:46:48Z</time>
      </trkpt>
      <trkpt lat="45.14744" lon="5.65037">
        <ele>1311.9</ele>
        <time>2011-08-25T07:46:50Z</time>
      </trkpt>
      <trkpt lat="45.14737" lon="5.6504">
        <ele>1311.9</ele>
        <time>2011-08-25T07:46:52Z</time>
      </trkpt>
      <trkpt lat="45.14728" lon="5.65044">
        <ele>1312.1</ele>
        <time>2011-08-25T07:46:54Z</time>
      </trkpt>
      <trkpt lat="45.14724" lon="5.65045">
        <ele>1312.2</ele>
        <time>2011-08-25T07:46:55Z</time>
      </trkpt>
      <trkpt lat="45.14714" lon="5.65048">
        <ele>1312.3</ele>
        <time>2011-08-25T07:46:57Z</time>
      </trkpt>
      <trkpt lat="45.1471" lon="5.65051">
        <ele>1312.2</ele>
        <time>2011-08-25T07:46:58Z</time>
      </trkpt>
      <trkpt lat="45.14704" lon="5.65054">
        <ele>1312.1</ele>
        <time>2011-08-25T07:46:59Z</time>
      </trkpt>
      <trkpt lat="45.14699" lon="5.65058">
        <ele>1312</ele>
        <time>2011-08-25T07:47:00Z</time>
      </trkpt>
      <trkpt lat="45.14694" lon="5.65062">
        <ele>1311.9</ele>
        <time>2011-08-25T07:47:01Z</time>
      </trkpt>
      <trkpt lat="45.14688" lon="5.65067">
        <ele>1311.7</ele>
        <time>2011-08-25T07:47:02Z</time>
      </trkpt>
      <trkpt lat="45.14682" lon="5.65073">
        <ele>1311.5</ele>
        <time>2011-08-25T07:47:03Z</time>
      </trkpt>
      <trkpt lat="45.14679" lon="5.6508">
        <ele>1311.4</ele>
        <time>2011-08-25T07:47:04Z</time>
      </trkpt>
      <trkpt lat="45.14674" lon="5.65089">
        <ele>1311.3</ele>
        <time>2011-08-25T07:47:05Z</time>
      </trkpt>
      <trkpt lat="45.1467" lon="5.65098">
        <ele>1311.1</ele>
        <time>2011-08-25T07:47:06Z</time>
      </trkpt>
      <trkpt lat="45.14666" lon="5.65108">
        <ele>1311.3</ele>
        <time>2011-08-25T07:47:07Z</time>
      </trkpt>
      <trkpt lat="45.14664" lon="5.65119">
        <ele>1311.2</ele>
        <time>2011-08-25T07:47:08Z</time>
      </trkpt>
      <trkpt lat="45.14659" lon="5.65128">
        <ele>1311</ele>
        <time>2011-08-25T07:47:09Z</time>
      </trkpt>
      <trkpt lat="45.14654" lon="5.65135">
        <ele>1310.7</ele>
        <time>2011-08-25T07:47:10Z</time>
      </trkpt>
      <trkpt lat="45.1465" lon="5.65142">
        <ele>1310.6</ele>
        <time>2011-08-25T07:47:11Z</time>
      </trkpt>
      <trkpt lat="45.14647" lon="5.65149">
        <ele>1310.2</ele>
        <time>2011-08-25T07:47:12Z</time>
      </trkpt>
      <trkpt lat="45.14644" lon="5.65154">
        <ele>1310.3</ele>
        <time>2011-08-25T07:47:13Z</time>
      </trkpt>
      <trkpt lat="45.14641" lon="5.65161">
        <ele>1310</ele>
        <time>2011-08-25T07:47:15Z</time>
      </trkpt>
      <trkpt lat="45.14645" lon="5.65158">
        <ele>1305</ele>
        <time>2011-08-25T07:47:41Z</time>
      </trkpt>
      <trkpt lat="45.14645" lon="5.65165">
        <ele>1303.4</ele>
        <time>2011-08-25T07:47:47Z</time>
      </trkpt>
      <trkpt lat="45.14643" lon="5.65171">
        <ele>1302.2</ele>
        <time>2011-08-25T07:47:51Z</time>
      </trkpt>
      <trkpt lat="45.14644" lon="5.65179">
        <ele>1299.9</ele>
        <time>2011-08-25T07:47:56Z</time>
      </trkpt>
      <trkpt lat="45.14647" lon="5.65186">
        <ele>1299</ele>
        <time>2011-08-25T07:47:59Z</time>
      </trkpt>
      <trkpt lat="45.1465" lon="5.65191">
        <ele>1297.9</ele>
        <time>2011-08-25T07:48:01Z</time>
      </trkpt>
      <trkpt lat="45.14653" lon="5.65199">
        <ele>1296.8</ele>
        <time>2011-08-25T07:48:03Z</time>
      </trkpt>
      <trkpt lat="45.14656" lon="5.65208">
        <ele>1294.9</ele>
        <time>2011-08-25T07:48:05Z</time>
      </trkpt>
      <trkpt lat="45.14659" lon="5.65215">
        <ele>1294</ele>
        <time>2011-08-25T07:48:07Z</time>
      </trkpt>
      <trkpt lat="45.1466" lon="5.65222">
        <ele>1293</ele>
        <time>2011-08-25T07:48:09Z</time>
      </trkpt>
      <trkpt lat="45.14661" lon="5.6523">
        <ele>1291.5</ele>
        <time>2011-08-25T07:48:12Z</time>
      </trkpt>
      <trkpt lat="45.14664" lon="5.65237">
        <ele>1290.3</ele>
        <time>2011-08-25T07:48:15Z</time>
      </trkpt>
      <trkpt lat="45.14669" lon="5.65242">
        <ele>1289.4</ele>
        <time>2011-08-25T07:48:18Z</time>
      </trkpt>
      <trkpt lat="45.14675" lon="5.65242">
        <ele>1288.7</ele>
        <time>2011-08-25T07:48:21Z</time>
      </trkpt>
      <trkpt lat="45.14682" lon="5.65242">
        <ele>1288.2</ele>
        <time>2011-08-25T07:48:23Z</time>
      </trkpt>
      <trkpt lat="45.1469" lon="5.65241">
        <ele>1287.6</ele>
        <time>2011-08-25T07:48:25Z</time>
      </trkpt>
      <trkpt lat="45.14697" lon="5.6524">
        <ele>1286.8</ele>
        <time>2011-08-25T07:48:27Z</time>
      </trkpt>
      <trkpt lat="45.14704" lon="5.65238">
        <ele>1286.2</ele>
        <time>2011-08-25T07:48:29Z</time>
      </trkpt>
      <trkpt lat="45.14712" lon="5.65237">
        <ele>1285.5</ele>
        <time>2011-08-25T07:48:31Z</time>
      </trkpt>
      <trkpt lat="45.1472" lon="5.65237">
        <ele>1285.4</ele>
        <time>2011-08-25T07:48:33Z</time>
      </trkpt>
      <trkpt lat="45.14724" lon="5.65237">
        <ele>1285.4</ele>
        <time>2011-08-25T07:48:34Z</time>
      </trkpt>
      <trkpt lat="45.14733" lon="5.65237">
        <ele>1285.2</ele>
        <time>2011-08-25T07:48:36Z</time>
      </trkpt>
      <trkpt lat="45.1474" lon="5.65238">
        <ele>1284.9</ele>
        <time>2011-08-25T07:48:38Z</time>
      </trkpt>
      <trkpt lat="45.14747" lon="5.65237">
        <ele>1284.5</ele>
        <time>2011-08-25T07:48:40Z</time>
      </trkpt>
      <trkpt lat="45.14751" lon="5.65238">
        <ele>1283.7</ele>
        <time>2011-08-25T07:48:42Z</time>
      </trkpt>
      <trkpt lat="45.14753" lon="5.6523">
        <ele>1281.7</ele>
        <time>2011-08-25T07:48:49Z</time>
      </trkpt>
      <trkpt lat="45.14749" lon="5.65233">
        <ele>1277.1</ele>
        <time>2011-08-25T07:49:01Z</time>
      </trkpt>
      <trkpt lat="45.14746" lon="5.65239">
        <ele>1276.2</ele>
        <time>2011-08-25T07:49:03Z</time>
      </trkpt>
      <trkpt lat="45.14743" lon="5.65244">
        <ele>1275.6</ele>
        <time>2011-08-25T07:49:05Z</time>
      </trkpt>
      <trkpt lat="45.1474" lon="5.65253">
        <ele>1274.2</ele>
        <time>2011-08-25T07:49:08Z</time>
      </trkpt>
      <trkpt lat="45.14739" lon="5.65263">
        <ele>1273.4</ele>
        <time>2011-08-25T07:49:10Z</time>
      </trkpt>
      <trkpt lat="45.14738" lon="5.65274">
        <ele>1272.2</ele>
        <time>2011-08-25T07:49:12Z</time>
      </trkpt>
      <trkpt lat="45.14736" lon="5.65285">
        <ele>1271.4</ele>
        <time>2011-08-25T07:49:14Z</time>
      </trkpt>
      <trkpt lat="45.14736" lon="5.65296">
        <ele>1270.7</ele>
        <time>2011-08-25T07:49:16Z</time>
      </trkpt>
      <trkpt lat="45.14735" lon="5.65306">
        <ele>1269.8</ele>
        <time>2011-08-25T07:49:18Z</time>
      </trkpt>
      <trkpt lat="45.14733" lon="5.65314">
        <ele>1269.5</ele>
        <time>2011-08-25T07:49:19Z</time>
      </trkpt>
      <trkpt lat="45.14732" lon="5.65325">
        <ele>1268</ele>
        <time>2011-08-25T07:49:21Z</time>
      </trkpt>
      <trkpt lat="45.1473" lon="5.65334">
        <ele>1266.9</ele>
        <time>2011-08-25T07:49:23Z</time>
      </trkpt>
      <trkpt lat="45.14728" lon="5.65343">
        <ele>1266.1</ele>
        <time>2011-08-25T07:49:25Z</time>
      </trkpt>
      <trkpt lat="45.14727" lon="5.6535">
        <ele>1265</ele>
        <time>2011-08-25T07:49:28Z</time>
      </trkpt>
      <trkpt lat="45.14732" lon="5.65349">
        <ele>1260.7</ele>
        <time>2011-08-25T07:49:33Z</time>
      </trkpt>
      <trkpt lat="45.14739" lon="5.65351">
        <ele>1259.3</ele>
        <time>2011-08-25T07:49:36Z</time>
      </trkpt>
      <trkpt lat="45.14744" lon="5.6535">
        <ele>1258.6</ele>
        <time>2011-08-25T07:49:38Z</time>
      </trkpt>
      <trkpt lat="45.1475" lon="5.65348">
        <ele>1258.3</ele>
        <time>2011-08-25T07:49:40Z</time>
      </trkpt>
      <trkpt lat="45.14758" lon="5.65348">
        <ele>1257.6</ele>
        <time>2011-08-25T07:49:42Z</time>
      </trkpt>
      <trkpt lat="45.14762" lon="5.65347">
        <ele>1257.6</ele>
        <time>2011-08-25T07:49:43Z</time>
      </trkpt>
      <trkpt lat="45.14769" lon="5.65347">
        <ele>1257.7</ele>
        <time>2011-08-25T07:49:45Z</time>
      </trkpt>
      <trkpt lat="45.14775" lon="5.65346">
        <ele>1257.7</ele>
        <time>2011-08-25T07:49:47Z</time>
      </trkpt>
      <trkpt lat="45.14779" lon="5.65342">
        <ele>1257</ele>
        <time>2011-08-25T07:49:51Z</time>
      </trkpt>
      <trkpt lat="45.14776" lon="5.65349">
        <ele>1251.3</ele>
        <time>2011-08-25T07:50:02Z</time>
      </trkpt>
      <trkpt lat="45.14774" lon="5.65357">
        <ele>1250.2</ele>
        <time>2011-08-25T07:50:04Z</time>
      </trkpt>
      <trkpt lat="45.14773" lon="5.65366">
        <ele>1249</ele>
        <time>2011-08-25T07:50:06Z</time>
      </trkpt>
      <trkpt lat="45.14772" lon="5.65372">
        <ele>1248.2</ele>
        <time>2011-08-25T07:50:08Z</time>
      </trkpt>
      <trkpt lat="45.14771" lon="5.65379">
        <ele>1246.7</ele>
        <time>2011-08-25T07:50:11Z</time>
      </trkpt>
      <trkpt lat="45.14775" lon="5.65375">
        <ele>1242.6</ele>
        <time>2011-08-25T07:50:17Z</time>
      </trkpt>
      <trkpt lat="45.14775" lon="5.65382">
        <ele>1228.3</ele>
        <time>2011-08-25T07:50:28Z</time>
      </trkpt>
      <trkpt lat="45.14772" lon="5.65387">
        <ele>1221.6</ele>
        <time>2011-08-25T07:50:53Z</time>
      </trkpt>
      <trkpt lat="45.14771" lon="5.65396">
        <ele>1220.1</ele>
        <time>2011-08-25T07:50:55Z</time>
      </trkpt>
      <trkpt lat="45.1477" lon="5.65406">
        <ele>1218.6</ele>
        <time>2011-08-25T07:50:57Z</time>
      </trkpt>
      <trkpt lat="45.14768" lon="5.65417">
        <ele>1218</ele>
        <time>2011-08-25T07:50:59Z</time>
      </trkpt>
      <trkpt lat="45.14766" lon="5.65425">
        <ele>1217.3</ele>
        <time>2011-08-25T07:51:01Z</time>
      </trkpt>
      <trkpt lat="45.14765" lon="5.65435">
        <ele>1216</ele>
        <time>2011-08-25T07:51:03Z</time>
      </trkpt>
      <trkpt lat="45.14765" lon="5.65447">
        <ele>1215.1</ele>
        <time>2011-08-25T07:51:05Z</time>
      </trkpt>
      <trkpt lat="45.14765" lon="5.65453">
        <ele>1214.8</ele>
        <time>2011-08-25T07:51:06Z</time>
      </trkpt>
      <trkpt lat="45.14765" lon="5.6546">
        <ele>1214.2</ele>
        <time>2011-08-25T07:51:07Z</time>
      </trkpt>
      <trkpt lat="45.14766" lon="5.65473">
        <ele>1213.4</ele>
        <time>2011-08-25T07:51:09Z</time>
      </trkpt>
      <trkpt lat="45.14768" lon="5.6548">
        <ele>1213</ele>
        <time>2011-08-25T07:51:10Z</time>
      </trkpt>
      <trkpt lat="45.14772" lon="5.6549">
        <ele>1212.7</ele>
        <time>2011-08-25T07:51:11Z</time>
      </trkpt>
      <trkpt lat="45.14776" lon="5.65498">
        <ele>1212.2</ele>
        <time>2011-08-25T07:51:12Z</time>
      </trkpt>
      <trkpt lat="45.14781" lon="5.65505">
        <ele>1211.7</ele>
        <time>2011-08-25T07:51:13Z</time>
      </trkpt>
      <trkpt lat="45.14785" lon="5.65512">
        <ele>1211.5</ele>
        <time>2011-08-25T07:51:14Z</time>
      </trkpt>
      <trkpt lat="45.14788" lon="5.65518">
        <ele>1211</ele>
        <time>2011-08-25T07:51:15Z</time>
      </trkpt>
      <trkpt lat="45.14792" lon="5.65524">
        <ele>1210.2</ele>
        <time>2011-08-25T07:51:16Z</time>
      </trkpt>
      <trkpt lat="45.14795" lon="5.65528">
        <ele>1209.7</ele>
        <time>2011-08-25T07:51:17Z</time>
      </trkpt>
      <trkpt lat="45.14799" lon="5.65531">
        <ele>1209.1</ele>
        <time>2011-08-25T07:51:18Z</time>
      </trkpt>
      <trkpt lat="45.14804" lon="5.65535">
        <ele>1208.6</ele>
        <time>2011-08-25T07:51:19Z</time>
      </trkpt>
      <trkpt lat="45.14809" lon="5.65537">
        <ele>1207.8</ele>
        <time>2011-08-25T07:51:20Z</time>
      </trkpt>
      <trkpt lat="45.14818" lon="5.65536">
        <ele>1206.2</ele>
        <time>2011-08-25T07:51:22Z</time>
      </trkpt>
      <trkpt lat="45.14825" lon="5.65533">
        <ele>1205</ele>
        <time>2011-08-25T07:51:24Z</time>
      </trkpt>
      <trkpt lat="45.1483" lon="5.65524">
        <ele>1203.1</ele>
        <time>2011-08-25T07:51:26Z</time>
      </trkpt>
      <trkpt lat="45.14833" lon="5.65513">
        <ele>1200.9</ele>
        <time>2011-08-25T07:51:28Z</time>
      </trkpt>
      <trkpt lat="45.14837" lon="5.65501">
        <ele>1198.2</ele>
        <time>2011-08-25T07:51:30Z</time>
      </trkpt>
      <trkpt lat="45.14841" lon="5.65516">
        <ele>1141.3</ele>
        <time>2011-08-25T07:51:51Z</time>
      </trkpt>
      <trkpt lat="45.1484" lon="5.65522">
        <ele>1137.5</ele>
        <time>2011-08-25T07:51:54Z</time>
      </trkpt>
      <trkpt lat="45.14836" lon="5.65527">
        <ele>1135.9</ele>
        <time>2011-08-25T07:51:56Z</time>
      </trkpt>
      <trkpt lat="45.14833" lon="5.65534">
        <ele>1134.9</ele>
        <time>2011-08-25T07:51:59Z</time>
      </trkpt>
      <trkpt lat="45.14831" lon="5.6554">
        <ele>1132.4</ele>
        <time>2011-08-25T07:52:02Z</time>
      </trkpt>
      <trkpt lat="45.14831" lon="5.6554">
        <ele>1132.4</ele>
        <time>2011-08-25T07:52:02Z</time>
      </trkpt>
      <trkpt lat="45.14831" lon="5.6554">
        <ele>1132.4</ele>
        <time>2011-08-25T07:52:18Z</time>
      </trkpt>
      <trkpt lat="45.14841" lon="5.65551">
        <ele>1131.8</ele>
        <time>2011-08-25T07:52:19Z</time>
      </trkpt>
      <trkpt lat="45.14847" lon="5.65552">
        <ele>1131.1</ele>
        <time>2011-08-25T07:52:23Z</time>
      </trkpt>
      <trkpt lat="45.14852" lon="5.6555">
        <ele>1131.3</ele>
        <time>2011-08-25T07:52:25Z</time>
      </trkpt>
      <trkpt lat="45.14858" lon="5.65549">
        <ele>1131.8</ele>
        <time>2011-08-25T07:52:27Z</time>
      </trkpt>
      <trkpt lat="45.14864" lon="5.65547">
        <ele>1132.6</ele>
        <time>2011-08-25T07:52:29Z</time>
      </trkpt>
      <trkpt lat="45.1487" lon="5.65542">
        <ele>1131.3</ele>
        <time>2011-08-25T07:52:31Z</time>
      </trkpt>
      <trkpt lat="45.14874" lon="5.65537">
        <ele>1130.9</ele>
        <time>2011-08-25T07:52:33Z</time>
      </trkpt>
      <trkpt lat="45.14879" lon="5.65534">
        <ele>1130.7</ele>
        <time>2011-08-25T07:52:35Z</time>
      </trkpt>
      <trkpt lat="45.14883" lon="5.65529">
        <ele>1129.8</ele>
        <time>2011-08-25T07:52:37Z</time>
      </trkpt>
      <trkpt lat="45.14887" lon="5.65523">
        <ele>1128.8</ele>
        <time>2011-08-25T07:52:39Z</time>
      </trkpt>
      <trkpt lat="45.14891" lon="5.65516">
        <ele>1128.3</ele>
        <time>2011-08-25T07:52:41Z</time>
      </trkpt>
      <trkpt lat="45.14895" lon="5.65509">
        <ele>1127.7</ele>
        <time>2011-08-25T07:52:43Z</time>
      </trkpt>
      <trkpt lat="45.14898" lon="5.65499">
        <ele>1127.5</ele>
        <time>2011-08-25T07:52:45Z</time>
      </trkpt>
      <trkpt lat="45.14902" lon="5.65488">
        <ele>1128.3</ele>
        <time>2011-08-25T07:52:47Z</time>
      </trkpt>
      <trkpt lat="45.14907" lon="5.65479">
        <ele>1129.8</ele>
        <time>2011-08-25T07:52:49Z</time>
      </trkpt>
      <trkpt lat="45.14906" lon="5.65486">
        <ele>1130.2</ele>
        <time>2011-08-25T07:53:01Z</time>
      </trkpt>
      <trkpt lat="45.1491" lon="5.65492">
        <ele>1129.5</ele>
        <time>2011-08-25T07:53:04Z</time>
      </trkpt>
      <trkpt lat="45.14912" lon="5.65498">
        <ele>1129.3</ele>
        <time>2011-08-25T07:53:06Z</time>
      </trkpt>
      <trkpt lat="45.14916" lon="5.65504">
        <ele>1128.6</ele>
        <time>2011-08-25T07:53:08Z</time>
      </trkpt>
      <trkpt lat="45.1492" lon="5.6551">
        <ele>1127.9</ele>
        <time>2011-08-25T07:53:10Z</time>
      </trkpt>
      <trkpt lat="45.14926" lon="5.65517">
        <ele>1127.3</ele>
        <time>2011-08-25T07:53:12Z</time>
      </trkpt>
      <trkpt lat="45.1493" lon="5.65519">
        <ele>1125.7</ele>
        <time>2011-08-25T07:53:15Z</time>
      </trkpt>
      <trkpt lat="45.14935" lon="5.65513">
        <ele>1123.9</ele>
        <time>2011-08-25T07:53:18Z</time>
      </trkpt>
      <trkpt lat="45.14939" lon="5.65507">
        <ele>1122.3</ele>
        <time>2011-08-25T07:53:21Z</time>
      </trkpt>
      <trkpt lat="45.14943" lon="5.65502">
        <ele>1121.4</ele>
        <time>2011-08-25T07:53:24Z</time>
      </trkpt>
      <trkpt lat="45.14943" lon="5.65496">
        <ele>1120.9</ele>
        <time>2011-08-25T07:53:27Z</time>
      </trkpt>
      <trkpt lat="45.14942" lon="5.65489">
        <ele>1121</ele>
        <time>2011-08-25T07:53:30Z</time>
      </trkpt>
      <trkpt lat="45.14944" lon="5.65482">
        <ele>1121.5</ele>
        <time>2011-08-25T07:53:33Z</time>
      </trkpt>
      <trkpt lat="45.14947" lon="5.65488">
        <ele>1121</ele>
        <time>2011-08-25T07:53:40Z</time>
      </trkpt>
      <trkpt lat="45.14951" lon="5.65493">
        <ele>1120.4</ele>
        <time>2011-08-25T07:53:42Z</time>
      </trkpt>
      <trkpt lat="45.14955" lon="5.65499">
        <ele>1120</ele>
        <time>2011-08-25T07:53:44Z</time>
      </trkpt>
      <trkpt lat="45.14959" lon="5.65506">
        <ele>1119</ele>
        <time>2011-08-25T07:53:46Z</time>
      </trkpt>
      <trkpt lat="45.14964" lon="5.65512">
        <ele>1118.5</ele>
        <time>2011-08-25T07:53:48Z</time>
      </trkpt>
      <trkpt lat="45.14968" lon="5.65518">
        <ele>1117.8</ele>
        <time>2011-08-25T07:53:50Z</time>
      </trkpt>
      <trkpt lat="45.14973" lon="5.65523">
        <ele>1117.1</ele>
        <time>2011-08-25T07:53:52Z</time>
      </trkpt>
      <trkpt lat="45.14977" lon="5.65531">
        <ele>1116</ele>
        <time>2011-08-25T07:53:55Z</time>
      </trkpt>
      <trkpt lat="45.14979" lon="5.65537">
        <ele>1115.4</ele>
        <time>2011-08-25T07:53:57Z</time>
      </trkpt>
      <trkpt lat="45.14982" lon="5.65544">
        <ele>1114.7</ele>
        <time>2011-08-25T07:53:59Z</time>
      </trkpt>
      <trkpt lat="45.14984" lon="5.65549">
        <ele>1113.6</ele>
        <time>2011-08-25T07:54:01Z</time>
      </trkpt>
      <trkpt lat="45.14986" lon="5.65558">
        <ele>1111.9</ele>
        <time>2011-08-25T07:54:04Z</time>
      </trkpt>
      <trkpt lat="45.14988" lon="5.65564">
        <ele>1111.3</ele>
        <time>2011-08-25T07:54:06Z</time>
      </trkpt>
      <trkpt lat="45.14989" lon="5.65571">
        <ele>1110.3</ele>
        <time>2011-08-25T07:54:08Z</time>
      </trkpt>
      <trkpt lat="45.14989" lon="5.6558">
        <ele>1109.1</ele>
        <time>2011-08-25T07:54:10Z</time>
      </trkpt>
      <trkpt lat="45.1499" lon="5.6559">
        <ele>1108</ele>
        <time>2011-08-25T07:54:12Z</time>
      </trkpt>
      <trkpt lat="45.14989" lon="5.65599">
        <ele>1107</ele>
        <time>2011-08-25T07:54:14Z</time>
      </trkpt>
      <trkpt lat="45.14988" lon="5.65607">
        <ele>1105.8</ele>
        <time>2011-08-25T07:54:16Z</time>
      </trkpt>
      <trkpt lat="45.14989" lon="5.65616">
        <ele>1103.9</ele>
        <time>2011-08-25T07:54:19Z</time>
      </trkpt>
      <trkpt lat="45.14991" lon="5.65624">
        <ele>1102.7</ele>
        <time>2011-08-25T07:54:21Z</time>
      </trkpt>
      <trkpt lat="45.1499" lon="5.65631">
        <ele>1101.2</ele>
        <time>2011-08-25T07:54:23Z</time>
      </trkpt>
      <trkpt lat="45.1499" lon="5.65638">
        <ele>1099.5</ele>
        <time>2011-08-25T07:54:25Z</time>
      </trkpt>
      <trkpt lat="45.14991" lon="5.65644">
        <ele>1098.5</ele>
        <time>2011-08-25T07:54:27Z</time>
      </trkpt>
      <trkpt lat="45.14991" lon="5.65651">
        <ele>1097.4</ele>
        <time>2011-08-25T07:54:29Z</time>
      </trkpt>
      <trkpt lat="45.1499" lon="5.6566">
        <ele>1095.8</ele>
        <time>2011-08-25T07:54:32Z</time>
      </trkpt>
      <trkpt lat="45.14989" lon="5.65667">
        <ele>1094.3</ele>
        <time>2011-08-25T07:54:35Z</time>
      </trkpt>
      <trkpt lat="45.14989" lon="5.65674">
        <ele>1092.7</ele>
        <time>2011-08-25T07:54:37Z</time>
      </trkpt>
      <trkpt lat="45.14988" lon="5.65682">
        <ele>1090.9</ele>
        <time>2011-08-25T07:54:39Z</time>
      </trkpt>
      <trkpt lat="45.14986" lon="5.65689">
        <ele>1089.3</ele>
        <time>2011-08-25T07:54:41Z</time>
      </trkpt>
      <trkpt lat="45.14985" lon="5.65696">
        <ele>1088</ele>
        <time>2011-08-25T07:54:43Z</time>
      </trkpt>
      <trkpt lat="45.14983" lon="5.65703">
        <ele>1086.3</ele>
        <time>2011-08-25T07:54:46Z</time>
      </trkpt>
      <trkpt lat="45.14985" lon="5.65712">
        <ele>1084.2</ele>
        <time>2011-08-25T07:54:49Z</time>
      </trkpt>
      <trkpt lat="45.14986" lon="5.65719">
        <ele>1081.7</ele>
        <time>2011-08-25T07:54:52Z</time>
      </trkpt>
      <trkpt lat="45.14985" lon="5.65728">
        <ele>1076</ele>
        <time>2011-08-25T07:55:08Z</time>
      </trkpt>
      <trkpt lat="45.14982" lon="5.65735">
        <ele>1073.5</ele>
        <time>2011-08-25T07:55:12Z</time>
      </trkpt>
      <trkpt lat="45.14979" lon="5.65741">
        <ele>1072.6</ele>
        <time>2011-08-25T07:55:15Z</time>
      </trkpt>
      <trkpt lat="45.14975" lon="5.65748">
        <ele>1071.1</ele>
        <time>2011-08-25T07:55:18Z</time>
      </trkpt>
      <trkpt lat="45.14971" lon="5.65752">
        <ele>1070.3</ele>
        <time>2011-08-25T07:55:20Z</time>
      </trkpt>
      <trkpt lat="45.14965" lon="5.65758">
        <ele>1068.6</ele>
        <time>2011-08-25T07:55:22Z</time>
      </trkpt>
      <trkpt lat="45.14958" lon="5.65768">
        <ele>1066.8</ele>
        <time>2011-08-25T07:55:24Z</time>
      </trkpt>
      <trkpt lat="45.14954" lon="5.65775">
        <ele>1066.2</ele>
        <time>2011-08-25T07:55:25Z</time>
      </trkpt>
      <trkpt lat="45.1495" lon="5.65787">
        <ele>1065.3</ele>
        <time>2011-08-25T07:55:27Z</time>
      </trkpt>
      <trkpt lat="45.14952" lon="5.65793">
        <ele>1063.3</ele>
        <time>2011-08-25T07:55:31Z</time>
      </trkpt>
      <trkpt lat="45.14956" lon="5.65789">
        <ele>1062.4</ele>
        <time>2011-08-25T07:55:34Z</time>
      </trkpt>
      <trkpt lat="45.14962" lon="5.65789">
        <ele>1060.6</ele>
        <time>2011-08-25T07:55:37Z</time>
      </trkpt>
      <trkpt lat="45.1496" lon="5.65795">
        <ele>1056.6</ele>
        <time>2011-08-25T07:55:44Z</time>
      </trkpt>
      <trkpt lat="45.14965" lon="5.65797">
        <ele>1052.8</ele>
        <time>2011-08-25T07:55:49Z</time>
      </trkpt>
      <trkpt lat="45.14963" lon="5.65804">
        <ele>1044.5</ele>
        <time>2011-08-25T07:56:03Z</time>
      </trkpt>
      <trkpt lat="45.14964" lon="5.65811">
        <ele>1041.6</ele>
        <time>2011-08-25T07:56:09Z</time>
      </trkpt>
      <trkpt lat="45.1497" lon="5.65812">
        <ele>1040.3</ele>
        <time>2011-08-25T07:56:13Z</time>
      </trkpt>
      <trkpt lat="45.14974" lon="5.65811">
        <ele>1039.4</ele>
        <time>2011-08-25T07:56:15Z</time>
      </trkpt>
      <trkpt lat="45.1498" lon="5.65811">
        <ele>1038.8</ele>
        <time>2011-08-25T07:56:17Z</time>
      </trkpt>
      <trkpt lat="45.14986" lon="5.65812">
        <ele>1037.5</ele>
        <time>2011-08-25T07:56:20Z</time>
      </trkpt>
      <trkpt lat="45.14991" lon="5.65813">
        <ele>1036.2</ele>
        <time>2011-08-25T07:56:23Z</time>
      </trkpt>
      <trkpt lat="45.14992" lon="5.65819">
        <ele>1030.1</ele>
        <time>2011-08-25T07:56:32Z</time>
      </trkpt>
      <trkpt lat="45.14988" lon="5.65825">
        <ele>1027.9</ele>
        <time>2011-08-25T07:56:36Z</time>
      </trkpt>
      <trkpt lat="45.14986" lon="5.65832">
        <ele>1026.2</ele>
        <time>2011-08-25T07:56:40Z</time>
      </trkpt>
      <trkpt lat="45.14991" lon="5.65834">
        <ele>1025.3</ele>
        <time>2011-08-25T07:56:43Z</time>
      </trkpt>
      <trkpt lat="45.14995" lon="5.65836">
        <ele>1024.7</ele>
        <time>2011-08-25T07:56:45Z</time>
      </trkpt>
      <trkpt lat="45.14998" lon="5.65841">
        <ele>1021.6</ele>
        <time>2011-08-25T07:56:49Z</time>
      </trkpt>
      <trkpt lat="45.14996" lon="5.65846">
        <ele>1017.2</ele>
        <time>2011-08-25T07:56:54Z</time>
      </trkpt>
      <trkpt lat="45.14994" lon="5.65852">
        <ele>1015</ele>
        <time>2011-08-25T07:56:57Z</time>
      </trkpt>
      <trkpt lat="45.14992" lon="5.6586">
        <ele>1013.9</ele>
        <time>2011-08-25T07:57:00Z</time>
      </trkpt>
      <trkpt lat="45.14995" lon="5.65866">
        <ele>1013.3</ele>
        <time>2011-08-25T07:57:03Z</time>
      </trkpt>
      <trkpt lat="45.14999" lon="5.65869">
        <ele>1012.7</ele>
        <time>2011-08-25T07:57:05Z</time>
      </trkpt>
      <trkpt lat="45.15003" lon="5.65873">
        <ele>1011.8</ele>
        <time>2011-08-25T07:57:07Z</time>
      </trkpt>
      <trkpt lat="45.15008" lon="5.65877">
        <ele>1011.3</ele>
        <time>2011-08-25T07:57:09Z</time>
      </trkpt>
      <trkpt lat="45.15014" lon="5.6588">
        <ele>1010.7</ele>
        <time>2011-08-25T07:57:11Z</time>
      </trkpt>
      <trkpt lat="45.15018" lon="5.65885">
        <ele>1009.6</ele>
        <time>2011-08-25T07:57:13Z</time>
      </trkpt>
      <trkpt lat="45.15024" lon="5.65889">
        <ele>1007.3</ele>
        <time>2011-08-25T07:57:16Z</time>
      </trkpt>
      <trkpt lat="45.15023" lon="5.65898">
        <ele>1002</ele>
        <time>2011-08-25T07:57:20Z</time>
      </trkpt>
      <trkpt lat="45.15021" lon="5.65906">
        <ele>999</ele>
        <time>2011-08-25T07:57:22Z</time>
      </trkpt>
      <trkpt lat="45.1502" lon="5.65913">
        <ele>998.7</ele>
        <time>2011-08-25T07:57:23Z</time>
      </trkpt>
      <trkpt lat="45.15018" lon="5.65919">
        <ele>997.9</ele>
        <time>2011-08-25T07:57:24Z</time>
      </trkpt>
      <trkpt lat="45.15015" lon="5.65929">
        <ele>996.8</ele>
        <time>2011-08-25T07:57:26Z</time>
      </trkpt>
      <trkpt lat="45.15013" lon="5.6594">
        <ele>995.8</ele>
        <time>2011-08-25T07:57:28Z</time>
      </trkpt>
      <trkpt lat="45.15011" lon="5.65951">
        <ele>994.6</ele>
        <time>2011-08-25T07:57:30Z</time>
      </trkpt>
      <trkpt lat="45.1501" lon="5.65957">
        <ele>993.9</ele>
        <time>2011-08-25T07:57:31Z</time>
      </trkpt>
      <trkpt lat="45.15008" lon="5.65963">
        <ele>993.1</ele>
        <time>2011-08-25T07:57:32Z</time>
      </trkpt>
      <trkpt lat="45.15005" lon="5.65976">
        <ele>991.7</ele>
        <time>2011-08-25T07:57:34Z</time>
      </trkpt>
      <trkpt lat="45.15002" lon="5.65984">
        <ele>990.9</ele>
        <time>2011-08-25T07:57:35Z</time>
      </trkpt>
      <trkpt lat="45.15001" lon="5.65996">
        <ele>987.4</ele>
        <time>2011-08-25T07:57:37Z</time>
      </trkpt>
      <trkpt lat="45.15" lon="5.66003">
        <ele>986</ele>
        <time>2011-08-25T07:57:38Z</time>
      </trkpt>
      <trkpt lat="45.15" lon="5.6601">
        <ele>984.8</ele>
        <time>2011-08-25T07:57:39Z</time>
      </trkpt>
      <trkpt lat="45.14999" lon="5.66017">
        <ele>984.4</ele>
        <time>2011-08-25T07:57:40Z</time>
      </trkpt>
      <trkpt lat="45.14998" lon="5.66024">
        <ele>983.8</ele>
        <time>2011-08-25T07:57:41Z</time>
      </trkpt>
      <trkpt lat="45.14996" lon="5.6603">
        <ele>983</ele>
        <time>2011-08-25T07:57:42Z</time>
      </trkpt>
      <trkpt lat="45.14995" lon="5.6604">
        <ele>981.4</ele>
        <time>2011-08-25T07:57:44Z</time>
      </trkpt>
      <trkpt lat="45.14993" lon="5.66052">
        <ele>979.1</ele>
        <time>2011-08-25T07:57:46Z</time>
      </trkpt>
      <trkpt lat="45.14991" lon="5.66064">
        <ele>976.9</ele>
        <time>2011-08-25T07:57:48Z</time>
      </trkpt>
      <trkpt lat="45.1499" lon="5.66073">
        <ele>975.3</ele>
        <time>2011-08-25T07:57:50Z</time>
      </trkpt>
      <trkpt lat="45.1499" lon="5.66085">
        <ele>974</ele>
        <time>2011-08-25T07:57:52Z</time>
      </trkpt>
      <trkpt lat="45.1499" lon="5.66093">
        <ele>972.8</ele>
        <time>2011-08-25T07:57:53Z</time>
      </trkpt>
      <trkpt lat="45.1499" lon="5.66102">
        <ele>971.2</ele>
        <time>2011-08-25T07:57:55Z</time>
      </trkpt>
      <trkpt lat="45.14989" lon="5.66108">
        <ele>968.4</ele>
        <time>2011-08-25T07:57:57Z</time>
      </trkpt>
      <trkpt lat="45.14986" lon="5.66117">
        <ele>965.1</ele>
        <time>2011-08-25T07:57:59Z</time>
      </trkpt>
      <trkpt lat="45.14985" lon="5.66127">
        <ele>962.3</ele>
        <time>2011-08-25T07:58:01Z</time>
      </trkpt>
      <trkpt lat="45.14984" lon="5.66137">
        <ele>959.7</ele>
        <time>2011-08-25T07:58:03Z</time>
      </trkpt>
      <trkpt lat="45.14985" lon="5.66147">
        <ele>957.4</ele>
        <time>2011-08-25T07:58:05Z</time>
      </trkpt>
      <trkpt lat="45.14985" lon="5.66157">
        <ele>954.8</ele>
        <time>2011-08-25T07:58:07Z</time>
      </trkpt>
      <trkpt lat="45.14986" lon="5.66167">
        <ele>952.3</ele>
        <time>2011-08-25T07:58:09Z</time>
      </trkpt>
      <trkpt lat="45.14988" lon="5.66176">
        <ele>949.4</ele>
        <time>2011-08-25T07:58:11Z</time>
      </trkpt>
      <trkpt lat="45.14988" lon="5.66185">
        <ele>946.8</ele>
        <time>2011-08-25T07:58:13Z</time>
      </trkpt>
      <trkpt lat="45.14989" lon="5.66193">
        <ele>942.4</ele>
        <time>2011-08-25T07:58:15Z</time>
      </trkpt>
      <trkpt lat="45.14993" lon="5.66202">
        <ele>939.6</ele>
        <time>2011-08-25T07:58:17Z</time>
      </trkpt>
      <trkpt lat="45.14997" lon="5.66208">
        <ele>933.4</ele>
        <time>2011-08-25T07:58:19Z</time>
      </trkpt>
      <trkpt lat="45.14996" lon="5.662">
        <ele>914.1</ele>
        <time>2011-08-25T07:58:24Z</time>
      </trkpt>
      <trkpt lat="45.14996" lon="5.662">
        <ele>914.1</ele>
        <time>2011-08-25T07:58:24Z</time>
      </trkpt>
      <trkpt lat="45.14996" lon="5.662">
        <ele>914.1</ele>
        <time>2011-08-25T07:59:08Z</time>
      </trkpt>
      <trkpt lat="45.14991" lon="5.66191">
        <ele>892.2</ele>
        <time>2011-08-25T07:59:09Z</time>
      </trkpt>
      <trkpt lat="45.14996" lon="5.66193">
        <ele>884</ele>
        <time>2011-08-25T08:00:44Z</time>
      </trkpt>
      <trkpt lat="45.14998" lon="5.66198">
        <ele>883.5</ele>
        <time>2011-08-25T08:00:47Z</time>
      </trkpt>
      <trkpt lat="45.14996" lon="5.66206">
        <ele>882.9</ele>
        <time>2011-08-25T08:00:50Z</time>
      </trkpt>
      <trkpt lat="45.14995" lon="5.66215">
        <ele>882.5</ele>
        <time>2011-08-25T08:00:53Z</time>
      </trkpt>
      <trkpt lat="45.14995" lon="5.66222">
        <ele>882.1</ele>
        <time>2011-08-25T08:00:55Z</time>
      </trkpt>
      <trkpt lat="45.14995" lon="5.6623">
        <ele>881.7</ele>
        <time>2011-08-25T08:00:57Z</time>
      </trkpt>
      <trkpt lat="45.14996" lon="5.66239">
        <ele>881</ele>
        <time>2011-08-25T08:00:59Z</time>
      </trkpt>
      <trkpt lat="45.14999" lon="5.66251">
        <ele>880.7</ele>
        <time>2011-08-25T08:01:01Z</time>
      </trkpt>
      <trkpt lat="45.15002" lon="5.66261">
        <ele>880.1</ele>
        <time>2011-08-25T08:01:03Z</time>
      </trkpt>
      <trkpt lat="45.15004" lon="5.66271">
        <ele>878.9</ele>
        <time>2011-08-25T08:01:05Z</time>
      </trkpt>
      <trkpt lat="45.15005" lon="5.66277">
        <ele>878.5</ele>
        <time>2011-08-25T08:01:07Z</time>
      </trkpt>
      <trkpt lat="45.15008" lon="5.66284">
        <ele>878.2</ele>
        <time>2011-08-25T08:01:09Z</time>
      </trkpt>
      <trkpt lat="45.15012" lon="5.66292">
        <ele>877.6</ele>
        <time>2011-08-25T08:01:11Z</time>
      </trkpt>
      <trkpt lat="45.15014" lon="5.663">
        <ele>876.8</ele>
        <time>2011-08-25T08:01:13Z</time>
      </trkpt>
      <trkpt lat="45.15019" lon="5.66308">
        <ele>876.2</ele>
        <time>2011-08-25T08:01:15Z</time>
      </trkpt>
      <trkpt lat="45.15023" lon="5.66318">
        <ele>875.8</ele>
        <time>2011-08-25T08:01:17Z</time>
      </trkpt>
      <trkpt lat="45.15026" lon="5.6633">
        <ele>875.4</ele>
        <time>2011-08-25T08:01:19Z</time>
      </trkpt>
      <trkpt lat="45.15029" lon="5.66337">
        <ele>875.1</ele>
        <time>2011-08-25T08:01:20Z</time>
      </trkpt>
      <trkpt lat="45.15032" lon="5.66348">
        <ele>874.7</ele>
        <time>2011-08-25T08:01:22Z</time>
      </trkpt>
      <trkpt lat="45.15034" lon="5.66358">
        <ele>874.3</ele>
        <time>2011-08-25T08:01:24Z</time>
      </trkpt>
      <trkpt lat="45.15036" lon="5.66364">
        <ele>873.9</ele>
        <time>2011-08-25T08:01:26Z</time>
      </trkpt>
      <trkpt lat="45.15041" lon="5.66367">
        <ele>873.7</ele>
        <time>2011-08-25T08:01:31Z</time>
      </trkpt>
      <trkpt lat="45.15045" lon="5.66369">
        <ele>871.1</ele>
        <time>2011-08-25T08:01:55Z</time>
      </trkpt>
      <trkpt lat="45.15052" lon="5.66368">
        <ele>870.2</ele>
        <time>2011-08-25T08:01:59Z</time>
      </trkpt>
      <trkpt lat="45.15058" lon="5.66366">
        <ele>869.4</ele>
        <time>2011-08-25T08:02:01Z</time>
      </trkpt>
      <trkpt lat="45.15065" lon="5.66365">
        <ele>868.7</ele>
        <time>2011-08-25T08:02:03Z</time>
      </trkpt>
      <trkpt lat="45.15069" lon="5.66366">
        <ele>868</ele>
        <time>2011-08-25T08:02:06Z</time>
      </trkpt>
      <trkpt lat="45.15068" lon="5.66373">
        <ele>863.7</ele>
        <time>2011-08-25T08:02:10Z</time>
      </trkpt>
      <trkpt lat="45.15067" lon="5.66385">
        <ele>861.4</ele>
        <time>2011-08-25T08:02:12Z</time>
      </trkpt>
      <trkpt lat="45.15062" lon="5.66396">
        <ele>857.6</ele>
        <time>2011-08-25T08:02:14Z</time>
      </trkpt>
      <trkpt lat="45.15058" lon="5.66406">
        <ele>854.2</ele>
        <time>2011-08-25T08:02:16Z</time>
      </trkpt>
      <trkpt lat="45.15054" lon="5.6641">
        <ele>850.5</ele>
        <time>2011-08-25T08:02:17Z</time>
      </trkpt>
      <trkpt lat="45.1505" lon="5.66417">
        <ele>846.1</ele>
        <time>2011-08-25T08:02:19Z</time>
      </trkpt>
      <trkpt lat="45.15048" lon="5.66423">
        <ele>844.2</ele>
        <time>2011-08-25T08:02:21Z</time>
      </trkpt>
      <trkpt lat="45.15047" lon="5.66432">
        <ele>842.7</ele>
        <time>2011-08-25T08:02:23Z</time>
      </trkpt>
      <trkpt lat="45.15047" lon="5.66443">
        <ele>840.8</ele>
        <time>2011-08-25T08:02:25Z</time>
      </trkpt>
      <trkpt lat="45.15049" lon="5.66455">
        <ele>839</ele>
        <time>2011-08-25T08:02:27Z</time>
      </trkpt>
      <trkpt lat="45.1505" lon="5.66462">
        <ele>837.9</ele>
        <time>2011-08-25T08:02:28Z</time>
      </trkpt>
      <trkpt lat="45.15051" lon="5.66468">
        <ele>836.9</ele>
        <time>2011-08-25T08:02:29Z</time>
      </trkpt>
      <trkpt lat="45.15054" lon="5.66478">
        <ele>835.5</ele>
        <time>2011-08-25T08:02:31Z</time>
      </trkpt>
      <trkpt lat="45.15058" lon="5.66485">
        <ele>834.5</ele>
        <time>2011-08-25T08:02:33Z</time>
      </trkpt>
      <trkpt lat="45.15062" lon="5.66492">
        <ele>832.9</ele>
        <time>2011-08-25T08:02:35Z</time>
      </trkpt>
      <trkpt lat="45.15065" lon="5.66497">
        <ele>831.9</ele>
        <time>2011-08-25T08:02:36Z</time>
      </trkpt>
      <trkpt lat="45.15068" lon="5.66506">
        <ele>830.2</ele>
        <time>2011-08-25T08:02:38Z</time>
      </trkpt>
      <trkpt lat="45.15071" lon="5.66514">
        <ele>829.2</ele>
        <time>2011-08-25T08:02:40Z</time>
      </trkpt>
      <trkpt lat="45.15066" lon="5.6652">
        <ele>827.1</ele>
        <time>2011-08-25T08:02:50Z</time>
      </trkpt>
      <trkpt lat="45.1506" lon="5.66524">
        <ele>825.6</ele>
        <time>2011-08-25T08:02:52Z</time>
      </trkpt>
      <trkpt lat="45.15054" lon="5.66527">
        <ele>825.2</ele>
        <time>2011-08-25T08:02:54Z</time>
      </trkpt>
      <trkpt lat="45.15048" lon="5.66525">
        <ele>824</ele>
        <time>2011-08-25T08:02:57Z</time>
      </trkpt>
      <trkpt lat="45.15044" lon="5.66521">
        <ele>823.3</ele>
        <time>2011-08-25T08:02:59Z</time>
      </trkpt>
      <trkpt lat="45.1504" lon="5.66516">
        <ele>823</ele>
        <time>2011-08-25T08:03:01Z</time>
      </trkpt>
      <trkpt lat="45.15035" lon="5.66511">
        <ele>822.5</ele>
        <time>2011-08-25T08:03:03Z</time>
      </trkpt>
      <trkpt lat="45.15029" lon="5.66504">
        <ele>821.7</ele>
        <time>2011-08-25T08:03:05Z</time>
      </trkpt>
      <trkpt lat="45.15024" lon="5.66498">
        <ele>821.2</ele>
        <time>2011-08-25T08:03:07Z</time>
      </trkpt>
      <trkpt lat="45.1502" lon="5.66493">
        <ele>820.6</ele>
        <time>2011-08-25T08:03:09Z</time>
      </trkpt>
      <trkpt lat="45.15015" lon="5.66486">
        <ele>819.9</ele>
        <time>2011-08-25T08:03:11Z</time>
      </trkpt>
      <trkpt lat="45.1501" lon="5.6648">
        <ele>819.2</ele>
        <time>2011-08-25T08:03:13Z</time>
      </trkpt>
      <trkpt lat="45.15006" lon="5.66473">
        <ele>818.8</ele>
        <time>2011-08-25T08:03:15Z</time>
      </trkpt>
      <trkpt lat="45.15001" lon="5.66468">
        <ele>818.9</ele>
        <time>2011-08-25T08:03:17Z</time>
      </trkpt>
      <trkpt lat="45.14996" lon="5.66466">
        <ele>818.9</ele>
        <time>2011-08-25T08:03:19Z</time>
      </trkpt>
      <trkpt lat="45.1499" lon="5.66467">
        <ele>818.6</ele>
        <time>2011-08-25T08:03:22Z</time>
      </trkpt>
      <trkpt lat="45.14983" lon="5.66469">
        <ele>818.1</ele>
        <time>2011-08-25T08:03:25Z</time>
      </trkpt>
      <trkpt lat="45.14979" lon="5.66472">
        <ele>817.9</ele>
        <time>2011-08-25T08:03:28Z</time>
      </trkpt>
      <trkpt lat="45.1498" lon="5.6648">
        <ele>816.2</ele>
        <time>2011-08-25T08:03:54Z</time>
      </trkpt>
      <trkpt lat="45.14979" lon="5.66487">
        <ele>815.3</ele>
        <time>2011-08-25T08:04:02Z</time>
      </trkpt>
      <trkpt lat="45.14977" lon="5.66493">
        <ele>814.5</ele>
        <time>2011-08-25T08:04:08Z</time>
      </trkpt>
      <trkpt lat="45.14976" lon="5.665">
        <ele>814.3</ele>
        <time>2011-08-25T08:04:11Z</time>
      </trkpt>
      <trkpt lat="45.14977" lon="5.66508">
        <ele>814.3</ele>
        <time>2011-08-25T08:04:14Z</time>
      </trkpt>
      <trkpt lat="45.14976" lon="5.66514">
        <ele>813.4</ele>
        <time>2011-08-25T08:04:20Z</time>
      </trkpt>
      <trkpt lat="45.14974" lon="5.6652">
        <ele>812.6</ele>
        <time>2011-08-25T08:04:24Z</time>
      </trkpt>
      <trkpt lat="45.14975" lon="5.66527">
        <ele>811.8</ele>
        <time>2011-08-25T08:04:30Z</time>
      </trkpt>
      <trkpt lat="45.14975" lon="5.66535">
        <ele>811.9</ele>
        <time>2011-08-25T08:04:44Z</time>
      </trkpt>
      <trkpt lat="45.14979" lon="5.66539">
        <ele>811.7</ele>
        <time>2011-08-25T08:04:47Z</time>
      </trkpt>
      <trkpt lat="45.1499" lon="5.66578">
        <ele>778.5</ele>
        <time>2011-08-25T08:06:06Z</time>
      </trkpt>
      <trkpt lat="45.1499" lon="5.66578">
        <ele>778.5</ele>
        <time>2011-08-25T08:06:06Z</time>
      </trkpt>
      <trkpt lat="45.1499" lon="5.66578">
        <ele>778.5</ele>
        <time>2011-08-25T08:06:18Z</time>
      </trkpt>
      <trkpt lat="45.14997" lon="5.66591">
        <ele>779.1</ele>
        <time>2011-08-25T08:06:19Z</time>
      </trkpt>
      <trkpt lat="45.15001" lon="5.66596">
        <ele>776.6</ele>
        <time>2011-08-25T08:06:25Z</time>
      </trkpt>
      <trkpt lat="45.14995" lon="5.66595">
        <ele>774.4</ele>
        <time>2011-08-25T08:06:45Z</time>
      </trkpt>
      <trkpt lat="45.14997" lon="5.66602">
        <ele>772.6</ele>
        <time>2011-08-25T08:06:56Z</time>
      </trkpt>
      <trkpt lat="45.14999" lon="5.66607">
        <ele>772.6</ele>
        <time>2011-08-25T08:07:01Z</time>
      </trkpt>
      <trkpt lat="45.15001" lon="5.66614">
        <ele>770.7</ele>
        <time>2011-08-25T08:07:08Z</time>
      </trkpt>
      <trkpt lat="45.15005" lon="5.66618">
        <ele>769.8</ele>
        <time>2011-08-25T08:07:12Z</time>
      </trkpt>
      <trkpt lat="45.15002" lon="5.66624">
        <ele>767.8</ele>
        <time>2011-08-25T08:07:32Z</time>
      </trkpt>
      <trkpt lat="45.15" lon="5.66632">
        <ele>759.9</ele>
        <time>2011-08-25T08:08:28Z</time>
      </trkpt>
      <trkpt lat="45.15002" lon="5.66639">
        <ele>759.2</ele>
        <time>2011-08-25T08:08:33Z</time>
      </trkpt>
      <trkpt lat="45.14997" lon="5.66639">
        <ele>756.2</ele>
        <time>2011-08-25T08:09:06Z</time>
      </trkpt>
      <trkpt lat="45.14994" lon="5.66646">
        <ele>751.6</ele>
        <time>2011-08-25T08:09:44Z</time>
      </trkpt>
      <trkpt lat="45.14988" lon="5.66646">
        <ele>750.8</ele>
        <time>2011-08-25T08:10:00Z</time>
      </trkpt>
      <trkpt lat="45.14982" lon="5.66649">
        <ele>747.2</ele>
        <time>2011-08-25T08:10:34Z</time>
      </trkpt>
      <trkpt lat="45.14982" lon="5.66656">
        <ele>744.4</ele>
        <time>2011-08-25T08:10:56Z</time>
      </trkpt>
      <trkpt lat="45.14982" lon="5.66666">
        <ele>742.6</ele>
        <time>2011-08-25T08:11:11Z</time>
      </trkpt>
      <trkpt lat="45.14978" lon="5.66673">
        <ele>741.2</ele>
        <time>2011-08-25T08:11:22Z</time>
      </trkpt>
      <trkpt lat="45.14978" lon="5.66693">
        <ele>742.2</ele>
        <time>2011-08-25T08:12:27Z</time>
      </trkpt>
      <trkpt lat="45.1498" lon="5.66699">
        <ele>739.6</ele>
        <time>2011-08-25T08:12:53Z</time>
      </trkpt>
      <trkpt lat="45.14983" lon="5.66704">
        <ele>738.7</ele>
        <time>2011-08-25T08:12:57Z</time>
      </trkpt>
      <trkpt lat="45.14984" lon="5.6671">
        <ele>737.4</ele>
        <time>2011-08-25T08:13:05Z</time>
      </trkpt>
      <trkpt lat="45.14981" lon="5.66714">
        <ele>732.9</ele>
        <time>2011-08-25T08:13:43Z</time>
      </trkpt>
      <trkpt lat="45.14978" lon="5.66719">
        <ele>730.7</ele>
        <time>2011-08-25T08:13:49Z</time>
      </trkpt>
      <trkpt lat="45.14979" lon="5.6674">
        <ele>729.4</ele>
        <time>2011-08-25T08:14:30Z</time>
      </trkpt>
      <trkpt lat="45.14979" lon="5.6674">
        <ele>729.4</ele>
        <time>2011-08-25T08:14:30Z</time>
      </trkpt>
      <trkpt lat="45.14979" lon="5.6674">
        <ele>729.4</ele>
        <time>2011-08-25T08:14:42Z</time>
      </trkpt>
      <trkpt lat="45.14975" lon="5.66736">
        <ele>699.8</ele>
        <time>2011-08-25T08:14:43Z</time>
      </trkpt>
      <trkpt lat="45.14974" lon="5.66744">
        <ele>699.2</ele>
        <time>2011-08-25T08:15:02Z</time>
      </trkpt>
      <trkpt lat="45.14979" lon="5.66743">
        <ele>700</ele>
        <time>2011-08-25T08:15:08Z</time>
      </trkpt>
      <trkpt lat="45.14981" lon="5.66761">
        <ele>685.6</ele>
        <time>2011-08-25T08:16:33Z</time>
      </trkpt>
      <trkpt lat="45.14985" lon="5.66766">
        <ele>682.8</ele>
        <time>2011-08-25T08:17:12Z</time>
      </trkpt>
      <trkpt lat="45.14986" lon="5.6676">
        <ele>680</ele>
        <time>2011-08-25T08:17:19Z</time>
      </trkpt>
      <trkpt lat="45.14987" lon="5.66767">
        <ele>678.4</ele>
        <time>2011-08-25T08:17:29Z</time>
      </trkpt>
      <trkpt lat="45.14989" lon="5.66774">
        <ele>681.5</ele>
        <time>2011-08-25T08:17:34Z</time>
      </trkpt>
      <trkpt lat="45.14991" lon="5.6678">
        <ele>683.6</ele>
        <time>2011-08-25T08:17:39Z</time>
      </trkpt>
      <trkpt lat="45.14996" lon="5.66782">
        <ele>683.6</ele>
        <time>2011-08-25T08:17:45Z</time>
      </trkpt>
      <trkpt lat="45.14999" lon="5.66777">
        <ele>686.3</ele>
        <time>2011-08-25T08:18:52Z</time>
      </trkpt>
      <trkpt lat="45.15002" lon="5.66782">
        <ele>686.8</ele>
        <time>2011-08-25T08:19:44Z</time>
      </trkpt>
      <trkpt lat="45.15004" lon="5.66789">
        <ele>688.9</ele>
        <time>2011-08-25T08:19:51Z</time>
      </trkpt>
      <trkpt lat="45.15009" lon="5.66792">
        <ele>689.2</ele>
        <time>2011-08-25T08:19:54Z</time>
      </trkpt>
      <trkpt lat="45.15014" lon="5.66795">
        <ele>689.5</ele>
        <time>2011-08-25T08:19:57Z</time>
      </trkpt>
      <trkpt lat="45.15019" lon="5.66798">
        <ele>689.7</ele>
        <time>2011-08-25T08:20:00Z</time>
      </trkpt>
      <trkpt lat="45.15025" lon="5.668">
        <ele>690.5</ele>
        <time>2011-08-25T08:20:04Z</time>
      </trkpt>
      <trkpt lat="45.1503" lon="5.66804">
        <ele>690.9</ele>
        <time>2011-08-25T08:20:07Z</time>
      </trkpt>
      <trkpt lat="45.15034" lon="5.66805">
        <ele>692.9</ele>
        <time>2011-08-25T08:20:14Z</time>
      </trkpt>
      <trkpt lat="45.15034" lon="5.66805">
        <ele>692.9</ele>
        <time>2011-08-25T08:20:14Z</time>
      </trkpt>
      <trkpt lat="45.15034" lon="5.66805">
        <ele>692.9</ele>
        <time>2011-08-25T08:20:24Z</time>
      </trkpt>
      <trkpt lat="45.15041" lon="5.66805">
        <ele>691.1</ele>
        <time>2011-08-25T08:20:25Z</time>
      </trkpt>
      <trkpt lat="45.15046" lon="5.66805">
        <ele>688.8</ele>
        <time>2011-08-25T08:20:32Z</time>
      </trkpt>
      <trkpt lat="45.1505" lon="5.66808">
        <ele>688.6</ele>
        <time>2011-08-25T08:20:35Z</time>
      </trkpt>
      <trkpt lat="45.15054" lon="5.66815">
        <ele>688.1</ele>
        <time>2011-08-25T08:20:38Z</time>
      </trkpt>
      <trkpt lat="45.15059" lon="5.66821">
        <ele>687.6</ele>
        <time>2011-08-25T08:20:40Z</time>
      </trkpt>
      <trkpt lat="45.15064" lon="5.66828">
        <ele>686.9</ele>
        <time>2011-08-25T08:20:42Z</time>
      </trkpt>
      <trkpt lat="45.15067" lon="5.66834">
        <ele>686.5</ele>
        <time>2011-08-25T08:20:44Z</time>
      </trkpt>
      <trkpt lat="45.15072" lon="5.66839">
        <ele>685.5</ele>
        <time>2011-08-25T08:20:45Z</time>
      </trkpt>
      <trkpt lat="45.15076" lon="5.66847">
        <ele>685.4</ele>
        <time>2011-08-25T08:20:47Z</time>
      </trkpt>
      <trkpt lat="45.1508" lon="5.66851">
        <ele>684.3</ele>
        <time>2011-08-25T08:20:48Z</time>
      </trkpt>
      <trkpt lat="45.15087" lon="5.66859">
        <ele>683.8</ele>
        <time>2011-08-25T08:20:50Z</time>
      </trkpt>
      <trkpt lat="45.15091" lon="5.66863">
        <ele>683.4</ele>
        <time>2011-08-25T08:20:51Z</time>
      </trkpt>
      <trkpt lat="45.15098" lon="5.66871">
        <ele>682.7</ele>
        <time>2011-08-25T08:20:53Z</time>
      </trkpt>
      <trkpt lat="45.15102" lon="5.66879">
        <ele>682.3</ele>
        <time>2011-08-25T08:20:55Z</time>
      </trkpt>
      <trkpt lat="45.15107" lon="5.66887">
        <ele>681.8</ele>
        <time>2011-08-25T08:20:57Z</time>
      </trkpt>
      <trkpt lat="45.15109" lon="5.66894">
        <ele>681.5</ele>
        <time>2011-08-25T08:20:59Z</time>
      </trkpt>
      <trkpt lat="45.15112" lon="5.66902">
        <ele>680.8</ele>
        <time>2011-08-25T08:21:01Z</time>
      </trkpt>
      <trkpt lat="45.15115" lon="5.66911">
        <ele>680.4</ele>
        <time>2011-08-25T08:21:03Z</time>
      </trkpt>
      <trkpt lat="45.15117" lon="5.66919">
        <ele>679.8</ele>
        <time>2011-08-25T08:21:05Z</time>
      </trkpt>
      <trkpt lat="45.15117" lon="5.66927">
        <ele>678.4</ele>
        <time>2011-08-25T08:21:07Z</time>
      </trkpt>
      <trkpt lat="45.15118" lon="5.66935">
        <ele>676.3</ele>
        <time>2011-08-25T08:21:10Z</time>
      </trkpt>
      <trkpt lat="45.15121" lon="5.6694">
        <ele>671.7</ele>
        <time>2011-08-25T08:21:13Z</time>
      </trkpt>
      <trkpt lat="45.15127" lon="5.66945">
        <ele>668.8</ele>
        <time>2011-08-25T08:21:15Z</time>
      </trkpt>
      <trkpt lat="45.15134" lon="5.66952">
        <ele>667.6</ele>
        <time>2011-08-25T08:21:17Z</time>
      </trkpt>
      <trkpt lat="45.15139" lon="5.66958">
        <ele>666.7</ele>
        <time>2011-08-25T08:21:19Z</time>
      </trkpt>
      <trkpt lat="45.15145" lon="5.66962">
        <ele>666</ele>
        <time>2011-08-25T08:21:21Z</time>
      </trkpt>
      <trkpt lat="45.1515" lon="5.66968">
        <ele>664.2</ele>
        <time>2011-08-25T08:21:23Z</time>
      </trkpt>
      <trkpt lat="45.15155" lon="5.66975">
        <ele>663.1</ele>
        <time>2011-08-25T08:21:25Z</time>
      </trkpt>
      <trkpt lat="45.15158" lon="5.66983">
        <ele>662</ele>
        <time>2011-08-25T08:21:27Z</time>
      </trkpt>
      <trkpt lat="45.15159" lon="5.66991">
        <ele>660.9</ele>
        <time>2011-08-25T08:21:29Z</time>
      </trkpt>
      <trkpt lat="45.15156" lon="5.66998">
        <ele>659.2</ele>
        <time>2011-08-25T08:21:32Z</time>
      </trkpt>
      <trkpt lat="45.15151" lon="5.67002">
        <ele>658.1</ele>
        <time>2011-08-25T08:21:35Z</time>
      </trkpt>
      <trkpt lat="45.15146" lon="5.67002">
        <ele>657.1</ele>
        <time>2011-08-25T08:21:37Z</time>
      </trkpt>
      <trkpt lat="45.1514" lon="5.67">
        <ele>656.1</ele>
        <time>2011-08-25T08:21:39Z</time>
      </trkpt>
      <trkpt lat="45.15132" lon="5.66996">
        <ele>655</ele>
        <time>2011-08-25T08:21:41Z</time>
      </trkpt>
      <trkpt lat="45.15128" lon="5.66994">
        <ele>654.3</ele>
        <time>2011-08-25T08:21:42Z</time>
      </trkpt>
      <trkpt lat="45.15123" lon="5.66992">
        <ele>653.7</ele>
        <time>2011-08-25T08:21:43Z</time>
      </trkpt>
      <trkpt lat="45.15115" lon="5.66989">
        <ele>652.7</ele>
        <time>2011-08-25T08:21:45Z</time>
      </trkpt>
      <trkpt lat="45.15108" lon="5.66986">
        <ele>651.6</ele>
        <time>2011-08-25T08:21:47Z</time>
      </trkpt>
      <trkpt lat="45.151" lon="5.66983">
        <ele>650.8</ele>
        <time>2011-08-25T08:21:49Z</time>
      </trkpt>
      <trkpt lat="45.15096" lon="5.66981">
        <ele>650.2</ele>
        <time>2011-08-25T08:21:50Z</time>
      </trkpt>
      <trkpt lat="45.1509" lon="5.66978">
        <ele>648.7</ele>
        <time>2011-08-25T08:21:51Z</time>
      </trkpt>
      <trkpt lat="45.15085" lon="5.66976">
        <ele>647.2</ele>
        <time>2011-08-25T08:21:52Z</time>
      </trkpt>
      <trkpt lat="45.1508" lon="5.66974">
        <ele>646.1</ele>
        <time>2011-08-25T08:21:53Z</time>
      </trkpt>
      <trkpt lat="45.15071" lon="5.66972">
        <ele>644.6</ele>
        <time>2011-08-25T08:21:55Z</time>
      </trkpt>
      <trkpt lat="45.15063" lon="5.6697">
        <ele>644</ele>
        <time>2011-08-25T08:21:57Z</time>
      </trkpt>
      <trkpt lat="45.15055" lon="5.66969">
        <ele>643.5</ele>
        <time>2011-08-25T08:21:59Z</time>
      </trkpt>
      <trkpt lat="45.15049" lon="5.66968">
        <ele>643.1</ele>
        <time>2011-08-25T08:22:01Z</time>
      </trkpt>
      <trkpt lat="45.15043" lon="5.6697">
        <ele>642.8</ele>
        <time>2011-08-25T08:22:03Z</time>
      </trkpt>
      <trkpt lat="45.15036" lon="5.6697">
        <ele>642.6</ele>
        <time>2011-08-25T08:22:05Z</time>
      </trkpt>
      <trkpt lat="45.15028" lon="5.66971">
        <ele>641.6</ele>
        <time>2011-08-25T08:22:07Z</time>
      </trkpt>
      <trkpt lat="45.15021" lon="5.66969">
        <ele>638.8</ele>
        <time>2011-08-25T08:22:09Z</time>
      </trkpt>
      <trkpt lat="45.15021" lon="5.66976">
        <ele>633.5</ele>
        <time>2011-08-25T08:22:12Z</time>
      </trkpt>
      <trkpt lat="45.15024" lon="5.66986">
        <ele>628.3</ele>
        <time>2011-08-25T08:22:14Z</time>
      </trkpt>
      <trkpt lat="45.15026" lon="5.66991">
        <ele>610.4</ele>
        <time>2011-08-25T08:23:08Z</time>
      </trkpt>
      <trkpt lat="45.15031" lon="5.66998">
        <ele>609.5</ele>
        <time>2011-08-25T08:23:14Z</time>
      </trkpt>
      <trkpt lat="45.15036" lon="5.67003">
        <ele>609.3</ele>
        <time>2011-08-25T08:23:17Z</time>
      </trkpt>
      <trkpt lat="45.15041" lon="5.67008">
        <ele>609</ele>
        <time>2011-08-25T08:23:19Z</time>
      </trkpt>
      <trkpt lat="45.15051" lon="5.67014">
        <ele>608.4</ele>
        <time>2011-08-25T08:23:21Z</time>
      </trkpt>
      <trkpt lat="45.15055" lon="5.6702">
        <ele>607.8</ele>
        <time>2011-08-25T08:23:22Z</time>
      </trkpt>
      <trkpt lat="45.15059" lon="5.67026">
        <ele>607.3</ele>
        <time>2011-08-25T08:23:23Z</time>
      </trkpt>
      <trkpt lat="45.15062" lon="5.67031">
        <ele>606.8</ele>
        <time>2011-08-25T08:23:24Z</time>
      </trkpt>
      <trkpt lat="45.15067" lon="5.6704">
        <ele>606.6</ele>
        <time>2011-08-25T08:23:26Z</time>
      </trkpt>
      <trkpt lat="45.15072" lon="5.67046">
        <ele>606.5</ele>
        <time>2011-08-25T08:23:28Z</time>
      </trkpt>
      <trkpt lat="45.15077" lon="5.67054">
        <ele>606.5</ele>
        <time>2011-08-25T08:23:30Z</time>
      </trkpt>
      <trkpt lat="45.15081" lon="5.67062">
        <ele>606.6</ele>
        <time>2011-08-25T08:23:32Z</time>
      </trkpt>
      <trkpt lat="45.15087" lon="5.6707">
        <ele>606.4</ele>
        <time>2011-08-25T08:23:34Z</time>
      </trkpt>
      <trkpt lat="45.15094" lon="5.67076">
        <ele>606.3</ele>
        <time>2011-08-25T08:23:36Z</time>
      </trkpt>
      <trkpt lat="45.15101" lon="5.67083">
        <ele>606.3</ele>
        <time>2011-08-25T08:23:38Z</time>
      </trkpt>
      <trkpt lat="45.15106" lon="5.67087">
        <ele>606.5</ele>
        <time>2011-08-25T08:23:39Z</time>
      </trkpt>
      <trkpt lat="45.1511" lon="5.6709">
        <ele>606.5</ele>
        <time>2011-08-25T08:23:40Z</time>
      </trkpt>
      <trkpt lat="45.15114" lon="5.67094">
        <ele>606.1</ele>
        <time>2011-08-25T08:23:41Z</time>
      </trkpt>
      <trkpt lat="45.15119" lon="5.67098">
        <ele>606.1</ele>
        <time>2011-08-25T08:23:42Z</time>
      </trkpt>
      <trkpt lat="45.15124" lon="5.67102">
        <ele>606</ele>
        <time>2011-08-25T08:23:43Z</time>
      </trkpt>
      <trkpt lat="45.15129" lon="5.67107">
        <ele>606</ele>
        <time>2011-08-25T08:23:44Z</time>
      </trkpt>
      <trkpt lat="45.15134" lon="5.67112">
        <ele>606</ele>
        <time>2011-08-25T08:23:45Z</time>
      </trkpt>
      <trkpt lat="45.1514" lon="5.67118">
        <ele>605.9</ele>
        <time>2011-08-25T08:23:46Z</time>
      </trkpt>
      <trkpt lat="45.15145" lon="5.67121">
        <ele>605.8</ele>
        <time>2011-08-25T08:23:47Z</time>
      </trkpt>
      <trkpt lat="45.1515" lon="5.67123">
        <ele>605.5</ele>
        <time>2011-08-25T08:23:48Z</time>
      </trkpt>
      <trkpt lat="45.15158" lon="5.67128">
        <ele>605</ele>
        <time>2011-08-25T08:23:50Z</time>
      </trkpt>
      <trkpt lat="45.15161" lon="5.67133">
        <ele>604.1</ele>
        <time>2011-08-25T08:23:52Z</time>
      </trkpt>
      <trkpt lat="45.15158" lon="5.67138">
        <ele>600.4</ele>
        <time>2011-08-25T08:23:58Z</time>
      </trkpt>
      <trkpt lat="45.15153" lon="5.6714">
        <ele>600</ele>
        <time>2011-08-25T08:24:00Z</time>
      </trkpt>
      <trkpt lat="45.15147" lon="5.67142">
        <ele>599.2</ele>
        <time>2011-08-25T08:24:02Z</time>
      </trkpt>
      <trkpt lat="45.15139" lon="5.67143">
        <ele>598.6</ele>
        <time>2011-08-25T08:24:04Z</time>
      </trkpt>
      <trkpt lat="45.15133" lon="5.67145">
        <ele>598.2</ele>
        <time>2011-08-25T08:24:05Z</time>
      </trkpt>
      <trkpt lat="45.15127" lon="5.67147">
        <ele>597.8</ele>
        <time>2011-08-25T08:24:06Z</time>
      </trkpt>
      <trkpt lat="45.15122" lon="5.67148">
        <ele>597.5</ele>
        <time>2011-08-25T08:24:07Z</time>
      </trkpt>
      <trkpt lat="45.15117" lon="5.6715">
        <ele>597.3</ele>
        <time>2011-08-25T08:24:08Z</time>
      </trkpt>
      <trkpt lat="45.15111" lon="5.67151">
        <ele>596.9</ele>
        <time>2011-08-25T08:24:09Z</time>
      </trkpt>
      <trkpt lat="45.15105" lon="5.67151">
        <ele>596.7</ele>
        <time>2011-08-25T08:24:10Z</time>
      </trkpt>
      <trkpt lat="45.15099" lon="5.6715">
        <ele>596.3</ele>
        <time>2011-08-25T08:24:11Z</time>
      </trkpt>
      <trkpt lat="45.15093" lon="5.67148">
        <ele>595.3</ele>
        <time>2011-08-25T08:24:12Z</time>
      </trkpt>
      <trkpt lat="45.15087" lon="5.67147">
        <ele>594.1</ele>
        <time>2011-08-25T08:24:13Z</time>
      </trkpt>
      <trkpt lat="45.1508" lon="5.67146">
        <ele>593</ele>
        <time>2011-08-25T08:24:14Z</time>
      </trkpt>
      <trkpt lat="45.15075" lon="5.67145">
        <ele>591.6</ele>
        <time>2011-08-25T08:24:15Z</time>
      </trkpt>
      <trkpt lat="45.1507" lon="5.67143">
        <ele>590</ele>
        <time>2011-08-25T08:24:16Z</time>
      </trkpt>
      <trkpt lat="45.15064" lon="5.67148">
        <ele>587.4</ele>
        <time>2011-08-25T08:24:18Z</time>
      </trkpt>
      <trkpt lat="45.15061" lon="5.67155">
        <ele>585.4</ele>
        <time>2011-08-25T08:24:20Z</time>
      </trkpt>
      <trkpt lat="45.15065" lon="5.67166">
        <ele>584.2</ele>
        <time>2011-08-25T08:24:22Z</time>
      </trkpt>
      <trkpt lat="45.1507" lon="5.67174">
        <ele>583.2</ele>
        <time>2011-08-25T08:24:23Z</time>
      </trkpt>
      <trkpt lat="45.15076" lon="5.67181">
        <ele>582.6</ele>
        <time>2011-08-25T08:24:24Z</time>
      </trkpt>
      <trkpt lat="45.1508" lon="5.67185">
        <ele>582.3</ele>
        <time>2011-08-25T08:24:25Z</time>
      </trkpt>
      <trkpt lat="45.15085" lon="5.67188">
        <ele>581.8</ele>
        <time>2011-08-25T08:24:26Z</time>
      </trkpt>
      <trkpt lat="45.15092" lon="5.67192">
        <ele>580</ele>
        <time>2011-08-25T08:24:27Z</time>
      </trkpt>
      <trkpt lat="45.151" lon="5.67198">
        <ele>578.4</ele>
        <time>2011-08-25T08:24:28Z</time>
      </trkpt>
      <trkpt lat="45.15107" lon="5.67203">
        <ele>577</ele>
        <time>2011-08-25T08:24:29Z</time>
      </trkpt>
      <trkpt lat="45.15112" lon="5.67208">
        <ele>575.8</ele>
        <time>2011-08-25T08:24:30Z</time>
      </trkpt>
      <trkpt lat="45.15115" lon="5.67213">
        <ele>574.8</ele>
        <time>2011-08-25T08:24:31Z</time>
      </trkpt>
      <trkpt lat="45.15121" lon="5.6722">
        <ele>572.3</ele>
        <time>2011-08-25T08:24:33Z</time>
      </trkpt>
      <trkpt lat="45.15126" lon="5.6723">
        <ele>570.3</ele>
        <time>2011-08-25T08:24:35Z</time>
      </trkpt>
      <trkpt lat="45.15132" lon="5.67238">
        <ele>567.9</ele>
        <time>2011-08-25T08:24:37Z</time>
      </trkpt>
      <trkpt lat="45.15138" lon="5.67246">
        <ele>565.5</ele>
        <time>2011-08-25T08:24:39Z</time>
      </trkpt>
      <trkpt lat="45.15142" lon="5.67252">
        <ele>563.6</ele>
        <time>2011-08-25T08:24:41Z</time>
      </trkpt>
      <trkpt lat="45.15144" lon="5.67258">
        <ele>561.7</ele>
        <time>2011-08-25T08:24:43Z</time>
      </trkpt>
      <trkpt lat="45.15144" lon="5.67266">
        <ele>560.2</ele>
        <time>2011-08-25T08:24:45Z</time>
      </trkpt>
      <trkpt lat="45.15144" lon="5.67277">
        <ele>557.7</ele>
        <time>2011-08-25T08:24:47Z</time>
      </trkpt>
      <trkpt lat="45.15143" lon="5.67283">
        <ele>554.1</ele>
        <time>2011-08-25T08:24:49Z</time>
      </trkpt>
      <trkpt lat="45.15137" lon="5.67288">
        <ele>549.2</ele>
        <time>2011-08-25T08:24:52Z</time>
      </trkpt>
      <trkpt lat="45.15131" lon="5.67291">
        <ele>547.5</ele>
        <time>2011-08-25T08:24:54Z</time>
      </trkpt>
      <trkpt lat="45.15126" lon="5.67294">
        <ele>546.7</ele>
        <time>2011-08-25T08:24:56Z</time>
      </trkpt>
      <trkpt lat="45.15123" lon="5.673">
        <ele>538.8</ele>
        <time>2011-08-25T08:25:15Z</time>
      </trkpt>
      <trkpt lat="45.1512" lon="5.67306">
        <ele>536.3</ele>
        <time>2011-08-25T08:25:18Z</time>
      </trkpt>
      <trkpt lat="45.1512" lon="5.67313">
        <ele>535</ele>
        <time>2011-08-25T08:25:20Z</time>
      </trkpt>
      <trkpt lat="45.15125" lon="5.67325">
        <ele>534.2</ele>
        <time>2011-08-25T08:25:22Z</time>
      </trkpt>
      <trkpt lat="45.1513" lon="5.67335">
        <ele>533.8</ele>
        <time>2011-08-25T08:25:23Z</time>
      </trkpt>
      <trkpt lat="45.15134" lon="5.67343">
        <ele>533.4</ele>
        <time>2011-08-25T08:25:24Z</time>
      </trkpt>
      <trkpt lat="45.15138" lon="5.67351">
        <ele>533</ele>
        <time>2011-08-25T08:25:25Z</time>
      </trkpt>
      <trkpt lat="45.15141" lon="5.67359">
        <ele>532.5</ele>
        <time>2011-08-25T08:25:26Z</time>
      </trkpt>
      <trkpt lat="45.15143" lon="5.67368">
        <ele>531.5</ele>
        <time>2011-08-25T08:25:27Z</time>
      </trkpt>
      <trkpt lat="45.15146" lon="5.67379">
        <ele>530.5</ele>
        <time>2011-08-25T08:25:28Z</time>
      </trkpt>
      <trkpt lat="45.15148" lon="5.6739">
        <ele>529.1</ele>
        <time>2011-08-25T08:25:29Z</time>
      </trkpt>
      <trkpt lat="45.1515" lon="5.67399">
        <ele>527.8</ele>
        <time>2011-08-25T08:25:30Z</time>
      </trkpt>
      <trkpt lat="45.15152" lon="5.67408">
        <ele>526.8</ele>
        <time>2011-08-25T08:25:31Z</time>
      </trkpt>
      <trkpt lat="45.15154" lon="5.67414">
        <ele>525.2</ele>
        <time>2011-08-25T08:25:32Z</time>
      </trkpt>
      <trkpt lat="45.15158" lon="5.67419">
        <ele>517.9</ele>
        <time>2011-08-25T08:25:35Z</time>
      </trkpt>
      <trkpt lat="45.15163" lon="5.67416">
        <ele>509.2</ele>
        <time>2011-08-25T08:25:56Z</time>
      </trkpt>
      <trkpt lat="45.15167" lon="5.67414">
        <ele>504.6</ele>
        <time>2011-08-25T08:26:33Z</time>
      </trkpt>
      <trkpt lat="45.15173" lon="5.67415">
        <ele>503.7</ele>
        <time>2011-08-25T08:26:35Z</time>
      </trkpt>
      <trkpt lat="45.1518" lon="5.67417">
        <ele>503.2</ele>
        <time>2011-08-25T08:26:37Z</time>
      </trkpt>
      <trkpt lat="45.15186" lon="5.67419">
        <ele>502.4</ele>
        <time>2011-08-25T08:26:39Z</time>
      </trkpt>
      <trkpt lat="45.15194" lon="5.6742">
        <ele>499.9</ele>
        <time>2011-08-25T08:26:41Z</time>
      </trkpt>
      <trkpt lat="45.15201" lon="5.67424">
        <ele>499.5</ele>
        <time>2011-08-25T08:26:43Z</time>
      </trkpt>
      <trkpt lat="45.15208" lon="5.6743">
        <ele>499</ele>
        <time>2011-08-25T08:26:45Z</time>
      </trkpt>
      <trkpt lat="45.15212" lon="5.67434">
        <ele>498.8</ele>
        <time>2011-08-25T08:26:46Z</time>
      </trkpt>
      <trkpt lat="45.15215" lon="5.67438">
        <ele>498.6</ele>
        <time>2011-08-25T08:26:47Z</time>
      </trkpt>
      <trkpt lat="45.15221" lon="5.67445">
        <ele>497.9</ele>
        <time>2011-08-25T08:26:49Z</time>
      </trkpt>
      <trkpt lat="45.15226" lon="5.67449">
        <ele>496.9</ele>
        <time>2011-08-25T08:26:51Z</time>
      </trkpt>
      <trkpt lat="45.15232" lon="5.67454">
        <ele>496.2</ele>
        <time>2011-08-25T08:26:53Z</time>
      </trkpt>
      <trkpt lat="45.15238" lon="5.67459">
        <ele>495.7</ele>
        <time>2011-08-25T08:26:55Z</time>
      </trkpt>
      <trkpt lat="45.15245" lon="5.67466">
        <ele>495.3</ele>
        <time>2011-08-25T08:26:57Z</time>
      </trkpt>
      <trkpt lat="45.15249" lon="5.67469">
        <ele>495.1</ele>
        <time>2011-08-25T08:26:58Z</time>
      </trkpt>
      <trkpt lat="45.15254" lon="5.67473">
        <ele>495</ele>
        <time>2011-08-25T08:26:59Z</time>
      </trkpt>
      <trkpt lat="45.1526" lon="5.67476">
        <ele>494.2</ele>
        <time>2011-08-25T08:27:00Z</time>
      </trkpt>
      <trkpt lat="45.15266" lon="5.67479">
        <ele>493.6</ele>
        <time>2011-08-25T08:27:01Z</time>
      </trkpt>
      <trkpt lat="45.15272" lon="5.67481">
        <ele>493.1</ele>
        <time>2011-08-25T08:27:02Z</time>
      </trkpt>
      <trkpt lat="45.15287" lon="5.67484">
        <ele>490.7</ele>
        <time>2011-08-25T08:27:04Z</time>
      </trkpt>
      <trkpt lat="45.15296" lon="5.67483">
        <ele>488.5</ele>
        <time>2011-08-25T08:27:05Z</time>
      </trkpt>
      <trkpt lat="45.15305" lon="5.67482">
        <ele>487.7</ele>
        <time>2011-08-25T08:27:06Z</time>
      </trkpt>
      <trkpt lat="45.15312" lon="5.67482">
        <ele>487.5</ele>
        <time>2011-08-25T08:27:07Z</time>
      </trkpt>
      <trkpt lat="45.15316" lon="5.67479">
        <ele>486.1</ele>
        <time>2011-08-25T08:27:08Z</time>
      </trkpt>
      <trkpt lat="45.15323" lon="5.67478">
        <ele>484.3</ele>
        <time>2011-08-25T08:27:10Z</time>
      </trkpt>
      <trkpt lat="45.15315" lon="5.67476">
        <ele>481.7</ele>
        <time>2011-08-25T08:27:13Z</time>
      </trkpt>
      <trkpt lat="45.1531" lon="5.67476">
        <ele>481.3</ele>
        <time>2011-08-25T08:27:14Z</time>
      </trkpt>
      <trkpt lat="45.15304" lon="5.67476">
        <ele>480.7</ele>
        <time>2011-08-25T08:27:15Z</time>
      </trkpt>
      <trkpt lat="45.15298" lon="5.67478">
        <ele>480.1</ele>
        <time>2011-08-25T08:27:16Z</time>
      </trkpt>
      <trkpt lat="45.15292" lon="5.6748">
        <ele>479.8</ele>
        <time>2011-08-25T08:27:17Z</time>
      </trkpt>
      <trkpt lat="45.15286" lon="5.67482">
        <ele>479.4</ele>
        <time>2011-08-25T08:27:18Z</time>
      </trkpt>
      <trkpt lat="45.1528" lon="5.67484">
        <ele>479</ele>
        <time>2011-08-25T08:27:19Z</time>
      </trkpt>
      <trkpt lat="45.15274" lon="5.67486">
        <ele>478.9</ele>
        <time>2011-08-25T08:27:20Z</time>
      </trkpt>
      <trkpt lat="45.15268" lon="5.67488">
        <ele>478.7</ele>
        <time>2011-08-25T08:27:21Z</time>
      </trkpt>
      <trkpt lat="45.15262" lon="5.67489">
        <ele>478.6</ele>
        <time>2011-08-25T08:27:22Z</time>
      </trkpt>
      <trkpt lat="45.15255" lon="5.6749">
        <ele>477.8</ele>
        <time>2011-08-25T08:27:23Z</time>
      </trkpt>
      <trkpt lat="45.15249" lon="5.6749">
        <ele>477.5</ele>
        <time>2011-08-25T08:27:24Z</time>
      </trkpt>
      <trkpt lat="45.15242" lon="5.67489">
        <ele>477.7</ele>
        <time>2011-08-25T08:27:25Z</time>
      </trkpt>
      <trkpt lat="45.15236" lon="5.67488">
        <ele>477.7</ele>
        <time>2011-08-25T08:27:26Z</time>
      </trkpt>
      <trkpt lat="45.15229" lon="5.67484">
        <ele>477.5</ele>
        <time>2011-08-25T08:27:27Z</time>
      </trkpt>
      <trkpt lat="45.1522" lon="5.67478">
        <ele>476.8</ele>
        <time>2011-08-25T08:27:28Z</time>
      </trkpt>
      <trkpt lat="45.15212" lon="5.67472">
        <ele>476.2</ele>
        <time>2011-08-25T08:27:29Z</time>
      </trkpt>
      <trkpt lat="45.15203" lon="5.67468">
        <ele>475.7</ele>
        <time>2011-08-25T08:27:30Z</time>
      </trkpt>
      <trkpt lat="45.15197" lon="5.67593">
        <ele>444</ele>
        <time>2011-08-25T08:27:55Z</time>
      </trkpt>
      <trkpt lat="45.15199" lon="5.67606">
        <ele>442.7</ele>
        <time>2011-08-25T08:27:56Z</time>
      </trkpt>
      <trkpt lat="45.15202" lon="5.67616">
        <ele>441.7</ele>
        <time>2011-08-25T08:27:57Z</time>
      </trkpt>
      <trkpt lat="45.15208" lon="5.67638">
        <ele>439.4</ele>
        <time>2011-08-25T08:28:00Z</time>
      </trkpt>
      <trkpt lat="45.15208" lon="5.67646">
        <ele>440.3</ele>
        <time>2011-08-25T08:28:02Z</time>
      </trkpt>
      <trkpt lat="45.15209" lon="5.67655">
        <ele>438.1</ele>
        <time>2011-08-25T08:28:06Z</time>
      </trkpt>
      <trkpt lat="45.15209" lon="5.67665">
        <ele>436.9</ele>
        <time>2011-08-25T08:28:08Z</time>
      </trkpt>
      <trkpt lat="45.1521" lon="5.67671">
        <ele>435.6</ele>
        <time>2011-08-25T08:28:09Z</time>
      </trkpt>
      <trkpt lat="45.15211" lon="5.67678">
        <ele>434.7</ele>
        <time>2011-08-25T08:28:10Z</time>
      </trkpt>
      <trkpt lat="45.15213" lon="5.67686">
        <ele>433.4</ele>
        <time>2011-08-25T08:28:11Z</time>
      </trkpt>
      <trkpt lat="45.15213" lon="5.67695">
        <ele>432.4</ele>
        <time>2011-08-25T08:28:12Z</time>
      </trkpt>
      <trkpt lat="45.15214" lon="5.67704">
        <ele>431.7</ele>
        <time>2011-08-25T08:28:13Z</time>
      </trkpt>
      <trkpt lat="45.15217" lon="5.67712">
        <ele>430.3</ele>
        <time>2011-08-25T08:28:14Z</time>
      </trkpt>
      <trkpt lat="45.15218" lon="5.67721">
        <ele>428.5</ele>
        <time>2011-08-25T08:28:15Z</time>
      </trkpt>
      <trkpt lat="45.15219" lon="5.67731">
        <ele>428.6</ele>
        <time>2011-08-25T08:28:16Z</time>
      </trkpt>
      <trkpt lat="45.15219" lon="5.6774">
        <ele>428.2</ele>
        <time>2011-08-25T08:28:17Z</time>
      </trkpt>
      <trkpt lat="45.15219" lon="5.6775">
        <ele>427.4</ele>
        <time>2011-08-25T08:28:18Z</time>
      </trkpt>
      <trkpt lat="45.15219" lon="5.67758">
        <ele>426.3</ele>
        <time>2011-08-25T08:28:19Z</time>
      </trkpt>
      <trkpt lat="45.15218" lon="5.67764">
        <ele>426.2</ele>
        <time>2011-08-25T08:28:20Z</time>
      </trkpt>
      <trkpt lat="45.15218" lon="5.67776">
        <ele>425.8</ele>
        <time>2011-08-25T08:28:22Z</time>
      </trkpt>
      <trkpt lat="45.15218" lon="5.67784">
        <ele>424.7</ele>
        <time>2011-08-25T08:28:24Z</time>
      </trkpt>
      <trkpt lat="45.15218" lon="5.67793">
        <ele>423.9</ele>
        <time>2011-08-25T08:28:26Z</time>
      </trkpt>
      <trkpt lat="45.15217" lon="5.67806">
        <ele>423.2</ele>
        <time>2011-08-25T08:28:28Z</time>
      </trkpt>
      <trkpt lat="45.15217" lon="5.67814">
        <ele>423.2</ele>
        <time>2011-08-25T08:28:29Z</time>
      </trkpt>
      <trkpt lat="45.15216" lon="5.67823">
        <ele>422.8</ele>
        <time>2011-08-25T08:28:30Z</time>
      </trkpt>
      <trkpt lat="45.15215" lon="5.67834">
        <ele>422.3</ele>
        <time>2011-08-25T08:28:31Z</time>
      </trkpt>
      <trkpt lat="45.15215" lon="5.67845">
        <ele>421.6</ele>
        <time>2011-08-25T08:28:32Z</time>
      </trkpt>
      <trkpt lat="45.15215" lon="5.67858">
        <ele>420.9</ele>
        <time>2011-08-25T08:28:33Z</time>
      </trkpt>
      <trkpt lat="45.15217" lon="5.6787">
        <ele>420.2</ele>
        <time>2011-08-25T08:28:34Z</time>
      </trkpt>
      <trkpt lat="45.15219" lon="5.67883">
        <ele>419.2</ele>
        <time>2011-08-25T08:28:35Z</time>
      </trkpt>
      <trkpt lat="45.15222" lon="5.67895">
        <ele>418.2</ele>
        <time>2011-08-25T08:28:36Z</time>
      </trkpt>
      <trkpt lat="45.15226" lon="5.67906">
        <ele>417</ele>
        <time>2011-08-25T08:28:37Z</time>
      </trkpt>
      <trkpt lat="45.15229" lon="5.67915">
        <ele>416.2</ele>
        <time>2011-08-25T08:28:38Z</time>
      </trkpt>
      <trkpt lat="45.15232" lon="5.67922">
        <ele>415.6</ele>
        <time>2011-08-25T08:28:39Z</time>
      </trkpt>
      <trkpt lat="45.15235" lon="5.67928">
        <ele>415.2</ele>
        <time>2011-08-25T08:28:40Z</time>
      </trkpt>
      <trkpt lat="45.15239" lon="5.67933">
        <ele>414.7</ele>
        <time>2011-08-25T08:28:41Z</time>
      </trkpt>
      <trkpt lat="45.15243" lon="5.67936">
        <ele>414</ele>
        <time>2011-08-25T08:28:42Z</time>
      </trkpt>
      <trkpt lat="45.15248" lon="5.67938">
        <ele>413.7</ele>
        <time>2011-08-25T08:28:43Z</time>
      </trkpt>
      <trkpt lat="45.15254" lon="5.67944">
        <ele>412.2</ele>
        <time>2011-08-25T08:28:45Z</time>
      </trkpt>
      <trkpt lat="45.15254" lon="5.67951">
        <ele>408.8</ele>
        <time>2011-08-25T08:28:49Z</time>
      </trkpt>
      <trkpt lat="45.15256" lon="5.67957">
        <ele>407.4</ele>
        <time>2011-08-25T08:28:52Z</time>
      </trkpt>
      <trkpt lat="45.15249" lon="5.67958">
        <ele>405.3</ele>
        <time>2011-08-25T08:28:56Z</time>
      </trkpt>
      <trkpt lat="45.15244" lon="5.67958">
        <ele>404.5</ele>
        <time>2011-08-25T08:28:58Z</time>
      </trkpt>
      <trkpt lat="45.1524" lon="5.67963">
        <ele>403.9</ele>
        <time>2011-08-25T08:29:01Z</time>
      </trkpt>
      <trkpt lat="45.15245" lon="5.6796">
        <ele>403.3</ele>
        <time>2011-08-25T08:29:06Z</time>
      </trkpt>
      <trkpt lat="45.15251" lon="5.67959">
        <ele>403.4</ele>
        <time>2011-08-25T08:29:08Z</time>
      </trkpt>
      <trkpt lat="45.15257" lon="5.6796">
        <ele>403.2</ele>
        <time>2011-08-25T08:29:10Z</time>
      </trkpt>
      <trkpt lat="45.15263" lon="5.67961">
        <ele>404.7</ele>
        <time>2011-08-25T08:29:54Z</time>
      </trkpt>
      <trkpt lat="45.15268" lon="5.67961">
        <ele>404.6</ele>
        <time>2011-08-25T08:29:56Z</time>
      </trkpt>
      <trkpt lat="45.15275" lon="5.67962">
        <ele>404.6</ele>
        <time>2011-08-25T08:29:58Z</time>
      </trkpt>
      <trkpt lat="45.15283" lon="5.67963">
        <ele>404.6</ele>
        <time>2011-08-25T08:30:00Z</time>
      </trkpt>
      <trkpt lat="45.15292" lon="5.67964">
        <ele>404.7</ele>
        <time>2011-08-25T08:30:02Z</time>
      </trkpt>
      <trkpt lat="45.15301" lon="5.67965">
        <ele>404.7</ele>
        <time>2011-08-25T08:30:04Z</time>
      </trkpt>
      <trkpt lat="45.15309" lon="5.67966">
        <ele>404.6</ele>
        <time>2011-08-25T08:30:06Z</time>
      </trkpt>
      <trkpt lat="45.15314" lon="5.67967">
        <ele>404.9</ele>
        <time>2011-08-25T08:30:07Z</time>
      </trkpt>
      <trkpt lat="45.15322" lon="5.67969">
        <ele>404.8</ele>
        <time>2011-08-25T08:30:09Z</time>
      </trkpt>
      <trkpt lat="45.1533" lon="5.67972">
        <ele>405</ele>
        <time>2011-08-25T08:30:11Z</time>
      </trkpt>
      <trkpt lat="45.15338" lon="5.67976">
        <ele>405.4</ele>
        <time>2011-08-25T08:30:13Z</time>
      </trkpt>
      <trkpt lat="45.15346" lon="5.67982">
        <ele>405.8</ele>
        <time>2011-08-25T08:30:15Z</time>
      </trkpt>
      <trkpt lat="45.15354" lon="5.67986">
        <ele>406.1</ele>
        <time>2011-08-25T08:30:17Z</time>
      </trkpt>
      <trkpt lat="45.15359" lon="5.67989">
        <ele>405.9</ele>
        <time>2011-08-25T08:30:18Z</time>
      </trkpt>
      <trkpt lat="45.15364" lon="5.67992">
        <ele>405.7</ele>
        <time>2011-08-25T08:30:19Z</time>
      </trkpt>
      <trkpt lat="45.15369" lon="5.67996">
        <ele>405.6</ele>
        <time>2011-08-25T08:30:20Z</time>
      </trkpt>
      <trkpt lat="45.15373" lon="5.68">
        <ele>405.5</ele>
        <time>2011-08-25T08:30:21Z</time>
      </trkpt>
      <trkpt lat="45.15378" lon="5.68003">
        <ele>405.4</ele>
        <time>2011-08-25T08:30:22Z</time>
      </trkpt>
      <trkpt lat="45.15384" lon="5.68006">
        <ele>405.5</ele>
        <time>2011-08-25T08:30:23Z</time>
      </trkpt>
      <trkpt lat="45.15389" lon="5.68009">
        <ele>405.5</ele>
        <time>2011-08-25T08:30:24Z</time>
      </trkpt>
      <trkpt lat="45.15394" lon="5.68012">
        <ele>405.5</ele>
        <time>2011-08-25T08:30:25Z</time>
      </trkpt>
      <trkpt lat="45.154" lon="5.68015">
        <ele>405.4</ele>
        <time>2011-08-25T08:30:26Z</time>
      </trkpt>
      <trkpt lat="45.15407" lon="5.68018">
        <ele>405.4</ele>
        <time>2011-08-25T08:30:27Z</time>
      </trkpt>
      <trkpt lat="45.15415" lon="5.68022">
        <ele>404.4</ele>
        <time>2011-08-25T08:30:28Z</time>
      </trkpt>
      <trkpt lat="45.15424" lon="5.68026">
        <ele>404.1</ele>
        <time>2011-08-25T08:30:29Z</time>
      </trkpt>
      <trkpt lat="45.1543" lon="5.6803">
        <ele>404.1</ele>
        <time>2011-08-25T08:30:30Z</time>
      </trkpt>
      <trkpt lat="45.15436" lon="5.68034">
        <ele>404.1</ele>
        <time>2011-08-25T08:30:31Z</time>
      </trkpt>
      <trkpt lat="45.15443" lon="5.68038">
        <ele>404</ele>
        <time>2011-08-25T08:30:32Z</time>
      </trkpt>
      <trkpt lat="45.1545" lon="5.68042">
        <ele>403.7</ele>
        <time>2011-08-25T08:30:33Z</time>
      </trkpt>
      <trkpt lat="45.15456" lon="5.68046">
        <ele>403.7</ele>
        <time>2011-08-25T08:30:34Z</time>
      </trkpt>
      <trkpt lat="45.15462" lon="5.6805">
        <ele>403.5</ele>
        <time>2011-08-25T08:30:35Z</time>
      </trkpt>
      <trkpt lat="45.15468" lon="5.68054">
        <ele>403.3</ele>
        <time>2011-08-25T08:30:36Z</time>
      </trkpt>
      <trkpt lat="45.15474" lon="5.68058">
        <ele>403.2</ele>
        <time>2011-08-25T08:30:37Z</time>
      </trkpt>
      <trkpt lat="45.1548" lon="5.68063">
        <ele>403.3</ele>
        <time>2011-08-25T08:30:38Z</time>
      </trkpt>
      <trkpt lat="45.15485" lon="5.68067">
        <ele>403.2</ele>
        <time>2011-08-25T08:30:39Z</time>
      </trkpt>
      <trkpt lat="45.1549" lon="5.68071">
        <ele>402.9</ele>
        <time>2011-08-25T08:30:40Z</time>
      </trkpt>
      <trkpt lat="45.15496" lon="5.68076">
        <ele>402.6</ele>
        <time>2011-08-25T08:30:41Z</time>
      </trkpt>
      <trkpt lat="45.15501" lon="5.6808">
        <ele>402.3</ele>
        <time>2011-08-25T08:30:42Z</time>
      </trkpt>
      <trkpt lat="45.15506" lon="5.68085">
        <ele>402.3</ele>
        <time>2011-08-25T08:30:43Z</time>
      </trkpt>
      <trkpt lat="45.15512" lon="5.6809">
        <ele>402.3</ele>
        <time>2011-08-25T08:30:44Z</time>
      </trkpt>
      <trkpt lat="45.15517" lon="5.68094">
        <ele>402.4</ele>
        <time>2011-08-25T08:30:45Z</time>
      </trkpt>
      <trkpt lat="45.15523" lon="5.68099">
        <ele>402.2</ele>
        <time>2011-08-25T08:30:46Z</time>
      </trkpt>
      <trkpt lat="45.15528" lon="5.68104">
        <ele>402.1</ele>
        <time>2011-08-25T08:30:47Z</time>
      </trkpt>
      <trkpt lat="45.15534" lon="5.68109">
        <ele>402</ele>
        <time>2011-08-25T08:30:48Z</time>
      </trkpt>
      <trkpt lat="45.1554" lon="5.68113">
        <ele>402.1</ele>
        <time>2011-08-25T08:30:49Z</time>
      </trkpt>
      <trkpt lat="45.15546" lon="5.68117">
        <ele>402.1</ele>
        <time>2011-08-25T08:30:50Z</time>
      </trkpt>
      <trkpt lat="45.15552" lon="5.6812">
        <ele>402.1</ele>
        <time>2011-08-25T08:30:51Z</time>
      </trkpt>
      <trkpt lat="45.15558" lon="5.68123">
        <ele>402.1</ele>
        <time>2011-08-25T08:30:52Z</time>
      </trkpt>
      <trkpt lat="45.15565" lon="5.68125">
        <ele>402.3</ele>
        <time>2011-08-25T08:30:53Z</time>
      </trkpt>
      <trkpt lat="45.15571" lon="5.68127">
        <ele>402.4</ele>
        <time>2011-08-25T08:30:54Z</time>
      </trkpt>
      <trkpt lat="45.15578" lon="5.68129">
        <ele>402.3</ele>
        <time>2011-08-25T08:30:55Z</time>
      </trkpt>
      <trkpt lat="45.15586" lon="5.68132">
        <ele>402.3</ele>
        <time>2011-08-25T08:30:56Z</time>
      </trkpt>
      <trkpt lat="45.15592" lon="5.68133">
        <ele>402</ele>
        <time>2011-08-25T08:30:57Z</time>
      </trkpt>
      <trkpt lat="45.15598" lon="5.68134">
        <ele>401.3</ele>
        <time>2011-08-25T08:30:58Z</time>
      </trkpt>
      <trkpt lat="45.15604" lon="5.68135">
        <ele>401.1</ele>
        <time>2011-08-25T08:30:59Z</time>
      </trkpt>
      <trkpt lat="45.1561" lon="5.68137">
        <ele>400.6</ele>
        <time>2011-08-25T08:31:00Z</time>
      </trkpt>
      <trkpt lat="45.15616" lon="5.68138">
        <ele>400.4</ele>
        <time>2011-08-25T08:31:01Z</time>
      </trkpt>
      <trkpt lat="45.15622" lon="5.68139">
        <ele>400.3</ele>
        <time>2011-08-25T08:31:02Z</time>
      </trkpt>
      <trkpt lat="45.15628" lon="5.68141">
        <ele>400.3</ele>
        <time>2011-08-25T08:31:03Z</time>
      </trkpt>
      <trkpt lat="45.15634" lon="5.68143">
        <ele>400.1</ele>
        <time>2011-08-25T08:31:04Z</time>
      </trkpt>
      <trkpt lat="45.1564" lon="5.68146">
        <ele>400</ele>
        <time>2011-08-25T08:31:05Z</time>
      </trkpt>
      <trkpt lat="45.15646" lon="5.68148">
        <ele>399.7</ele>
        <time>2011-08-25T08:31:06Z</time>
      </trkpt>
      <trkpt lat="45.15652" lon="5.68152">
        <ele>399.4</ele>
        <time>2011-08-25T08:31:07Z</time>
      </trkpt>
      <trkpt lat="45.15658" lon="5.68156">
        <ele>399.1</ele>
        <time>2011-08-25T08:31:08Z</time>
      </trkpt>
      <trkpt lat="45.15664" lon="5.6816">
        <ele>398.8</ele>
        <time>2011-08-25T08:31:09Z</time>
      </trkpt>
      <trkpt lat="45.15672" lon="5.68166">
        <ele>398.7</ele>
        <time>2011-08-25T08:31:10Z</time>
      </trkpt>
      <trkpt lat="45.15679" lon="5.68172">
        <ele>398.6</ele>
        <time>2011-08-25T08:31:11Z</time>
      </trkpt>
      <trkpt lat="45.15686" lon="5.68177">
        <ele>398.3</ele>
        <time>2011-08-25T08:31:12Z</time>
      </trkpt>
      <trkpt lat="45.15694" lon="5.68182">
        <ele>398.2</ele>
        <time>2011-08-25T08:31:13Z</time>
      </trkpt>
      <trkpt lat="45.15702" lon="5.68186">
        <ele>398.1</ele>
        <time>2011-08-25T08:31:14Z</time>
      </trkpt>
      <trkpt lat="45.1571" lon="5.6819">
        <ele>397.7</ele>
        <time>2011-08-25T08:31:15Z</time>
      </trkpt>
      <trkpt lat="45.15719" lon="5.68192">
        <ele>397.4</ele>
        <time>2011-08-25T08:31:16Z</time>
      </trkpt>
      <trkpt lat="45.1573" lon="5.68195">
        <ele>396.6</ele>
        <time>2011-08-25T08:31:17Z</time>
      </trkpt>
      <trkpt lat="45.15739" lon="5.68198">
        <ele>396.4</ele>
        <time>2011-08-25T08:31:18Z</time>
      </trkpt>
      <trkpt lat="45.15748" lon="5.68198">
        <ele>396.1</ele>
        <time>2011-08-25T08:31:19Z</time>
      </trkpt>
      <trkpt lat="45.15756" lon="5.68199">
        <ele>396</ele>
        <time>2011-08-25T08:31:20Z</time>
      </trkpt>
      <trkpt lat="45.15764" lon="5.68201">
        <ele>395.8</ele>
        <time>2011-08-25T08:31:21Z</time>
      </trkpt>
      <trkpt lat="45.15773" lon="5.68206">
        <ele>395.1</ele>
        <time>2011-08-25T08:31:22Z</time>
      </trkpt>
      <trkpt lat="45.15782" lon="5.68211">
        <ele>393.6</ele>
        <time>2011-08-25T08:31:23Z</time>
      </trkpt>
      <trkpt lat="45.15791" lon="5.68215">
        <ele>392.5</ele>
        <time>2011-08-25T08:31:24Z</time>
      </trkpt>
      <trkpt lat="45.15799" lon="5.68219">
        <ele>391.8</ele>
        <time>2011-08-25T08:31:25Z</time>
      </trkpt>
      <trkpt lat="45.15807" lon="5.6822">
        <ele>391.5</ele>
        <time>2011-08-25T08:31:26Z</time>
      </trkpt>
      <trkpt lat="45.15815" lon="5.68221">
        <ele>391.4</ele>
        <time>2011-08-25T08:31:27Z</time>
      </trkpt>
      <trkpt lat="45.15822" lon="5.6822">
        <ele>391.1</ele>
        <time>2011-08-25T08:31:28Z</time>
      </trkpt>
      <trkpt lat="45.1583" lon="5.6822">
        <ele>391.1</ele>
        <time>2011-08-25T08:31:29Z</time>
      </trkpt>
      <trkpt lat="45.15837" lon="5.68218">
        <ele>391.1</ele>
        <time>2011-08-25T08:31:30Z</time>
      </trkpt>
      <trkpt lat="45.15844" lon="5.68217">
        <ele>391.1</ele>
        <time>2011-08-25T08:31:31Z</time>
      </trkpt>
      <trkpt lat="45.15851" lon="5.68216">
        <ele>391.1</ele>
        <time>2011-08-25T08:31:32Z</time>
      </trkpt>
      <trkpt lat="45.15858" lon="5.68214">
        <ele>391</ele>
        <time>2011-08-25T08:31:33Z</time>
      </trkpt>
      <trkpt lat="45.15866" lon="5.68213">
        <ele>391</ele>
        <time>2011-08-25T08:31:34Z</time>
      </trkpt>
      <trkpt lat="45.15874" lon="5.68211">
        <ele>390.5</ele>
        <time>2011-08-25T08:31:35Z</time>
      </trkpt>
      <trkpt lat="45.15882" lon="5.68209">
        <ele>389.9</ele>
        <time>2011-08-25T08:31:36Z</time>
      </trkpt>
      <trkpt lat="45.1589" lon="5.68208">
        <ele>389.2</ele>
        <time>2011-08-25T08:31:37Z</time>
      </trkpt>
      <trkpt lat="45.15898" lon="5.68206">
        <ele>388.6</ele>
        <time>2011-08-25T08:31:38Z</time>
      </trkpt>
      <trkpt lat="45.15907" lon="5.68205">
        <ele>388.2</ele>
        <time>2011-08-25T08:31:39Z</time>
      </trkpt>
      <trkpt lat="45.15915" lon="5.68203">
        <ele>387.7</ele>
        <time>2011-08-25T08:31:40Z</time>
      </trkpt>
      <trkpt lat="45.15923" lon="5.68201">
        <ele>387.8</ele>
        <time>2011-08-25T08:31:41Z</time>
      </trkpt>
      <trkpt lat="45.15932" lon="5.68199">
        <ele>387.7</ele>
        <time>2011-08-25T08:31:42Z</time>
      </trkpt>
      <trkpt lat="45.1594" lon="5.68197">
        <ele>387.7</ele>
        <time>2011-08-25T08:31:43Z</time>
      </trkpt>
      <trkpt lat="45.15948" lon="5.68195">
        <ele>387.6</ele>
        <time>2011-08-25T08:31:44Z</time>
      </trkpt>
      <trkpt lat="45.15957" lon="5.68193">
        <ele>387.5</ele>
        <time>2011-08-25T08:31:45Z</time>
      </trkpt>
      <trkpt lat="45.15965" lon="5.68191">
        <ele>387.1</ele>
        <time>2011-08-25T08:31:46Z</time>
      </trkpt>
      <trkpt lat="45.15973" lon="5.68189">
        <ele>386.8</ele>
        <time>2011-08-25T08:31:47Z</time>
      </trkpt>
      <trkpt lat="45.15982" lon="5.68186">
        <ele>386.7</ele>
        <time>2011-08-25T08:31:48Z</time>
      </trkpt>
      <trkpt lat="45.1599" lon="5.68184">
        <ele>386.6</ele>
        <time>2011-08-25T08:31:49Z</time>
      </trkpt>
      <trkpt lat="45.16" lon="5.68182">
        <ele>385.5</ele>
        <time>2011-08-25T08:31:50Z</time>
      </trkpt>
      <trkpt lat="45.16009" lon="5.68178">
        <ele>385.1</ele>
        <time>2011-08-25T08:31:51Z</time>
      </trkpt>
      <trkpt lat="45.16018" lon="5.68176">
        <ele>384.9</ele>
        <time>2011-08-25T08:31:52Z</time>
      </trkpt>
      <trkpt lat="45.16027" lon="5.68172">
        <ele>384.4</ele>
        <time>2011-08-25T08:31:53Z</time>
      </trkpt>
      <trkpt lat="45.16036" lon="5.68169">
        <ele>384</ele>
        <time>2011-08-25T08:31:54Z</time>
      </trkpt>
      <trkpt lat="45.16046" lon="5.68166">
        <ele>383.2</ele>
        <time>2011-08-25T08:31:55Z</time>
      </trkpt>
      <trkpt lat="45.16055" lon="5.68164">
        <ele>381.3</ele>
        <time>2011-08-25T08:31:56Z</time>
      </trkpt>
      <trkpt lat="45.16064" lon="5.68161">
        <ele>380.9</ele>
        <time>2011-08-25T08:31:57Z</time>
      </trkpt>
      <trkpt lat="45.16073" lon="5.68158">
        <ele>379.9</ele>
        <time>2011-08-25T08:31:58Z</time>
      </trkpt>
      <trkpt lat="45.16082" lon="5.68155">
        <ele>379.3</ele>
        <time>2011-08-25T08:31:59Z</time>
      </trkpt>
      <trkpt lat="45.16091" lon="5.68152">
        <ele>378.3</ele>
        <time>2011-08-25T08:32:00Z</time>
      </trkpt>
      <trkpt lat="45.161" lon="5.68151">
        <ele>377.2</ele>
        <time>2011-08-25T08:32:01Z</time>
      </trkpt>
      <trkpt lat="45.16108" lon="5.68151">
        <ele>377</ele>
        <time>2011-08-25T08:32:02Z</time>
      </trkpt>
      <trkpt lat="45.16117" lon="5.68152">
        <ele>376.3</ele>
        <time>2011-08-25T08:32:03Z</time>
      </trkpt>
      <trkpt lat="45.16125" lon="5.68154">
        <ele>376.1</ele>
        <time>2011-08-25T08:32:04Z</time>
      </trkpt>
      <trkpt lat="45.16134" lon="5.68158">
        <ele>375.8</ele>
        <time>2011-08-25T08:32:05Z</time>
      </trkpt>
      <trkpt lat="45.16142" lon="5.68163">
        <ele>375.7</ele>
        <time>2011-08-25T08:32:06Z</time>
      </trkpt>
      <trkpt lat="45.16149" lon="5.68169">
        <ele>375.7</ele>
        <time>2011-08-25T08:32:07Z</time>
      </trkpt>
      <trkpt lat="45.16157" lon="5.68174">
        <ele>375.3</ele>
        <time>2011-08-25T08:32:08Z</time>
      </trkpt>
      <trkpt lat="45.16164" lon="5.6818">
        <ele>375.1</ele>
        <time>2011-08-25T08:32:09Z</time>
      </trkpt>
      <trkpt lat="45.16172" lon="5.68186">
        <ele>374.7</ele>
        <time>2011-08-25T08:32:10Z</time>
      </trkpt>
      <trkpt lat="45.16179" lon="5.68192">
        <ele>374.4</ele>
        <time>2011-08-25T08:32:11Z</time>
      </trkpt>
      <trkpt lat="45.16187" lon="5.68197">
        <ele>374</ele>
        <time>2011-08-25T08:32:12Z</time>
      </trkpt>
      <trkpt lat="45.16195" lon="5.68202">
        <ele>373.5</ele>
        <time>2011-08-25T08:32:13Z</time>
      </trkpt>
      <trkpt lat="45.16202" lon="5.68205">
        <ele>373.3</ele>
        <time>2011-08-25T08:32:14Z</time>
      </trkpt>
      <trkpt lat="45.1621" lon="5.68207">
        <ele>372.8</ele>
        <time>2011-08-25T08:32:15Z</time>
      </trkpt>
      <trkpt lat="45.16215" lon="5.68207">
        <ele>372.7</ele>
        <time>2011-08-25T08:32:16Z</time>
      </trkpt>
      <trkpt lat="45.1622" lon="5.68207">
        <ele>372.4</ele>
        <time>2011-08-25T08:32:18Z</time>
      </trkpt>
      <trkpt lat="45.16216" lon="5.68203">
        <ele>371.3</ele>
        <time>2011-08-25T08:32:24Z</time>
      </trkpt>
      <trkpt lat="45.16209" lon="5.68202">
        <ele>370.7</ele>
        <time>2011-08-25T08:32:29Z</time>
      </trkpt>
      <trkpt lat="45.16201" lon="5.68207">
        <ele>370.6</ele>
        <time>2011-08-25T08:32:31Z</time>
      </trkpt>
      <trkpt lat="45.16192" lon="5.68212">
        <ele>370.5</ele>
        <time>2011-08-25T08:32:33Z</time>
      </trkpt>
      <trkpt lat="45.16187" lon="5.68214">
        <ele>370.4</ele>
        <time>2011-08-25T08:32:34Z</time>
      </trkpt>
      <trkpt lat="45.16182" lon="5.68217">
        <ele>369.9</ele>
        <time>2011-08-25T08:32:35Z</time>
      </trkpt>
      <trkpt lat="45.16177" lon="5.68222">
        <ele>369.2</ele>
        <time>2011-08-25T08:32:36Z</time>
      </trkpt>
      <trkpt lat="45.16174" lon="5.6823">
        <ele>368.9</ele>
        <time>2011-08-25T08:32:37Z</time>
      </trkpt>
      <trkpt lat="45.16169" lon="5.68236">
        <ele>368.3</ele>
        <time>2011-08-25T08:32:38Z</time>
      </trkpt>
      <trkpt lat="45.16165" lon="5.68244">
        <ele>367.8</ele>
        <time>2011-08-25T08:32:39Z</time>
      </trkpt>
      <trkpt lat="45.16162" lon="5.68251">
        <ele>367.4</ele>
        <time>2011-08-25T08:32:40Z</time>
      </trkpt>
      <trkpt lat="45.16156" lon="5.68258">
        <ele>367.1</ele>
        <time>2011-08-25T08:32:42Z</time>
      </trkpt>
      <trkpt lat="45.1615" lon="5.6826">
        <ele>365.9</ele>
        <time>2011-08-25T08:32:45Z</time>
      </trkpt>
      <trkpt lat="45.16145" lon="5.68264">
        <ele>364.7</ele>
        <time>2011-08-25T08:32:48Z</time>
      </trkpt>
      <trkpt lat="45.16146" lon="5.68273">
        <ele>362.1</ele>
        <time>2011-08-25T08:32:50Z</time>
      </trkpt>
      <trkpt lat="45.16153" lon="5.68281">
        <ele>358.9</ele>
        <time>2011-08-25T08:32:52Z</time>
      </trkpt>
      <trkpt lat="45.16159" lon="5.68283">
        <ele>358.1</ele>
        <time>2011-08-25T08:32:53Z</time>
      </trkpt>
      <trkpt lat="45.16164" lon="5.68283">
        <ele>357.8</ele>
        <time>2011-08-25T08:32:54Z</time>
      </trkpt>
      <trkpt lat="45.16171" lon="5.68283">
        <ele>356.3</ele>
        <time>2011-08-25T08:32:55Z</time>
      </trkpt>
      <trkpt lat="45.16177" lon="5.68282">
        <ele>355.2</ele>
        <time>2011-08-25T08:32:56Z</time>
      </trkpt>
      <trkpt lat="45.16183" lon="5.6828">
        <ele>354.6</ele>
        <time>2011-08-25T08:32:57Z</time>
      </trkpt>
      <trkpt lat="45.1619" lon="5.6828">
        <ele>354.6</ele>
        <time>2011-08-25T08:32:59Z</time>
      </trkpt>
      <trkpt lat="45.16194" lon="5.68284">
        <ele>354.4</ele>
        <time>2011-08-25T08:33:02Z</time>
      </trkpt>
      <trkpt lat="45.162" lon="5.6829">
        <ele>354.5</ele>
        <time>2011-08-25T08:33:04Z</time>
      </trkpt>
      <trkpt lat="45.16204" lon="5.68294">
        <ele>354.7</ele>
        <time>2011-08-25T08:33:05Z</time>
      </trkpt>
      <trkpt lat="45.16208" lon="5.68297">
        <ele>354.7</ele>
        <time>2011-08-25T08:33:06Z</time>
      </trkpt>
      <trkpt lat="45.16213" lon="5.68302">
        <ele>354.3</ele>
        <time>2011-08-25T08:33:07Z</time>
      </trkpt>
      <trkpt lat="45.16218" lon="5.68307">
        <ele>354.1</ele>
        <time>2011-08-25T08:33:08Z</time>
      </trkpt>
      <trkpt lat="45.16224" lon="5.68311">
        <ele>353.8</ele>
        <time>2011-08-25T08:33:09Z</time>
      </trkpt>
      <trkpt lat="45.1623" lon="5.68315">
        <ele>353.4</ele>
        <time>2011-08-25T08:33:10Z</time>
      </trkpt>
      <trkpt lat="45.16236" lon="5.68321">
        <ele>352.9</ele>
        <time>2011-08-25T08:33:11Z</time>
      </trkpt>
      <trkpt lat="45.16242" lon="5.68326">
        <ele>352.3</ele>
        <time>2011-08-25T08:33:12Z</time>
      </trkpt>
      <trkpt lat="45.16248" lon="5.68331">
        <ele>351.6</ele>
        <time>2011-08-25T08:33:13Z</time>
      </trkpt>
      <trkpt lat="45.16253" lon="5.68336">
        <ele>351</ele>
        <time>2011-08-25T08:33:14Z</time>
      </trkpt>
      <trkpt lat="45.16257" lon="5.68341">
        <ele>350.3</ele>
        <time>2011-08-25T08:33:15Z</time>
      </trkpt>
      <trkpt lat="45.16262" lon="5.68344">
        <ele>349.3</ele>
        <time>2011-08-25T08:33:16Z</time>
      </trkpt>
      <trkpt lat="45.16266" lon="5.68347">
        <ele>348.2</ele>
        <time>2011-08-25T08:33:17Z</time>
      </trkpt>
      <trkpt lat="45.16273" lon="5.68352">
        <ele>347.6</ele>
        <time>2011-08-25T08:33:19Z</time>
      </trkpt>
      <trkpt lat="45.16277" lon="5.68356">
        <ele>347.4</ele>
        <time>2011-08-25T08:33:20Z</time>
      </trkpt>
      <trkpt lat="45.16282" lon="5.68359">
        <ele>347</ele>
        <time>2011-08-25T08:33:21Z</time>
      </trkpt>
      <trkpt lat="45.16287" lon="5.68362">
        <ele>346.5</ele>
        <time>2011-08-25T08:33:22Z</time>
      </trkpt>
      <trkpt lat="45.16293" lon="5.68365">
        <ele>346.4</ele>
        <time>2011-08-25T08:33:23Z</time>
      </trkpt>
      <trkpt lat="45.16298" lon="5.68366">
        <ele>346.3</ele>
        <time>2011-08-25T08:33:24Z</time>
      </trkpt>
      <trkpt lat="45.16303" lon="5.68367">
        <ele>346</ele>
        <time>2011-08-25T08:33:25Z</time>
      </trkpt>
      <trkpt lat="45.1631" lon="5.6837">
        <ele>345.7</ele>
        <time>2011-08-25T08:33:27Z</time>
      </trkpt>
      <trkpt lat="45.16312" lon="5.68378">
        <ele>343.7</ele>
        <time>2011-08-25T08:33:30Z</time>
      </trkpt>
      <trkpt lat="45.16281" lon="5.68496">
        <ele>331.8</ele>
        <time>2011-08-25T08:33:44Z</time>
      </trkpt>
      <trkpt lat="45.16279" lon="5.68507">
        <ele>330.8</ele>
        <time>2011-08-25T08:33:45Z</time>
      </trkpt>
      <trkpt lat="45.16278" lon="5.68519">
        <ele>330.2</ele>
        <time>2011-08-25T08:33:46Z</time>
      </trkpt>
      <trkpt lat="45.16277" lon="5.68531">
        <ele>329.7</ele>
        <time>2011-08-25T08:33:47Z</time>
      </trkpt>
      <trkpt lat="45.16277" lon="5.68543">
        <ele>328.2</ele>
        <time>2011-08-25T08:33:48Z</time>
      </trkpt>
      <trkpt lat="45.16278" lon="5.68554">
        <ele>327.8</ele>
        <time>2011-08-25T08:33:49Z</time>
      </trkpt>
      <trkpt lat="45.16282" lon="5.68565">
        <ele>326.5</ele>
        <time>2011-08-25T08:33:50Z</time>
      </trkpt>
      <trkpt lat="45.16286" lon="5.68576">
        <ele>325.5</ele>
        <time>2011-08-25T08:33:51Z</time>
      </trkpt>
      <trkpt lat="45.16292" lon="5.68586">
        <ele>324.1</ele>
        <time>2011-08-25T08:33:52Z</time>
      </trkpt>
      <trkpt lat="45.16298" lon="5.68596">
        <ele>323.5</ele>
        <time>2011-08-25T08:33:53Z</time>
      </trkpt>
      <trkpt lat="45.16304" lon="5.68604">
        <ele>322.9</ele>
        <time>2011-08-25T08:33:54Z</time>
      </trkpt>
      <trkpt lat="45.16308" lon="5.68611">
        <ele>322.5</ele>
        <time>2011-08-25T08:33:55Z</time>
      </trkpt>
      <trkpt lat="45.16313" lon="5.68618">
        <ele>321.1</ele>
        <time>2011-08-25T08:33:56Z</time>
      </trkpt>
      <trkpt lat="45.16318" lon="5.68626">
        <ele>320.1</ele>
        <time>2011-08-25T08:33:57Z</time>
      </trkpt>
      <trkpt lat="45.16323" lon="5.68634">
        <ele>319.6</ele>
        <time>2011-08-25T08:33:58Z</time>
      </trkpt>
      <trkpt lat="45.16329" lon="5.68642">
        <ele>319.6</ele>
        <time>2011-08-25T08:33:59Z</time>
      </trkpt>
      <trkpt lat="45.16335" lon="5.6865">
        <ele>319.2</ele>
        <time>2011-08-25T08:34:00Z</time>
      </trkpt>
      <trkpt lat="45.16341" lon="5.68659">
        <ele>319</ele>
        <time>2011-08-25T08:34:01Z</time>
      </trkpt>
      <trkpt lat="45.16348" lon="5.68668">
        <ele>318.4</ele>
        <time>2011-08-25T08:34:02Z</time>
      </trkpt>
      <trkpt lat="45.16354" lon="5.68676">
        <ele>317.8</ele>
        <time>2011-08-25T08:34:03Z</time>
      </trkpt>
      <trkpt lat="45.16361" lon="5.68686">
        <ele>317.3</ele>
        <time>2011-08-25T08:34:04Z</time>
      </trkpt>
      <trkpt lat="45.16368" lon="5.68695">
        <ele>316.6</ele>
        <time>2011-08-25T08:34:05Z</time>
      </trkpt>
      <trkpt lat="45.16375" lon="5.68704">
        <ele>316</ele>
        <time>2011-08-25T08:34:06Z</time>
      </trkpt>
      <trkpt lat="45.16382" lon="5.68714">
        <ele>315.3</ele>
        <time>2011-08-25T08:34:07Z</time>
      </trkpt>
      <trkpt lat="45.16389" lon="5.68724">
        <ele>314.9</ele>
        <time>2011-08-25T08:34:08Z</time>
      </trkpt>
      <trkpt lat="45.16396" lon="5.68732">
        <ele>314.7</ele>
        <time>2011-08-25T08:34:09Z</time>
      </trkpt>
      <trkpt lat="45.16402" lon="5.68739">
        <ele>314.8</ele>
        <time>2011-08-25T08:34:10Z</time>
      </trkpt>
      <trkpt lat="45.16407" lon="5.68745">
        <ele>314.6</ele>
        <time>2011-08-25T08:34:11Z</time>
      </trkpt>
      <trkpt lat="45.1641" lon="5.6875">
        <ele>314.3</ele>
        <time>2011-08-25T08:34:12Z</time>
      </trkpt>
      <trkpt lat="45.16415" lon="5.6876">
        <ele>314.5</ele>
        <time>2011-08-25T08:34:14Z</time>
      </trkpt>
      <trkpt lat="45.16419" lon="5.68765">
        <ele>314.6</ele>
        <time>2011-08-25T08:34:15Z</time>
      </trkpt>
      <trkpt lat="45.16424" lon="5.6877">
        <ele>314.7</ele>
        <time>2011-08-25T08:34:16Z</time>
      </trkpt>
      <trkpt lat="45.16428" lon="5.68777">
        <ele>314.6</ele>
        <time>2011-08-25T08:34:17Z</time>
      </trkpt>
      <trkpt lat="45.16432" lon="5.68783">
        <ele>314.7</ele>
        <time>2011-08-25T08:34:18Z</time>
      </trkpt>
      <trkpt lat="45.16436" lon="5.68788">
        <ele>314.9</ele>
        <time>2011-08-25T08:34:19Z</time>
      </trkpt>
      <trkpt lat="45.16441" lon="5.68792">
        <ele>315</ele>
        <time>2011-08-25T08:34:20Z</time>
      </trkpt>
      <trkpt lat="45.16447" lon="5.68795">
        <ele>314.7</ele>
        <time>2011-08-25T08:34:21Z</time>
      </trkpt>
      <trkpt lat="45.16454" lon="5.68801">
        <ele>314</ele>
        <time>2011-08-25T08:34:22Z</time>
      </trkpt>
      <trkpt lat="45.1646" lon="5.68806">
        <ele>313.4</ele>
        <time>2011-08-25T08:34:23Z</time>
      </trkpt>
      <trkpt lat="45.16466" lon="5.68812">
        <ele>312.9</ele>
        <time>2011-08-25T08:34:24Z</time>
      </trkpt>
      <trkpt lat="45.16473" lon="5.68818">
        <ele>311.6</ele>
        <time>2011-08-25T08:34:25Z</time>
      </trkpt>
      <trkpt lat="45.16481" lon="5.68823">
        <ele>310.6</ele>
        <time>2011-08-25T08:34:26Z</time>
      </trkpt>
      <trkpt lat="45.16487" lon="5.6883">
        <ele>309.6</ele>
        <time>2011-08-25T08:34:27Z</time>
      </trkpt>
      <trkpt lat="45.16494" lon="5.68837">
        <ele>308.9</ele>
        <time>2011-08-25T08:34:28Z</time>
      </trkpt>
      <trkpt lat="45.16499" lon="5.68844">
        <ele>307.9</ele>
        <time>2011-08-25T08:34:29Z</time>
      </trkpt>
      <trkpt lat="45.16504" lon="5.68851">
        <ele>307.6</ele>
        <time>2011-08-25T08:34:30Z</time>
      </trkpt>
      <trkpt lat="45.16509" lon="5.68858">
        <ele>306.8</ele>
        <time>2011-08-25T08:34:31Z</time>
      </trkpt>
      <trkpt lat="45.16515" lon="5.68865">
        <ele>305.9</ele>
        <time>2011-08-25T08:34:32Z</time>
      </trkpt>
      <trkpt lat="45.1652" lon="5.68873">
        <ele>304.8</ele>
        <time>2011-08-25T08:34:33Z</time>
      </trkpt>
      <trkpt lat="45.16526" lon="5.68881">
        <ele>303.9</ele>
        <time>2011-08-25T08:34:34Z</time>
      </trkpt>
      <trkpt lat="45.1653" lon="5.68888">
        <ele>303.3</ele>
        <time>2011-08-25T08:34:35Z</time>
      </trkpt>
      <trkpt lat="45.16534" lon="5.68893">
        <ele>302.7</ele>
        <time>2011-08-25T08:34:36Z</time>
      </trkpt>
      <trkpt lat="45.16538" lon="5.68899">
        <ele>302.3</ele>
        <time>2011-08-25T08:34:38Z</time>
      </trkpt>
      <trkpt lat="45.16542" lon="5.68906">
        <ele>302</ele>
        <time>2011-08-25T08:34:40Z</time>
      </trkpt>
      <trkpt lat="45.16547" lon="5.68915">
        <ele>301.6</ele>
        <time>2011-08-25T08:34:42Z</time>
      </trkpt>
      <trkpt lat="45.16553" lon="5.68922">
        <ele>301.7</ele>
        <time>2011-08-25T08:34:44Z</time>
      </trkpt>
      <trkpt lat="45.16557" lon="5.68926">
        <ele>301.5</ele>
        <time>2011-08-25T08:34:45Z</time>
      </trkpt>
      <trkpt lat="45.16561" lon="5.6893">
        <ele>301.3</ele>
        <time>2011-08-25T08:34:46Z</time>
      </trkpt>
      <trkpt lat="45.16567" lon="5.68936">
        <ele>300.8</ele>
        <time>2011-08-25T08:34:48Z</time>
      </trkpt>
      <trkpt lat="45.16574" lon="5.68943">
        <ele>299.8</ele>
        <time>2011-08-25T08:34:50Z</time>
      </trkpt>
      <trkpt lat="45.16581" lon="5.68951">
        <ele>299</ele>
        <time>2011-08-25T08:34:52Z</time>
      </trkpt>
      <trkpt lat="45.16584" lon="5.68956">
        <ele>298.7</ele>
        <time>2011-08-25T08:34:53Z</time>
      </trkpt>
      <trkpt lat="45.16589" lon="5.6896">
        <ele>298.6</ele>
        <time>2011-08-25T08:34:55Z</time>
      </trkpt>
      <trkpt lat="45.16592" lon="5.68966">
        <ele>298.2</ele>
        <time>2011-08-25T08:34:57Z</time>
      </trkpt>
      <trkpt lat="45.16593" lon="5.68978">
        <ele>297.4</ele>
        <time>2011-08-25T08:34:59Z</time>
      </trkpt>
      <trkpt lat="45.16595" lon="5.6899">
        <ele>297</ele>
        <time>2011-08-25T08:35:01Z</time>
      </trkpt>
      <trkpt lat="45.16609" lon="5.69105">
        <ele>288</ele>
        <time>2011-08-25T08:35:38Z</time>
      </trkpt>
      <trkpt lat="45.16608" lon="5.69098">
        <ele>288.4</ele>
        <time>2011-08-25T08:35:45Z</time>
      </trkpt>
      <trkpt lat="45.16611" lon="5.6909">
        <ele>288.8</ele>
        <time>2011-08-25T08:35:47Z</time>
      </trkpt>
      <trkpt lat="45.16615" lon="5.6908">
        <ele>288.6</ele>
        <time>2011-08-25T08:35:49Z</time>
      </trkpt>
      <trkpt lat="45.16619" lon="5.69072">
        <ele>288.3</ele>
        <time>2011-08-25T08:35:51Z</time>
      </trkpt>
      <trkpt lat="45.16626" lon="5.69069">
        <ele>287.9</ele>
        <time>2011-08-25T08:35:53Z</time>
      </trkpt>
      <trkpt lat="45.1663" lon="5.69068">
        <ele>287.8</ele>
        <time>2011-08-25T08:35:54Z</time>
      </trkpt>
      <trkpt lat="45.16635" lon="5.69067">
        <ele>287.5</ele>
        <time>2011-08-25T08:35:55Z</time>
      </trkpt>
      <trkpt lat="45.1664" lon="5.69066">
        <ele>287.5</ele>
        <time>2011-08-25T08:35:56Z</time>
      </trkpt>
      <trkpt lat="45.16645" lon="5.69064">
        <ele>287.1</ele>
        <time>2011-08-25T08:35:57Z</time>
      </trkpt>
      <trkpt lat="45.1665" lon="5.69063">
        <ele>286.9</ele>
        <time>2011-08-25T08:35:58Z</time>
      </trkpt>
      <trkpt lat="45.16655" lon="5.69061">
        <ele>287.1</ele>
        <time>2011-08-25T08:35:59Z</time>
      </trkpt>
      <trkpt lat="45.1666" lon="5.69059">
        <ele>286.9</ele>
        <time>2011-08-25T08:36:00Z</time>
      </trkpt>
      <trkpt lat="45.16665" lon="5.69057">
        <ele>286.8</ele>
        <time>2011-08-25T08:36:01Z</time>
      </trkpt>
      <trkpt lat="45.1667" lon="5.69054">
        <ele>286.9</ele>
        <time>2011-08-25T08:36:02Z</time>
      </trkpt>
      <trkpt lat="45.16675" lon="5.69045">
        <ele>286.7</ele>
        <time>2011-08-25T08:36:04Z</time>
      </trkpt>
      <trkpt lat="45.16675" lon="5.69034">
        <ele>287</ele>
        <time>2011-08-25T08:36:06Z</time>
      </trkpt>
      <trkpt lat="45.16675" lon="5.69024">
        <ele>286.3</ele>
        <time>2011-08-25T08:36:08Z</time>
      </trkpt>
      <trkpt lat="45.16678" lon="5.69014">
        <ele>286.3</ele>
        <time>2011-08-25T08:36:10Z</time>
      </trkpt>
      <trkpt lat="45.16684" lon="5.69006">
        <ele>286.3</ele>
        <time>2011-08-25T08:36:12Z</time>
      </trkpt>
      <trkpt lat="45.16692" lon="5.69004">
        <ele>286</ele>
        <time>2011-08-25T08:36:14Z</time>
      </trkpt>
      <trkpt lat="45.16697" lon="5.69008">
        <ele>285.8</ele>
        <time>2011-08-25T08:36:15Z</time>
      </trkpt>
      <trkpt lat="45.16702" lon="5.69015">
        <ele>285.5</ele>
        <time>2011-08-25T08:36:16Z</time>
      </trkpt>
      <trkpt lat="45.16706" lon="5.69023">
        <ele>285.4</ele>
        <time>2011-08-25T08:36:17Z</time>
      </trkpt>
      <trkpt lat="45.16709" lon="5.69031">
        <ele>285.2</ele>
        <time>2011-08-25T08:36:18Z</time>
      </trkpt>
      <trkpt lat="45.16712" lon="5.69039">
        <ele>285</ele>
        <time>2011-08-25T08:36:19Z</time>
      </trkpt>
      <trkpt lat="45.16715" lon="5.69048">
        <ele>285</ele>
        <time>2011-08-25T08:36:20Z</time>
      </trkpt>
      <trkpt lat="45.16716" lon="5.69057">
        <ele>284.7</ele>
        <time>2011-08-25T08:36:21Z</time>
      </trkpt>
      <trkpt lat="45.16717" lon="5.69066">
        <ele>284.3</ele>
        <time>2011-08-25T08:36:22Z</time>
      </trkpt>
      <trkpt lat="45.16718" lon="5.69076">
        <ele>284.1</ele>
        <time>2011-08-25T08:36:23Z</time>
      </trkpt>
      <trkpt lat="45.16718" lon="5.69087">
        <ele>283.9</ele>
        <time>2011-08-25T08:36:24Z</time>
      </trkpt>
      <trkpt lat="45.16718" lon="5.69097">
        <ele>283.5</ele>
        <time>2011-08-25T08:36:25Z</time>
      </trkpt>
      <trkpt lat="45.16718" lon="5.69108">
        <ele>283.3</ele>
        <time>2011-08-25T08:36:26Z</time>
      </trkpt>
      <trkpt lat="45.16718" lon="5.69118">
        <ele>282.9</ele>
        <time>2011-08-25T08:36:27Z</time>
      </trkpt>
      <trkpt lat="45.16717" lon="5.69129">
        <ele>282.6</ele>
        <time>2011-08-25T08:36:28Z</time>
      </trkpt>
      <trkpt lat="45.16717" lon="5.69139">
        <ele>282.3</ele>
        <time>2011-08-25T08:36:29Z</time>
      </trkpt>
      <trkpt lat="45.16717" lon="5.6915">
        <ele>281.9</ele>
        <time>2011-08-25T08:36:30Z</time>
      </trkpt>
      <trkpt lat="45.16711" lon="5.69281">
        <ele>277.8</ele>
        <time>2011-08-25T08:36:42Z</time>
      </trkpt>
      <trkpt lat="45.16712" lon="5.69292">
        <ele>276.4</ele>
        <time>2011-08-25T08:36:43Z</time>
      </trkpt>
      <trkpt lat="45.16709" lon="5.69301">
        <ele>274.9</ele>
        <time>2011-08-25T08:36:44Z</time>
      </trkpt>
      <trkpt lat="45.16708" lon="5.69311">
        <ele>275.8</ele>
        <time>2011-08-25T08:36:45Z</time>
      </trkpt>
      <trkpt lat="45.16706" lon="5.69321">
        <ele>275.6</ele>
        <time>2011-08-25T08:36:46Z</time>
      </trkpt>
      <trkpt lat="45.16705" lon="5.69331">
        <ele>275</ele>
        <time>2011-08-25T08:36:47Z</time>
      </trkpt>
      <trkpt lat="45.16704" lon="5.69341">
        <ele>275.4</ele>
        <time>2011-08-25T08:36:48Z</time>
      </trkpt>
      <trkpt lat="45.16704" lon="5.69351">
        <ele>275.4</ele>
        <time>2011-08-25T08:36:49Z</time>
      </trkpt>
      <trkpt lat="45.16706" lon="5.69362">
        <ele>276.8</ele>
        <time>2011-08-25T08:36:50Z</time>
      </trkpt>
      <trkpt lat="45.16706" lon="5.69372">
        <ele>276.9</ele>
        <time>2011-08-25T08:36:51Z</time>
      </trkpt>
      <trkpt lat="45.16706" lon="5.69381">
        <ele>276.8</ele>
        <time>2011-08-25T08:36:52Z</time>
      </trkpt>
      <trkpt lat="45.16706" lon="5.69387">
        <ele>276</ele>
        <time>2011-08-25T08:36:53Z</time>
      </trkpt>
      <trkpt lat="45.1671" lon="5.69396">
        <ele>275.3</ele>
        <time>2011-08-25T08:36:54Z</time>
      </trkpt>
      <trkpt lat="45.16714" lon="5.69402">
        <ele>275.6</ele>
        <time>2011-08-25T08:36:55Z</time>
      </trkpt>
      <trkpt lat="45.1672" lon="5.69408">
        <ele>276</ele>
        <time>2011-08-25T08:36:56Z</time>
      </trkpt>
      <trkpt lat="45.16726" lon="5.69412">
        <ele>276.7</ele>
        <time>2011-08-25T08:36:57Z</time>
      </trkpt>
      <trkpt lat="45.16732" lon="5.69414">
        <ele>277.2</ele>
        <time>2011-08-25T08:36:58Z</time>
      </trkpt>
      <trkpt lat="45.16737" lon="5.69416">
        <ele>278</ele>
        <time>2011-08-25T08:36:59Z</time>
      </trkpt>
      <trkpt lat="45.16743" lon="5.69418">
        <ele>278.3</ele>
        <time>2011-08-25T08:37:00Z</time>
      </trkpt>
      <trkpt lat="45.16749" lon="5.69417">
        <ele>278.5</ele>
        <time>2011-08-25T08:37:01Z</time>
      </trkpt>
      <trkpt lat="45.16756" lon="5.69415">
        <ele>279.1</ele>
        <time>2011-08-25T08:37:02Z</time>
      </trkpt>
      <trkpt lat="45.16762" lon="5.69413">
        <ele>278.9</ele>
        <time>2011-08-25T08:37:03Z</time>
      </trkpt>
      <trkpt lat="45.16767" lon="5.69417">
        <ele>279.6</ele>
        <time>2011-08-25T08:37:04Z</time>
      </trkpt>
      <trkpt lat="45.16773" lon="5.69417">
        <ele>280.1</ele>
        <time>2011-08-25T08:37:05Z</time>
      </trkpt>
      <trkpt lat="45.16778" lon="5.69417">
        <ele>279.9</ele>
        <time>2011-08-25T08:37:06Z</time>
      </trkpt>
      <trkpt lat="45.16783" lon="5.69418">
        <ele>279.7</ele>
        <time>2011-08-25T08:37:07Z</time>
      </trkpt>
      <trkpt lat="45.16789" lon="5.69419">
        <ele>279.7</ele>
        <time>2011-08-25T08:37:08Z</time>
      </trkpt>
      <trkpt lat="45.16794" lon="5.69419">
        <ele>279.6</ele>
        <time>2011-08-25T08:37:09Z</time>
      </trkpt>
      <trkpt lat="45.168" lon="5.69419">
        <ele>279.7</ele>
        <time>2011-08-25T08:37:10Z</time>
      </trkpt>
      <trkpt lat="45.16806" lon="5.69419">
        <ele>279.5</ele>
        <time>2011-08-25T08:37:11Z</time>
      </trkpt>
      <trkpt lat="45.16812" lon="5.69418">
        <ele>279.5</ele>
        <time>2011-08-25T08:37:12Z</time>
      </trkpt>
      <trkpt lat="45.16818" lon="5.69418">
        <ele>279.4</ele>
        <time>2011-08-25T08:37:13Z</time>
      </trkpt>
      <trkpt lat="45.16824" lon="5.69417">
        <ele>279</ele>
        <time>2011-08-25T08:37:14Z</time>
      </trkpt>
      <trkpt lat="45.1683" lon="5.69417">
        <ele>279</ele>
        <time>2011-08-25T08:37:15Z</time>
      </trkpt>
      <trkpt lat="45.16836" lon="5.69416">
        <ele>278.9</ele>
        <time>2011-08-25T08:37:16Z</time>
      </trkpt>
      <trkpt lat="45.16842" lon="5.69416">
        <ele>278.7</ele>
        <time>2011-08-25T08:37:17Z</time>
      </trkpt>
      <trkpt lat="45.16849" lon="5.69416">
        <ele>278.9</ele>
        <time>2011-08-25T08:37:18Z</time>
      </trkpt>
      <trkpt lat="45.16855" lon="5.69416">
        <ele>278.8</ele>
        <time>2011-08-25T08:37:19Z</time>
      </trkpt>
      <trkpt lat="45.16861" lon="5.69416">
        <ele>278.8</ele>
        <time>2011-08-25T08:37:20Z</time>
      </trkpt>
      <trkpt lat="45.16867" lon="5.69416">
        <ele>278.7</ele>
        <time>2011-08-25T08:37:21Z</time>
      </trkpt>
      <trkpt lat="45.16873" lon="5.69415">
        <ele>278.7</ele>
        <time>2011-08-25T08:37:22Z</time>
      </trkpt>
      <trkpt lat="45.16879" lon="5.69415">
        <ele>278.4</ele>
        <time>2011-08-25T08:37:23Z</time>
      </trkpt>
      <trkpt lat="45.16885" lon="5.69416">
        <ele>278.2</ele>
        <time>2011-08-25T08:37:24Z</time>
      </trkpt>
      <trkpt lat="45.16892" lon="5.69416">
        <ele>277.7</ele>
        <time>2011-08-25T08:37:25Z</time>
      </trkpt>
      <trkpt lat="45.16898" lon="5.69416">
        <ele>277.8</ele>
        <time>2011-08-25T08:37:26Z</time>
      </trkpt>
      <trkpt lat="45.16903" lon="5.69417">
        <ele>278</ele>
        <time>2011-08-25T08:37:27Z</time>
      </trkpt>
      <trkpt lat="45.16909" lon="5.69418">
        <ele>278.2</ele>
        <time>2011-08-25T08:37:28Z</time>
      </trkpt>
      <trkpt lat="45.16914" lon="5.69416">
        <ele>277.8</ele>
        <time>2011-08-25T08:37:29Z</time>
      </trkpt>
      <trkpt lat="45.16922" lon="5.69418">
        <ele>279.1</ele>
        <time>2011-08-25T08:37:31Z</time>
      </trkpt>
      <trkpt lat="45.16931" lon="5.69418">
        <ele>279.8</ele>
        <time>2011-08-25T08:37:33Z</time>
      </trkpt>
      <trkpt lat="45.16936" lon="5.69417">
        <ele>280.2</ele>
        <time>2011-08-25T08:37:34Z</time>
      </trkpt>
      <trkpt lat="45.16941" lon="5.69417">
        <ele>280.6</ele>
        <time>2011-08-25T08:37:35Z</time>
      </trkpt>
      <trkpt lat="45.16946" lon="5.69417">
        <ele>280.7</ele>
        <time>2011-08-25T08:37:36Z</time>
      </trkpt>
      <trkpt lat="45.16954" lon="5.69418">
        <ele>280.9</ele>
        <time>2011-08-25T08:37:38Z</time>
      </trkpt>
      <trkpt lat="45.16962" lon="5.69413">
        <ele>279.1</ele>
        <time>2011-08-25T08:37:40Z</time>
      </trkpt>
      <trkpt lat="45.16969" lon="5.6941">
        <ele>278.9</ele>
        <time>2011-08-25T08:37:42Z</time>
      </trkpt>
      <trkpt lat="45.16975" lon="5.69408">
        <ele>280.5</ele>
        <time>2011-08-25T08:37:44Z</time>
      </trkpt>
      <trkpt lat="45.16982" lon="5.69404">
        <ele>280.5</ele>
        <time>2011-08-25T08:37:46Z</time>
      </trkpt>
      <trkpt lat="45.16988" lon="5.69399">
        <ele>281.2</ele>
        <time>2011-08-25T08:37:48Z</time>
      </trkpt>
      <trkpt lat="45.16992" lon="5.69396">
        <ele>281.5</ele>
        <time>2011-08-25T08:37:51Z</time>
      </trkpt>
      <trkpt lat="45.1699" lon="5.69404">
        <ele>282.2</ele>
        <time>2011-08-25T08:37:59Z</time>
      </trkpt>
      <trkpt lat="45.16988" lon="5.69413">
        <ele>282.7</ele>
        <time>2011-08-25T08:38:02Z</time>
      </trkpt>
      <trkpt lat="45.16988" lon="5.6942">
        <ele>283.2</ele>
        <time>2011-08-25T08:38:03Z</time>
      </trkpt>
      <trkpt lat="45.16987" lon="5.69427">
        <ele>283.7</ele>
        <time>2011-08-25T08:38:07Z</time>
      </trkpt>
      <trkpt lat="45.16983" lon="5.69432">
        <ele>284.3</ele>
        <time>2011-08-25T08:38:12Z</time>
      </trkpt>
      <trkpt lat="45.1698" lon="5.69439">
        <ele>285</ele>
        <time>2011-08-25T08:38:15Z</time>
      </trkpt>
      <trkpt lat="45.16976" lon="5.69443">
        <ele>286.3</ele>
        <time>2011-08-25T08:38:23Z</time>
      </trkpt>
      <trkpt lat="45.16983" lon="5.69437">
        <ele>297</ele>
        <time>2011-08-25T08:39:08Z</time>
      </trkpt>
      <trkpt lat="45.16979" lon="5.69442">
        <ele>310.5</ele>
        <time>2011-08-25T08:39:33Z</time>
      </trkpt>
      <trkpt lat="45.1698" lon="5.69448">
        <ele>311</ele>
        <time>2011-08-25T08:39:43Z</time>
      </trkpt>
      <trkpt lat="45.16975" lon="5.6945">
        <ele>315.9</ele>
        <time>2011-08-25T08:40:55Z</time>
      </trkpt>
      <trkpt lat="45.16976" lon="5.69438">
        <ele>318.3</ele>
        <time>2011-08-25T08:41:15Z</time>
      </trkpt>
      <trkpt lat="45.16978" lon="5.69432">
        <ele>320</ele>
        <time>2011-08-25T08:41:19Z</time>
      </trkpt>
      <trkpt lat="45.16976" lon="5.6944">
        <ele>337.1</ele>
        <time>2011-08-25T08:43:47Z</time>
      </trkpt>
      <trkpt lat="45.16981" lon="5.69446">
        <ele>333</ele>
        <time>2011-08-25T08:44:10Z</time>
      </trkpt>
      <trkpt lat="45.16976" lon="5.69446">
        <ele>332</ele>
        <time>2011-08-25T08:44:14Z</time>
      </trkpt>
      <trkpt lat="45.16972" lon="5.69443">
        <ele>331.5</ele>
        <time>2011-08-25T08:44:18Z</time>
      </trkpt>
      <trkpt lat="45.16972" lon="5.69443">
        <ele>331.5</ele>
        <time>2011-08-25T08:44:18Z</time>
      </trkpt>
      <trkpt lat="45.16972" lon="5.69443">
        <ele>331.5</ele>
        <time>2011-08-25T08:44:37Z</time>
      </trkpt>
      <trkpt lat="45.16967" lon="5.69441">
        <ele>335</ele>
        <time>2011-08-25T08:44:38Z</time>
      </trkpt>
      <trkpt lat="45.16962" lon="5.69439">
        <ele>336.4</ele>
        <time>2011-08-25T08:44:42Z</time>
      </trkpt>
      <trkpt lat="45.16958" lon="5.69436">
        <ele>338.1</ele>
        <time>2011-08-25T08:44:45Z</time>
      </trkpt>
      <trkpt lat="45.16951" lon="5.69424">
        <ele>336.1</ele>
        <time>2011-08-25T08:44:48Z</time>
      </trkpt>
      <trkpt lat="45.16949" lon="5.69418">
        <ele>326.4</ele>
        <time>2011-08-25T08:44:50Z</time>
      </trkpt>
      <trkpt lat="45.16946" lon="5.69412">
        <ele>302.2</ele>
        <time>2011-08-25T08:44:56Z</time>
      </trkpt>
      <trkpt lat="45.16951" lon="5.69413">
        <ele>288.2</ele>
        <time>2011-08-25T08:45:09Z</time>
      </trkpt>
      <trkpt lat="45.16951" lon="5.6942">
        <ele>286.2</ele>
        <time>2011-08-25T08:45:12Z</time>
      </trkpt>
      <trkpt lat="45.16951" lon="5.69429">
        <ele>284.5</ele>
        <time>2011-08-25T08:45:15Z</time>
      </trkpt>
      <trkpt lat="45.16951" lon="5.69436">
        <ele>283.6</ele>
        <time>2011-08-25T08:45:17Z</time>
      </trkpt>
      <trkpt lat="45.1695" lon="5.69446">
        <ele>282.8</ele>
        <time>2011-08-25T08:45:19Z</time>
      </trkpt>
      <trkpt lat="45.16949" lon="5.69458">
        <ele>281.5</ele>
        <time>2011-08-25T08:45:21Z</time>
      </trkpt>
      <trkpt lat="45.16948" lon="5.6947">
        <ele>281.2</ele>
        <time>2011-08-25T08:45:23Z</time>
      </trkpt>
      <trkpt lat="45.16948" lon="5.69477">
        <ele>281.2</ele>
        <time>2011-08-25T08:45:24Z</time>
      </trkpt>
      <trkpt lat="45.16947" lon="5.69483">
        <ele>281.1</ele>
        <time>2011-08-25T08:45:25Z</time>
      </trkpt>
      <trkpt lat="45.16947" lon="5.69489">
        <ele>281</ele>
        <time>2011-08-25T08:45:26Z</time>
      </trkpt>
      <trkpt lat="45.16947" lon="5.69496">
        <ele>280.6</ele>
        <time>2011-08-25T08:45:27Z</time>
      </trkpt>
      <trkpt lat="45.16946" lon="5.69503">
        <ele>280.2</ele>
        <time>2011-08-25T08:45:28Z</time>
      </trkpt>
      <trkpt lat="45.16946" lon="5.69509">
        <ele>280</ele>
        <time>2011-08-25T08:45:29Z</time>
      </trkpt>
      <trkpt lat="45.16946" lon="5.69516">
        <ele>280</ele>
        <time>2011-08-25T08:45:30Z</time>
      </trkpt>
      <trkpt lat="45.16945" lon="5.69523">
        <ele>279.9</ele>
        <time>2011-08-25T08:45:31Z</time>
      </trkpt>
      <trkpt lat="45.16945" lon="5.69529">
        <ele>279.8</ele>
        <time>2011-08-25T08:45:32Z</time>
      </trkpt>
      <trkpt lat="45.16945" lon="5.69536">
        <ele>279.7</ele>
        <time>2011-08-25T08:45:33Z</time>
      </trkpt>
      <trkpt lat="45.16945" lon="5.69542">
        <ele>279.7</ele>
        <time>2011-08-25T08:45:34Z</time>
      </trkpt>
      <trkpt lat="45.16945" lon="5.69549">
        <ele>279.7</ele>
        <time>2011-08-25T08:45:35Z</time>
      </trkpt>
      <trkpt lat="45.16944" lon="5.69556">
        <ele>279.6</ele>
        <time>2011-08-25T08:45:36Z</time>
      </trkpt>
      <trkpt lat="45.16944" lon="5.69562">
        <ele>279.5</ele>
        <time>2011-08-25T08:45:37Z</time>
      </trkpt>
      <trkpt lat="45.16942" lon="5.69569">
        <ele>279.3</ele>
        <time>2011-08-25T08:45:38Z</time>
      </trkpt>
      <trkpt lat="45.16941" lon="5.69576">
        <ele>279</ele>
        <time>2011-08-25T08:45:39Z</time>
      </trkpt>
      <trkpt lat="45.16941" lon="5.69582">
        <ele>278.8</ele>
        <time>2011-08-25T08:45:40Z</time>
      </trkpt>
      <trkpt lat="45.1694" lon="5.69589">
        <ele>278.8</ele>
        <time>2011-08-25T08:45:41Z</time>
      </trkpt>
      <trkpt lat="45.1694" lon="5.69595">
        <ele>278.8</ele>
        <time>2011-08-25T08:45:42Z</time>
      </trkpt>
      <trkpt lat="45.16939" lon="5.69602">
        <ele>278.8</ele>
        <time>2011-08-25T08:45:43Z</time>
      </trkpt>
      <trkpt lat="45.16939" lon="5.69608">
        <ele>278.7</ele>
        <time>2011-08-25T08:45:44Z</time>
      </trkpt>
      <trkpt lat="45.16938" lon="5.69614">
        <ele>278.7</ele>
        <time>2011-08-25T08:45:45Z</time>
      </trkpt>
      <trkpt lat="45.16937" lon="5.69627">
        <ele>278.8</ele>
        <time>2011-08-25T08:45:47Z</time>
      </trkpt>
      <trkpt lat="45.16936" lon="5.69633">
        <ele>278.7</ele>
        <time>2011-08-25T08:45:48Z</time>
      </trkpt>
      <trkpt lat="45.16935" lon="5.69646">
        <ele>278.6</ele>
        <time>2011-08-25T08:45:50Z</time>
      </trkpt>
      <trkpt lat="45.16934" lon="5.69657">
        <ele>279.3</ele>
        <time>2011-08-25T08:45:52Z</time>
      </trkpt>
      <trkpt lat="45.16934" lon="5.69669">
        <ele>279.7</ele>
        <time>2011-08-25T08:45:54Z</time>
      </trkpt>
      <trkpt lat="45.16935" lon="5.69676">
        <ele>280.1</ele>
        <time>2011-08-25T08:45:56Z</time>
      </trkpt>
      <trkpt lat="45.1694" lon="5.69682">
        <ele>280.6</ele>
        <time>2011-08-25T08:45:59Z</time>
      </trkpt>
      <trkpt lat="45.16944" lon="5.69683">
        <ele>280.8</ele>
        <time>2011-08-25T08:46:01Z</time>
      </trkpt>
      <trkpt lat="45.16951" lon="5.69684">
        <ele>280.9</ele>
        <time>2011-08-25T08:46:03Z</time>
      </trkpt>
      <trkpt lat="45.16959" lon="5.69685">
        <ele>281.1</ele>
        <time>2011-08-25T08:46:05Z</time>
      </trkpt>
      <trkpt lat="45.16968" lon="5.69685">
        <ele>280.8</ele>
        <time>2011-08-25T08:46:07Z</time>
      </trkpt>
      <trkpt lat="45.16973" lon="5.69685">
        <ele>280.5</ele>
        <time>2011-08-25T08:46:08Z</time>
      </trkpt>
      <trkpt lat="45.16977" lon="5.69685">
        <ele>280.3</ele>
        <time>2011-08-25T08:46:09Z</time>
      </trkpt>
      <trkpt lat="45.16982" lon="5.69685">
        <ele>280.4</ele>
        <time>2011-08-25T08:46:10Z</time>
      </trkpt>
      <trkpt lat="45.16987" lon="5.69686">
        <ele>280.3</ele>
        <time>2011-08-25T08:46:11Z</time>
      </trkpt>
      <trkpt lat="45.16995" lon="5.69687">
        <ele>280.3</ele>
        <time>2011-08-25T08:46:13Z</time>
      </trkpt>
      <trkpt lat="45.16999" lon="5.6969">
        <ele>280.3</ele>
        <time>2011-08-25T08:46:15Z</time>
      </trkpt>
      <trkpt lat="45.16999" lon="5.697">
        <ele>280.3</ele>
        <time>2011-08-25T08:46:17Z</time>
      </trkpt>
      <trkpt lat="45.16997" lon="5.69712">
        <ele>280.2</ele>
        <time>2011-08-25T08:46:19Z</time>
      </trkpt>
      <trkpt lat="45.16996" lon="5.69718">
        <ele>280.1</ele>
        <time>2011-08-25T08:46:20Z</time>
      </trkpt>
      <trkpt lat="45.16995" lon="5.69725">
        <ele>280.4</ele>
        <time>2011-08-25T08:46:21Z</time>
      </trkpt>
      <trkpt lat="45.16994" lon="5.69731">
        <ele>280.4</ele>
        <time>2011-08-25T08:46:22Z</time>
      </trkpt>
      <trkpt lat="45.16994" lon="5.69737">
        <ele>280.3</ele>
        <time>2011-08-25T08:46:23Z</time>
      </trkpt>
      <trkpt lat="45.16993" lon="5.69749">
        <ele>279.4</ele>
        <time>2011-08-25T08:46:25Z</time>
      </trkpt>
      <trkpt lat="45.16996" lon="5.69756">
        <ele>279.2</ele>
        <time>2011-08-25T08:46:27Z</time>
      </trkpt>
      <trkpt lat="45.17002" lon="5.69758">
        <ele>279</ele>
        <time>2011-08-25T08:46:29Z</time>
      </trkpt>
      <trkpt lat="45.17008" lon="5.69758">
        <ele>279</ele>
        <time>2011-08-25T08:46:31Z</time>
      </trkpt>
      <trkpt lat="45.17015" lon="5.69758">
        <ele>278</ele>
        <time>2011-08-25T08:46:33Z</time>
      </trkpt>
      <trkpt lat="45.17021" lon="5.6976">
        <ele>276.6</ele>
        <time>2011-08-25T08:46:35Z</time>
      </trkpt>
      <trkpt lat="45.17027" lon="5.69761">
        <ele>276.4</ele>
        <time>2011-08-25T08:46:37Z</time>
      </trkpt>
    </trkseg>
  </trk>
</gpx>